<?xml version="1.0" encoding="UTF-8" standalone="no" ?>
<gpx xmlns="http://www.topografix.com/GPX/1/1" xmlns:xsi="http://www.w3.org/2001/XMLSchema-instance" xsi:schemaLocation="http://www.topografix.com/GPX/1/1 http://www.topografix.com/GPX/1/1/gpx.xsd" version="1.1" creator="VisuGPX - https://www.visugpx.com">
  <metadata>
    <name>MRT LE TOUR D EVAUX LES BAINS</name>
    <desc><![CDATA[depart du camping]]></desc>
  </metadata>
  <trk>
    <name><![CDATA[MRT LE TOUR D EVAUX LES BAINS_1]]></name>
    <trkseg>
      <trkpt lat="46.17894" lon="2.48739">
        <ele>437</ele>
        <time>2015-04-18T14:03:54Z</time>
      </trkpt>
      <trkpt lat="46.17893" lon="2.487">
        <ele>433</ele>
        <time>2015-04-18T14:04:16Z</time>
      </trkpt>
      <trkpt lat="46.17894" lon="2.48695">
        <ele>432</ele>
        <time>2015-04-18T14:04:19Z</time>
      </trkpt>
      <trkpt lat="46.17896" lon="2.48692">
        <ele>432</ele>
        <time>2015-04-18T14:04:21Z</time>
      </trkpt>
      <trkpt lat="46.17899" lon="2.48692">
        <ele>431</ele>
        <time>2015-04-18T14:04:23Z</time>
      </trkpt>
      <trkpt lat="46.17903" lon="2.4869">
        <ele>431</ele>
        <time>2015-04-18T14:04:25Z</time>
      </trkpt>
      <trkpt lat="46.17906" lon="2.48687">
        <ele>431</ele>
        <time>2015-04-18T14:04:28Z</time>
      </trkpt>
      <trkpt lat="46.1791" lon="2.48684">
        <ele>431</ele>
        <time>2015-04-18T14:04:30Z</time>
      </trkpt>
      <trkpt lat="46.17914" lon="2.48683">
        <ele>431</ele>
        <time>2015-04-18T14:04:32Z</time>
      </trkpt>
      <trkpt lat="46.17917" lon="2.4868">
        <ele>431</ele>
        <time>2015-04-18T14:04:34Z</time>
      </trkpt>
      <trkpt lat="46.17921" lon="2.48678">
        <ele>431</ele>
        <time>2015-04-18T14:04:37Z</time>
      </trkpt>
      <trkpt lat="46.17925" lon="2.48676">
        <ele>431</ele>
        <time>2015-04-18T14:04:40Z</time>
      </trkpt>
      <trkpt lat="46.17928" lon="2.48676">
        <ele>431</ele>
        <time>2015-04-18T14:04:42Z</time>
      </trkpt>
      <trkpt lat="46.17931" lon="2.48677">
        <ele>431</ele>
        <time>2015-04-18T14:04:44Z</time>
      </trkpt>
      <trkpt lat="46.17934" lon="2.48677">
        <ele>431</ele>
        <time>2015-04-18T14:04:46Z</time>
      </trkpt>
      <trkpt lat="46.17937" lon="2.48676">
        <ele>431</ele>
        <time>2015-04-18T14:04:48Z</time>
      </trkpt>
      <trkpt lat="46.17941" lon="2.48675">
        <ele>431</ele>
        <time>2015-04-18T14:04:50Z</time>
      </trkpt>
      <trkpt lat="46.17944" lon="2.48674">
        <ele>431</ele>
        <time>2015-04-18T14:04:52Z</time>
      </trkpt>
      <trkpt lat="46.17945" lon="2.48675">
        <ele>431</ele>
        <time>2015-04-18T14:04:54Z</time>
      </trkpt>
      <trkpt lat="46.17947" lon="2.48679">
        <ele>431</ele>
        <time>2015-04-18T14:04:57Z</time>
      </trkpt>
      <trkpt lat="46.17949" lon="2.48682">
        <ele>431</ele>
        <time>2015-04-18T14:04:59Z</time>
      </trkpt>
      <trkpt lat="46.1795" lon="2.48686">
        <ele>431</ele>
        <time>2015-04-18T14:05:01Z</time>
      </trkpt>
      <trkpt lat="46.17953" lon="2.48689">
        <ele>431</ele>
        <time>2015-04-18T14:05:03Z</time>
      </trkpt>
      <trkpt lat="46.17956" lon="2.48691">
        <ele>431</ele>
        <time>2015-04-18T14:05:05Z</time>
      </trkpt>
      <trkpt lat="46.17959" lon="2.48692">
        <ele>431</ele>
        <time>2015-04-18T14:05:07Z</time>
      </trkpt>
      <trkpt lat="46.17961" lon="2.48691">
        <ele>431</ele>
        <time>2015-04-18T14:05:09Z</time>
      </trkpt>
      <trkpt lat="46.17965" lon="2.4869">
        <ele>431</ele>
        <time>2015-04-18T14:05:11Z</time>
      </trkpt>
      <trkpt lat="46.17968" lon="2.48686">
        <ele>431</ele>
        <time>2015-04-18T14:05:14Z</time>
      </trkpt>
      <trkpt lat="46.1797" lon="2.48685">
        <ele>431</ele>
        <time>2015-04-18T14:05:16Z</time>
      </trkpt>
      <trkpt lat="46.17971" lon="2.48685">
        <ele>431</ele>
        <time>2015-04-18T14:05:18Z</time>
      </trkpt>
      <trkpt lat="46.17973" lon="2.48686">
        <ele>431</ele>
        <time>2015-04-18T14:05:20Z</time>
      </trkpt>
      <trkpt lat="46.17975" lon="2.48686">
        <ele>431</ele>
        <time>2015-04-18T14:05:22Z</time>
      </trkpt>
      <trkpt lat="46.17978" lon="2.48686">
        <ele>431</ele>
        <time>2015-04-18T14:05:24Z</time>
      </trkpt>
      <trkpt lat="46.17981" lon="2.48687">
        <ele>431</ele>
        <time>2015-04-18T14:05:26Z</time>
      </trkpt>
      <trkpt lat="46.17985" lon="2.48685">
        <ele>430</ele>
        <time>2015-04-18T14:05:28Z</time>
      </trkpt>
      <trkpt lat="46.17989" lon="2.48686">
        <ele>430</ele>
        <time>2015-04-18T14:05:31Z</time>
      </trkpt>
      <trkpt lat="46.1799" lon="2.48689">
        <ele>430</ele>
        <time>2015-04-18T14:05:33Z</time>
      </trkpt>
      <trkpt lat="46.1799" lon="2.48692">
        <ele>430</ele>
        <time>2015-04-18T14:05:35Z</time>
      </trkpt>
      <trkpt lat="46.17991" lon="2.48696">
        <ele>430</ele>
        <time>2015-04-18T14:05:37Z</time>
      </trkpt>
      <trkpt lat="46.17992" lon="2.48699">
        <ele>430</ele>
        <time>2015-04-18T14:05:39Z</time>
      </trkpt>
      <trkpt lat="46.17995" lon="2.487">
        <ele>430</ele>
        <time>2015-04-18T14:05:41Z</time>
      </trkpt>
      <trkpt lat="46.17998" lon="2.487">
        <ele>430</ele>
        <time>2015-04-18T14:05:43Z</time>
      </trkpt>
      <trkpt lat="46.18" lon="2.48702">
        <ele>430</ele>
        <time>2015-04-18T14:05:45Z</time>
      </trkpt>
      <trkpt lat="46.18002" lon="2.48704">
        <ele>430</ele>
        <time>2015-04-18T14:05:47Z</time>
      </trkpt>
      <trkpt lat="46.18004" lon="2.48707">
        <ele>430</ele>
        <time>2015-04-18T14:05:49Z</time>
      </trkpt>
      <trkpt lat="46.18007" lon="2.48708">
        <ele>430</ele>
        <time>2015-04-18T14:05:51Z</time>
      </trkpt>
      <trkpt lat="46.1801" lon="2.48709">
        <ele>430</ele>
        <time>2015-04-18T14:05:53Z</time>
      </trkpt>
      <trkpt lat="46.18013" lon="2.48708">
        <ele>430</ele>
        <time>2015-04-18T14:05:55Z</time>
      </trkpt>
      <trkpt lat="46.18016" lon="2.48704">
        <ele>430</ele>
        <time>2015-04-18T14:05:57Z</time>
      </trkpt>
      <trkpt lat="46.18017" lon="2.487">
        <ele>430</ele>
        <time>2015-04-18T14:05:59Z</time>
      </trkpt>
      <trkpt lat="46.18019" lon="2.48699">
        <ele>430</ele>
        <time>2015-04-18T14:06:01Z</time>
      </trkpt>
      <trkpt lat="46.18021" lon="2.48698">
        <ele>430</ele>
        <time>2015-04-18T14:06:03Z</time>
      </trkpt>
      <trkpt lat="46.18021" lon="2.48701">
        <ele>430</ele>
        <time>2015-04-18T14:06:05Z</time>
      </trkpt>
      <trkpt lat="46.18024" lon="2.48705">
        <ele>430</ele>
        <time>2015-04-18T14:06:08Z</time>
      </trkpt>
      <trkpt lat="46.18027" lon="2.48707">
        <ele>430</ele>
        <time>2015-04-18T14:06:10Z</time>
      </trkpt>
      <trkpt lat="46.18028" lon="2.48709">
        <ele>430</ele>
        <time>2015-04-18T14:06:12Z</time>
      </trkpt>
      <trkpt lat="46.18031" lon="2.48714">
        <ele>430</ele>
        <time>2015-04-18T14:06:14Z</time>
      </trkpt>
      <trkpt lat="46.18034" lon="2.48715">
        <ele>430</ele>
        <time>2015-04-18T14:06:16Z</time>
      </trkpt>
      <trkpt lat="46.18036" lon="2.48717">
        <ele>430</ele>
        <time>2015-04-18T14:06:18Z</time>
      </trkpt>
      <trkpt lat="46.18039" lon="2.48715">
        <ele>430</ele>
        <time>2015-04-18T14:06:20Z</time>
      </trkpt>
      <trkpt lat="46.18042" lon="2.48712">
        <ele>430</ele>
        <time>2015-04-18T14:06:23Z</time>
      </trkpt>
      <trkpt lat="46.18043" lon="2.48709">
        <ele>430</ele>
        <time>2015-04-18T14:06:25Z</time>
      </trkpt>
      <trkpt lat="46.18045" lon="2.48704">
        <ele>430</ele>
        <time>2015-04-18T14:06:27Z</time>
      </trkpt>
      <trkpt lat="46.18048" lon="2.48699">
        <ele>430</ele>
        <time>2015-04-18T14:06:30Z</time>
      </trkpt>
      <trkpt lat="46.18049" lon="2.48698">
        <ele>430</ele>
        <time>2015-04-18T14:06:32Z</time>
      </trkpt>
      <trkpt lat="46.1805" lon="2.48698">
        <ele>430</ele>
        <time>2015-04-18T14:06:34Z</time>
      </trkpt>
      <trkpt lat="46.18053" lon="2.487">
        <ele>430</ele>
        <time>2015-04-18T14:06:36Z</time>
      </trkpt>
      <trkpt lat="46.18055" lon="2.48703">
        <ele>430</ele>
        <time>2015-04-18T14:06:39Z</time>
      </trkpt>
      <trkpt lat="46.18057" lon="2.48706">
        <ele>430</ele>
        <time>2015-04-18T14:06:41Z</time>
      </trkpt>
      <trkpt lat="46.18059" lon="2.48709">
        <ele>430</ele>
        <time>2015-04-18T14:06:43Z</time>
      </trkpt>
      <trkpt lat="46.18061" lon="2.48713">
        <ele>430</ele>
        <time>2015-04-18T14:06:45Z</time>
      </trkpt>
      <trkpt lat="46.18064" lon="2.48717">
        <ele>430</ele>
        <time>2015-04-18T14:06:48Z</time>
      </trkpt>
      <trkpt lat="46.18066" lon="2.48719">
        <ele>430</ele>
        <time>2015-04-18T14:06:50Z</time>
      </trkpt>
      <trkpt lat="46.18068" lon="2.4872">
        <ele>430</ele>
        <time>2015-04-18T14:06:52Z</time>
      </trkpt>
      <trkpt lat="46.18071" lon="2.48723">
        <ele>430</ele>
        <time>2015-04-18T14:06:55Z</time>
      </trkpt>
      <trkpt lat="46.18074" lon="2.48723">
        <ele>430</ele>
        <time>2015-04-18T14:06:58Z</time>
      </trkpt>
      <trkpt lat="46.18076" lon="2.48724">
        <ele>430</ele>
        <time>2015-04-18T14:07:00Z</time>
      </trkpt>
      <trkpt lat="46.18078" lon="2.48726">
        <ele>430</ele>
        <time>2015-04-18T14:07:02Z</time>
      </trkpt>
      <trkpt lat="46.1808" lon="2.48727">
        <ele>430</ele>
        <time>2015-04-18T14:07:04Z</time>
      </trkpt>
      <trkpt lat="46.18083" lon="2.48729">
        <ele>430</ele>
        <time>2015-04-18T14:07:06Z</time>
      </trkpt>
      <trkpt lat="46.18086" lon="2.4873">
        <ele>429</ele>
        <time>2015-04-18T14:07:08Z</time>
      </trkpt>
      <trkpt lat="46.18091" lon="2.4873">
        <ele>429</ele>
        <time>2015-04-18T14:07:10Z</time>
      </trkpt>
      <trkpt lat="46.18094" lon="2.4873">
        <ele>429</ele>
        <time>2015-04-18T14:07:13Z</time>
      </trkpt>
      <trkpt lat="46.18095" lon="2.48733">
        <ele>429</ele>
        <time>2015-04-18T14:07:15Z</time>
      </trkpt>
      <trkpt lat="46.18098" lon="2.48736">
        <ele>429</ele>
        <time>2015-04-18T14:07:18Z</time>
      </trkpt>
      <trkpt lat="46.18102" lon="2.48739">
        <ele>429</ele>
        <time>2015-04-18T14:07:21Z</time>
      </trkpt>
      <trkpt lat="46.18105" lon="2.48744">
        <ele>429</ele>
        <time>2015-04-18T14:07:24Z</time>
      </trkpt>
      <trkpt lat="46.18106" lon="2.48746">
        <ele>429</ele>
        <time>2015-04-18T14:07:26Z</time>
      </trkpt>
      <trkpt lat="46.18109" lon="2.48748">
        <ele>429</ele>
        <time>2015-04-18T14:07:28Z</time>
      </trkpt>
      <trkpt lat="46.18112" lon="2.48749">
        <ele>429</ele>
        <time>2015-04-18T14:07:30Z</time>
      </trkpt>
      <trkpt lat="46.18113" lon="2.48751">
        <ele>429</ele>
        <time>2015-04-18T14:07:32Z</time>
      </trkpt>
      <trkpt lat="46.18116" lon="2.48754">
        <ele>429</ele>
        <time>2015-04-18T14:07:35Z</time>
      </trkpt>
      <trkpt lat="46.18119" lon="2.48757">
        <ele>429</ele>
        <time>2015-04-18T14:07:38Z</time>
      </trkpt>
      <trkpt lat="46.18121" lon="2.48759">
        <ele>428</ele>
        <time>2015-04-18T14:07:40Z</time>
      </trkpt>
      <trkpt lat="46.18124" lon="2.4876">
        <ele>428</ele>
        <time>2015-04-18T14:07:42Z</time>
      </trkpt>
      <trkpt lat="46.18126" lon="2.48761">
        <ele>428</ele>
        <time>2015-04-18T14:07:44Z</time>
      </trkpt>
      <trkpt lat="46.18129" lon="2.48761">
        <ele>427</ele>
        <time>2015-04-18T14:07:46Z</time>
      </trkpt>
      <trkpt lat="46.18131" lon="2.48761">
        <ele>427</ele>
        <time>2015-04-18T14:07:48Z</time>
      </trkpt>
      <trkpt lat="46.18134" lon="2.48761">
        <ele>427</ele>
        <time>2015-04-18T14:07:50Z</time>
      </trkpt>
      <trkpt lat="46.18137" lon="2.48762">
        <ele>426</ele>
        <time>2015-04-18T14:07:52Z</time>
      </trkpt>
      <trkpt lat="46.18139" lon="2.48763">
        <ele>426</ele>
        <time>2015-04-18T14:07:54Z</time>
      </trkpt>
      <trkpt lat="46.18141" lon="2.48766">
        <ele>425</ele>
        <time>2015-04-18T14:07:56Z</time>
      </trkpt>
      <trkpt lat="46.18142" lon="2.48768">
        <ele>424</ele>
        <time>2015-04-18T14:07:58Z</time>
      </trkpt>
      <trkpt lat="46.18144" lon="2.48772">
        <ele>424</ele>
        <time>2015-04-18T14:08:00Z</time>
      </trkpt>
      <trkpt lat="46.18145" lon="2.48776">
        <ele>423</ele>
        <time>2015-04-18T14:08:02Z</time>
      </trkpt>
      <trkpt lat="46.18145" lon="2.48778">
        <ele>423</ele>
        <time>2015-04-18T14:08:04Z</time>
      </trkpt>
      <trkpt lat="46.18145" lon="2.48782">
        <ele>423</ele>
        <time>2015-04-18T14:08:06Z</time>
      </trkpt>
      <trkpt lat="46.18145" lon="2.48788">
        <ele>423</ele>
        <time>2015-04-18T14:08:08Z</time>
      </trkpt>
      <trkpt lat="46.18145" lon="2.48792">
        <ele>423</ele>
        <time>2015-04-18T14:08:10Z</time>
      </trkpt>
      <trkpt lat="46.18148" lon="2.48796">
        <ele>423</ele>
        <time>2015-04-18T14:08:13Z</time>
      </trkpt>
      <trkpt lat="46.1815" lon="2.48799">
        <ele>423</ele>
        <time>2015-04-18T14:08:15Z</time>
      </trkpt>
      <trkpt lat="46.18152" lon="2.48801">
        <ele>422</ele>
        <time>2015-04-18T14:08:17Z</time>
      </trkpt>
      <trkpt lat="46.18154" lon="2.48805">
        <ele>421</ele>
        <time>2015-04-18T14:08:19Z</time>
      </trkpt>
      <trkpt lat="46.18156" lon="2.48807">
        <ele>421</ele>
        <time>2015-04-18T14:08:21Z</time>
      </trkpt>
      <trkpt lat="46.18157" lon="2.48811">
        <ele>420</ele>
        <time>2015-04-18T14:08:23Z</time>
      </trkpt>
      <trkpt lat="46.18158" lon="2.48815">
        <ele>420</ele>
        <time>2015-04-18T14:08:25Z</time>
      </trkpt>
      <trkpt lat="46.1816" lon="2.48818">
        <ele>420</ele>
        <time>2015-04-18T14:08:27Z</time>
      </trkpt>
      <trkpt lat="46.18163" lon="2.48822">
        <ele>420</ele>
        <time>2015-04-18T14:08:29Z</time>
      </trkpt>
      <trkpt lat="46.18167" lon="2.48823">
        <ele>420</ele>
        <time>2015-04-18T14:08:32Z</time>
      </trkpt>
      <trkpt lat="46.18169" lon="2.48826">
        <ele>420</ele>
        <time>2015-04-18T14:08:34Z</time>
      </trkpt>
      <trkpt lat="46.1817" lon="2.4883">
        <ele>420</ele>
        <time>2015-04-18T14:08:36Z</time>
      </trkpt>
      <trkpt lat="46.18171" lon="2.48835">
        <ele>420</ele>
        <time>2015-04-18T14:08:38Z</time>
      </trkpt>
      <trkpt lat="46.18174" lon="2.48838">
        <ele>420</ele>
        <time>2015-04-18T14:08:40Z</time>
      </trkpt>
      <trkpt lat="46.18177" lon="2.4884">
        <ele>420</ele>
        <time>2015-04-18T14:08:43Z</time>
      </trkpt>
      <trkpt lat="46.18179" lon="2.48845">
        <ele>420</ele>
        <time>2015-04-18T14:08:45Z</time>
      </trkpt>
      <trkpt lat="46.18182" lon="2.48848">
        <ele>420</ele>
        <time>2015-04-18T14:08:47Z</time>
      </trkpt>
      <trkpt lat="46.18183" lon="2.48854">
        <ele>420</ele>
        <time>2015-04-18T14:08:49Z</time>
      </trkpt>
      <trkpt lat="46.18185" lon="2.48859">
        <ele>420</ele>
        <time>2015-04-18T14:08:51Z</time>
      </trkpt>
      <trkpt lat="46.18188" lon="2.48862">
        <ele>420</ele>
        <time>2015-04-18T14:08:53Z</time>
      </trkpt>
      <trkpt lat="46.18191" lon="2.48864">
        <ele>420</ele>
        <time>2015-04-18T14:08:55Z</time>
      </trkpt>
      <trkpt lat="46.18193" lon="2.48866">
        <ele>420</ele>
        <time>2015-04-18T14:08:57Z</time>
      </trkpt>
      <trkpt lat="46.18195" lon="2.48869">
        <ele>420</ele>
        <time>2015-04-18T14:08:59Z</time>
      </trkpt>
      <trkpt lat="46.18197" lon="2.4887">
        <ele>420</ele>
        <time>2015-04-18T14:09:01Z</time>
      </trkpt>
      <trkpt lat="46.18201" lon="2.48871">
        <ele>420</ele>
        <time>2015-04-18T14:09:03Z</time>
      </trkpt>
      <trkpt lat="46.18204" lon="2.48868">
        <ele>418</ele>
        <time>2015-04-18T14:09:05Z</time>
      </trkpt>
      <trkpt lat="46.18207" lon="2.48867">
        <ele>418</ele>
        <time>2015-04-18T14:09:07Z</time>
      </trkpt>
      <trkpt lat="46.18211" lon="2.48869">
        <ele>418</ele>
        <time>2015-04-18T14:09:09Z</time>
      </trkpt>
      <trkpt lat="46.18213" lon="2.48872">
        <ele>418</ele>
        <time>2015-04-18T14:09:11Z</time>
      </trkpt>
      <trkpt lat="46.18216" lon="2.48875">
        <ele>418</ele>
        <time>2015-04-18T14:09:13Z</time>
      </trkpt>
      <trkpt lat="46.18218" lon="2.48879">
        <ele>418</ele>
        <time>2015-04-18T14:09:15Z</time>
      </trkpt>
      <trkpt lat="46.1822" lon="2.48884">
        <ele>418</ele>
        <time>2015-04-18T14:09:18Z</time>
      </trkpt>
      <trkpt lat="46.18222" lon="2.48887">
        <ele>418</ele>
        <time>2015-04-18T14:09:20Z</time>
      </trkpt>
      <trkpt lat="46.18225" lon="2.48889">
        <ele>418</ele>
        <time>2015-04-18T14:09:22Z</time>
      </trkpt>
      <trkpt lat="46.18227" lon="2.48892">
        <ele>418</ele>
        <time>2015-04-18T14:09:24Z</time>
      </trkpt>
      <trkpt lat="46.18229" lon="2.48896">
        <ele>417</ele>
        <time>2015-04-18T14:09:26Z</time>
      </trkpt>
      <trkpt lat="46.18231" lon="2.489">
        <ele>417</ele>
        <time>2015-04-18T14:09:28Z</time>
      </trkpt>
      <trkpt lat="46.18232" lon="2.48904">
        <ele>416</ele>
        <time>2015-04-18T14:09:30Z</time>
      </trkpt>
      <trkpt lat="46.18234" lon="2.48907">
        <ele>415</ele>
        <time>2015-04-18T14:09:32Z</time>
      </trkpt>
      <trkpt lat="46.18236" lon="2.4891">
        <ele>415</ele>
        <time>2015-04-18T14:09:34Z</time>
      </trkpt>
      <trkpt lat="46.18238" lon="2.48915">
        <ele>414</ele>
        <time>2015-04-18T14:09:36Z</time>
      </trkpt>
      <trkpt lat="46.18241" lon="2.48918">
        <ele>414</ele>
        <time>2015-04-18T14:09:38Z</time>
      </trkpt>
      <trkpt lat="46.18243" lon="2.48921">
        <ele>414</ele>
        <time>2015-04-18T14:09:40Z</time>
      </trkpt>
      <trkpt lat="46.18245" lon="2.48925">
        <ele>413</ele>
        <time>2015-04-18T14:09:42Z</time>
      </trkpt>
      <trkpt lat="46.18248" lon="2.48928">
        <ele>413</ele>
        <time>2015-04-18T14:09:44Z</time>
      </trkpt>
      <trkpt lat="46.1825" lon="2.48932">
        <ele>413</ele>
        <time>2015-04-18T14:09:46Z</time>
      </trkpt>
      <trkpt lat="46.18252" lon="2.48935">
        <ele>412</ele>
        <time>2015-04-18T14:09:48Z</time>
      </trkpt>
      <trkpt lat="46.18254" lon="2.48938">
        <ele>412</ele>
        <time>2015-04-18T14:09:50Z</time>
      </trkpt>
      <trkpt lat="46.18257" lon="2.48941">
        <ele>411</ele>
        <time>2015-04-18T14:09:52Z</time>
      </trkpt>
      <trkpt lat="46.18259" lon="2.48945">
        <ele>410</ele>
        <time>2015-04-18T14:09:54Z</time>
      </trkpt>
      <trkpt lat="46.18261" lon="2.48949">
        <ele>410</ele>
        <time>2015-04-18T14:09:56Z</time>
      </trkpt>
      <trkpt lat="46.18263" lon="2.48952">
        <ele>409</ele>
        <time>2015-04-18T14:09:58Z</time>
      </trkpt>
      <trkpt lat="46.18266" lon="2.48955">
        <ele>409</ele>
        <time>2015-04-18T14:10:00Z</time>
      </trkpt>
      <trkpt lat="46.18268" lon="2.48958">
        <ele>409</ele>
        <time>2015-04-18T14:10:02Z</time>
      </trkpt>
      <trkpt lat="46.1827" lon="2.48961">
        <ele>408</ele>
        <time>2015-04-18T14:10:04Z</time>
      </trkpt>
      <trkpt lat="46.18272" lon="2.48963">
        <ele>407</ele>
        <time>2015-04-18T14:10:06Z</time>
      </trkpt>
      <trkpt lat="46.18275" lon="2.48967">
        <ele>406</ele>
        <time>2015-04-18T14:10:08Z</time>
      </trkpt>
      <trkpt lat="46.18278" lon="2.48969">
        <ele>406</ele>
        <time>2015-04-18T14:10:10Z</time>
      </trkpt>
      <trkpt lat="46.1828" lon="2.48972">
        <ele>405</ele>
        <time>2015-04-18T14:10:12Z</time>
      </trkpt>
      <trkpt lat="46.18282" lon="2.48975">
        <ele>405</ele>
        <time>2015-04-18T14:10:14Z</time>
      </trkpt>
      <trkpt lat="46.18285" lon="2.48979">
        <ele>405</ele>
        <time>2015-04-18T14:10:16Z</time>
      </trkpt>
      <trkpt lat="46.18287" lon="2.48983">
        <ele>404</ele>
        <time>2015-04-18T14:10:18Z</time>
      </trkpt>
      <trkpt lat="46.18289" lon="2.48987">
        <ele>404</ele>
        <time>2015-04-18T14:10:20Z</time>
      </trkpt>
      <trkpt lat="46.18291" lon="2.4899">
        <ele>403</ele>
        <time>2015-04-18T14:10:22Z</time>
      </trkpt>
      <trkpt lat="46.18295" lon="2.48993">
        <ele>402</ele>
        <time>2015-04-18T14:10:25Z</time>
      </trkpt>
      <trkpt lat="46.18298" lon="2.48995">
        <ele>402</ele>
        <time>2015-04-18T14:10:27Z</time>
      </trkpt>
      <trkpt lat="46.18301" lon="2.48997">
        <ele>402</ele>
        <time>2015-04-18T14:10:29Z</time>
      </trkpt>
      <trkpt lat="46.18303" lon="2.49">
        <ele>401</ele>
        <time>2015-04-18T14:10:31Z</time>
      </trkpt>
      <trkpt lat="46.18306" lon="2.49001">
        <ele>401</ele>
        <time>2015-04-18T14:10:33Z</time>
      </trkpt>
      <trkpt lat="46.18308" lon="2.49005">
        <ele>401</ele>
        <time>2015-04-18T14:10:35Z</time>
      </trkpt>
      <trkpt lat="46.18311" lon="2.49008">
        <ele>400</ele>
        <time>2015-04-18T14:10:37Z</time>
      </trkpt>
      <trkpt lat="46.18313" lon="2.49012">
        <ele>400</ele>
        <time>2015-04-18T14:10:39Z</time>
      </trkpt>
      <trkpt lat="46.18315" lon="2.49014">
        <ele>399</ele>
        <time>2015-04-18T14:10:41Z</time>
      </trkpt>
      <trkpt lat="46.18318" lon="2.49017">
        <ele>398</ele>
        <time>2015-04-18T14:10:44Z</time>
      </trkpt>
      <trkpt lat="46.18322" lon="2.49021">
        <ele>397</ele>
        <time>2015-04-18T14:10:46Z</time>
      </trkpt>
      <trkpt lat="46.18325" lon="2.49021">
        <ele>397</ele>
        <time>2015-04-18T14:10:48Z</time>
      </trkpt>
      <trkpt lat="46.18328" lon="2.49023">
        <ele>397</ele>
        <time>2015-04-18T14:10:50Z</time>
      </trkpt>
      <trkpt lat="46.18331" lon="2.49025">
        <ele>397</ele>
        <time>2015-04-18T14:10:52Z</time>
      </trkpt>
      <trkpt lat="46.18334" lon="2.49027">
        <ele>397</ele>
        <time>2015-04-18T14:10:54Z</time>
      </trkpt>
      <trkpt lat="46.18337" lon="2.49027">
        <ele>397</ele>
        <time>2015-04-18T14:10:56Z</time>
      </trkpt>
      <trkpt lat="46.1834" lon="2.49028">
        <ele>397</ele>
        <time>2015-04-18T14:10:58Z</time>
      </trkpt>
      <trkpt lat="46.18344" lon="2.49026">
        <ele>397</ele>
        <time>2015-04-18T14:11:00Z</time>
      </trkpt>
      <trkpt lat="46.18349" lon="2.49025">
        <ele>397</ele>
        <time>2015-04-18T14:11:02Z</time>
      </trkpt>
      <trkpt lat="46.18352" lon="2.49022">
        <ele>397</ele>
        <time>2015-04-18T14:11:04Z</time>
      </trkpt>
      <trkpt lat="46.18357" lon="2.49019">
        <ele>397</ele>
        <time>2015-04-18T14:11:06Z</time>
      </trkpt>
      <trkpt lat="46.18361" lon="2.49016">
        <ele>397</ele>
        <time>2015-04-18T14:11:08Z</time>
      </trkpt>
      <trkpt lat="46.18364" lon="2.49013">
        <ele>398</ele>
        <time>2015-04-18T14:11:10Z</time>
      </trkpt>
      <trkpt lat="46.18367" lon="2.4901">
        <ele>398</ele>
        <time>2015-04-18T14:11:12Z</time>
      </trkpt>
      <trkpt lat="46.18369" lon="2.49007">
        <ele>398</ele>
        <time>2015-04-18T14:11:15Z</time>
      </trkpt>
      <trkpt lat="46.18372" lon="2.49004">
        <ele>398</ele>
        <time>2015-04-18T14:11:17Z</time>
      </trkpt>
      <trkpt lat="46.18373" lon="2.49">
        <ele>398</ele>
        <time>2015-04-18T14:11:19Z</time>
      </trkpt>
      <trkpt lat="46.18375" lon="2.48995">
        <ele>399</ele>
        <time>2015-04-18T14:11:21Z</time>
      </trkpt>
      <trkpt lat="46.18376" lon="2.48993">
        <ele>399</ele>
        <time>2015-04-18T14:11:23Z</time>
      </trkpt>
      <trkpt lat="46.18377" lon="2.48989">
        <ele>399</ele>
        <time>2015-04-18T14:11:25Z</time>
      </trkpt>
      <trkpt lat="46.1838" lon="2.48985">
        <ele>399</ele>
        <time>2015-04-18T14:11:27Z</time>
      </trkpt>
      <trkpt lat="46.18384" lon="2.4898">
        <ele>399</ele>
        <time>2015-04-18T14:11:29Z</time>
      </trkpt>
      <trkpt lat="46.18388" lon="2.48973">
        <ele>401</ele>
        <time>2015-04-18T14:11:31Z</time>
      </trkpt>
      <trkpt lat="46.1839" lon="2.48968">
        <ele>402</ele>
        <time>2015-04-18T14:11:33Z</time>
      </trkpt>
      <trkpt lat="46.18393" lon="2.48963">
        <ele>403</ele>
        <time>2015-04-18T14:11:35Z</time>
      </trkpt>
      <trkpt lat="46.18393" lon="2.4896">
        <ele>403</ele>
        <time>2015-04-18T14:11:37Z</time>
      </trkpt>
      <trkpt lat="46.18393" lon="2.48956">
        <ele>403</ele>
        <time>2015-04-18T14:11:39Z</time>
      </trkpt>
      <trkpt lat="46.18394" lon="2.48952">
        <ele>403</ele>
        <time>2015-04-18T14:11:41Z</time>
      </trkpt>
      <trkpt lat="46.18396" lon="2.48947">
        <ele>403</ele>
        <time>2015-04-18T14:11:43Z</time>
      </trkpt>
      <trkpt lat="46.18395" lon="2.48943">
        <ele>403</ele>
        <time>2015-04-18T14:11:45Z</time>
      </trkpt>
      <trkpt lat="46.18394" lon="2.48939">
        <ele>403</ele>
        <time>2015-04-18T14:11:47Z</time>
      </trkpt>
      <trkpt lat="46.18393" lon="2.48935">
        <ele>403</ele>
        <time>2015-04-18T14:11:49Z</time>
      </trkpt>
      <trkpt lat="46.18393" lon="2.48931">
        <ele>403</ele>
        <time>2015-04-18T14:11:51Z</time>
      </trkpt>
      <trkpt lat="46.18393" lon="2.48927">
        <ele>403</ele>
        <time>2015-04-18T14:11:53Z</time>
      </trkpt>
      <trkpt lat="46.18393" lon="2.48923">
        <ele>403</ele>
        <time>2015-04-18T14:11:55Z</time>
      </trkpt>
      <trkpt lat="46.18393" lon="2.48919">
        <ele>401</ele>
        <time>2015-04-18T14:11:57Z</time>
      </trkpt>
      <trkpt lat="46.18391" lon="2.48915">
        <ele>400</ele>
        <time>2015-04-18T14:11:59Z</time>
      </trkpt>
      <trkpt lat="46.18391" lon="2.4891">
        <ele>399</ele>
        <time>2015-04-18T14:12:01Z</time>
      </trkpt>
      <trkpt lat="46.18391" lon="2.48905">
        <ele>399</ele>
        <time>2015-04-18T14:12:03Z</time>
      </trkpt>
      <trkpt lat="46.18389" lon="2.48902">
        <ele>398</ele>
        <time>2015-04-18T14:12:05Z</time>
      </trkpt>
      <trkpt lat="46.18388" lon="2.48899">
        <ele>397</ele>
        <time>2015-04-18T14:12:07Z</time>
      </trkpt>
      <trkpt lat="46.18388" lon="2.48894">
        <ele>396</ele>
        <time>2015-04-18T14:12:09Z</time>
      </trkpt>
      <trkpt lat="46.18386" lon="2.4889">
        <ele>395</ele>
        <time>2015-04-18T14:12:11Z</time>
      </trkpt>
      <trkpt lat="46.18384" lon="2.48886">
        <ele>395</ele>
        <time>2015-04-18T14:12:13Z</time>
      </trkpt>
      <trkpt lat="46.18382" lon="2.48883">
        <ele>395</ele>
        <time>2015-04-18T14:12:15Z</time>
      </trkpt>
      <trkpt lat="46.18379" lon="2.48878">
        <ele>394</ele>
        <time>2015-04-18T14:12:18Z</time>
      </trkpt>
      <trkpt lat="46.18376" lon="2.48875">
        <ele>393</ele>
        <time>2015-04-18T14:12:20Z</time>
      </trkpt>
      <trkpt lat="46.18375" lon="2.48871">
        <ele>393</ele>
        <time>2015-04-18T14:12:22Z</time>
      </trkpt>
      <trkpt lat="46.18372" lon="2.48868">
        <ele>393</ele>
        <time>2015-04-18T14:12:24Z</time>
      </trkpt>
      <trkpt lat="46.1837" lon="2.48864">
        <ele>393</ele>
        <time>2015-04-18T14:12:26Z</time>
      </trkpt>
      <trkpt lat="46.18367" lon="2.48861">
        <ele>393</ele>
        <time>2015-04-18T14:12:28Z</time>
      </trkpt>
      <trkpt lat="46.18365" lon="2.48857">
        <ele>393</ele>
        <time>2015-04-18T14:12:30Z</time>
      </trkpt>
      <trkpt lat="46.18362" lon="2.48853">
        <ele>393</ele>
        <time>2015-04-18T14:12:32Z</time>
      </trkpt>
      <trkpt lat="46.1836" lon="2.4885">
        <ele>393</ele>
        <time>2015-04-18T14:12:34Z</time>
      </trkpt>
      <trkpt lat="46.18357" lon="2.48847">
        <ele>393</ele>
        <time>2015-04-18T14:12:36Z</time>
      </trkpt>
      <trkpt lat="46.18355" lon="2.48843">
        <ele>393</ele>
        <time>2015-04-18T14:12:38Z</time>
      </trkpt>
      <trkpt lat="46.18353" lon="2.48841">
        <ele>393</ele>
        <time>2015-04-18T14:12:40Z</time>
      </trkpt>
      <trkpt lat="46.18351" lon="2.48839">
        <ele>393</ele>
        <time>2015-04-18T14:12:42Z</time>
      </trkpt>
      <trkpt lat="46.18349" lon="2.48835">
        <ele>393</ele>
        <time>2015-04-18T14:12:44Z</time>
      </trkpt>
      <trkpt lat="46.18348" lon="2.48831">
        <ele>393</ele>
        <time>2015-04-18T14:12:46Z</time>
      </trkpt>
      <trkpt lat="46.18345" lon="2.48828">
        <ele>393</ele>
        <time>2015-04-18T14:12:48Z</time>
      </trkpt>
      <trkpt lat="46.18342" lon="2.48825">
        <ele>393</ele>
        <time>2015-04-18T14:12:51Z</time>
      </trkpt>
      <trkpt lat="46.18341" lon="2.48822">
        <ele>393</ele>
        <time>2015-04-18T14:12:53Z</time>
      </trkpt>
      <trkpt lat="46.18339" lon="2.4882">
        <ele>393</ele>
        <time>2015-04-18T14:12:55Z</time>
      </trkpt>
      <trkpt lat="46.18338" lon="2.48817">
        <ele>393</ele>
        <time>2015-04-18T14:12:57Z</time>
      </trkpt>
      <trkpt lat="46.18339" lon="2.48813">
        <ele>393</ele>
        <time>2015-04-18T14:12:59Z</time>
      </trkpt>
      <trkpt lat="46.18341" lon="2.48808">
        <ele>392</ele>
        <time>2015-04-18T14:13:01Z</time>
      </trkpt>
      <trkpt lat="46.18341" lon="2.48803">
        <ele>392</ele>
        <time>2015-04-18T14:13:03Z</time>
      </trkpt>
      <trkpt lat="46.18342" lon="2.48799">
        <ele>392</ele>
        <time>2015-04-18T14:13:05Z</time>
      </trkpt>
      <trkpt lat="46.18343" lon="2.48796">
        <ele>392</ele>
        <time>2015-04-18T14:13:07Z</time>
      </trkpt>
      <trkpt lat="46.18344" lon="2.48793">
        <ele>392</ele>
        <time>2015-04-18T14:13:09Z</time>
      </trkpt>
      <trkpt lat="46.18344" lon="2.4879">
        <ele>391</ele>
        <time>2015-04-18T14:13:11Z</time>
      </trkpt>
      <trkpt lat="46.18345" lon="2.48786">
        <ele>390</ele>
        <time>2015-04-18T14:13:13Z</time>
      </trkpt>
      <trkpt lat="46.18346" lon="2.48782">
        <ele>389</ele>
        <time>2015-04-18T14:13:15Z</time>
      </trkpt>
      <trkpt lat="46.18348" lon="2.48779">
        <ele>388</ele>
        <time>2015-04-18T14:13:17Z</time>
      </trkpt>
      <trkpt lat="46.18348" lon="2.48777">
        <ele>388</ele>
        <time>2015-04-18T14:13:19Z</time>
      </trkpt>
      <trkpt lat="46.1835" lon="2.48774">
        <ele>387</ele>
        <time>2015-04-18T14:13:21Z</time>
      </trkpt>
      <trkpt lat="46.18351" lon="2.4877">
        <ele>387</ele>
        <time>2015-04-18T14:13:23Z</time>
      </trkpt>
      <trkpt lat="46.18353" lon="2.48766">
        <ele>387</ele>
        <time>2015-04-18T14:13:25Z</time>
      </trkpt>
      <trkpt lat="46.18354" lon="2.48762">
        <ele>387</ele>
        <time>2015-04-18T14:13:27Z</time>
      </trkpt>
      <trkpt lat="46.18356" lon="2.48757">
        <ele>387</ele>
        <time>2015-04-18T14:13:29Z</time>
      </trkpt>
      <trkpt lat="46.18357" lon="2.48753">
        <ele>387</ele>
        <time>2015-04-18T14:13:31Z</time>
      </trkpt>
      <trkpt lat="46.18359" lon="2.48748">
        <ele>387</ele>
        <time>2015-04-18T14:13:33Z</time>
      </trkpt>
      <trkpt lat="46.18361" lon="2.48744">
        <ele>387</ele>
        <time>2015-04-18T14:13:35Z</time>
      </trkpt>
      <trkpt lat="46.18363" lon="2.48739">
        <ele>387</ele>
        <time>2015-04-18T14:13:37Z</time>
      </trkpt>
      <trkpt lat="46.18363" lon="2.48735">
        <ele>387</ele>
        <time>2015-04-18T14:13:39Z</time>
      </trkpt>
      <trkpt lat="46.18364" lon="2.48731">
        <ele>387</ele>
        <time>2015-04-18T14:13:41Z</time>
      </trkpt>
      <trkpt lat="46.18367" lon="2.48726">
        <ele>387</ele>
        <time>2015-04-18T14:13:43Z</time>
      </trkpt>
      <trkpt lat="46.18368" lon="2.48721">
        <ele>387</ele>
        <time>2015-04-18T14:13:46Z</time>
      </trkpt>
      <trkpt lat="46.1837" lon="2.48716">
        <ele>387</ele>
        <time>2015-04-18T14:13:48Z</time>
      </trkpt>
      <trkpt lat="46.18371" lon="2.48712">
        <ele>387</ele>
        <time>2015-04-18T14:13:51Z</time>
      </trkpt>
      <trkpt lat="46.18372" lon="2.48709">
        <ele>387</ele>
        <time>2015-04-18T14:13:53Z</time>
      </trkpt>
      <trkpt lat="46.18374" lon="2.48707">
        <ele>387</ele>
        <time>2015-04-18T14:13:58Z</time>
      </trkpt>
      <trkpt lat="46.18377" lon="2.48703">
        <ele>387</ele>
        <time>2015-04-18T14:14:01Z</time>
      </trkpt>
      <trkpt lat="46.18379" lon="2.487">
        <ele>388</ele>
        <time>2015-04-18T14:14:03Z</time>
      </trkpt>
      <trkpt lat="46.18381" lon="2.48698">
        <ele>388</ele>
        <time>2015-04-18T14:14:05Z</time>
      </trkpt>
      <trkpt lat="46.18383" lon="2.48695">
        <ele>388</ele>
        <time>2015-04-18T14:14:07Z</time>
      </trkpt>
      <trkpt lat="46.18386" lon="2.48691">
        <ele>389</ele>
        <time>2015-04-18T14:14:09Z</time>
      </trkpt>
      <trkpt lat="46.18388" lon="2.48687">
        <ele>389</ele>
        <time>2015-04-18T14:14:11Z</time>
      </trkpt>
      <trkpt lat="46.18389" lon="2.48683">
        <ele>390</ele>
        <time>2015-04-18T14:14:13Z</time>
      </trkpt>
      <trkpt lat="46.18388" lon="2.4868">
        <ele>390</ele>
        <time>2015-04-18T14:14:15Z</time>
      </trkpt>
      <trkpt lat="46.18388" lon="2.48678">
        <ele>390</ele>
        <time>2015-04-18T14:14:17Z</time>
      </trkpt>
      <trkpt lat="46.18389" lon="2.48677">
        <ele>390</ele>
        <time>2015-04-18T14:14:19Z</time>
      </trkpt>
      <trkpt lat="46.18391" lon="2.48677">
        <ele>390</ele>
        <time>2015-04-18T14:14:21Z</time>
      </trkpt>
      <trkpt lat="46.18392" lon="2.48678">
        <ele>390</ele>
        <time>2015-04-18T14:14:23Z</time>
      </trkpt>
      <trkpt lat="46.18393" lon="2.4868">
        <ele>390</ele>
        <time>2015-04-18T14:14:25Z</time>
      </trkpt>
      <trkpt lat="46.18395" lon="2.48683">
        <ele>390</ele>
        <time>2015-04-18T14:14:27Z</time>
      </trkpt>
      <trkpt lat="46.18398" lon="2.48686">
        <ele>390</ele>
        <time>2015-04-18T14:14:30Z</time>
      </trkpt>
      <trkpt lat="46.18399" lon="2.48689">
        <ele>391</ele>
        <time>2015-04-18T14:14:32Z</time>
      </trkpt>
      <trkpt lat="46.18402" lon="2.48691">
        <ele>392</ele>
        <time>2015-04-18T14:14:35Z</time>
      </trkpt>
      <trkpt lat="46.18404" lon="2.48689">
        <ele>394</ele>
        <time>2015-04-18T14:14:38Z</time>
      </trkpt>
      <trkpt lat="46.18403" lon="2.48684">
        <ele>394</ele>
        <time>2015-04-18T14:14:40Z</time>
      </trkpt>
      <trkpt lat="46.18401" lon="2.48681">
        <ele>395</ele>
        <time>2015-04-18T14:14:42Z</time>
      </trkpt>
      <trkpt lat="46.184" lon="2.48676">
        <ele>398</ele>
        <time>2015-04-18T14:14:45Z</time>
      </trkpt>
      <trkpt lat="46.18399" lon="2.48673">
        <ele>399</ele>
        <time>2015-04-18T14:14:48Z</time>
      </trkpt>
      <trkpt lat="46.18398" lon="2.48671">
        <ele>399</ele>
        <time>2015-04-18T14:14:50Z</time>
      </trkpt>
      <trkpt lat="46.18396" lon="2.48666">
        <ele>401</ele>
        <time>2015-04-18T14:14:53Z</time>
      </trkpt>
      <trkpt lat="46.18394" lon="2.48665">
        <ele>402</ele>
        <time>2015-04-18T14:14:55Z</time>
      </trkpt>
      <trkpt lat="46.18393" lon="2.48663">
        <ele>403</ele>
        <time>2015-04-18T14:14:57Z</time>
      </trkpt>
      <trkpt lat="46.18393" lon="2.48661">
        <ele>404</ele>
        <time>2015-04-18T14:14:59Z</time>
      </trkpt>
      <trkpt lat="46.18393" lon="2.48658">
        <ele>404</ele>
        <time>2015-04-18T14:15:01Z</time>
      </trkpt>
      <trkpt lat="46.18393" lon="2.48656">
        <ele>404</ele>
        <time>2015-04-18T14:15:03Z</time>
      </trkpt>
      <trkpt lat="46.18392" lon="2.48652">
        <ele>404</ele>
        <time>2015-04-18T14:15:05Z</time>
      </trkpt>
      <trkpt lat="46.1839" lon="2.48649">
        <ele>405</ele>
        <time>2015-04-18T14:15:07Z</time>
      </trkpt>
      <trkpt lat="46.18389" lon="2.48645">
        <ele>405</ele>
        <time>2015-04-18T14:15:09Z</time>
      </trkpt>
      <trkpt lat="46.18389" lon="2.48641">
        <ele>406</ele>
        <time>2015-04-18T14:15:11Z</time>
      </trkpt>
      <trkpt lat="46.18388" lon="2.48636">
        <ele>408</ele>
        <time>2015-04-18T14:15:14Z</time>
      </trkpt>
      <trkpt lat="46.18389" lon="2.48633">
        <ele>409</ele>
        <time>2015-04-18T14:15:16Z</time>
      </trkpt>
      <trkpt lat="46.18391" lon="2.48631">
        <ele>410</ele>
        <time>2015-04-18T14:15:20Z</time>
      </trkpt>
      <trkpt lat="46.18392" lon="2.48634">
        <ele>410</ele>
        <time>2015-04-18T14:15:22Z</time>
      </trkpt>
      <trkpt lat="46.18393" lon="2.48638">
        <ele>410</ele>
        <time>2015-04-18T14:15:24Z</time>
      </trkpt>
      <trkpt lat="46.18394" lon="2.48643">
        <ele>411</ele>
        <time>2015-04-18T14:15:26Z</time>
      </trkpt>
      <trkpt lat="46.18395" lon="2.48648">
        <ele>412</ele>
        <time>2015-04-18T14:15:28Z</time>
      </trkpt>
      <trkpt lat="46.18397" lon="2.48652">
        <ele>413</ele>
        <time>2015-04-18T14:15:30Z</time>
      </trkpt>
      <trkpt lat="46.18399" lon="2.48655">
        <ele>414</ele>
        <time>2015-04-18T14:15:32Z</time>
      </trkpt>
      <trkpt lat="46.18401" lon="2.48658">
        <ele>414</ele>
        <time>2015-04-18T14:15:34Z</time>
      </trkpt>
      <trkpt lat="46.18402" lon="2.48661">
        <ele>414</ele>
        <time>2015-04-18T14:15:36Z</time>
      </trkpt>
      <trkpt lat="46.18404" lon="2.48663">
        <ele>414</ele>
        <time>2015-04-18T14:15:38Z</time>
      </trkpt>
      <trkpt lat="46.18407" lon="2.48666">
        <ele>414</ele>
        <time>2015-04-18T14:15:41Z</time>
      </trkpt>
      <trkpt lat="46.18409" lon="2.48668">
        <ele>414</ele>
        <time>2015-04-18T14:15:43Z</time>
      </trkpt>
      <trkpt lat="46.18412" lon="2.4867">
        <ele>414</ele>
        <time>2015-04-18T14:15:45Z</time>
      </trkpt>
      <trkpt lat="46.18415" lon="2.48672">
        <ele>414</ele>
        <time>2015-04-18T14:15:47Z</time>
      </trkpt>
      <trkpt lat="46.18417" lon="2.48674">
        <ele>414</ele>
        <time>2015-04-18T14:15:49Z</time>
      </trkpt>
      <trkpt lat="46.18419" lon="2.48676">
        <ele>414</ele>
        <time>2015-04-18T14:15:51Z</time>
      </trkpt>
      <trkpt lat="46.18421" lon="2.48678">
        <ele>414</ele>
        <time>2015-04-18T14:15:53Z</time>
      </trkpt>
      <trkpt lat="46.18424" lon="2.4868">
        <ele>414</ele>
        <time>2015-04-18T14:15:55Z</time>
      </trkpt>
      <trkpt lat="46.18426" lon="2.48682">
        <ele>414</ele>
        <time>2015-04-18T14:15:57Z</time>
      </trkpt>
      <trkpt lat="46.18427" lon="2.48686">
        <ele>414</ele>
        <time>2015-04-18T14:15:59Z</time>
      </trkpt>
      <trkpt lat="46.18429" lon="2.48689">
        <ele>414</ele>
        <time>2015-04-18T14:16:01Z</time>
      </trkpt>
      <trkpt lat="46.18431" lon="2.48693">
        <ele>414</ele>
        <time>2015-04-18T14:16:03Z</time>
      </trkpt>
      <trkpt lat="46.18433" lon="2.48697">
        <ele>414</ele>
        <time>2015-04-18T14:16:05Z</time>
      </trkpt>
      <trkpt lat="46.18435" lon="2.48699">
        <ele>413</ele>
        <time>2015-04-18T14:16:07Z</time>
      </trkpt>
      <trkpt lat="46.18437" lon="2.487">
        <ele>412</ele>
        <time>2015-04-18T14:16:09Z</time>
      </trkpt>
      <trkpt lat="46.1844" lon="2.48703">
        <ele>411</ele>
        <time>2015-04-18T14:16:12Z</time>
      </trkpt>
      <trkpt lat="46.18442" lon="2.48705">
        <ele>411</ele>
        <time>2015-04-18T14:16:14Z</time>
      </trkpt>
      <trkpt lat="46.18444" lon="2.48708">
        <ele>410</ele>
        <time>2015-04-18T14:16:16Z</time>
      </trkpt>
      <trkpt lat="46.18446" lon="2.48711">
        <ele>410</ele>
        <time>2015-04-18T14:16:18Z</time>
      </trkpt>
      <trkpt lat="46.18448" lon="2.48714">
        <ele>410</ele>
        <time>2015-04-18T14:16:20Z</time>
      </trkpt>
      <trkpt lat="46.1845" lon="2.48716">
        <ele>410</ele>
        <time>2015-04-18T14:16:22Z</time>
      </trkpt>
      <trkpt lat="46.18452" lon="2.48719">
        <ele>410</ele>
        <time>2015-04-18T14:16:24Z</time>
      </trkpt>
      <trkpt lat="46.18454" lon="2.48723">
        <ele>410</ele>
        <time>2015-04-18T14:16:26Z</time>
      </trkpt>
      <trkpt lat="46.18458" lon="2.48725">
        <ele>410</ele>
        <time>2015-04-18T14:16:29Z</time>
      </trkpt>
      <trkpt lat="46.1846" lon="2.48726">
        <ele>410</ele>
        <time>2015-04-18T14:16:31Z</time>
      </trkpt>
      <trkpt lat="46.18462" lon="2.48727">
        <ele>410</ele>
        <time>2015-04-18T14:16:33Z</time>
      </trkpt>
      <trkpt lat="46.18464" lon="2.48728">
        <ele>409</ele>
        <time>2015-04-18T14:16:35Z</time>
      </trkpt>
      <trkpt lat="46.18467" lon="2.48729">
        <ele>409</ele>
        <time>2015-04-18T14:16:37Z</time>
      </trkpt>
      <trkpt lat="46.1847" lon="2.48731">
        <ele>409</ele>
        <time>2015-04-18T14:16:39Z</time>
      </trkpt>
      <trkpt lat="46.18472" lon="2.48731">
        <ele>409</ele>
        <time>2015-04-18T14:16:41Z</time>
      </trkpt>
      <trkpt lat="46.18475" lon="2.48732">
        <ele>409</ele>
        <time>2015-04-18T14:16:43Z</time>
      </trkpt>
      <trkpt lat="46.18478" lon="2.48733">
        <ele>409</ele>
        <time>2015-04-18T14:16:45Z</time>
      </trkpt>
      <trkpt lat="46.18481" lon="2.48734">
        <ele>409</ele>
        <time>2015-04-18T14:16:47Z</time>
      </trkpt>
      <trkpt lat="46.18483" lon="2.48735">
        <ele>409</ele>
        <time>2015-04-18T14:16:49Z</time>
      </trkpt>
      <trkpt lat="46.18486" lon="2.48734">
        <ele>409</ele>
        <time>2015-04-18T14:16:51Z</time>
      </trkpt>
      <trkpt lat="46.18488" lon="2.48733">
        <ele>409</ele>
        <time>2015-04-18T14:16:53Z</time>
      </trkpt>
      <trkpt lat="46.18491" lon="2.4873">
        <ele>409</ele>
        <time>2015-04-18T14:16:56Z</time>
      </trkpt>
      <trkpt lat="46.18494" lon="2.48727">
        <ele>409</ele>
        <time>2015-04-18T14:16:58Z</time>
      </trkpt>
      <trkpt lat="46.18496" lon="2.48723">
        <ele>409</ele>
        <time>2015-04-18T14:17:00Z</time>
      </trkpt>
      <trkpt lat="46.18496" lon="2.4872">
        <ele>409</ele>
        <time>2015-04-18T14:17:02Z</time>
      </trkpt>
      <trkpt lat="46.18496" lon="2.48716">
        <ele>409</ele>
        <time>2015-04-18T14:17:04Z</time>
      </trkpt>
      <trkpt lat="46.18494" lon="2.48711">
        <ele>409</ele>
        <time>2015-04-18T14:17:07Z</time>
      </trkpt>
      <trkpt lat="46.18492" lon="2.48708">
        <ele>409</ele>
        <time>2015-04-18T14:17:09Z</time>
      </trkpt>
      <trkpt lat="46.18491" lon="2.48705">
        <ele>409</ele>
        <time>2015-04-18T14:17:11Z</time>
      </trkpt>
      <trkpt lat="46.18489" lon="2.48701">
        <ele>409</ele>
        <time>2015-04-18T14:17:13Z</time>
      </trkpt>
      <trkpt lat="46.18488" lon="2.48698">
        <ele>409</ele>
        <time>2015-04-18T14:17:15Z</time>
      </trkpt>
      <trkpt lat="46.18486" lon="2.48695">
        <ele>410</ele>
        <time>2015-04-18T14:17:17Z</time>
      </trkpt>
      <trkpt lat="46.18484" lon="2.48691">
        <ele>410</ele>
        <time>2015-04-18T14:17:19Z</time>
      </trkpt>
      <trkpt lat="46.18483" lon="2.48687">
        <ele>411</ele>
        <time>2015-04-18T14:17:21Z</time>
      </trkpt>
      <trkpt lat="46.18482" lon="2.48684">
        <ele>411</ele>
        <time>2015-04-18T14:17:23Z</time>
      </trkpt>
      <trkpt lat="46.18482" lon="2.48681">
        <ele>412</ele>
        <time>2015-04-18T14:17:25Z</time>
      </trkpt>
      <trkpt lat="46.1848" lon="2.48678">
        <ele>413</ele>
        <time>2015-04-18T14:17:27Z</time>
      </trkpt>
      <trkpt lat="46.18478" lon="2.48676">
        <ele>413</ele>
        <time>2015-04-18T14:17:29Z</time>
      </trkpt>
      <trkpt lat="46.18475" lon="2.48674">
        <ele>413</ele>
        <time>2015-04-18T14:17:31Z</time>
      </trkpt>
      <trkpt lat="46.18472" lon="2.48673">
        <ele>413</ele>
        <time>2015-04-18T14:17:33Z</time>
      </trkpt>
      <trkpt lat="46.1847" lon="2.48672">
        <ele>413</ele>
        <time>2015-04-18T14:17:35Z</time>
      </trkpt>
      <trkpt lat="46.18467" lon="2.4867">
        <ele>413</ele>
        <time>2015-04-18T14:17:38Z</time>
      </trkpt>
      <trkpt lat="46.18465" lon="2.48669">
        <ele>413</ele>
        <time>2015-04-18T14:17:40Z</time>
      </trkpt>
      <trkpt lat="46.18463" lon="2.48667">
        <ele>413</ele>
        <time>2015-04-18T14:17:42Z</time>
      </trkpt>
      <trkpt lat="46.1846" lon="2.48663">
        <ele>413</ele>
        <time>2015-04-18T14:17:45Z</time>
      </trkpt>
      <trkpt lat="46.18458" lon="2.4866">
        <ele>413</ele>
        <time>2015-04-18T14:17:47Z</time>
      </trkpt>
      <trkpt lat="46.18456" lon="2.48657">
        <ele>413</ele>
        <time>2015-04-18T14:17:49Z</time>
      </trkpt>
      <trkpt lat="46.18454" lon="2.48654">
        <ele>413</ele>
        <time>2015-04-18T14:17:51Z</time>
      </trkpt>
      <trkpt lat="46.18452" lon="2.4865">
        <ele>413</ele>
        <time>2015-04-18T14:17:53Z</time>
      </trkpt>
      <trkpt lat="46.1845" lon="2.48646">
        <ele>413</ele>
        <time>2015-04-18T14:17:55Z</time>
      </trkpt>
      <trkpt lat="46.18448" lon="2.48643">
        <ele>413</ele>
        <time>2015-04-18T14:17:57Z</time>
      </trkpt>
      <trkpt lat="46.18446" lon="2.4864">
        <ele>413</ele>
        <time>2015-04-18T14:17:59Z</time>
      </trkpt>
      <trkpt lat="46.18444" lon="2.48637">
        <ele>413</ele>
        <time>2015-04-18T14:18:01Z</time>
      </trkpt>
      <trkpt lat="46.18442" lon="2.48632">
        <ele>413</ele>
        <time>2015-04-18T14:18:03Z</time>
      </trkpt>
      <trkpt lat="46.1844" lon="2.4863">
        <ele>413</ele>
        <time>2015-04-18T14:18:05Z</time>
      </trkpt>
      <trkpt lat="46.18438" lon="2.48627">
        <ele>413</ele>
        <time>2015-04-18T14:18:07Z</time>
      </trkpt>
      <trkpt lat="46.18435" lon="2.48622">
        <ele>413</ele>
        <time>2015-04-18T14:18:09Z</time>
      </trkpt>
      <trkpt lat="46.18433" lon="2.48618">
        <ele>413</ele>
        <time>2015-04-18T14:18:11Z</time>
      </trkpt>
      <trkpt lat="46.1843" lon="2.48615">
        <ele>413</ele>
        <time>2015-04-18T14:18:13Z</time>
      </trkpt>
      <trkpt lat="46.18428" lon="2.48611">
        <ele>413</ele>
        <time>2015-04-18T14:18:16Z</time>
      </trkpt>
      <trkpt lat="46.18426" lon="2.48609">
        <ele>414</ele>
        <time>2015-04-18T14:18:18Z</time>
      </trkpt>
      <trkpt lat="46.18424" lon="2.48606">
        <ele>414</ele>
        <time>2015-04-18T14:18:20Z</time>
      </trkpt>
      <trkpt lat="46.18422" lon="2.48603">
        <ele>414</ele>
        <time>2015-04-18T14:18:22Z</time>
      </trkpt>
      <trkpt lat="46.1842" lon="2.486">
        <ele>414</ele>
        <time>2015-04-18T14:18:24Z</time>
      </trkpt>
      <trkpt lat="46.18419" lon="2.48596">
        <ele>414</ele>
        <time>2015-04-18T14:18:26Z</time>
      </trkpt>
      <trkpt lat="46.18416" lon="2.48591">
        <ele>415</ele>
        <time>2015-04-18T14:18:29Z</time>
      </trkpt>
      <trkpt lat="46.18413" lon="2.48586">
        <ele>415</ele>
        <time>2015-04-18T14:18:32Z</time>
      </trkpt>
      <trkpt lat="46.18411" lon="2.48583">
        <ele>415</ele>
        <time>2015-04-18T14:18:34Z</time>
      </trkpt>
      <trkpt lat="46.18409" lon="2.48579">
        <ele>415</ele>
        <time>2015-04-18T14:18:36Z</time>
      </trkpt>
      <trkpt lat="46.18407" lon="2.48576">
        <ele>415</ele>
        <time>2015-04-18T14:18:38Z</time>
      </trkpt>
      <trkpt lat="46.18406" lon="2.48573">
        <ele>415</ele>
        <time>2015-04-18T14:18:40Z</time>
      </trkpt>
      <trkpt lat="46.18404" lon="2.48571">
        <ele>415</ele>
        <time>2015-04-18T14:18:42Z</time>
      </trkpt>
      <trkpt lat="46.18402" lon="2.48567">
        <ele>415</ele>
        <time>2015-04-18T14:18:44Z</time>
      </trkpt>
      <trkpt lat="46.18399" lon="2.48564">
        <ele>415</ele>
        <time>2015-04-18T14:18:46Z</time>
      </trkpt>
      <trkpt lat="46.18397" lon="2.48561">
        <ele>415</ele>
        <time>2015-04-18T14:18:48Z</time>
      </trkpt>
      <trkpt lat="46.18396" lon="2.48558">
        <ele>415</ele>
        <time>2015-04-18T14:18:50Z</time>
      </trkpt>
      <trkpt lat="46.18393" lon="2.48554">
        <ele>415</ele>
        <time>2015-04-18T14:18:52Z</time>
      </trkpt>
      <trkpt lat="46.18391" lon="2.4855">
        <ele>415</ele>
        <time>2015-04-18T14:18:54Z</time>
      </trkpt>
      <trkpt lat="46.18388" lon="2.48549">
        <ele>415</ele>
        <time>2015-04-18T14:18:56Z</time>
      </trkpt>
      <trkpt lat="46.18386" lon="2.48546">
        <ele>415</ele>
        <time>2015-04-18T14:18:58Z</time>
      </trkpt>
      <trkpt lat="46.18384" lon="2.48543">
        <ele>415</ele>
        <time>2015-04-18T14:19:00Z</time>
      </trkpt>
      <trkpt lat="46.18381" lon="2.4854">
        <ele>415</ele>
        <time>2015-04-18T14:19:03Z</time>
      </trkpt>
      <trkpt lat="46.1838" lon="2.48536">
        <ele>416</ele>
        <time>2015-04-18T14:19:05Z</time>
      </trkpt>
      <trkpt lat="46.18377" lon="2.48532">
        <ele>416</ele>
        <time>2015-04-18T14:19:07Z</time>
      </trkpt>
      <trkpt lat="46.18374" lon="2.48529">
        <ele>417</ele>
        <time>2015-04-18T14:19:10Z</time>
      </trkpt>
      <trkpt lat="46.18372" lon="2.48527">
        <ele>417</ele>
        <time>2015-04-18T14:19:12Z</time>
      </trkpt>
      <trkpt lat="46.18369" lon="2.48524">
        <ele>417</ele>
        <time>2015-04-18T14:19:14Z</time>
      </trkpt>
      <trkpt lat="46.18367" lon="2.4852">
        <ele>417</ele>
        <time>2015-04-18T14:19:16Z</time>
      </trkpt>
      <trkpt lat="46.18366" lon="2.48517">
        <ele>417</ele>
        <time>2015-04-18T14:19:18Z</time>
      </trkpt>
      <trkpt lat="46.18364" lon="2.48514">
        <ele>417</ele>
        <time>2015-04-18T14:19:20Z</time>
      </trkpt>
      <trkpt lat="46.18363" lon="2.4851">
        <ele>417</ele>
        <time>2015-04-18T14:19:22Z</time>
      </trkpt>
      <trkpt lat="46.18363" lon="2.48506">
        <ele>417</ele>
        <time>2015-04-18T14:19:24Z</time>
      </trkpt>
      <trkpt lat="46.18361" lon="2.485">
        <ele>417</ele>
        <time>2015-04-18T14:19:26Z</time>
      </trkpt>
      <trkpt lat="46.18362" lon="2.48496">
        <ele>417</ele>
        <time>2015-04-18T14:19:28Z</time>
      </trkpt>
      <trkpt lat="46.18361" lon="2.48492">
        <ele>417</ele>
        <time>2015-04-18T14:19:30Z</time>
      </trkpt>
      <trkpt lat="46.1836" lon="2.48487">
        <ele>418</ele>
        <time>2015-04-18T14:19:32Z</time>
      </trkpt>
      <trkpt lat="46.18359" lon="2.48484">
        <ele>418</ele>
        <time>2015-04-18T14:19:34Z</time>
      </trkpt>
      <trkpt lat="46.18357" lon="2.48479">
        <ele>419</ele>
        <time>2015-04-18T14:19:36Z</time>
      </trkpt>
      <trkpt lat="46.18354" lon="2.48475">
        <ele>419</ele>
        <time>2015-04-18T14:19:38Z</time>
      </trkpt>
      <trkpt lat="46.18353" lon="2.48473">
        <ele>419</ele>
        <time>2015-04-18T14:19:40Z</time>
      </trkpt>
      <trkpt lat="46.18352" lon="2.4847">
        <ele>419</ele>
        <time>2015-04-18T14:19:42Z</time>
      </trkpt>
      <trkpt lat="46.1835" lon="2.48466">
        <ele>419</ele>
        <time>2015-04-18T14:19:44Z</time>
      </trkpt>
      <trkpt lat="46.18348" lon="2.48462">
        <ele>419</ele>
        <time>2015-04-18T14:19:46Z</time>
      </trkpt>
      <trkpt lat="46.18345" lon="2.48459">
        <ele>419</ele>
        <time>2015-04-18T14:19:48Z</time>
      </trkpt>
      <trkpt lat="46.18343" lon="2.48458">
        <ele>419</ele>
        <time>2015-04-18T14:19:51Z</time>
      </trkpt>
      <trkpt lat="46.18342" lon="2.48455">
        <ele>419</ele>
        <time>2015-04-18T14:19:53Z</time>
      </trkpt>
      <trkpt lat="46.18342" lon="2.48451">
        <ele>419</ele>
        <time>2015-04-18T14:19:55Z</time>
      </trkpt>
      <trkpt lat="46.18342" lon="2.48449">
        <ele>419</ele>
        <time>2015-04-18T14:19:57Z</time>
      </trkpt>
      <trkpt lat="46.18341" lon="2.48446">
        <ele>419</ele>
        <time>2015-04-18T14:19:59Z</time>
      </trkpt>
      <trkpt lat="46.1834" lon="2.48443">
        <ele>419</ele>
        <time>2015-04-18T14:20:01Z</time>
      </trkpt>
      <trkpt lat="46.18339" lon="2.48441">
        <ele>419</ele>
        <time>2015-04-18T14:20:03Z</time>
      </trkpt>
      <trkpt lat="46.18339" lon="2.48437">
        <ele>419</ele>
        <time>2015-04-18T14:20:05Z</time>
      </trkpt>
      <trkpt lat="46.18338" lon="2.48433">
        <ele>419</ele>
        <time>2015-04-18T14:20:07Z</time>
      </trkpt>
      <trkpt lat="46.18337" lon="2.48429">
        <ele>419</ele>
        <time>2015-04-18T14:20:10Z</time>
      </trkpt>
      <trkpt lat="46.18338" lon="2.48426">
        <ele>419</ele>
        <time>2015-04-18T14:20:12Z</time>
      </trkpt>
      <trkpt lat="46.1834" lon="2.48421">
        <ele>420</ele>
        <time>2015-04-18T14:20:14Z</time>
      </trkpt>
      <trkpt lat="46.18341" lon="2.48416">
        <ele>421</ele>
        <time>2015-04-18T14:20:16Z</time>
      </trkpt>
      <trkpt lat="46.18339" lon="2.48412">
        <ele>421</ele>
        <time>2015-04-18T14:20:19Z</time>
      </trkpt>
      <trkpt lat="46.18339" lon="2.48408">
        <ele>422</ele>
        <time>2015-04-18T14:20:21Z</time>
      </trkpt>
      <trkpt lat="46.18338" lon="2.48404">
        <ele>422</ele>
        <time>2015-04-18T14:20:23Z</time>
      </trkpt>
      <trkpt lat="46.18338" lon="2.48401">
        <ele>422</ele>
        <time>2015-04-18T14:20:25Z</time>
      </trkpt>
      <trkpt lat="46.18337" lon="2.48397">
        <ele>423</ele>
        <time>2015-04-18T14:20:27Z</time>
      </trkpt>
      <trkpt lat="46.18336" lon="2.48394">
        <ele>423</ele>
        <time>2015-04-18T14:20:29Z</time>
      </trkpt>
      <trkpt lat="46.18335" lon="2.48389">
        <ele>424</ele>
        <time>2015-04-18T14:20:31Z</time>
      </trkpt>
      <trkpt lat="46.18334" lon="2.48387">
        <ele>425</ele>
        <time>2015-04-18T14:20:33Z</time>
      </trkpt>
      <trkpt lat="46.18333" lon="2.48384">
        <ele>425</ele>
        <time>2015-04-18T14:20:35Z</time>
      </trkpt>
      <trkpt lat="46.18332" lon="2.48383">
        <ele>425</ele>
        <time>2015-04-18T14:20:37Z</time>
      </trkpt>
      <trkpt lat="46.18331" lon="2.4838">
        <ele>425</ele>
        <time>2015-04-18T14:20:39Z</time>
      </trkpt>
      <trkpt lat="46.18328" lon="2.48375">
        <ele>425</ele>
        <time>2015-04-18T14:20:42Z</time>
      </trkpt>
      <trkpt lat="46.18325" lon="2.48375">
        <ele>425</ele>
        <time>2015-04-18T14:20:44Z</time>
      </trkpt>
      <trkpt lat="46.18324" lon="2.48372">
        <ele>425</ele>
        <time>2015-04-18T14:20:46Z</time>
      </trkpt>
      <trkpt lat="46.18324" lon="2.48368">
        <ele>425</ele>
        <time>2015-04-18T14:20:48Z</time>
      </trkpt>
      <trkpt lat="46.18323" lon="2.48364">
        <ele>425</ele>
        <time>2015-04-18T14:20:50Z</time>
      </trkpt>
      <trkpt lat="46.18321" lon="2.48361">
        <ele>425</ele>
        <time>2015-04-18T14:20:52Z</time>
      </trkpt>
      <trkpt lat="46.18317" lon="2.48356">
        <ele>425</ele>
        <time>2015-04-18T14:20:55Z</time>
      </trkpt>
      <trkpt lat="46.18316" lon="2.48355">
        <ele>425</ele>
        <time>2015-04-18T14:20:57Z</time>
      </trkpt>
      <trkpt lat="46.18314" lon="2.48352">
        <ele>425</ele>
        <time>2015-04-18T14:20:59Z</time>
      </trkpt>
      <trkpt lat="46.18313" lon="2.48348">
        <ele>425</ele>
        <time>2015-04-18T14:21:01Z</time>
      </trkpt>
      <trkpt lat="46.1831" lon="2.48344">
        <ele>425</ele>
        <time>2015-04-18T14:21:04Z</time>
      </trkpt>
      <trkpt lat="46.18309" lon="2.48342">
        <ele>425</ele>
        <time>2015-04-18T14:21:06Z</time>
      </trkpt>
      <trkpt lat="46.18307" lon="2.4834">
        <ele>425</ele>
        <time>2015-04-18T14:21:08Z</time>
      </trkpt>
      <trkpt lat="46.18305" lon="2.48338">
        <ele>425</ele>
        <time>2015-04-18T14:21:10Z</time>
      </trkpt>
      <trkpt lat="46.18303" lon="2.48334">
        <ele>425</ele>
        <time>2015-04-18T14:21:13Z</time>
      </trkpt>
      <trkpt lat="46.18301" lon="2.4833">
        <ele>425</ele>
        <time>2015-04-18T14:21:15Z</time>
      </trkpt>
      <trkpt lat="46.18299" lon="2.48328">
        <ele>425</ele>
        <time>2015-04-18T14:21:17Z</time>
      </trkpt>
      <trkpt lat="46.18298" lon="2.48326">
        <ele>426</ele>
        <time>2015-04-18T14:21:19Z</time>
      </trkpt>
      <trkpt lat="46.18295" lon="2.48322">
        <ele>426</ele>
        <time>2015-04-18T14:21:22Z</time>
      </trkpt>
      <trkpt lat="46.18293" lon="2.48318">
        <ele>426</ele>
        <time>2015-04-18T14:21:24Z</time>
      </trkpt>
      <trkpt lat="46.18291" lon="2.48313">
        <ele>427</ele>
        <time>2015-04-18T14:21:27Z</time>
      </trkpt>
      <trkpt lat="46.1829" lon="2.48309">
        <ele>427</ele>
        <time>2015-04-18T14:21:30Z</time>
      </trkpt>
      <trkpt lat="46.18289" lon="2.48306">
        <ele>428</ele>
        <time>2015-04-18T14:21:32Z</time>
      </trkpt>
      <trkpt lat="46.18288" lon="2.48303">
        <ele>428</ele>
        <time>2015-04-18T14:21:34Z</time>
      </trkpt>
      <trkpt lat="46.18287" lon="2.48299">
        <ele>428</ele>
        <time>2015-04-18T14:21:37Z</time>
      </trkpt>
      <trkpt lat="46.18287" lon="2.48297">
        <ele>428</ele>
        <time>2015-04-18T14:21:39Z</time>
      </trkpt>
      <trkpt lat="46.18287" lon="2.48295">
        <ele>428</ele>
        <time>2015-04-18T14:21:41Z</time>
      </trkpt>
      <trkpt lat="46.18287" lon="2.48291">
        <ele>428</ele>
        <time>2015-04-18T14:21:43Z</time>
      </trkpt>
      <trkpt lat="46.18287" lon="2.48289">
        <ele>428</ele>
        <time>2015-04-18T14:21:45Z</time>
      </trkpt>
      <trkpt lat="46.18286" lon="2.48284">
        <ele>428</ele>
        <time>2015-04-18T14:21:48Z</time>
      </trkpt>
      <trkpt lat="46.18285" lon="2.48281">
        <ele>428</ele>
        <time>2015-04-18T14:21:50Z</time>
      </trkpt>
      <trkpt lat="46.18284" lon="2.48278">
        <ele>428</ele>
        <time>2015-04-18T14:21:52Z</time>
      </trkpt>
      <trkpt lat="46.18283" lon="2.48274">
        <ele>429</ele>
        <time>2015-04-18T14:21:54Z</time>
      </trkpt>
      <trkpt lat="46.18282" lon="2.4827">
        <ele>429</ele>
        <time>2015-04-18T14:21:56Z</time>
      </trkpt>
      <trkpt lat="46.1828" lon="2.48268">
        <ele>429</ele>
        <time>2015-04-18T14:21:58Z</time>
      </trkpt>
      <trkpt lat="46.18277" lon="2.48264">
        <ele>430</ele>
        <time>2015-04-18T14:22:01Z</time>
      </trkpt>
      <trkpt lat="46.18274" lon="2.48262">
        <ele>430</ele>
        <time>2015-04-18T14:22:03Z</time>
      </trkpt>
      <trkpt lat="46.18271" lon="2.48259">
        <ele>431</ele>
        <time>2015-04-18T14:22:06Z</time>
      </trkpt>
      <trkpt lat="46.18269" lon="2.48257">
        <ele>431</ele>
        <time>2015-04-18T14:22:08Z</time>
      </trkpt>
      <trkpt lat="46.18266" lon="2.48256">
        <ele>432</ele>
        <time>2015-04-18T14:22:11Z</time>
      </trkpt>
      <trkpt lat="46.18264" lon="2.48255">
        <ele>432</ele>
        <time>2015-04-18T14:22:13Z</time>
      </trkpt>
      <trkpt lat="46.18261" lon="2.48253">
        <ele>432</ele>
        <time>2015-04-18T14:22:15Z</time>
      </trkpt>
      <trkpt lat="46.18259" lon="2.48253">
        <ele>432</ele>
        <time>2015-04-18T14:22:17Z</time>
      </trkpt>
      <trkpt lat="46.18256" lon="2.48251">
        <ele>432</ele>
        <time>2015-04-18T14:22:19Z</time>
      </trkpt>
      <trkpt lat="46.18254" lon="2.4825">
        <ele>432</ele>
        <time>2015-04-18T14:22:21Z</time>
      </trkpt>
      <trkpt lat="46.18252" lon="2.48249">
        <ele>432</ele>
        <time>2015-04-18T14:22:23Z</time>
      </trkpt>
      <trkpt lat="46.1825" lon="2.48249">
        <ele>432</ele>
        <time>2015-04-18T14:22:25Z</time>
      </trkpt>
      <trkpt lat="46.18246" lon="2.48248">
        <ele>432</ele>
        <time>2015-04-18T14:22:28Z</time>
      </trkpt>
      <trkpt lat="46.18245" lon="2.48247">
        <ele>432</ele>
        <time>2015-04-18T14:22:30Z</time>
      </trkpt>
      <trkpt lat="46.18243" lon="2.48246">
        <ele>432</ele>
        <time>2015-04-18T14:22:32Z</time>
      </trkpt>
      <trkpt lat="46.1824" lon="2.48245">
        <ele>432</ele>
        <time>2015-04-18T14:22:35Z</time>
      </trkpt>
      <trkpt lat="46.18238" lon="2.48244">
        <ele>432</ele>
        <time>2015-04-18T14:22:37Z</time>
      </trkpt>
      <trkpt lat="46.18235" lon="2.48245">
        <ele>432</ele>
        <time>2015-04-18T14:22:39Z</time>
      </trkpt>
      <trkpt lat="46.18232" lon="2.48247">
        <ele>432</ele>
        <time>2015-04-18T14:22:41Z</time>
      </trkpt>
      <trkpt lat="46.1823" lon="2.48249">
        <ele>432</ele>
        <time>2015-04-18T14:22:43Z</time>
      </trkpt>
      <trkpt lat="46.18227" lon="2.4825">
        <ele>432</ele>
        <time>2015-04-18T14:22:45Z</time>
      </trkpt>
      <trkpt lat="46.18224" lon="2.48251">
        <ele>432</ele>
        <time>2015-04-18T14:22:47Z</time>
      </trkpt>
      <trkpt lat="46.18222" lon="2.48252">
        <ele>432</ele>
        <time>2015-04-18T14:22:49Z</time>
      </trkpt>
      <trkpt lat="46.18219" lon="2.48253">
        <ele>432</ele>
        <time>2015-04-18T14:22:51Z</time>
      </trkpt>
      <trkpt lat="46.18217" lon="2.48254">
        <ele>432</ele>
        <time>2015-04-18T14:22:53Z</time>
      </trkpt>
      <trkpt lat="46.18214" lon="2.48255">
        <ele>432</ele>
        <time>2015-04-18T14:22:55Z</time>
      </trkpt>
      <trkpt lat="46.18212" lon="2.48256">
        <ele>432</ele>
        <time>2015-04-18T14:22:57Z</time>
      </trkpt>
      <trkpt lat="46.18209" lon="2.48257">
        <ele>432</ele>
        <time>2015-04-18T14:22:59Z</time>
      </trkpt>
      <trkpt lat="46.18207" lon="2.48259">
        <ele>432</ele>
        <time>2015-04-18T14:23:01Z</time>
      </trkpt>
      <trkpt lat="46.18204" lon="2.4826">
        <ele>432</ele>
        <time>2015-04-18T14:23:03Z</time>
      </trkpt>
      <trkpt lat="46.18201" lon="2.48261">
        <ele>432</ele>
        <time>2015-04-18T14:23:05Z</time>
      </trkpt>
      <trkpt lat="46.18198" lon="2.48262">
        <ele>432</ele>
        <time>2015-04-18T14:23:07Z</time>
      </trkpt>
      <trkpt lat="46.18195" lon="2.48263">
        <ele>432</ele>
        <time>2015-04-18T14:23:09Z</time>
      </trkpt>
      <trkpt lat="46.18193" lon="2.48264">
        <ele>432</ele>
        <time>2015-04-18T14:23:11Z</time>
      </trkpt>
      <trkpt lat="46.1819" lon="2.48266">
        <ele>432</ele>
        <time>2015-04-18T14:23:13Z</time>
      </trkpt>
      <trkpt lat="46.18187" lon="2.48267">
        <ele>432</ele>
        <time>2015-04-18T14:23:15Z</time>
      </trkpt>
      <trkpt lat="46.18184" lon="2.48268">
        <ele>432</ele>
        <time>2015-04-18T14:23:17Z</time>
      </trkpt>
      <trkpt lat="46.18181" lon="2.48269">
        <ele>432</ele>
        <time>2015-04-18T14:23:19Z</time>
      </trkpt>
      <trkpt lat="46.18178" lon="2.48269">
        <ele>432</ele>
        <time>2015-04-18T14:23:21Z</time>
      </trkpt>
      <trkpt lat="46.18175" lon="2.4827">
        <ele>432</ele>
        <time>2015-04-18T14:23:23Z</time>
      </trkpt>
      <trkpt lat="46.18172" lon="2.48271">
        <ele>432</ele>
        <time>2015-04-18T14:23:25Z</time>
      </trkpt>
      <trkpt lat="46.18169" lon="2.48272">
        <ele>433</ele>
        <time>2015-04-18T14:23:27Z</time>
      </trkpt>
      <trkpt lat="46.18166" lon="2.48273">
        <ele>433</ele>
        <time>2015-04-18T14:23:29Z</time>
      </trkpt>
      <trkpt lat="46.18164" lon="2.48274">
        <ele>433</ele>
        <time>2015-04-18T14:23:31Z</time>
      </trkpt>
      <trkpt lat="46.18161" lon="2.48275">
        <ele>433</ele>
        <time>2015-04-18T14:23:33Z</time>
      </trkpt>
      <trkpt lat="46.18158" lon="2.48276">
        <ele>433</ele>
        <time>2015-04-18T14:23:35Z</time>
      </trkpt>
      <trkpt lat="46.18155" lon="2.48278">
        <ele>433</ele>
        <time>2015-04-18T14:23:37Z</time>
      </trkpt>
      <trkpt lat="46.18152" lon="2.4828">
        <ele>434</ele>
        <time>2015-04-18T14:23:39Z</time>
      </trkpt>
      <trkpt lat="46.18149" lon="2.48281">
        <ele>434</ele>
        <time>2015-04-18T14:23:41Z</time>
      </trkpt>
      <trkpt lat="46.18147" lon="2.48282">
        <ele>434</ele>
        <time>2015-04-18T14:23:43Z</time>
      </trkpt>
      <trkpt lat="46.18144" lon="2.48283">
        <ele>434</ele>
        <time>2015-04-18T14:23:45Z</time>
      </trkpt>
      <trkpt lat="46.18141" lon="2.48284">
        <ele>434</ele>
        <time>2015-04-18T14:23:47Z</time>
      </trkpt>
      <trkpt lat="46.18139" lon="2.48286">
        <ele>434</ele>
        <time>2015-04-18T14:23:49Z</time>
      </trkpt>
      <trkpt lat="46.18136" lon="2.48287">
        <ele>434</ele>
        <time>2015-04-18T14:23:51Z</time>
      </trkpt>
      <trkpt lat="46.18134" lon="2.48288">
        <ele>434</ele>
        <time>2015-04-18T14:23:53Z</time>
      </trkpt>
      <trkpt lat="46.18131" lon="2.48289">
        <ele>434</ele>
        <time>2015-04-18T14:23:55Z</time>
      </trkpt>
      <trkpt lat="46.18128" lon="2.4829">
        <ele>434</ele>
        <time>2015-04-18T14:23:57Z</time>
      </trkpt>
      <trkpt lat="46.18125" lon="2.48291">
        <ele>434</ele>
        <time>2015-04-18T14:23:59Z</time>
      </trkpt>
      <trkpt lat="46.18122" lon="2.48291">
        <ele>434</ele>
        <time>2015-04-18T14:24:01Z</time>
      </trkpt>
      <trkpt lat="46.1812" lon="2.48292">
        <ele>434</ele>
        <time>2015-04-18T14:24:03Z</time>
      </trkpt>
      <trkpt lat="46.18117" lon="2.48292">
        <ele>434</ele>
        <time>2015-04-18T14:24:05Z</time>
      </trkpt>
      <trkpt lat="46.18114" lon="2.48291">
        <ele>434</ele>
        <time>2015-04-18T14:24:07Z</time>
      </trkpt>
      <trkpt lat="46.18111" lon="2.4829">
        <ele>434</ele>
        <time>2015-04-18T14:24:09Z</time>
      </trkpt>
      <trkpt lat="46.18109" lon="2.48289">
        <ele>434</ele>
        <time>2015-04-18T14:24:11Z</time>
      </trkpt>
      <trkpt lat="46.18107" lon="2.48287">
        <ele>434</ele>
        <time>2015-04-18T14:24:13Z</time>
      </trkpt>
      <trkpt lat="46.18104" lon="2.48285">
        <ele>434</ele>
        <time>2015-04-18T14:24:15Z</time>
      </trkpt>
      <trkpt lat="46.18102" lon="2.48283">
        <ele>434</ele>
        <time>2015-04-18T14:24:17Z</time>
      </trkpt>
      <trkpt lat="46.18099" lon="2.48281">
        <ele>434</ele>
        <time>2015-04-18T14:24:19Z</time>
      </trkpt>
      <trkpt lat="46.18097" lon="2.4828">
        <ele>434</ele>
        <time>2015-04-18T14:24:21Z</time>
      </trkpt>
      <trkpt lat="46.18093" lon="2.48277">
        <ele>434</ele>
        <time>2015-04-18T14:24:24Z</time>
      </trkpt>
      <trkpt lat="46.18091" lon="2.48275">
        <ele>434</ele>
        <time>2015-04-18T14:24:26Z</time>
      </trkpt>
      <trkpt lat="46.18088" lon="2.48273">
        <ele>434</ele>
        <time>2015-04-18T14:24:28Z</time>
      </trkpt>
      <trkpt lat="46.18086" lon="2.48272">
        <ele>434</ele>
        <time>2015-04-18T14:24:30Z</time>
      </trkpt>
      <trkpt lat="46.18083" lon="2.48271">
        <ele>434</ele>
        <time>2015-04-18T14:24:32Z</time>
      </trkpt>
      <trkpt lat="46.1808" lon="2.48271">
        <ele>434</ele>
        <time>2015-04-18T14:24:34Z</time>
      </trkpt>
      <trkpt lat="46.18077" lon="2.48271">
        <ele>434</ele>
        <time>2015-04-18T14:24:36Z</time>
      </trkpt>
      <trkpt lat="46.18074" lon="2.48271">
        <ele>434</ele>
        <time>2015-04-18T14:24:38Z</time>
      </trkpt>
      <trkpt lat="46.18071" lon="2.48272">
        <ele>434</ele>
        <time>2015-04-18T14:24:40Z</time>
      </trkpt>
      <trkpt lat="46.18069" lon="2.48274">
        <ele>434</ele>
        <time>2015-04-18T14:24:42Z</time>
      </trkpt>
      <trkpt lat="46.18066" lon="2.48276">
        <ele>434</ele>
        <time>2015-04-18T14:24:44Z</time>
      </trkpt>
      <trkpt lat="46.18064" lon="2.48278">
        <ele>434</ele>
        <time>2015-04-18T14:24:46Z</time>
      </trkpt>
      <trkpt lat="46.18061" lon="2.4828">
        <ele>434</ele>
        <time>2015-04-18T14:24:48Z</time>
      </trkpt>
      <trkpt lat="46.18059" lon="2.48282">
        <ele>434</ele>
        <time>2015-04-18T14:24:50Z</time>
      </trkpt>
      <trkpt lat="46.18056" lon="2.48284">
        <ele>434</ele>
        <time>2015-04-18T14:24:52Z</time>
      </trkpt>
      <trkpt lat="46.18054" lon="2.48287">
        <ele>434</ele>
        <time>2015-04-18T14:24:54Z</time>
      </trkpt>
      <trkpt lat="46.18052" lon="2.48289">
        <ele>434</ele>
        <time>2015-04-18T14:24:56Z</time>
      </trkpt>
      <trkpt lat="46.1805" lon="2.48292">
        <ele>434</ele>
        <time>2015-04-18T14:24:58Z</time>
      </trkpt>
      <trkpt lat="46.18047" lon="2.48293">
        <ele>434</ele>
        <time>2015-04-18T14:25:00Z</time>
      </trkpt>
      <trkpt lat="46.18045" lon="2.48295">
        <ele>434</ele>
        <time>2015-04-18T14:25:02Z</time>
      </trkpt>
      <trkpt lat="46.18042" lon="2.48297">
        <ele>434</ele>
        <time>2015-04-18T14:25:04Z</time>
      </trkpt>
      <trkpt lat="46.18039" lon="2.48298">
        <ele>434</ele>
        <time>2015-04-18T14:25:06Z</time>
      </trkpt>
      <trkpt lat="46.18036" lon="2.483">
        <ele>434</ele>
        <time>2015-04-18T14:25:08Z</time>
      </trkpt>
      <trkpt lat="46.18033" lon="2.48302">
        <ele>434</ele>
        <time>2015-04-18T14:25:10Z</time>
      </trkpt>
      <trkpt lat="46.18031" lon="2.48304">
        <ele>434</ele>
        <time>2015-04-18T14:25:12Z</time>
      </trkpt>
      <trkpt lat="46.18028" lon="2.48306">
        <ele>434</ele>
        <time>2015-04-18T14:25:14Z</time>
      </trkpt>
      <trkpt lat="46.18025" lon="2.48308">
        <ele>434</ele>
        <time>2015-04-18T14:25:16Z</time>
      </trkpt>
      <trkpt lat="46.18023" lon="2.4831">
        <ele>434</ele>
        <time>2015-04-18T14:25:18Z</time>
      </trkpt>
      <trkpt lat="46.1802" lon="2.48312">
        <ele>434</ele>
        <time>2015-04-18T14:25:20Z</time>
      </trkpt>
      <trkpt lat="46.18018" lon="2.48313">
        <ele>434</ele>
        <time>2015-04-18T14:25:22Z</time>
      </trkpt>
      <trkpt lat="46.18015" lon="2.48316">
        <ele>434</ele>
        <time>2015-04-18T14:25:24Z</time>
      </trkpt>
      <trkpt lat="46.18012" lon="2.48317">
        <ele>434</ele>
        <time>2015-04-18T14:25:26Z</time>
      </trkpt>
      <trkpt lat="46.18009" lon="2.4832">
        <ele>434</ele>
        <time>2015-04-18T14:25:28Z</time>
      </trkpt>
      <trkpt lat="46.18007" lon="2.48322">
        <ele>434</ele>
        <time>2015-04-18T14:25:30Z</time>
      </trkpt>
      <trkpt lat="46.18004" lon="2.48323">
        <ele>434</ele>
        <time>2015-04-18T14:25:32Z</time>
      </trkpt>
      <trkpt lat="46.18001" lon="2.48324">
        <ele>434</ele>
        <time>2015-04-18T14:25:34Z</time>
      </trkpt>
      <trkpt lat="46.17998" lon="2.48325">
        <ele>434</ele>
        <time>2015-04-18T14:25:36Z</time>
      </trkpt>
      <trkpt lat="46.17995" lon="2.48327">
        <ele>434</ele>
        <time>2015-04-18T14:25:38Z</time>
      </trkpt>
      <trkpt lat="46.17993" lon="2.48328">
        <ele>434</ele>
        <time>2015-04-18T14:25:40Z</time>
      </trkpt>
      <trkpt lat="46.1799" lon="2.48329">
        <ele>434</ele>
        <time>2015-04-18T14:25:42Z</time>
      </trkpt>
      <trkpt lat="46.17987" lon="2.4833">
        <ele>434</ele>
        <time>2015-04-18T14:25:44Z</time>
      </trkpt>
      <trkpt lat="46.17984" lon="2.48333">
        <ele>434</ele>
        <time>2015-04-18T14:25:46Z</time>
      </trkpt>
      <trkpt lat="46.17981" lon="2.48334">
        <ele>434</ele>
        <time>2015-04-18T14:25:48Z</time>
      </trkpt>
      <trkpt lat="46.17978" lon="2.48335">
        <ele>434</ele>
        <time>2015-04-18T14:25:50Z</time>
      </trkpt>
      <trkpt lat="46.17975" lon="2.48336">
        <ele>434</ele>
        <time>2015-04-18T14:25:52Z</time>
      </trkpt>
      <trkpt lat="46.17973" lon="2.48338">
        <ele>434</ele>
        <time>2015-04-18T14:25:54Z</time>
      </trkpt>
      <trkpt lat="46.1797" lon="2.48339">
        <ele>434</ele>
        <time>2015-04-18T14:25:56Z</time>
      </trkpt>
      <trkpt lat="46.17966" lon="2.48341">
        <ele>434</ele>
        <time>2015-04-18T14:25:59Z</time>
      </trkpt>
      <trkpt lat="46.17963" lon="2.48342">
        <ele>434</ele>
        <time>2015-04-18T14:26:01Z</time>
      </trkpt>
      <trkpt lat="46.1796" lon="2.48343">
        <ele>434</ele>
        <time>2015-04-18T14:26:03Z</time>
      </trkpt>
      <trkpt lat="46.17958" lon="2.48344">
        <ele>434</ele>
        <time>2015-04-18T14:26:05Z</time>
      </trkpt>
      <trkpt lat="46.17955" lon="2.48345">
        <ele>434</ele>
        <time>2015-04-18T14:26:07Z</time>
      </trkpt>
      <trkpt lat="46.17952" lon="2.48346">
        <ele>434</ele>
        <time>2015-04-18T14:26:09Z</time>
      </trkpt>
      <trkpt lat="46.17949" lon="2.48347">
        <ele>434</ele>
        <time>2015-04-18T14:26:11Z</time>
      </trkpt>
      <trkpt lat="46.17946" lon="2.48348">
        <ele>434</ele>
        <time>2015-04-18T14:26:13Z</time>
      </trkpt>
      <trkpt lat="46.17944" lon="2.48349">
        <ele>434</ele>
        <time>2015-04-18T14:26:15Z</time>
      </trkpt>
      <trkpt lat="46.17941" lon="2.4835">
        <ele>434</ele>
        <time>2015-04-18T14:26:17Z</time>
      </trkpt>
      <trkpt lat="46.17938" lon="2.4835">
        <ele>434</ele>
        <time>2015-04-18T14:26:19Z</time>
      </trkpt>
      <trkpt lat="46.17935" lon="2.48351">
        <ele>434</ele>
        <time>2015-04-18T14:26:21Z</time>
      </trkpt>
      <trkpt lat="46.17932" lon="2.48351">
        <ele>434</ele>
        <time>2015-04-18T14:26:23Z</time>
      </trkpt>
      <trkpt lat="46.17929" lon="2.48352">
        <ele>434</ele>
        <time>2015-04-18T14:26:25Z</time>
      </trkpt>
      <trkpt lat="46.17927" lon="2.48352">
        <ele>434</ele>
        <time>2015-04-18T14:26:27Z</time>
      </trkpt>
      <trkpt lat="46.17924" lon="2.48353">
        <ele>434</ele>
        <time>2015-04-18T14:26:29Z</time>
      </trkpt>
      <trkpt lat="46.17921" lon="2.48353">
        <ele>434</ele>
        <time>2015-04-18T14:26:31Z</time>
      </trkpt>
      <trkpt lat="46.17918" lon="2.48353">
        <ele>434</ele>
        <time>2015-04-18T14:26:33Z</time>
      </trkpt>
      <trkpt lat="46.17915" lon="2.48353">
        <ele>434</ele>
        <time>2015-04-18T14:26:35Z</time>
      </trkpt>
      <trkpt lat="46.17912" lon="2.48353">
        <ele>434</ele>
        <time>2015-04-18T14:26:37Z</time>
      </trkpt>
      <trkpt lat="46.17909" lon="2.48354">
        <ele>434</ele>
        <time>2015-04-18T14:26:39Z</time>
      </trkpt>
      <trkpt lat="46.17907" lon="2.48354">
        <ele>434</ele>
        <time>2015-04-18T14:26:41Z</time>
      </trkpt>
      <trkpt lat="46.17904" lon="2.48354">
        <ele>434</ele>
        <time>2015-04-18T14:26:43Z</time>
      </trkpt>
      <trkpt lat="46.17901" lon="2.48354">
        <ele>434</ele>
        <time>2015-04-18T14:26:45Z</time>
      </trkpt>
      <trkpt lat="46.17899" lon="2.48353">
        <ele>434</ele>
        <time>2015-04-18T14:26:47Z</time>
      </trkpt>
      <trkpt lat="46.17896" lon="2.48353">
        <ele>434</ele>
        <time>2015-04-18T14:26:49Z</time>
      </trkpt>
      <trkpt lat="46.17893" lon="2.48353">
        <ele>434</ele>
        <time>2015-04-18T14:26:51Z</time>
      </trkpt>
      <trkpt lat="46.1789" lon="2.48352">
        <ele>434</ele>
        <time>2015-04-18T14:26:53Z</time>
      </trkpt>
      <trkpt lat="46.17886" lon="2.48352">
        <ele>434</ele>
        <time>2015-04-18T14:26:55Z</time>
      </trkpt>
      <trkpt lat="46.17884" lon="2.48352">
        <ele>434</ele>
        <time>2015-04-18T14:26:57Z</time>
      </trkpt>
      <trkpt lat="46.17881" lon="2.48351">
        <ele>434</ele>
        <time>2015-04-18T14:26:59Z</time>
      </trkpt>
      <trkpt lat="46.17878" lon="2.4835">
        <ele>434</ele>
        <time>2015-04-18T14:27:01Z</time>
      </trkpt>
      <trkpt lat="46.17876" lon="2.48349">
        <ele>435</ele>
        <time>2015-04-18T14:27:03Z</time>
      </trkpt>
      <trkpt lat="46.17873" lon="2.48348">
        <ele>436</ele>
        <time>2015-04-18T14:27:05Z</time>
      </trkpt>
      <trkpt lat="46.1787" lon="2.48348">
        <ele>436</ele>
        <time>2015-04-18T14:27:07Z</time>
      </trkpt>
      <trkpt lat="46.17867" lon="2.48348">
        <ele>436</ele>
        <time>2015-04-18T14:27:09Z</time>
      </trkpt>
      <trkpt lat="46.17864" lon="2.48348">
        <ele>436</ele>
        <time>2015-04-18T14:27:11Z</time>
      </trkpt>
      <trkpt lat="46.17862" lon="2.48347">
        <ele>436</ele>
        <time>2015-04-18T14:27:13Z</time>
      </trkpt>
      <trkpt lat="46.17859" lon="2.48347">
        <ele>436</ele>
        <time>2015-04-18T14:27:15Z</time>
      </trkpt>
      <trkpt lat="46.17856" lon="2.48346">
        <ele>436</ele>
        <time>2015-04-18T14:27:17Z</time>
      </trkpt>
      <trkpt lat="46.17854" lon="2.48345">
        <ele>436</ele>
        <time>2015-04-18T14:27:19Z</time>
      </trkpt>
      <trkpt lat="46.17851" lon="2.48344">
        <ele>436</ele>
        <time>2015-04-18T14:27:21Z</time>
      </trkpt>
      <trkpt lat="46.17848" lon="2.48344">
        <ele>436</ele>
        <time>2015-04-18T14:27:23Z</time>
      </trkpt>
      <trkpt lat="46.17846" lon="2.48343">
        <ele>436</ele>
        <time>2015-04-18T14:27:25Z</time>
      </trkpt>
      <trkpt lat="46.17842" lon="2.48342">
        <ele>436</ele>
        <time>2015-04-18T14:27:27Z</time>
      </trkpt>
      <trkpt lat="46.1784" lon="2.48341">
        <ele>436</ele>
        <time>2015-04-18T14:27:29Z</time>
      </trkpt>
      <trkpt lat="46.17837" lon="2.4834">
        <ele>436</ele>
        <time>2015-04-18T14:27:31Z</time>
      </trkpt>
      <trkpt lat="46.17834" lon="2.48339">
        <ele>436</ele>
        <time>2015-04-18T14:27:33Z</time>
      </trkpt>
      <trkpt lat="46.17832" lon="2.48338">
        <ele>436</ele>
        <time>2015-04-18T14:27:35Z</time>
      </trkpt>
      <trkpt lat="46.17829" lon="2.48337">
        <ele>436</ele>
        <time>2015-04-18T14:27:37Z</time>
      </trkpt>
      <trkpt lat="46.17827" lon="2.48336">
        <ele>436</ele>
        <time>2015-04-18T14:27:39Z</time>
      </trkpt>
      <trkpt lat="46.17824" lon="2.48334">
        <ele>436</ele>
        <time>2015-04-18T14:27:41Z</time>
      </trkpt>
      <trkpt lat="46.17821" lon="2.48334">
        <ele>437</ele>
        <time>2015-04-18T14:27:43Z</time>
      </trkpt>
      <trkpt lat="46.17819" lon="2.48333">
        <ele>437</ele>
        <time>2015-04-18T14:27:45Z</time>
      </trkpt>
      <trkpt lat="46.17817" lon="2.48331">
        <ele>437</ele>
        <time>2015-04-18T14:27:47Z</time>
      </trkpt>
      <trkpt lat="46.17814" lon="2.48329">
        <ele>437</ele>
        <time>2015-04-18T14:27:49Z</time>
      </trkpt>
      <trkpt lat="46.17811" lon="2.48327">
        <ele>437</ele>
        <time>2015-04-18T14:27:51Z</time>
      </trkpt>
      <trkpt lat="46.17809" lon="2.48326">
        <ele>438</ele>
        <time>2015-04-18T14:27:53Z</time>
      </trkpt>
      <trkpt lat="46.17807" lon="2.48325">
        <ele>438</ele>
        <time>2015-04-18T14:27:55Z</time>
      </trkpt>
      <trkpt lat="46.17803" lon="2.48323">
        <ele>439</ele>
        <time>2015-04-18T14:27:58Z</time>
      </trkpt>
      <trkpt lat="46.17801" lon="2.48322">
        <ele>439</ele>
        <time>2015-04-18T14:28:00Z</time>
      </trkpt>
      <trkpt lat="46.17798" lon="2.48321">
        <ele>439</ele>
        <time>2015-04-18T14:28:03Z</time>
      </trkpt>
      <trkpt lat="46.17795" lon="2.4832">
        <ele>440</ele>
        <time>2015-04-18T14:28:05Z</time>
      </trkpt>
      <trkpt lat="46.17793" lon="2.48319">
        <ele>440</ele>
        <time>2015-04-18T14:28:07Z</time>
      </trkpt>
      <trkpt lat="46.1779" lon="2.48317">
        <ele>440</ele>
        <time>2015-04-18T14:28:09Z</time>
      </trkpt>
      <trkpt lat="46.17787" lon="2.48315">
        <ele>440</ele>
        <time>2015-04-18T14:28:11Z</time>
      </trkpt>
      <trkpt lat="46.17785" lon="2.48313">
        <ele>440</ele>
        <time>2015-04-18T14:28:13Z</time>
      </trkpt>
      <trkpt lat="46.17782" lon="2.48311">
        <ele>440</ele>
        <time>2015-04-18T14:28:15Z</time>
      </trkpt>
      <trkpt lat="46.1778" lon="2.48309">
        <ele>441</ele>
        <time>2015-04-18T14:28:17Z</time>
      </trkpt>
      <trkpt lat="46.17777" lon="2.48306">
        <ele>441</ele>
        <time>2015-04-18T14:28:20Z</time>
      </trkpt>
      <trkpt lat="46.17775" lon="2.48302">
        <ele>442</ele>
        <time>2015-04-18T14:28:22Z</time>
      </trkpt>
      <trkpt lat="46.17775" lon="2.48298">
        <ele>442</ele>
        <time>2015-04-18T14:28:24Z</time>
      </trkpt>
      <trkpt lat="46.17776" lon="2.48294">
        <ele>443</ele>
        <time>2015-04-18T14:28:26Z</time>
      </trkpt>
      <trkpt lat="46.17778" lon="2.48291">
        <ele>443</ele>
        <time>2015-04-18T14:28:28Z</time>
      </trkpt>
      <trkpt lat="46.1778" lon="2.48288">
        <ele>443</ele>
        <time>2015-04-18T14:28:30Z</time>
      </trkpt>
      <trkpt lat="46.17783" lon="2.48285">
        <ele>443</ele>
        <time>2015-04-18T14:28:32Z</time>
      </trkpt>
      <trkpt lat="46.17786" lon="2.48283">
        <ele>443</ele>
        <time>2015-04-18T14:28:34Z</time>
      </trkpt>
      <trkpt lat="46.17788" lon="2.4828">
        <ele>444</ele>
        <time>2015-04-18T14:28:36Z</time>
      </trkpt>
      <trkpt lat="46.17789" lon="2.48277">
        <ele>444</ele>
        <time>2015-04-18T14:28:38Z</time>
      </trkpt>
      <trkpt lat="46.17791" lon="2.48274">
        <ele>444</ele>
        <time>2015-04-18T14:28:40Z</time>
      </trkpt>
      <trkpt lat="46.17794" lon="2.48269">
        <ele>444</ele>
        <time>2015-04-18T14:28:43Z</time>
      </trkpt>
      <trkpt lat="46.17794" lon="2.48265">
        <ele>444</ele>
        <time>2015-04-18T14:28:45Z</time>
      </trkpt>
      <trkpt lat="46.17794" lon="2.48262">
        <ele>444</ele>
        <time>2015-04-18T14:28:47Z</time>
      </trkpt>
      <trkpt lat="46.17792" lon="2.48258">
        <ele>444</ele>
        <time>2015-04-18T14:28:49Z</time>
      </trkpt>
      <trkpt lat="46.1779" lon="2.48255">
        <ele>444</ele>
        <time>2015-04-18T14:28:51Z</time>
      </trkpt>
      <trkpt lat="46.17788" lon="2.48252">
        <ele>444</ele>
        <time>2015-04-18T14:28:53Z</time>
      </trkpt>
      <trkpt lat="46.17786" lon="2.48249">
        <ele>444</ele>
        <time>2015-04-18T14:28:55Z</time>
      </trkpt>
      <trkpt lat="46.17784" lon="2.48247">
        <ele>444</ele>
        <time>2015-04-18T14:28:57Z</time>
      </trkpt>
      <trkpt lat="46.17781" lon="2.48246">
        <ele>444</ele>
        <time>2015-04-18T14:28:59Z</time>
      </trkpt>
      <trkpt lat="46.17778" lon="2.48245">
        <ele>444</ele>
        <time>2015-04-18T14:29:01Z</time>
      </trkpt>
      <trkpt lat="46.17775" lon="2.48244">
        <ele>444</ele>
        <time>2015-04-18T14:29:03Z</time>
      </trkpt>
      <trkpt lat="46.17772" lon="2.48243">
        <ele>444</ele>
        <time>2015-04-18T14:29:05Z</time>
      </trkpt>
      <trkpt lat="46.17769" lon="2.48243">
        <ele>444</ele>
        <time>2015-04-18T14:29:07Z</time>
      </trkpt>
      <trkpt lat="46.17765" lon="2.48242">
        <ele>444</ele>
        <time>2015-04-18T14:29:09Z</time>
      </trkpt>
      <trkpt lat="46.17762" lon="2.48241">
        <ele>445</ele>
        <time>2015-04-18T14:29:11Z</time>
      </trkpt>
      <trkpt lat="46.17759" lon="2.48241">
        <ele>445</ele>
        <time>2015-04-18T14:29:13Z</time>
      </trkpt>
      <trkpt lat="46.17757" lon="2.48241">
        <ele>446</ele>
        <time>2015-04-18T14:29:15Z</time>
      </trkpt>
      <trkpt lat="46.17753" lon="2.48241">
        <ele>446</ele>
        <time>2015-04-18T14:29:17Z</time>
      </trkpt>
      <trkpt lat="46.17751" lon="2.4824">
        <ele>446</ele>
        <time>2015-04-18T14:29:19Z</time>
      </trkpt>
      <trkpt lat="46.17748" lon="2.4824">
        <ele>446</ele>
        <time>2015-04-18T14:29:21Z</time>
      </trkpt>
      <trkpt lat="46.17745" lon="2.48239">
        <ele>446</ele>
        <time>2015-04-18T14:29:23Z</time>
      </trkpt>
      <trkpt lat="46.17742" lon="2.48237">
        <ele>446</ele>
        <time>2015-04-18T14:29:25Z</time>
      </trkpt>
      <trkpt lat="46.17739" lon="2.48234">
        <ele>446</ele>
        <time>2015-04-18T14:29:27Z</time>
      </trkpt>
      <trkpt lat="46.17737" lon="2.48232">
        <ele>447</ele>
        <time>2015-04-18T14:29:29Z</time>
      </trkpt>
      <trkpt lat="46.17734" lon="2.48229">
        <ele>447</ele>
        <time>2015-04-18T14:29:31Z</time>
      </trkpt>
      <trkpt lat="46.17732" lon="2.48226">
        <ele>447</ele>
        <time>2015-04-18T14:29:33Z</time>
      </trkpt>
      <trkpt lat="46.1773" lon="2.48224">
        <ele>447</ele>
        <time>2015-04-18T14:29:35Z</time>
      </trkpt>
      <trkpt lat="46.17728" lon="2.48221">
        <ele>447</ele>
        <time>2015-04-18T14:29:37Z</time>
      </trkpt>
      <trkpt lat="46.17726" lon="2.48219">
        <ele>447</ele>
        <time>2015-04-18T14:29:39Z</time>
      </trkpt>
      <trkpt lat="46.17724" lon="2.48217">
        <ele>447</ele>
        <time>2015-04-18T14:29:41Z</time>
      </trkpt>
      <trkpt lat="46.17722" lon="2.48214">
        <ele>447</ele>
        <time>2015-04-18T14:29:43Z</time>
      </trkpt>
      <trkpt lat="46.1772" lon="2.48211">
        <ele>447</ele>
        <time>2015-04-18T14:29:45Z</time>
      </trkpt>
      <trkpt lat="46.17718" lon="2.48209">
        <ele>447</ele>
        <time>2015-04-18T14:29:47Z</time>
      </trkpt>
      <trkpt lat="46.17716" lon="2.48206">
        <ele>447</ele>
        <time>2015-04-18T14:29:49Z</time>
      </trkpt>
      <trkpt lat="46.17714" lon="2.48204">
        <ele>447</ele>
        <time>2015-04-18T14:29:51Z</time>
      </trkpt>
      <trkpt lat="46.17711" lon="2.482">
        <ele>447</ele>
        <time>2015-04-18T14:29:54Z</time>
      </trkpt>
      <trkpt lat="46.17709" lon="2.48198">
        <ele>447</ele>
        <time>2015-04-18T14:29:56Z</time>
      </trkpt>
      <trkpt lat="46.17707" lon="2.48196">
        <ele>447</ele>
        <time>2015-04-18T14:29:58Z</time>
      </trkpt>
      <trkpt lat="46.17705" lon="2.48193">
        <ele>447</ele>
        <time>2015-04-18T14:30:00Z</time>
      </trkpt>
      <trkpt lat="46.17703" lon="2.4819">
        <ele>447</ele>
        <time>2015-04-18T14:30:02Z</time>
      </trkpt>
      <trkpt lat="46.17701" lon="2.48188">
        <ele>447</ele>
        <time>2015-04-18T14:30:04Z</time>
      </trkpt>
      <trkpt lat="46.17698" lon="2.48183">
        <ele>447</ele>
        <time>2015-04-18T14:30:07Z</time>
      </trkpt>
      <trkpt lat="46.17694" lon="2.4818">
        <ele>447</ele>
        <time>2015-04-18T14:30:10Z</time>
      </trkpt>
      <trkpt lat="46.17692" lon="2.48177">
        <ele>447</ele>
        <time>2015-04-18T14:30:12Z</time>
      </trkpt>
      <trkpt lat="46.17688" lon="2.48173">
        <ele>447</ele>
        <time>2015-04-18T14:30:15Z</time>
      </trkpt>
      <trkpt lat="46.17686" lon="2.48171">
        <ele>447</ele>
        <time>2015-04-18T14:30:17Z</time>
      </trkpt>
      <trkpt lat="46.17684" lon="2.48168">
        <ele>447</ele>
        <time>2015-04-18T14:30:19Z</time>
      </trkpt>
      <trkpt lat="46.17681" lon="2.48164">
        <ele>447</ele>
        <time>2015-04-18T14:30:22Z</time>
      </trkpt>
      <trkpt lat="46.17678" lon="2.4816">
        <ele>448</ele>
        <time>2015-04-18T14:30:25Z</time>
      </trkpt>
      <trkpt lat="46.17675" lon="2.48156">
        <ele>448</ele>
        <time>2015-04-18T14:30:28Z</time>
      </trkpt>
      <trkpt lat="46.17673" lon="2.48153">
        <ele>448</ele>
        <time>2015-04-18T14:30:30Z</time>
      </trkpt>
      <trkpt lat="46.17671" lon="2.48149">
        <ele>448</ele>
        <time>2015-04-18T14:30:32Z</time>
      </trkpt>
      <trkpt lat="46.1767" lon="2.48146">
        <ele>448</ele>
        <time>2015-04-18T14:30:34Z</time>
      </trkpt>
      <trkpt lat="46.17669" lon="2.48142">
        <ele>448</ele>
        <time>2015-04-18T14:30:36Z</time>
      </trkpt>
      <trkpt lat="46.17668" lon="2.48138">
        <ele>448</ele>
        <time>2015-04-18T14:30:38Z</time>
      </trkpt>
      <trkpt lat="46.17669" lon="2.48133">
        <ele>448</ele>
        <time>2015-04-18T14:30:40Z</time>
      </trkpt>
      <trkpt lat="46.17669" lon="2.48129">
        <ele>448</ele>
        <time>2015-04-18T14:30:42Z</time>
      </trkpt>
      <trkpt lat="46.17669" lon="2.48125">
        <ele>448</ele>
        <time>2015-04-18T14:30:44Z</time>
      </trkpt>
      <trkpt lat="46.1767" lon="2.48121">
        <ele>448</ele>
        <time>2015-04-18T14:30:46Z</time>
      </trkpt>
      <trkpt lat="46.1767" lon="2.48117">
        <ele>448</ele>
        <time>2015-04-18T14:30:48Z</time>
      </trkpt>
      <trkpt lat="46.1767" lon="2.48113">
        <ele>448</ele>
        <time>2015-04-18T14:30:50Z</time>
      </trkpt>
      <trkpt lat="46.1767" lon="2.48109">
        <ele>448</ele>
        <time>2015-04-18T14:30:52Z</time>
      </trkpt>
      <trkpt lat="46.17671" lon="2.48105">
        <ele>448</ele>
        <time>2015-04-18T14:30:54Z</time>
      </trkpt>
      <trkpt lat="46.17671" lon="2.48101">
        <ele>448</ele>
        <time>2015-04-18T14:30:56Z</time>
      </trkpt>
      <trkpt lat="46.17672" lon="2.48097">
        <ele>448</ele>
        <time>2015-04-18T14:30:58Z</time>
      </trkpt>
      <trkpt lat="46.17673" lon="2.48093">
        <ele>448</ele>
        <time>2015-04-18T14:31:00Z</time>
      </trkpt>
      <trkpt lat="46.17674" lon="2.48089">
        <ele>448</ele>
        <time>2015-04-18T14:31:02Z</time>
      </trkpt>
      <trkpt lat="46.17675" lon="2.48085">
        <ele>448</ele>
        <time>2015-04-18T14:31:04Z</time>
      </trkpt>
      <trkpt lat="46.17675" lon="2.48081">
        <ele>448</ele>
        <time>2015-04-18T14:31:06Z</time>
      </trkpt>
      <trkpt lat="46.17676" lon="2.48077">
        <ele>448</ele>
        <time>2015-04-18T14:31:08Z</time>
      </trkpt>
      <trkpt lat="46.17677" lon="2.48074">
        <ele>448</ele>
        <time>2015-04-18T14:31:10Z</time>
      </trkpt>
      <trkpt lat="46.17678" lon="2.4807">
        <ele>448</ele>
        <time>2015-04-18T14:31:12Z</time>
      </trkpt>
      <trkpt lat="46.1768" lon="2.48065">
        <ele>448</ele>
        <time>2015-04-18T14:31:14Z</time>
      </trkpt>
      <trkpt lat="46.17681" lon="2.48061">
        <ele>448</ele>
        <time>2015-04-18T14:31:16Z</time>
      </trkpt>
      <trkpt lat="46.17682" lon="2.48058">
        <ele>448</ele>
        <time>2015-04-18T14:31:18Z</time>
      </trkpt>
      <trkpt lat="46.17683" lon="2.48054">
        <ele>448</ele>
        <time>2015-04-18T14:31:20Z</time>
      </trkpt>
      <trkpt lat="46.17684" lon="2.4805">
        <ele>448</ele>
        <time>2015-04-18T14:31:22Z</time>
      </trkpt>
      <trkpt lat="46.17685" lon="2.48046">
        <ele>448</ele>
        <time>2015-04-18T14:31:24Z</time>
      </trkpt>
      <trkpt lat="46.17686" lon="2.48042">
        <ele>448</ele>
        <time>2015-04-18T14:31:26Z</time>
      </trkpt>
      <trkpt lat="46.17687" lon="2.48038">
        <ele>448</ele>
        <time>2015-04-18T14:31:28Z</time>
      </trkpt>
      <trkpt lat="46.17688" lon="2.48034">
        <ele>448</ele>
        <time>2015-04-18T14:31:30Z</time>
      </trkpt>
      <trkpt lat="46.17689" lon="2.4803">
        <ele>448</ele>
        <time>2015-04-18T14:31:32Z</time>
      </trkpt>
      <trkpt lat="46.1769" lon="2.48026">
        <ele>448</ele>
        <time>2015-04-18T14:31:34Z</time>
      </trkpt>
      <trkpt lat="46.17691" lon="2.48022">
        <ele>448</ele>
        <time>2015-04-18T14:31:36Z</time>
      </trkpt>
      <trkpt lat="46.17692" lon="2.48018">
        <ele>448</ele>
        <time>2015-04-18T14:31:38Z</time>
      </trkpt>
      <trkpt lat="46.17693" lon="2.48014">
        <ele>448</ele>
        <time>2015-04-18T14:31:40Z</time>
      </trkpt>
      <trkpt lat="46.17694" lon="2.48009">
        <ele>448</ele>
        <time>2015-04-18T14:31:42Z</time>
      </trkpt>
      <trkpt lat="46.17695" lon="2.48006">
        <ele>448</ele>
        <time>2015-04-18T14:31:44Z</time>
      </trkpt>
      <trkpt lat="46.17696" lon="2.48001">
        <ele>448</ele>
        <time>2015-04-18T14:31:46Z</time>
      </trkpt>
      <trkpt lat="46.17697" lon="2.47997">
        <ele>448</ele>
        <time>2015-04-18T14:31:48Z</time>
      </trkpt>
      <trkpt lat="46.17698" lon="2.47993">
        <ele>448</ele>
        <time>2015-04-18T14:31:50Z</time>
      </trkpt>
      <trkpt lat="46.17699" lon="2.47989">
        <ele>448</ele>
        <time>2015-04-18T14:31:52Z</time>
      </trkpt>
      <trkpt lat="46.177" lon="2.47985">
        <ele>448</ele>
        <time>2015-04-18T14:31:54Z</time>
      </trkpt>
      <trkpt lat="46.17701" lon="2.4798">
        <ele>448</ele>
        <time>2015-04-18T14:31:56Z</time>
      </trkpt>
      <trkpt lat="46.17702" lon="2.47976">
        <ele>448</ele>
        <time>2015-04-18T14:31:58Z</time>
      </trkpt>
      <trkpt lat="46.17702" lon="2.47972">
        <ele>448</ele>
        <time>2015-04-18T14:32:00Z</time>
      </trkpt>
      <trkpt lat="46.17703" lon="2.47968">
        <ele>448</ele>
        <time>2015-04-18T14:32:02Z</time>
      </trkpt>
      <trkpt lat="46.17704" lon="2.47964">
        <ele>448</ele>
        <time>2015-04-18T14:32:04Z</time>
      </trkpt>
      <trkpt lat="46.17705" lon="2.4796">
        <ele>448</ele>
        <time>2015-04-18T14:32:06Z</time>
      </trkpt>
      <trkpt lat="46.17706" lon="2.47956">
        <ele>448</ele>
        <time>2015-04-18T14:32:08Z</time>
      </trkpt>
      <trkpt lat="46.17707" lon="2.47952">
        <ele>448</ele>
        <time>2015-04-18T14:32:10Z</time>
      </trkpt>
      <trkpt lat="46.17708" lon="2.47948">
        <ele>448</ele>
        <time>2015-04-18T14:32:12Z</time>
      </trkpt>
      <trkpt lat="46.17709" lon="2.47943">
        <ele>448</ele>
        <time>2015-04-18T14:32:14Z</time>
      </trkpt>
      <trkpt lat="46.1771" lon="2.47939">
        <ele>448</ele>
        <time>2015-04-18T14:32:16Z</time>
      </trkpt>
      <trkpt lat="46.17711" lon="2.47935">
        <ele>448</ele>
        <time>2015-04-18T14:32:18Z</time>
      </trkpt>
      <trkpt lat="46.17712" lon="2.47931">
        <ele>448</ele>
        <time>2015-04-18T14:32:20Z</time>
      </trkpt>
      <trkpt lat="46.17712" lon="2.47927">
        <ele>448</ele>
        <time>2015-04-18T14:32:22Z</time>
      </trkpt>
      <trkpt lat="46.17712" lon="2.47922">
        <ele>448</ele>
        <time>2015-04-18T14:32:24Z</time>
      </trkpt>
      <trkpt lat="46.17712" lon="2.47918">
        <ele>448</ele>
        <time>2015-04-18T14:32:26Z</time>
      </trkpt>
      <trkpt lat="46.1771" lon="2.47914">
        <ele>448</ele>
        <time>2015-04-18T14:32:28Z</time>
      </trkpt>
      <trkpt lat="46.17707" lon="2.47911">
        <ele>448</ele>
        <time>2015-04-18T14:32:30Z</time>
      </trkpt>
      <trkpt lat="46.17705" lon="2.47909">
        <ele>448</ele>
        <time>2015-04-18T14:32:32Z</time>
      </trkpt>
      <trkpt lat="46.17702" lon="2.47908">
        <ele>448</ele>
        <time>2015-04-18T14:32:34Z</time>
      </trkpt>
      <trkpt lat="46.17699" lon="2.47907">
        <ele>448</ele>
        <time>2015-04-18T14:32:36Z</time>
      </trkpt>
      <trkpt lat="46.17696" lon="2.47906">
        <ele>448</ele>
        <time>2015-04-18T14:32:38Z</time>
      </trkpt>
      <trkpt lat="46.17693" lon="2.47905">
        <ele>448</ele>
        <time>2015-04-18T14:32:40Z</time>
      </trkpt>
      <trkpt lat="46.1769" lon="2.47905">
        <ele>448</ele>
        <time>2015-04-18T14:32:42Z</time>
      </trkpt>
      <trkpt lat="46.17688" lon="2.47904">
        <ele>448</ele>
        <time>2015-04-18T14:32:44Z</time>
      </trkpt>
      <trkpt lat="46.17685" lon="2.47904">
        <ele>448</ele>
        <time>2015-04-18T14:32:46Z</time>
      </trkpt>
      <trkpt lat="46.17682" lon="2.47903">
        <ele>448</ele>
        <time>2015-04-18T14:32:48Z</time>
      </trkpt>
      <trkpt lat="46.17679" lon="2.47903">
        <ele>448</ele>
        <time>2015-04-18T14:32:50Z</time>
      </trkpt>
      <trkpt lat="46.17677" lon="2.47902">
        <ele>448</ele>
        <time>2015-04-18T14:32:52Z</time>
      </trkpt>
      <trkpt lat="46.17673" lon="2.47902">
        <ele>448</ele>
        <time>2015-04-18T14:32:54Z</time>
      </trkpt>
      <trkpt lat="46.1767" lon="2.47902">
        <ele>448</ele>
        <time>2015-04-18T14:32:56Z</time>
      </trkpt>
      <trkpt lat="46.17667" lon="2.47901">
        <ele>448</ele>
        <time>2015-04-18T14:32:58Z</time>
      </trkpt>
      <trkpt lat="46.17665" lon="2.47901">
        <ele>448</ele>
        <time>2015-04-18T14:33:00Z</time>
      </trkpt>
      <trkpt lat="46.17662" lon="2.479">
        <ele>448</ele>
        <time>2015-04-18T14:33:02Z</time>
      </trkpt>
      <trkpt lat="46.17659" lon="2.479">
        <ele>448</ele>
        <time>2015-04-18T14:33:04Z</time>
      </trkpt>
      <trkpt lat="46.17656" lon="2.47899">
        <ele>448</ele>
        <time>2015-04-18T14:33:06Z</time>
      </trkpt>
      <trkpt lat="46.17651" lon="2.47898">
        <ele>448</ele>
        <time>2015-04-18T14:33:09Z</time>
      </trkpt>
      <trkpt lat="46.17648" lon="2.47898">
        <ele>448</ele>
        <time>2015-04-18T14:33:11Z</time>
      </trkpt>
      <trkpt lat="46.17644" lon="2.47897">
        <ele>448</ele>
        <time>2015-04-18T14:33:14Z</time>
      </trkpt>
      <trkpt lat="46.17641" lon="2.47897">
        <ele>448</ele>
        <time>2015-04-18T14:33:16Z</time>
      </trkpt>
      <trkpt lat="46.17638" lon="2.47897">
        <ele>448</ele>
        <time>2015-04-18T14:33:18Z</time>
      </trkpt>
      <trkpt lat="46.17634" lon="2.47896">
        <ele>448</ele>
        <time>2015-04-18T14:33:21Z</time>
      </trkpt>
      <trkpt lat="46.17631" lon="2.47895">
        <ele>448</ele>
        <time>2015-04-18T14:33:23Z</time>
      </trkpt>
      <trkpt lat="46.17628" lon="2.47894">
        <ele>448</ele>
        <time>2015-04-18T14:33:25Z</time>
      </trkpt>
      <trkpt lat="46.17625" lon="2.47893">
        <ele>448</ele>
        <time>2015-04-18T14:33:27Z</time>
      </trkpt>
      <trkpt lat="46.17622" lon="2.47892">
        <ele>448</ele>
        <time>2015-04-18T14:33:29Z</time>
      </trkpt>
      <trkpt lat="46.17619" lon="2.47891">
        <ele>448</ele>
        <time>2015-04-18T14:33:31Z</time>
      </trkpt>
      <trkpt lat="46.17617" lon="2.47889">
        <ele>448</ele>
        <time>2015-04-18T14:33:33Z</time>
      </trkpt>
      <trkpt lat="46.17614" lon="2.47887">
        <ele>448</ele>
        <time>2015-04-18T14:33:35Z</time>
      </trkpt>
      <trkpt lat="46.17611" lon="2.47885">
        <ele>448</ele>
        <time>2015-04-18T14:33:37Z</time>
      </trkpt>
      <trkpt lat="46.17609" lon="2.47883">
        <ele>448</ele>
        <time>2015-04-18T14:33:39Z</time>
      </trkpt>
      <trkpt lat="46.17606" lon="2.4788">
        <ele>448</ele>
        <time>2015-04-18T14:33:41Z</time>
      </trkpt>
      <trkpt lat="46.17604" lon="2.47876">
        <ele>448</ele>
        <time>2015-04-18T14:33:43Z</time>
      </trkpt>
      <trkpt lat="46.17603" lon="2.47873">
        <ele>448</ele>
        <time>2015-04-18T14:33:45Z</time>
      </trkpt>
      <trkpt lat="46.17601" lon="2.47869">
        <ele>448</ele>
        <time>2015-04-18T14:33:47Z</time>
      </trkpt>
      <trkpt lat="46.17598" lon="2.47866">
        <ele>448</ele>
        <time>2015-04-18T14:33:49Z</time>
      </trkpt>
      <trkpt lat="46.17596" lon="2.47863">
        <ele>448</ele>
        <time>2015-04-18T14:33:51Z</time>
      </trkpt>
      <trkpt lat="46.17594" lon="2.47859">
        <ele>448</ele>
        <time>2015-04-18T14:33:53Z</time>
      </trkpt>
      <trkpt lat="46.17592" lon="2.47856">
        <ele>448</ele>
        <time>2015-04-18T14:33:55Z</time>
      </trkpt>
      <trkpt lat="46.1759" lon="2.47853">
        <ele>448</ele>
        <time>2015-04-18T14:33:57Z</time>
      </trkpt>
      <trkpt lat="46.17587" lon="2.4785">
        <ele>448</ele>
        <time>2015-04-18T14:33:59Z</time>
      </trkpt>
      <trkpt lat="46.17585" lon="2.47847">
        <ele>448</ele>
        <time>2015-04-18T14:34:01Z</time>
      </trkpt>
      <trkpt lat="46.17582" lon="2.47844">
        <ele>448</ele>
        <time>2015-04-18T14:34:03Z</time>
      </trkpt>
      <trkpt lat="46.1758" lon="2.47842">
        <ele>448</ele>
        <time>2015-04-18T14:34:05Z</time>
      </trkpt>
      <trkpt lat="46.17577" lon="2.4784">
        <ele>448</ele>
        <time>2015-04-18T14:34:07Z</time>
      </trkpt>
      <trkpt lat="46.17574" lon="2.47838">
        <ele>448</ele>
        <time>2015-04-18T14:34:09Z</time>
      </trkpt>
      <trkpt lat="46.17572" lon="2.47836">
        <ele>448</ele>
        <time>2015-04-18T14:34:11Z</time>
      </trkpt>
      <trkpt lat="46.17569" lon="2.47834">
        <ele>448</ele>
        <time>2015-04-18T14:34:13Z</time>
      </trkpt>
      <trkpt lat="46.17567" lon="2.47833">
        <ele>448</ele>
        <time>2015-04-18T14:34:15Z</time>
      </trkpt>
      <trkpt lat="46.17564" lon="2.47832">
        <ele>448</ele>
        <time>2015-04-18T14:34:17Z</time>
      </trkpt>
      <trkpt lat="46.17561" lon="2.47831">
        <ele>448</ele>
        <time>2015-04-18T14:34:19Z</time>
      </trkpt>
      <trkpt lat="46.17558" lon="2.4783">
        <ele>448</ele>
        <time>2015-04-18T14:34:21Z</time>
      </trkpt>
      <trkpt lat="46.17556" lon="2.47829">
        <ele>449</ele>
        <time>2015-04-18T14:34:23Z</time>
      </trkpt>
      <trkpt lat="46.17553" lon="2.47829">
        <ele>449</ele>
        <time>2015-04-18T14:34:25Z</time>
      </trkpt>
      <trkpt lat="46.1755" lon="2.47829">
        <ele>449</ele>
        <time>2015-04-18T14:34:27Z</time>
      </trkpt>
      <trkpt lat="46.17546" lon="2.47828">
        <ele>449</ele>
        <time>2015-04-18T14:34:29Z</time>
      </trkpt>
      <trkpt lat="46.17544" lon="2.47828">
        <ele>449</ele>
        <time>2015-04-18T14:34:31Z</time>
      </trkpt>
      <trkpt lat="46.17541" lon="2.47827">
        <ele>449</ele>
        <time>2015-04-18T14:34:33Z</time>
      </trkpt>
      <trkpt lat="46.17538" lon="2.47827">
        <ele>449</ele>
        <time>2015-04-18T14:34:35Z</time>
      </trkpt>
      <trkpt lat="46.17535" lon="2.47827">
        <ele>449</ele>
        <time>2015-04-18T14:34:37Z</time>
      </trkpt>
      <trkpt lat="46.17532" lon="2.47828">
        <ele>449</ele>
        <time>2015-04-18T14:34:39Z</time>
      </trkpt>
      <trkpt lat="46.17529" lon="2.47828">
        <ele>449</ele>
        <time>2015-04-18T14:34:41Z</time>
      </trkpt>
      <trkpt lat="46.17525" lon="2.47828">
        <ele>449</ele>
        <time>2015-04-18T14:34:43Z</time>
      </trkpt>
      <trkpt lat="46.17522" lon="2.47828">
        <ele>449</ele>
        <time>2015-04-18T14:34:45Z</time>
      </trkpt>
      <trkpt lat="46.17519" lon="2.47827">
        <ele>449</ele>
        <time>2015-04-18T14:34:47Z</time>
      </trkpt>
      <trkpt lat="46.17516" lon="2.47827">
        <ele>449</ele>
        <time>2015-04-18T14:34:49Z</time>
      </trkpt>
      <trkpt lat="46.17511" lon="2.47828">
        <ele>450</ele>
        <time>2015-04-18T14:34:52Z</time>
      </trkpt>
      <trkpt lat="46.17508" lon="2.47829">
        <ele>450</ele>
        <time>2015-04-18T14:34:54Z</time>
      </trkpt>
      <trkpt lat="46.17505" lon="2.4783">
        <ele>450</ele>
        <time>2015-04-18T14:34:56Z</time>
      </trkpt>
      <trkpt lat="46.17502" lon="2.47831">
        <ele>450</ele>
        <time>2015-04-18T14:34:58Z</time>
      </trkpt>
      <trkpt lat="46.17499" lon="2.47831">
        <ele>450</ele>
        <time>2015-04-18T14:35:00Z</time>
      </trkpt>
      <trkpt lat="46.17496" lon="2.47831">
        <ele>450</ele>
        <time>2015-04-18T14:35:02Z</time>
      </trkpt>
      <trkpt lat="46.17493" lon="2.47831">
        <ele>451</ele>
        <time>2015-04-18T14:35:04Z</time>
      </trkpt>
      <trkpt lat="46.17492" lon="2.47834">
        <ele>451</ele>
        <time>2015-04-18T14:35:06Z</time>
      </trkpt>
      <trkpt lat="46.17487" lon="2.47835">
        <ele>451</ele>
        <time>2015-04-18T14:35:09Z</time>
      </trkpt>
      <trkpt lat="46.17484" lon="2.47836">
        <ele>451</ele>
        <time>2015-04-18T14:35:11Z</time>
      </trkpt>
      <trkpt lat="46.17481" lon="2.47836">
        <ele>452</ele>
        <time>2015-04-18T14:35:13Z</time>
      </trkpt>
      <trkpt lat="46.17479" lon="2.47837">
        <ele>452</ele>
        <time>2015-04-18T14:35:15Z</time>
      </trkpt>
      <trkpt lat="46.17476" lon="2.47838">
        <ele>453</ele>
        <time>2015-04-18T14:35:17Z</time>
      </trkpt>
      <trkpt lat="46.17473" lon="2.4784">
        <ele>453</ele>
        <time>2015-04-18T14:35:19Z</time>
      </trkpt>
      <trkpt lat="46.1747" lon="2.47842">
        <ele>453</ele>
        <time>2015-04-18T14:35:21Z</time>
      </trkpt>
      <trkpt lat="46.17467" lon="2.47845">
        <ele>453</ele>
        <time>2015-04-18T14:35:23Z</time>
      </trkpt>
      <trkpt lat="46.17464" lon="2.47847">
        <ele>453</ele>
        <time>2015-04-18T14:35:25Z</time>
      </trkpt>
      <trkpt lat="46.17462" lon="2.47849">
        <ele>453</ele>
        <time>2015-04-18T14:35:27Z</time>
      </trkpt>
      <trkpt lat="46.17459" lon="2.47853">
        <ele>453</ele>
        <time>2015-04-18T14:35:30Z</time>
      </trkpt>
      <trkpt lat="46.17456" lon="2.47857">
        <ele>453</ele>
        <time>2015-04-18T14:35:32Z</time>
      </trkpt>
      <trkpt lat="46.17454" lon="2.4786">
        <ele>453</ele>
        <time>2015-04-18T14:35:34Z</time>
      </trkpt>
      <trkpt lat="46.17452" lon="2.47862">
        <ele>453</ele>
        <time>2015-04-18T14:35:36Z</time>
      </trkpt>
      <trkpt lat="46.1745" lon="2.47866">
        <ele>453</ele>
        <time>2015-04-18T14:35:38Z</time>
      </trkpt>
      <trkpt lat="46.17448" lon="2.47869">
        <ele>453</ele>
        <time>2015-04-18T14:35:40Z</time>
      </trkpt>
      <trkpt lat="46.17446" lon="2.47872">
        <ele>453</ele>
        <time>2015-04-18T14:35:42Z</time>
      </trkpt>
      <trkpt lat="46.17444" lon="2.47875">
        <ele>453</ele>
        <time>2015-04-18T14:35:44Z</time>
      </trkpt>
      <trkpt lat="46.17442" lon="2.47879">
        <ele>453</ele>
        <time>2015-04-18T14:35:46Z</time>
      </trkpt>
      <trkpt lat="46.1744" lon="2.47882">
        <ele>453</ele>
        <time>2015-04-18T14:35:48Z</time>
      </trkpt>
      <trkpt lat="46.17438" lon="2.47885">
        <ele>453</ele>
        <time>2015-04-18T14:35:50Z</time>
      </trkpt>
      <trkpt lat="46.17436" lon="2.47889">
        <ele>453</ele>
        <time>2015-04-18T14:35:52Z</time>
      </trkpt>
      <trkpt lat="46.17434" lon="2.47893">
        <ele>453</ele>
        <time>2015-04-18T14:35:54Z</time>
      </trkpt>
      <trkpt lat="46.17432" lon="2.47897">
        <ele>453</ele>
        <time>2015-04-18T14:35:56Z</time>
      </trkpt>
      <trkpt lat="46.1743" lon="2.479">
        <ele>453</ele>
        <time>2015-04-18T14:35:58Z</time>
      </trkpt>
      <trkpt lat="46.17428" lon="2.47904">
        <ele>453</ele>
        <time>2015-04-18T14:36:00Z</time>
      </trkpt>
      <trkpt lat="46.17427" lon="2.47907">
        <ele>454</ele>
        <time>2015-04-18T14:36:02Z</time>
      </trkpt>
      <trkpt lat="46.17425" lon="2.47911">
        <ele>454</ele>
        <time>2015-04-18T14:36:04Z</time>
      </trkpt>
      <trkpt lat="46.17423" lon="2.47915">
        <ele>454</ele>
        <time>2015-04-18T14:36:06Z</time>
      </trkpt>
      <trkpt lat="46.17422" lon="2.4792">
        <ele>454</ele>
        <time>2015-04-18T14:36:08Z</time>
      </trkpt>
      <trkpt lat="46.1742" lon="2.47923">
        <ele>455</ele>
        <time>2015-04-18T14:36:10Z</time>
      </trkpt>
      <trkpt lat="46.17418" lon="2.47928">
        <ele>455</ele>
        <time>2015-04-18T14:36:12Z</time>
      </trkpt>
      <trkpt lat="46.17416" lon="2.47932">
        <ele>455</ele>
        <time>2015-04-18T14:36:14Z</time>
      </trkpt>
      <trkpt lat="46.17415" lon="2.47936">
        <ele>456</ele>
        <time>2015-04-18T14:36:16Z</time>
      </trkpt>
      <trkpt lat="46.17413" lon="2.47939">
        <ele>456</ele>
        <time>2015-04-18T14:36:18Z</time>
      </trkpt>
      <trkpt lat="46.17411" lon="2.47942">
        <ele>456</ele>
        <time>2015-04-18T14:36:20Z</time>
      </trkpt>
      <trkpt lat="46.1741" lon="2.47946">
        <ele>456</ele>
        <time>2015-04-18T14:36:22Z</time>
      </trkpt>
      <trkpt lat="46.17406" lon="2.47951">
        <ele>457</ele>
        <time>2015-04-18T14:36:24Z</time>
      </trkpt>
      <trkpt lat="46.17404" lon="2.47955">
        <ele>457</ele>
        <time>2015-04-18T14:36:27Z</time>
      </trkpt>
      <trkpt lat="46.17402" lon="2.47958">
        <ele>457</ele>
        <time>2015-04-18T14:36:29Z</time>
      </trkpt>
      <trkpt lat="46.174" lon="2.47961">
        <ele>458</ele>
        <time>2015-04-18T14:36:31Z</time>
      </trkpt>
      <trkpt lat="46.17398" lon="2.47964">
        <ele>458</ele>
        <time>2015-04-18T14:36:33Z</time>
      </trkpt>
      <trkpt lat="46.17397" lon="2.47968">
        <ele>459</ele>
        <time>2015-04-18T14:36:35Z</time>
      </trkpt>
      <trkpt lat="46.17395" lon="2.47972">
        <ele>459</ele>
        <time>2015-04-18T14:36:37Z</time>
      </trkpt>
      <trkpt lat="46.17394" lon="2.47976">
        <ele>459</ele>
        <time>2015-04-18T14:36:39Z</time>
      </trkpt>
      <trkpt lat="46.17393" lon="2.4798">
        <ele>459</ele>
        <time>2015-04-18T14:36:41Z</time>
      </trkpt>
      <trkpt lat="46.17392" lon="2.47985">
        <ele>459</ele>
        <time>2015-04-18T14:36:43Z</time>
      </trkpt>
      <trkpt lat="46.17392" lon="2.47989">
        <ele>459</ele>
        <time>2015-04-18T14:36:45Z</time>
      </trkpt>
      <trkpt lat="46.17392" lon="2.47993">
        <ele>459</ele>
        <time>2015-04-18T14:36:47Z</time>
      </trkpt>
      <trkpt lat="46.17392" lon="2.47997">
        <ele>459</ele>
        <time>2015-04-18T14:36:49Z</time>
      </trkpt>
      <trkpt lat="46.17392" lon="2.48002">
        <ele>459</ele>
        <time>2015-04-18T14:36:51Z</time>
      </trkpt>
      <trkpt lat="46.17392" lon="2.48006">
        <ele>459</ele>
        <time>2015-04-18T14:36:53Z</time>
      </trkpt>
      <trkpt lat="46.17392" lon="2.4801">
        <ele>459</ele>
        <time>2015-04-18T14:36:55Z</time>
      </trkpt>
      <trkpt lat="46.17392" lon="2.48014">
        <ele>459</ele>
        <time>2015-04-18T14:36:57Z</time>
      </trkpt>
      <trkpt lat="46.17393" lon="2.4802">
        <ele>459</ele>
        <time>2015-04-18T14:37:00Z</time>
      </trkpt>
      <trkpt lat="46.17393" lon="2.48024">
        <ele>459</ele>
        <time>2015-04-18T14:37:02Z</time>
      </trkpt>
      <trkpt lat="46.17395" lon="2.48029">
        <ele>459</ele>
        <time>2015-04-18T14:37:05Z</time>
      </trkpt>
      <trkpt lat="46.17395" lon="2.48034">
        <ele>459</ele>
        <time>2015-04-18T14:37:07Z</time>
      </trkpt>
      <trkpt lat="46.17396" lon="2.48038">
        <ele>459</ele>
        <time>2015-04-18T14:37:09Z</time>
      </trkpt>
      <trkpt lat="46.17397" lon="2.48044">
        <ele>459</ele>
        <time>2015-04-18T14:37:12Z</time>
      </trkpt>
      <trkpt lat="46.17398" lon="2.48049">
        <ele>459</ele>
        <time>2015-04-18T14:37:14Z</time>
      </trkpt>
      <trkpt lat="46.17398" lon="2.48053">
        <ele>459</ele>
        <time>2015-04-18T14:37:16Z</time>
      </trkpt>
      <trkpt lat="46.17399" lon="2.48057">
        <ele>459</ele>
        <time>2015-04-18T14:37:18Z</time>
      </trkpt>
      <trkpt lat="46.174" lon="2.48061">
        <ele>459</ele>
        <time>2015-04-18T14:37:20Z</time>
      </trkpt>
      <trkpt lat="46.174" lon="2.48065">
        <ele>459</ele>
        <time>2015-04-18T14:37:22Z</time>
      </trkpt>
      <trkpt lat="46.17401" lon="2.48069">
        <ele>459</ele>
        <time>2015-04-18T14:37:24Z</time>
      </trkpt>
      <trkpt lat="46.17402" lon="2.48073">
        <ele>459</ele>
        <time>2015-04-18T14:37:26Z</time>
      </trkpt>
      <trkpt lat="46.17403" lon="2.48076">
        <ele>459</ele>
        <time>2015-04-18T14:37:28Z</time>
      </trkpt>
      <trkpt lat="46.17403" lon="2.4808">
        <ele>459</ele>
        <time>2015-04-18T14:37:30Z</time>
      </trkpt>
      <trkpt lat="46.17405" lon="2.48084">
        <ele>459</ele>
        <time>2015-04-18T14:37:32Z</time>
      </trkpt>
      <trkpt lat="46.17405" lon="2.48088">
        <ele>459</ele>
        <time>2015-04-18T14:37:34Z</time>
      </trkpt>
      <trkpt lat="46.17406" lon="2.48092">
        <ele>459</ele>
        <time>2015-04-18T14:37:36Z</time>
      </trkpt>
      <trkpt lat="46.17407" lon="2.48097">
        <ele>459</ele>
        <time>2015-04-18T14:37:38Z</time>
      </trkpt>
      <trkpt lat="46.17406" lon="2.48102">
        <ele>459</ele>
        <time>2015-04-18T14:37:40Z</time>
      </trkpt>
      <trkpt lat="46.17407" lon="2.48107">
        <ele>459</ele>
        <time>2015-04-18T14:37:42Z</time>
      </trkpt>
      <trkpt lat="46.17407" lon="2.48112">
        <ele>459</ele>
        <time>2015-04-18T14:37:44Z</time>
      </trkpt>
      <trkpt lat="46.17408" lon="2.48116">
        <ele>459</ele>
        <time>2015-04-18T14:37:46Z</time>
      </trkpt>
      <trkpt lat="46.17408" lon="2.48121">
        <ele>459</ele>
        <time>2015-04-18T14:37:48Z</time>
      </trkpt>
      <trkpt lat="46.17408" lon="2.48126">
        <ele>459</ele>
        <time>2015-04-18T14:37:50Z</time>
      </trkpt>
      <trkpt lat="46.17408" lon="2.4813">
        <ele>459</ele>
        <time>2015-04-18T14:37:52Z</time>
      </trkpt>
      <trkpt lat="46.17407" lon="2.48136">
        <ele>459</ele>
        <time>2015-04-18T14:37:54Z</time>
      </trkpt>
      <trkpt lat="46.17407" lon="2.48141">
        <ele>459</ele>
        <time>2015-04-18T14:37:56Z</time>
      </trkpt>
      <trkpt lat="46.17408" lon="2.48145">
        <ele>459</ele>
        <time>2015-04-18T14:37:58Z</time>
      </trkpt>
      <trkpt lat="46.17408" lon="2.4815">
        <ele>459</ele>
        <time>2015-04-18T14:38:00Z</time>
      </trkpt>
      <trkpt lat="46.17408" lon="2.48154">
        <ele>459</ele>
        <time>2015-04-18T14:38:02Z</time>
      </trkpt>
      <trkpt lat="46.17409" lon="2.48158">
        <ele>459</ele>
        <time>2015-04-18T14:38:04Z</time>
      </trkpt>
      <trkpt lat="46.17409" lon="2.48162">
        <ele>459</ele>
        <time>2015-04-18T14:38:06Z</time>
      </trkpt>
      <trkpt lat="46.17409" lon="2.48166">
        <ele>459</ele>
        <time>2015-04-18T14:38:08Z</time>
      </trkpt>
      <trkpt lat="46.17409" lon="2.4817">
        <ele>459</ele>
        <time>2015-04-18T14:38:10Z</time>
      </trkpt>
      <trkpt lat="46.17408" lon="2.48175">
        <ele>459</ele>
        <time>2015-04-18T14:38:12Z</time>
      </trkpt>
      <trkpt lat="46.17408" lon="2.4818">
        <ele>459</ele>
        <time>2015-04-18T14:38:14Z</time>
      </trkpt>
      <trkpt lat="46.17408" lon="2.48185">
        <ele>459</ele>
        <time>2015-04-18T14:38:16Z</time>
      </trkpt>
      <trkpt lat="46.17408" lon="2.4819">
        <ele>459</ele>
        <time>2015-04-18T14:38:18Z</time>
      </trkpt>
      <trkpt lat="46.17409" lon="2.48195">
        <ele>459</ele>
        <time>2015-04-18T14:38:20Z</time>
      </trkpt>
      <trkpt lat="46.17409" lon="2.48199">
        <ele>459</ele>
        <time>2015-04-18T14:38:22Z</time>
      </trkpt>
      <trkpt lat="46.17409" lon="2.48203">
        <ele>459</ele>
        <time>2015-04-18T14:38:24Z</time>
      </trkpt>
      <trkpt lat="46.17409" lon="2.48207">
        <ele>459</ele>
        <time>2015-04-18T14:38:26Z</time>
      </trkpt>
      <trkpt lat="46.17408" lon="2.48209">
        <ele>459</ele>
        <time>2015-04-18T14:38:37Z</time>
      </trkpt>
      <trkpt lat="46.17408" lon="2.48211">
        <ele>459</ele>
        <time>2015-04-18T14:38:42Z</time>
      </trkpt>
      <trkpt lat="46.17408" lon="2.48213">
        <ele>459</ele>
        <time>2015-04-18T14:38:44Z</time>
      </trkpt>
      <trkpt lat="46.17407" lon="2.48214">
        <ele>459</ele>
        <time>2015-04-18T14:38:46Z</time>
      </trkpt>
      <trkpt lat="46.17405" lon="2.48214">
        <ele>459</ele>
        <time>2015-04-18T14:38:48Z</time>
      </trkpt>
      <trkpt lat="46.17404" lon="2.48215">
        <ele>459</ele>
        <time>2015-04-18T14:38:50Z</time>
      </trkpt>
      <trkpt lat="46.17402" lon="2.48215">
        <ele>459</ele>
        <time>2015-04-18T14:38:52Z</time>
      </trkpt>
      <trkpt lat="46.17399" lon="2.48215">
        <ele>459</ele>
        <time>2015-04-18T14:38:54Z</time>
      </trkpt>
      <trkpt lat="46.17396" lon="2.48214">
        <ele>459</ele>
        <time>2015-04-18T14:38:56Z</time>
      </trkpt>
      <trkpt lat="46.17394" lon="2.48214">
        <ele>459</ele>
        <time>2015-04-18T14:38:59Z</time>
      </trkpt>
      <trkpt lat="46.17395" lon="2.48216">
        <ele>459</ele>
        <time>2015-04-18T14:39:01Z</time>
      </trkpt>
      <trkpt lat="46.17398" lon="2.48216">
        <ele>459</ele>
        <time>2015-04-18T14:39:04Z</time>
      </trkpt>
      <trkpt lat="46.17401" lon="2.48217">
        <ele>459</ele>
        <time>2015-04-18T14:39:06Z</time>
      </trkpt>
      <trkpt lat="46.17404" lon="2.48218">
        <ele>459</ele>
        <time>2015-04-18T14:39:08Z</time>
      </trkpt>
      <trkpt lat="46.17407" lon="2.48221">
        <ele>459</ele>
        <time>2015-04-18T14:39:11Z</time>
      </trkpt>
      <trkpt lat="46.17408" lon="2.48225">
        <ele>459</ele>
        <time>2015-04-18T14:39:13Z</time>
      </trkpt>
      <trkpt lat="46.1741" lon="2.4823">
        <ele>459</ele>
        <time>2015-04-18T14:39:16Z</time>
      </trkpt>
      <trkpt lat="46.17411" lon="2.48233">
        <ele>459</ele>
        <time>2015-04-18T14:39:18Z</time>
      </trkpt>
      <trkpt lat="46.17414" lon="2.48236">
        <ele>459</ele>
        <time>2015-04-18T14:39:20Z</time>
      </trkpt>
      <trkpt lat="46.17416" lon="2.48239">
        <ele>459</ele>
        <time>2015-04-18T14:39:22Z</time>
      </trkpt>
      <trkpt lat="46.17419" lon="2.48243">
        <ele>459</ele>
        <time>2015-04-18T14:39:24Z</time>
      </trkpt>
      <trkpt lat="46.1742" lon="2.48248">
        <ele>459</ele>
        <time>2015-04-18T14:39:26Z</time>
      </trkpt>
      <trkpt lat="46.17421" lon="2.48252">
        <ele>459</ele>
        <time>2015-04-18T14:39:28Z</time>
      </trkpt>
      <trkpt lat="46.17422" lon="2.48257">
        <ele>459</ele>
        <time>2015-04-18T14:39:30Z</time>
      </trkpt>
      <trkpt lat="46.17424" lon="2.48262">
        <ele>460</ele>
        <time>2015-04-18T14:39:32Z</time>
      </trkpt>
      <trkpt lat="46.17425" lon="2.48267">
        <ele>460</ele>
        <time>2015-04-18T14:39:34Z</time>
      </trkpt>
      <trkpt lat="46.17426" lon="2.48272">
        <ele>461</ele>
        <time>2015-04-18T14:39:36Z</time>
      </trkpt>
      <trkpt lat="46.17426" lon="2.48277">
        <ele>461</ele>
        <time>2015-04-18T14:39:38Z</time>
      </trkpt>
      <trkpt lat="46.17427" lon="2.48281">
        <ele>461</ele>
        <time>2015-04-18T14:39:40Z</time>
      </trkpt>
      <trkpt lat="46.17427" lon="2.48284">
        <ele>461</ele>
        <time>2015-04-18T14:39:42Z</time>
      </trkpt>
      <trkpt lat="46.17426" lon="2.48288">
        <ele>461</ele>
        <time>2015-04-18T14:39:44Z</time>
      </trkpt>
      <trkpt lat="46.17426" lon="2.48292">
        <ele>461</ele>
        <time>2015-04-18T14:39:46Z</time>
      </trkpt>
      <trkpt lat="46.17427" lon="2.48296">
        <ele>461</ele>
        <time>2015-04-18T14:39:48Z</time>
      </trkpt>
      <trkpt lat="46.17427" lon="2.483">
        <ele>461</ele>
        <time>2015-04-18T14:39:50Z</time>
      </trkpt>
      <trkpt lat="46.17428" lon="2.48304">
        <ele>461</ele>
        <time>2015-04-18T14:39:52Z</time>
      </trkpt>
      <trkpt lat="46.17428" lon="2.48308">
        <ele>461</ele>
        <time>2015-04-18T14:39:54Z</time>
      </trkpt>
      <trkpt lat="46.17429" lon="2.48312">
        <ele>461</ele>
        <time>2015-04-18T14:39:56Z</time>
      </trkpt>
      <trkpt lat="46.1743" lon="2.48316">
        <ele>461</ele>
        <time>2015-04-18T14:39:58Z</time>
      </trkpt>
      <trkpt lat="46.17432" lon="2.48321">
        <ele>461</ele>
        <time>2015-04-18T14:40:00Z</time>
      </trkpt>
      <trkpt lat="46.17436" lon="2.48324">
        <ele>461</ele>
        <time>2015-04-18T14:40:02Z</time>
      </trkpt>
      <trkpt lat="46.17438" lon="2.48328">
        <ele>461</ele>
        <time>2015-04-18T14:40:04Z</time>
      </trkpt>
      <trkpt lat="46.17439" lon="2.48331">
        <ele>461</ele>
        <time>2015-04-18T14:40:06Z</time>
      </trkpt>
      <trkpt lat="46.17439" lon="2.48337">
        <ele>461</ele>
        <time>2015-04-18T14:40:08Z</time>
      </trkpt>
      <trkpt lat="46.1744" lon="2.48342">
        <ele>461</ele>
        <time>2015-04-18T14:40:10Z</time>
      </trkpt>
      <trkpt lat="46.17442" lon="2.48346">
        <ele>461</ele>
        <time>2015-04-18T14:40:12Z</time>
      </trkpt>
      <trkpt lat="46.17444" lon="2.48351">
        <ele>461</ele>
        <time>2015-04-18T14:40:14Z</time>
      </trkpt>
      <trkpt lat="46.17445" lon="2.48355">
        <ele>461</ele>
        <time>2015-04-18T14:40:17Z</time>
      </trkpt>
      <trkpt lat="46.17446" lon="2.48358">
        <ele>461</ele>
        <time>2015-04-18T14:40:19Z</time>
      </trkpt>
      <trkpt lat="46.17447" lon="2.48363">
        <ele>461</ele>
        <time>2015-04-18T14:40:21Z</time>
      </trkpt>
      <trkpt lat="46.17448" lon="2.48368">
        <ele>461</ele>
        <time>2015-04-18T14:40:23Z</time>
      </trkpt>
      <trkpt lat="46.17448" lon="2.48372">
        <ele>461</ele>
        <time>2015-04-18T14:40:25Z</time>
      </trkpt>
      <trkpt lat="46.17448" lon="2.48377">
        <ele>461</ele>
        <time>2015-04-18T14:40:27Z</time>
      </trkpt>
      <trkpt lat="46.17448" lon="2.48382">
        <ele>461</ele>
        <time>2015-04-18T14:40:29Z</time>
      </trkpt>
      <trkpt lat="46.17448" lon="2.48387">
        <ele>461</ele>
        <time>2015-04-18T14:40:31Z</time>
      </trkpt>
      <trkpt lat="46.17448" lon="2.48392">
        <ele>461</ele>
        <time>2015-04-18T14:40:33Z</time>
      </trkpt>
      <trkpt lat="46.17448" lon="2.48396">
        <ele>461</ele>
        <time>2015-04-18T14:40:35Z</time>
      </trkpt>
      <trkpt lat="46.17448" lon="2.484">
        <ele>461</ele>
        <time>2015-04-18T14:40:37Z</time>
      </trkpt>
      <trkpt lat="46.17448" lon="2.48405">
        <ele>461</ele>
        <time>2015-04-18T14:40:39Z</time>
      </trkpt>
      <trkpt lat="46.17448" lon="2.48411">
        <ele>461</ele>
        <time>2015-04-18T14:40:41Z</time>
      </trkpt>
      <trkpt lat="46.1745" lon="2.48414">
        <ele>461</ele>
        <time>2015-04-18T14:40:43Z</time>
      </trkpt>
      <trkpt lat="46.17453" lon="2.48417">
        <ele>461</ele>
        <time>2015-04-18T14:40:45Z</time>
      </trkpt>
      <trkpt lat="46.17453" lon="2.48422">
        <ele>461</ele>
        <time>2015-04-18T14:40:47Z</time>
      </trkpt>
      <trkpt lat="46.17457" lon="2.48426">
        <ele>461</ele>
        <time>2015-04-18T14:40:50Z</time>
      </trkpt>
      <trkpt lat="46.17458" lon="2.4843">
        <ele>461</ele>
        <time>2015-04-18T14:40:52Z</time>
      </trkpt>
      <trkpt lat="46.1746" lon="2.48435">
        <ele>461</ele>
        <time>2015-04-18T14:40:54Z</time>
      </trkpt>
      <trkpt lat="46.17461" lon="2.48439">
        <ele>461</ele>
        <time>2015-04-18T14:40:56Z</time>
      </trkpt>
      <trkpt lat="46.17462" lon="2.48443">
        <ele>461</ele>
        <time>2015-04-18T14:40:58Z</time>
      </trkpt>
      <trkpt lat="46.17458" lon="2.4845">
        <ele>461</ele>
        <time>2015-04-18T14:41:01Z</time>
      </trkpt>
      <trkpt lat="46.17456" lon="2.48457">
        <ele>462</ele>
        <time>2015-04-18T14:41:03Z</time>
      </trkpt>
      <trkpt lat="46.17454" lon="2.48462">
        <ele>463</ele>
        <time>2015-04-18T14:41:05Z</time>
      </trkpt>
      <trkpt lat="46.17451" lon="2.48466">
        <ele>463</ele>
        <time>2015-04-18T14:41:08Z</time>
      </trkpt>
      <trkpt lat="46.17447" lon="2.48472">
        <ele>463</ele>
        <time>2015-04-18T14:41:10Z</time>
      </trkpt>
      <trkpt lat="46.17445" lon="2.48476">
        <ele>463</ele>
        <time>2015-04-18T14:41:14Z</time>
      </trkpt>
      <trkpt lat="46.17441" lon="2.48482">
        <ele>463</ele>
        <time>2015-04-18T14:41:16Z</time>
      </trkpt>
      <trkpt lat="46.17439" lon="2.48486">
        <ele>463</ele>
        <time>2015-04-18T14:41:18Z</time>
      </trkpt>
      <trkpt lat="46.17436" lon="2.48491">
        <ele>463</ele>
        <time>2015-04-18T14:41:20Z</time>
      </trkpt>
      <trkpt lat="46.17436" lon="2.48496">
        <ele>463</ele>
        <time>2015-04-18T14:41:22Z</time>
      </trkpt>
      <trkpt lat="46.17437" lon="2.485">
        <ele>463</ele>
        <time>2015-04-18T14:41:24Z</time>
      </trkpt>
      <trkpt lat="46.1744" lon="2.48506">
        <ele>463</ele>
        <time>2015-04-18T14:41:26Z</time>
      </trkpt>
      <trkpt lat="46.17437" lon="2.48512">
        <ele>463</ele>
        <time>2015-04-18T14:41:29Z</time>
      </trkpt>
      <trkpt lat="46.17436" lon="2.48519">
        <ele>463</ele>
        <time>2015-04-18T14:41:31Z</time>
      </trkpt>
      <trkpt lat="46.17433" lon="2.48524">
        <ele>463</ele>
        <time>2015-04-18T14:41:34Z</time>
      </trkpt>
      <trkpt lat="46.17429" lon="2.48531">
        <ele>463</ele>
        <time>2015-04-18T14:41:36Z</time>
      </trkpt>
      <trkpt lat="46.17428" lon="2.48535">
        <ele>463</ele>
        <time>2015-04-18T14:41:39Z</time>
      </trkpt>
      <trkpt lat="46.17427" lon="2.4854">
        <ele>463</ele>
        <time>2015-04-18T14:41:42Z</time>
      </trkpt>
      <trkpt lat="46.17427" lon="2.48545">
        <ele>463</ele>
        <time>2015-04-18T14:41:44Z</time>
      </trkpt>
      <trkpt lat="46.17426" lon="2.48551">
        <ele>463</ele>
        <time>2015-04-18T14:41:46Z</time>
      </trkpt>
      <trkpt lat="46.17427" lon="2.48556">
        <ele>463</ele>
        <time>2015-04-18T14:41:49Z</time>
      </trkpt>
      <trkpt lat="46.17427" lon="2.48563">
        <ele>463</ele>
        <time>2015-04-18T14:41:51Z</time>
      </trkpt>
      <trkpt lat="46.17426" lon="2.48569">
        <ele>463</ele>
        <time>2015-04-18T14:41:54Z</time>
      </trkpt>
      <trkpt lat="46.17422" lon="2.48576">
        <ele>462</ele>
        <time>2015-04-18T14:41:56Z</time>
      </trkpt>
      <trkpt lat="46.17422" lon="2.48582">
        <ele>462</ele>
        <time>2015-04-18T14:41:59Z</time>
      </trkpt>
      <trkpt lat="46.17422" lon="2.48589">
        <ele>462</ele>
        <time>2015-04-18T14:42:01Z</time>
      </trkpt>
      <trkpt lat="46.17423" lon="2.48594">
        <ele>462</ele>
        <time>2015-04-18T14:42:04Z</time>
      </trkpt>
      <trkpt lat="46.17422" lon="2.48601">
        <ele>462</ele>
        <time>2015-04-18T14:42:06Z</time>
      </trkpt>
      <trkpt lat="46.17422" lon="2.48605">
        <ele>462</ele>
        <time>2015-04-18T14:42:09Z</time>
      </trkpt>
      <trkpt lat="46.1742" lon="2.48611">
        <ele>462</ele>
        <time>2015-04-18T14:42:11Z</time>
      </trkpt>
      <trkpt lat="46.1742" lon="2.48615">
        <ele>462</ele>
        <time>2015-04-18T14:42:14Z</time>
      </trkpt>
      <trkpt lat="46.17419" lon="2.4862">
        <ele>462</ele>
        <time>2015-04-18T14:42:16Z</time>
      </trkpt>
      <trkpt lat="46.17417" lon="2.48624">
        <ele>462</ele>
        <time>2015-04-18T14:42:18Z</time>
      </trkpt>
      <trkpt lat="46.17417" lon="2.48628">
        <ele>462</ele>
        <time>2015-04-18T14:42:20Z</time>
      </trkpt>
      <trkpt lat="46.17416" lon="2.48632">
        <ele>462</ele>
        <time>2015-04-18T14:42:22Z</time>
      </trkpt>
      <trkpt lat="46.17416" lon="2.48636">
        <ele>462</ele>
        <time>2015-04-18T14:42:24Z</time>
      </trkpt>
      <trkpt lat="46.17415" lon="2.48641">
        <ele>462</ele>
        <time>2015-04-18T14:42:26Z</time>
      </trkpt>
      <trkpt lat="46.17415" lon="2.48646">
        <ele>462</ele>
        <time>2015-04-18T14:42:29Z</time>
      </trkpt>
      <trkpt lat="46.17417" lon="2.48653">
        <ele>462</ele>
        <time>2015-04-18T14:42:31Z</time>
      </trkpt>
      <trkpt lat="46.17417" lon="2.48659">
        <ele>462</ele>
        <time>2015-04-18T14:42:34Z</time>
      </trkpt>
      <trkpt lat="46.17417" lon="2.48665">
        <ele>462</ele>
        <time>2015-04-18T14:42:36Z</time>
      </trkpt>
      <trkpt lat="46.17416" lon="2.4867">
        <ele>462</ele>
        <time>2015-04-18T14:42:39Z</time>
      </trkpt>
      <trkpt lat="46.17414" lon="2.48677">
        <ele>459</ele>
        <time>2015-04-18T14:42:41Z</time>
      </trkpt>
      <trkpt lat="46.17415" lon="2.48682">
        <ele>459</ele>
        <time>2015-04-18T14:42:43Z</time>
      </trkpt>
      <trkpt lat="46.17415" lon="2.48686">
        <ele>458</ele>
        <time>2015-04-18T14:42:45Z</time>
      </trkpt>
      <trkpt lat="46.17414" lon="2.4869">
        <ele>458</ele>
        <time>2015-04-18T14:42:47Z</time>
      </trkpt>
      <trkpt lat="46.17419" lon="2.48695">
        <ele>458</ele>
        <time>2015-04-18T14:42:49Z</time>
      </trkpt>
      <trkpt lat="46.1742" lon="2.487">
        <ele>458</ele>
        <time>2015-04-18T14:42:51Z</time>
      </trkpt>
      <trkpt lat="46.17418" lon="2.48705">
        <ele>458</ele>
        <time>2015-04-18T14:42:53Z</time>
      </trkpt>
      <trkpt lat="46.17416" lon="2.48711">
        <ele>458</ele>
        <time>2015-04-18T14:42:55Z</time>
      </trkpt>
      <trkpt lat="46.17413" lon="2.48716">
        <ele>458</ele>
        <time>2015-04-18T14:42:57Z</time>
      </trkpt>
      <trkpt lat="46.17411" lon="2.48718">
        <ele>458</ele>
        <time>2015-04-18T14:42:59Z</time>
      </trkpt>
      <trkpt lat="46.17408" lon="2.48719">
        <ele>458</ele>
        <time>2015-04-18T14:43:01Z</time>
      </trkpt>
      <trkpt lat="46.17405" lon="2.4872">
        <ele>458</ele>
        <time>2015-04-18T14:43:04Z</time>
      </trkpt>
      <trkpt lat="46.17401" lon="2.48722">
        <ele>458</ele>
        <time>2015-04-18T14:43:06Z</time>
      </trkpt>
      <trkpt lat="46.17398" lon="2.48724">
        <ele>458</ele>
        <time>2015-04-18T14:43:09Z</time>
      </trkpt>
      <trkpt lat="46.17393" lon="2.48726">
        <ele>458</ele>
        <time>2015-04-18T14:43:11Z</time>
      </trkpt>
      <trkpt lat="46.1739" lon="2.48727">
        <ele>457</ele>
        <time>2015-04-18T14:43:14Z</time>
      </trkpt>
      <trkpt lat="46.17386" lon="2.48728">
        <ele>456</ele>
        <time>2015-04-18T14:43:16Z</time>
      </trkpt>
      <trkpt lat="46.17383" lon="2.48729">
        <ele>456</ele>
        <time>2015-04-18T14:43:19Z</time>
      </trkpt>
      <trkpt lat="46.17378" lon="2.4873">
        <ele>455</ele>
        <time>2015-04-18T14:43:21Z</time>
      </trkpt>
      <trkpt lat="46.17375" lon="2.4873">
        <ele>455</ele>
        <time>2015-04-18T14:43:24Z</time>
      </trkpt>
      <trkpt lat="46.1737" lon="2.48732">
        <ele>455</ele>
        <time>2015-04-18T14:43:26Z</time>
      </trkpt>
      <trkpt lat="46.17367" lon="2.48734">
        <ele>455</ele>
        <time>2015-04-18T14:43:29Z</time>
      </trkpt>
      <trkpt lat="46.17363" lon="2.48735">
        <ele>455</ele>
        <time>2015-04-18T14:43:31Z</time>
      </trkpt>
      <trkpt lat="46.1736" lon="2.48737">
        <ele>455</ele>
        <time>2015-04-18T14:43:34Z</time>
      </trkpt>
      <trkpt lat="46.17355" lon="2.48739">
        <ele>455</ele>
        <time>2015-04-18T14:43:36Z</time>
      </trkpt>
      <trkpt lat="46.17352" lon="2.4874">
        <ele>455</ele>
        <time>2015-04-18T14:43:38Z</time>
      </trkpt>
      <trkpt lat="46.17349" lon="2.48741">
        <ele>454</ele>
        <time>2015-04-18T14:43:40Z</time>
      </trkpt>
      <trkpt lat="46.17346" lon="2.48742">
        <ele>453</ele>
        <time>2015-04-18T14:43:42Z</time>
      </trkpt>
      <trkpt lat="46.17342" lon="2.48743">
        <ele>453</ele>
        <time>2015-04-18T14:43:44Z</time>
      </trkpt>
      <trkpt lat="46.17339" lon="2.48745">
        <ele>453</ele>
        <time>2015-04-18T14:43:46Z</time>
      </trkpt>
      <trkpt lat="46.17336" lon="2.48747">
        <ele>452</ele>
        <time>2015-04-18T14:43:49Z</time>
      </trkpt>
      <trkpt lat="46.17332" lon="2.48747">
        <ele>451</ele>
        <time>2015-04-18T14:43:51Z</time>
      </trkpt>
      <trkpt lat="46.17329" lon="2.48749">
        <ele>450</ele>
        <time>2015-04-18T14:43:54Z</time>
      </trkpt>
      <trkpt lat="46.17325" lon="2.4875">
        <ele>449</ele>
        <time>2015-04-18T14:43:56Z</time>
      </trkpt>
      <trkpt lat="46.17321" lon="2.48751">
        <ele>449</ele>
        <time>2015-04-18T14:43:59Z</time>
      </trkpt>
      <trkpt lat="46.17317" lon="2.48753">
        <ele>448</ele>
        <time>2015-04-18T14:44:01Z</time>
      </trkpt>
      <trkpt lat="46.17313" lon="2.48755">
        <ele>448</ele>
        <time>2015-04-18T14:44:04Z</time>
      </trkpt>
      <trkpt lat="46.17308" lon="2.48758">
        <ele>448</ele>
        <time>2015-04-18T14:44:06Z</time>
      </trkpt>
      <trkpt lat="46.17305" lon="2.48759">
        <ele>448</ele>
        <time>2015-04-18T14:44:08Z</time>
      </trkpt>
      <trkpt lat="46.17302" lon="2.48761">
        <ele>448</ele>
        <time>2015-04-18T14:44:10Z</time>
      </trkpt>
      <trkpt lat="46.17299" lon="2.48762">
        <ele>448</ele>
        <time>2015-04-18T14:44:12Z</time>
      </trkpt>
      <trkpt lat="46.17297" lon="2.48764">
        <ele>448</ele>
        <time>2015-04-18T14:44:14Z</time>
      </trkpt>
      <trkpt lat="46.17294" lon="2.48765">
        <ele>448</ele>
        <time>2015-04-18T14:44:16Z</time>
      </trkpt>
      <trkpt lat="46.17291" lon="2.48766">
        <ele>448</ele>
        <time>2015-04-18T14:44:19Z</time>
      </trkpt>
      <trkpt lat="46.17287" lon="2.48769">
        <ele>448</ele>
        <time>2015-04-18T14:44:21Z</time>
      </trkpt>
      <trkpt lat="46.17284" lon="2.4877">
        <ele>448</ele>
        <time>2015-04-18T14:44:24Z</time>
      </trkpt>
      <trkpt lat="46.17279" lon="2.48772">
        <ele>448</ele>
        <time>2015-04-18T14:44:26Z</time>
      </trkpt>
      <trkpt lat="46.17276" lon="2.48774">
        <ele>448</ele>
        <time>2015-04-18T14:44:29Z</time>
      </trkpt>
      <trkpt lat="46.17272" lon="2.48778">
        <ele>448</ele>
        <time>2015-04-18T14:44:31Z</time>
      </trkpt>
      <trkpt lat="46.17269" lon="2.48781">
        <ele>448</ele>
        <time>2015-04-18T14:44:34Z</time>
      </trkpt>
      <trkpt lat="46.17265" lon="2.48783">
        <ele>448</ele>
        <time>2015-04-18T14:44:36Z</time>
      </trkpt>
      <trkpt lat="46.17262" lon="2.48784">
        <ele>448</ele>
        <time>2015-04-18T14:44:39Z</time>
      </trkpt>
      <trkpt lat="46.17257" lon="2.48786">
        <ele>448</ele>
        <time>2015-04-18T14:44:41Z</time>
      </trkpt>
      <trkpt lat="46.17253" lon="2.48787">
        <ele>448</ele>
        <time>2015-04-18T14:44:44Z</time>
      </trkpt>
      <trkpt lat="46.17249" lon="2.48788">
        <ele>448</ele>
        <time>2015-04-18T14:44:46Z</time>
      </trkpt>
      <trkpt lat="46.17245" lon="2.48789">
        <ele>448</ele>
        <time>2015-04-18T14:44:49Z</time>
      </trkpt>
      <trkpt lat="46.17241" lon="2.48791">
        <ele>448</ele>
        <time>2015-04-18T14:44:51Z</time>
      </trkpt>
      <trkpt lat="46.17238" lon="2.48791">
        <ele>448</ele>
        <time>2015-04-18T14:44:54Z</time>
      </trkpt>
      <trkpt lat="46.17233" lon="2.48792">
        <ele>448</ele>
        <time>2015-04-18T14:44:56Z</time>
      </trkpt>
      <trkpt lat="46.1723" lon="2.48794">
        <ele>448</ele>
        <time>2015-04-18T14:44:59Z</time>
      </trkpt>
      <trkpt lat="46.17225" lon="2.48795">
        <ele>448</ele>
        <time>2015-04-18T14:45:01Z</time>
      </trkpt>
      <trkpt lat="46.17223" lon="2.48796">
        <ele>448</ele>
        <time>2015-04-18T14:45:04Z</time>
      </trkpt>
      <trkpt lat="46.17218" lon="2.48798">
        <ele>448</ele>
        <time>2015-04-18T14:45:06Z</time>
      </trkpt>
      <trkpt lat="46.17215" lon="2.48799">
        <ele>448</ele>
        <time>2015-04-18T14:45:09Z</time>
      </trkpt>
      <trkpt lat="46.17211" lon="2.48801">
        <ele>448</ele>
        <time>2015-04-18T14:45:11Z</time>
      </trkpt>
      <trkpt lat="46.17209" lon="2.48802">
        <ele>448</ele>
        <time>2015-04-18T14:45:14Z</time>
      </trkpt>
      <trkpt lat="46.17204" lon="2.48804">
        <ele>448</ele>
        <time>2015-04-18T14:45:16Z</time>
      </trkpt>
      <trkpt lat="46.17201" lon="2.48804">
        <ele>448</ele>
        <time>2015-04-18T14:45:18Z</time>
      </trkpt>
      <trkpt lat="46.17199" lon="2.48805">
        <ele>448</ele>
        <time>2015-04-18T14:45:20Z</time>
      </trkpt>
      <trkpt lat="46.17196" lon="2.48806">
        <ele>448</ele>
        <time>2015-04-18T14:45:22Z</time>
      </trkpt>
      <trkpt lat="46.17193" lon="2.48807">
        <ele>448</ele>
        <time>2015-04-18T14:45:24Z</time>
      </trkpt>
      <trkpt lat="46.1719" lon="2.48808">
        <ele>448</ele>
        <time>2015-04-18T14:45:26Z</time>
      </trkpt>
      <trkpt lat="46.17188" lon="2.48809">
        <ele>448</ele>
        <time>2015-04-18T14:45:29Z</time>
      </trkpt>
      <trkpt lat="46.17184" lon="2.4881">
        <ele>448</ele>
        <time>2015-04-18T14:45:31Z</time>
      </trkpt>
      <trkpt lat="46.17181" lon="2.48811">
        <ele>448</ele>
        <time>2015-04-18T14:45:34Z</time>
      </trkpt>
      <trkpt lat="46.17177" lon="2.48812">
        <ele>448</ele>
        <time>2015-04-18T14:45:36Z</time>
      </trkpt>
      <trkpt lat="46.17175" lon="2.48813">
        <ele>448</ele>
        <time>2015-04-18T14:45:39Z</time>
      </trkpt>
      <trkpt lat="46.17171" lon="2.48814">
        <ele>448</ele>
        <time>2015-04-18T14:45:41Z</time>
      </trkpt>
      <trkpt lat="46.17168" lon="2.48815">
        <ele>448</ele>
        <time>2015-04-18T14:45:43Z</time>
      </trkpt>
      <trkpt lat="46.17165" lon="2.48815">
        <ele>448</ele>
        <time>2015-04-18T14:45:45Z</time>
      </trkpt>
      <trkpt lat="46.17163" lon="2.48816">
        <ele>448</ele>
        <time>2015-04-18T14:45:47Z</time>
      </trkpt>
      <trkpt lat="46.1716" lon="2.48816">
        <ele>448</ele>
        <time>2015-04-18T14:45:49Z</time>
      </trkpt>
      <trkpt lat="46.17157" lon="2.48817">
        <ele>448</ele>
        <time>2015-04-18T14:45:51Z</time>
      </trkpt>
      <trkpt lat="46.17154" lon="2.48817">
        <ele>448</ele>
        <time>2015-04-18T14:45:53Z</time>
      </trkpt>
      <trkpt lat="46.17151" lon="2.48817">
        <ele>448</ele>
        <time>2015-04-18T14:45:55Z</time>
      </trkpt>
      <trkpt lat="46.17148" lon="2.48818">
        <ele>448</ele>
        <time>2015-04-18T14:45:57Z</time>
      </trkpt>
      <trkpt lat="46.17145" lon="2.48817">
        <ele>448</ele>
        <time>2015-04-18T14:45:59Z</time>
      </trkpt>
      <trkpt lat="46.17142" lon="2.48817">
        <ele>448</ele>
        <time>2015-04-18T14:46:01Z</time>
      </trkpt>
      <trkpt lat="46.17139" lon="2.48817">
        <ele>448</ele>
        <time>2015-04-18T14:46:03Z</time>
      </trkpt>
      <trkpt lat="46.17136" lon="2.48817">
        <ele>448</ele>
        <time>2015-04-18T14:46:05Z</time>
      </trkpt>
      <trkpt lat="46.17133" lon="2.48817">
        <ele>448</ele>
        <time>2015-04-18T14:46:07Z</time>
      </trkpt>
      <trkpt lat="46.17131" lon="2.48817">
        <ele>448</ele>
        <time>2015-04-18T14:46:09Z</time>
      </trkpt>
      <trkpt lat="46.17128" lon="2.48817">
        <ele>448</ele>
        <time>2015-04-18T14:46:11Z</time>
      </trkpt>
      <trkpt lat="46.17125" lon="2.48816">
        <ele>448</ele>
        <time>2015-04-18T14:46:14Z</time>
      </trkpt>
      <trkpt lat="46.1712" lon="2.48816">
        <ele>448</ele>
        <time>2015-04-18T14:46:16Z</time>
      </trkpt>
      <trkpt lat="46.17117" lon="2.48816">
        <ele>448</ele>
        <time>2015-04-18T14:46:18Z</time>
      </trkpt>
      <trkpt lat="46.17114" lon="2.48816">
        <ele>448</ele>
        <time>2015-04-18T14:46:20Z</time>
      </trkpt>
      <trkpt lat="46.17111" lon="2.48816">
        <ele>448</ele>
        <time>2015-04-18T14:46:22Z</time>
      </trkpt>
      <trkpt lat="46.17108" lon="2.48816">
        <ele>448</ele>
        <time>2015-04-18T14:46:24Z</time>
      </trkpt>
      <trkpt lat="46.17105" lon="2.48816">
        <ele>448</ele>
        <time>2015-04-18T14:46:26Z</time>
      </trkpt>
      <trkpt lat="46.17102" lon="2.48816">
        <ele>448</ele>
        <time>2015-04-18T14:46:28Z</time>
      </trkpt>
      <trkpt lat="46.17099" lon="2.48815">
        <ele>448</ele>
        <time>2015-04-18T14:46:30Z</time>
      </trkpt>
      <trkpt lat="46.17096" lon="2.48815">
        <ele>448</ele>
        <time>2015-04-18T14:46:32Z</time>
      </trkpt>
      <trkpt lat="46.17093" lon="2.48815">
        <ele>448</ele>
        <time>2015-04-18T14:46:34Z</time>
      </trkpt>
      <trkpt lat="46.17089" lon="2.48815">
        <ele>448</ele>
        <time>2015-04-18T14:46:36Z</time>
      </trkpt>
      <trkpt lat="46.17086" lon="2.48815">
        <ele>448</ele>
        <time>2015-04-18T14:46:38Z</time>
      </trkpt>
      <trkpt lat="46.17083" lon="2.48815">
        <ele>448</ele>
        <time>2015-04-18T14:46:40Z</time>
      </trkpt>
      <trkpt lat="46.1708" lon="2.48815">
        <ele>448</ele>
        <time>2015-04-18T14:46:42Z</time>
      </trkpt>
      <trkpt lat="46.17077" lon="2.48815">
        <ele>448</ele>
        <time>2015-04-18T14:46:44Z</time>
      </trkpt>
      <trkpt lat="46.17073" lon="2.48814">
        <ele>448</ele>
        <time>2015-04-18T14:46:46Z</time>
      </trkpt>
      <trkpt lat="46.1707" lon="2.48814">
        <ele>448</ele>
        <time>2015-04-18T14:46:48Z</time>
      </trkpt>
      <trkpt lat="46.17067" lon="2.48814">
        <ele>448</ele>
        <time>2015-04-18T14:46:50Z</time>
      </trkpt>
      <trkpt lat="46.17063" lon="2.48814">
        <ele>448</ele>
        <time>2015-04-18T14:46:52Z</time>
      </trkpt>
      <trkpt lat="46.1706" lon="2.48815">
        <ele>448</ele>
        <time>2015-04-18T14:46:54Z</time>
      </trkpt>
      <trkpt lat="46.17057" lon="2.48814">
        <ele>448</ele>
        <time>2015-04-18T14:46:56Z</time>
      </trkpt>
      <trkpt lat="46.17054" lon="2.48814">
        <ele>448</ele>
        <time>2015-04-18T14:46:58Z</time>
      </trkpt>
      <trkpt lat="46.1705" lon="2.48814">
        <ele>448</ele>
        <time>2015-04-18T14:47:00Z</time>
      </trkpt>
      <trkpt lat="46.17047" lon="2.48814">
        <ele>448</ele>
        <time>2015-04-18T14:47:02Z</time>
      </trkpt>
      <trkpt lat="46.17044" lon="2.48814">
        <ele>448</ele>
        <time>2015-04-18T14:47:04Z</time>
      </trkpt>
      <trkpt lat="46.17041" lon="2.48814">
        <ele>448</ele>
        <time>2015-04-18T14:47:06Z</time>
      </trkpt>
      <trkpt lat="46.17038" lon="2.48814">
        <ele>447</ele>
        <time>2015-04-18T14:47:08Z</time>
      </trkpt>
      <trkpt lat="46.17035" lon="2.48814">
        <ele>447</ele>
        <time>2015-04-18T14:47:10Z</time>
      </trkpt>
      <trkpt lat="46.17031" lon="2.48814">
        <ele>447</ele>
        <time>2015-04-18T14:47:12Z</time>
      </trkpt>
      <trkpt lat="46.17028" lon="2.48815">
        <ele>447</ele>
        <time>2015-04-18T14:47:14Z</time>
      </trkpt>
      <trkpt lat="46.17024" lon="2.48815">
        <ele>446</ele>
        <time>2015-04-18T14:47:16Z</time>
      </trkpt>
      <trkpt lat="46.17021" lon="2.48815">
        <ele>446</ele>
        <time>2015-04-18T14:47:18Z</time>
      </trkpt>
      <trkpt lat="46.17018" lon="2.48815">
        <ele>446</ele>
        <time>2015-04-18T14:47:20Z</time>
      </trkpt>
      <trkpt lat="46.17014" lon="2.48816">
        <ele>446</ele>
        <time>2015-04-18T14:47:22Z</time>
      </trkpt>
      <trkpt lat="46.17012" lon="2.48817">
        <ele>446</ele>
        <time>2015-04-18T14:47:24Z</time>
      </trkpt>
      <trkpt lat="46.17008" lon="2.48817">
        <ele>446</ele>
        <time>2015-04-18T14:47:26Z</time>
      </trkpt>
      <trkpt lat="46.17005" lon="2.48817">
        <ele>446</ele>
        <time>2015-04-18T14:47:28Z</time>
      </trkpt>
      <trkpt lat="46.17001" lon="2.48818">
        <ele>446</ele>
        <time>2015-04-18T14:47:30Z</time>
      </trkpt>
      <trkpt lat="46.16998" lon="2.48819">
        <ele>446</ele>
        <time>2015-04-18T14:47:32Z</time>
      </trkpt>
      <trkpt lat="46.16994" lon="2.4882">
        <ele>446</ele>
        <time>2015-04-18T14:47:34Z</time>
      </trkpt>
      <trkpt lat="46.16991" lon="2.48821">
        <ele>446</ele>
        <time>2015-04-18T14:47:36Z</time>
      </trkpt>
      <trkpt lat="46.16988" lon="2.48822">
        <ele>446</ele>
        <time>2015-04-18T14:47:38Z</time>
      </trkpt>
      <trkpt lat="46.16985" lon="2.48822">
        <ele>446</ele>
        <time>2015-04-18T14:47:40Z</time>
      </trkpt>
      <trkpt lat="46.16983" lon="2.48823">
        <ele>445</ele>
        <time>2015-04-18T14:47:42Z</time>
      </trkpt>
      <trkpt lat="46.1698" lon="2.48824">
        <ele>445</ele>
        <time>2015-04-18T14:47:44Z</time>
      </trkpt>
      <trkpt lat="46.16977" lon="2.48825">
        <ele>445</ele>
        <time>2015-04-18T14:47:46Z</time>
      </trkpt>
      <trkpt lat="46.16973" lon="2.48826">
        <ele>445</ele>
        <time>2015-04-18T14:47:48Z</time>
      </trkpt>
      <trkpt lat="46.1697" lon="2.48827">
        <ele>444</ele>
        <time>2015-04-18T14:47:50Z</time>
      </trkpt>
      <trkpt lat="46.16968" lon="2.48829">
        <ele>444</ele>
        <time>2015-04-18T14:47:52Z</time>
      </trkpt>
      <trkpt lat="46.16964" lon="2.4883">
        <ele>444</ele>
        <time>2015-04-18T14:47:54Z</time>
      </trkpt>
      <trkpt lat="46.16961" lon="2.48831">
        <ele>444</ele>
        <time>2015-04-18T14:47:56Z</time>
      </trkpt>
      <trkpt lat="46.16958" lon="2.48833">
        <ele>444</ele>
        <time>2015-04-18T14:47:58Z</time>
      </trkpt>
      <trkpt lat="46.16955" lon="2.48835">
        <ele>444</ele>
        <time>2015-04-18T14:48:00Z</time>
      </trkpt>
      <trkpt lat="46.16952" lon="2.48836">
        <ele>444</ele>
        <time>2015-04-18T14:48:02Z</time>
      </trkpt>
      <trkpt lat="46.1695" lon="2.48839">
        <ele>444</ele>
        <time>2015-04-18T14:48:04Z</time>
      </trkpt>
      <trkpt lat="46.16948" lon="2.48842">
        <ele>444</ele>
        <time>2015-04-18T14:48:06Z</time>
      </trkpt>
      <trkpt lat="46.16944" lon="2.48846">
        <ele>444</ele>
        <time>2015-04-18T14:48:09Z</time>
      </trkpt>
      <trkpt lat="46.16942" lon="2.48849">
        <ele>444</ele>
        <time>2015-04-18T14:48:11Z</time>
      </trkpt>
      <trkpt lat="46.1694" lon="2.48851">
        <ele>444</ele>
        <time>2015-04-18T14:48:13Z</time>
      </trkpt>
      <trkpt lat="46.16937" lon="2.48854">
        <ele>444</ele>
        <time>2015-04-18T14:48:15Z</time>
      </trkpt>
      <trkpt lat="46.16935" lon="2.48856">
        <ele>444</ele>
        <time>2015-04-18T14:48:17Z</time>
      </trkpt>
      <trkpt lat="46.16933" lon="2.48859">
        <ele>444</ele>
        <time>2015-04-18T14:48:19Z</time>
      </trkpt>
      <trkpt lat="46.16931" lon="2.48862">
        <ele>444</ele>
        <time>2015-04-18T14:48:21Z</time>
      </trkpt>
      <trkpt lat="46.16928" lon="2.48865">
        <ele>444</ele>
        <time>2015-04-18T14:48:23Z</time>
      </trkpt>
      <trkpt lat="46.16926" lon="2.48867">
        <ele>444</ele>
        <time>2015-04-18T14:48:25Z</time>
      </trkpt>
      <trkpt lat="46.16923" lon="2.4887">
        <ele>444</ele>
        <time>2015-04-18T14:48:27Z</time>
      </trkpt>
      <trkpt lat="46.16921" lon="2.48872">
        <ele>444</ele>
        <time>2015-04-18T14:48:29Z</time>
      </trkpt>
      <trkpt lat="46.16917" lon="2.48875">
        <ele>444</ele>
        <time>2015-04-18T14:48:32Z</time>
      </trkpt>
      <trkpt lat="46.16915" lon="2.48877">
        <ele>444</ele>
        <time>2015-04-18T14:48:34Z</time>
      </trkpt>
      <trkpt lat="46.16912" lon="2.48879">
        <ele>444</ele>
        <time>2015-04-18T14:48:36Z</time>
      </trkpt>
      <trkpt lat="46.16909" lon="2.48881">
        <ele>444</ele>
        <time>2015-04-18T14:48:38Z</time>
      </trkpt>
      <trkpt lat="46.16907" lon="2.48883">
        <ele>444</ele>
        <time>2015-04-18T14:48:40Z</time>
      </trkpt>
      <trkpt lat="46.16904" lon="2.48884">
        <ele>444</ele>
        <time>2015-04-18T14:48:42Z</time>
      </trkpt>
      <trkpt lat="46.16901" lon="2.48886">
        <ele>444</ele>
        <time>2015-04-18T14:48:44Z</time>
      </trkpt>
      <trkpt lat="46.16898" lon="2.48887">
        <ele>444</ele>
        <time>2015-04-18T14:48:46Z</time>
      </trkpt>
      <trkpt lat="46.16895" lon="2.48889">
        <ele>444</ele>
        <time>2015-04-18T14:48:48Z</time>
      </trkpt>
      <trkpt lat="46.16893" lon="2.4889">
        <ele>444</ele>
        <time>2015-04-18T14:48:50Z</time>
      </trkpt>
      <trkpt lat="46.1689" lon="2.48891">
        <ele>444</ele>
        <time>2015-04-18T14:48:52Z</time>
      </trkpt>
      <trkpt lat="46.16887" lon="2.48893">
        <ele>444</ele>
        <time>2015-04-18T14:48:54Z</time>
      </trkpt>
      <trkpt lat="46.16885" lon="2.48894">
        <ele>444</ele>
        <time>2015-04-18T14:48:56Z</time>
      </trkpt>
      <trkpt lat="46.16882" lon="2.48896">
        <ele>444</ele>
        <time>2015-04-18T14:48:58Z</time>
      </trkpt>
      <trkpt lat="46.16879" lon="2.48897">
        <ele>444</ele>
        <time>2015-04-18T14:49:00Z</time>
      </trkpt>
      <trkpt lat="46.16876" lon="2.48898">
        <ele>444</ele>
        <time>2015-04-18T14:49:03Z</time>
      </trkpt>
      <trkpt lat="46.16872" lon="2.489">
        <ele>444</ele>
        <time>2015-04-18T14:49:05Z</time>
      </trkpt>
      <trkpt lat="46.16869" lon="2.48901">
        <ele>444</ele>
        <time>2015-04-18T14:49:07Z</time>
      </trkpt>
      <trkpt lat="46.16866" lon="2.48902">
        <ele>443</ele>
        <time>2015-04-18T14:49:09Z</time>
      </trkpt>
      <trkpt lat="46.16863" lon="2.48903">
        <ele>443</ele>
        <time>2015-04-18T14:49:11Z</time>
      </trkpt>
      <trkpt lat="46.1686" lon="2.48904">
        <ele>443</ele>
        <time>2015-04-18T14:49:13Z</time>
      </trkpt>
      <trkpt lat="46.16857" lon="2.48905">
        <ele>443</ele>
        <time>2015-04-18T14:49:15Z</time>
      </trkpt>
      <trkpt lat="46.16854" lon="2.48906">
        <ele>443</ele>
        <time>2015-04-18T14:49:17Z</time>
      </trkpt>
      <trkpt lat="46.16851" lon="2.48906">
        <ele>443</ele>
        <time>2015-04-18T14:49:19Z</time>
      </trkpt>
      <trkpt lat="46.16848" lon="2.48907">
        <ele>442</ele>
        <time>2015-04-18T14:49:21Z</time>
      </trkpt>
      <trkpt lat="46.16845" lon="2.48907">
        <ele>442</ele>
        <time>2015-04-18T14:49:23Z</time>
      </trkpt>
      <trkpt lat="46.16842" lon="2.48908">
        <ele>441</ele>
        <time>2015-04-18T14:49:25Z</time>
      </trkpt>
      <trkpt lat="46.16839" lon="2.48909">
        <ele>441</ele>
        <time>2015-04-18T14:49:27Z</time>
      </trkpt>
      <trkpt lat="46.16836" lon="2.48909">
        <ele>440</ele>
        <time>2015-04-18T14:49:29Z</time>
      </trkpt>
      <trkpt lat="46.16833" lon="2.4891">
        <ele>440</ele>
        <time>2015-04-18T14:49:31Z</time>
      </trkpt>
      <trkpt lat="46.1683" lon="2.4891">
        <ele>440</ele>
        <time>2015-04-18T14:49:33Z</time>
      </trkpt>
      <trkpt lat="46.16828" lon="2.4891">
        <ele>440</ele>
        <time>2015-04-18T14:49:35Z</time>
      </trkpt>
      <trkpt lat="46.16825" lon="2.4891">
        <ele>439</ele>
        <time>2015-04-18T14:49:37Z</time>
      </trkpt>
      <trkpt lat="46.16822" lon="2.4891">
        <ele>439</ele>
        <time>2015-04-18T14:49:39Z</time>
      </trkpt>
      <trkpt lat="46.16819" lon="2.48909">
        <ele>438</ele>
        <time>2015-04-18T14:49:41Z</time>
      </trkpt>
      <trkpt lat="46.16816" lon="2.48909">
        <ele>438</ele>
        <time>2015-04-18T14:49:43Z</time>
      </trkpt>
      <trkpt lat="46.16813" lon="2.48909">
        <ele>438</ele>
        <time>2015-04-18T14:49:45Z</time>
      </trkpt>
      <trkpt lat="46.16811" lon="2.48908">
        <ele>438</ele>
        <time>2015-04-18T14:49:47Z</time>
      </trkpt>
      <trkpt lat="46.16808" lon="2.48908">
        <ele>438</ele>
        <time>2015-04-18T14:49:49Z</time>
      </trkpt>
      <trkpt lat="46.16805" lon="2.48907">
        <ele>438</ele>
        <time>2015-04-18T14:49:51Z</time>
      </trkpt>
      <trkpt lat="46.16801" lon="2.48907">
        <ele>438</ele>
        <time>2015-04-18T14:49:53Z</time>
      </trkpt>
      <trkpt lat="46.16798" lon="2.48906">
        <ele>438</ele>
        <time>2015-04-18T14:49:55Z</time>
      </trkpt>
      <trkpt lat="46.16795" lon="2.48906">
        <ele>438</ele>
        <time>2015-04-18T14:49:58Z</time>
      </trkpt>
      <trkpt lat="46.16791" lon="2.48904">
        <ele>438</ele>
        <time>2015-04-18T14:50:00Z</time>
      </trkpt>
      <trkpt lat="46.16788" lon="2.48902">
        <ele>438</ele>
        <time>2015-04-18T14:50:02Z</time>
      </trkpt>
      <trkpt lat="46.16784" lon="2.48901">
        <ele>438</ele>
        <time>2015-04-18T14:50:04Z</time>
      </trkpt>
      <trkpt lat="46.16781" lon="2.48901">
        <ele>438</ele>
        <time>2015-04-18T14:50:06Z</time>
      </trkpt>
      <trkpt lat="46.16778" lon="2.489">
        <ele>438</ele>
        <time>2015-04-18T14:50:08Z</time>
      </trkpt>
      <trkpt lat="46.16775" lon="2.48899">
        <ele>438</ele>
        <time>2015-04-18T14:50:10Z</time>
      </trkpt>
      <trkpt lat="46.16772" lon="2.48898">
        <ele>438</ele>
        <time>2015-04-18T14:50:12Z</time>
      </trkpt>
      <trkpt lat="46.16769" lon="2.48897">
        <ele>438</ele>
        <time>2015-04-18T14:50:14Z</time>
      </trkpt>
      <trkpt lat="46.16765" lon="2.48896">
        <ele>438</ele>
        <time>2015-04-18T14:50:16Z</time>
      </trkpt>
      <trkpt lat="46.16762" lon="2.48894">
        <ele>438</ele>
        <time>2015-04-18T14:50:18Z</time>
      </trkpt>
      <trkpt lat="46.16759" lon="2.48893">
        <ele>438</ele>
        <time>2015-04-18T14:50:20Z</time>
      </trkpt>
      <trkpt lat="46.16756" lon="2.48893">
        <ele>438</ele>
        <time>2015-04-18T14:50:22Z</time>
      </trkpt>
      <trkpt lat="46.16753" lon="2.48892">
        <ele>438</ele>
        <time>2015-04-18T14:50:24Z</time>
      </trkpt>
      <trkpt lat="46.1675" lon="2.48891">
        <ele>438</ele>
        <time>2015-04-18T14:50:26Z</time>
      </trkpt>
      <trkpt lat="46.16747" lon="2.48891">
        <ele>438</ele>
        <time>2015-04-18T14:50:28Z</time>
      </trkpt>
      <trkpt lat="46.16744" lon="2.4889">
        <ele>438</ele>
        <time>2015-04-18T14:50:30Z</time>
      </trkpt>
      <trkpt lat="46.16741" lon="2.4889">
        <ele>438</ele>
        <time>2015-04-18T14:50:32Z</time>
      </trkpt>
      <trkpt lat="46.16738" lon="2.48889">
        <ele>438</ele>
        <time>2015-04-18T14:50:34Z</time>
      </trkpt>
      <trkpt lat="46.16735" lon="2.48888">
        <ele>438</ele>
        <time>2015-04-18T14:50:36Z</time>
      </trkpt>
      <trkpt lat="46.16731" lon="2.48887">
        <ele>438</ele>
        <time>2015-04-18T14:50:38Z</time>
      </trkpt>
      <trkpt lat="46.16728" lon="2.48887">
        <ele>438</ele>
        <time>2015-04-18T14:50:40Z</time>
      </trkpt>
      <trkpt lat="46.16724" lon="2.48885">
        <ele>438</ele>
        <time>2015-04-18T14:50:42Z</time>
      </trkpt>
      <trkpt lat="46.1672" lon="2.48884">
        <ele>438</ele>
        <time>2015-04-18T14:50:44Z</time>
      </trkpt>
      <trkpt lat="46.16718" lon="2.48883">
        <ele>438</ele>
        <time>2015-04-18T14:50:46Z</time>
      </trkpt>
      <trkpt lat="46.16714" lon="2.48883">
        <ele>438</ele>
        <time>2015-04-18T14:50:48Z</time>
      </trkpt>
      <trkpt lat="46.16711" lon="2.48882">
        <ele>438</ele>
        <time>2015-04-18T14:50:50Z</time>
      </trkpt>
      <trkpt lat="46.16708" lon="2.48883">
        <ele>438</ele>
        <time>2015-04-18T14:50:52Z</time>
      </trkpt>
      <trkpt lat="46.16705" lon="2.48883">
        <ele>438</ele>
        <time>2015-04-18T14:50:54Z</time>
      </trkpt>
      <trkpt lat="46.16703" lon="2.48883">
        <ele>438</ele>
        <time>2015-04-18T14:50:56Z</time>
      </trkpt>
      <trkpt lat="46.16699" lon="2.48882">
        <ele>438</ele>
        <time>2015-04-18T14:50:58Z</time>
      </trkpt>
      <trkpt lat="46.16696" lon="2.48883">
        <ele>438</ele>
        <time>2015-04-18T14:51:00Z</time>
      </trkpt>
      <trkpt lat="46.16693" lon="2.48883">
        <ele>439</ele>
        <time>2015-04-18T14:51:02Z</time>
      </trkpt>
      <trkpt lat="46.16689" lon="2.48883">
        <ele>439</ele>
        <time>2015-04-18T14:51:04Z</time>
      </trkpt>
      <trkpt lat="46.16687" lon="2.48883">
        <ele>439</ele>
        <time>2015-04-18T14:51:06Z</time>
      </trkpt>
      <trkpt lat="46.16684" lon="2.48882">
        <ele>439</ele>
        <time>2015-04-18T14:51:08Z</time>
      </trkpt>
      <trkpt lat="46.16681" lon="2.48883">
        <ele>439</ele>
        <time>2015-04-18T14:51:10Z</time>
      </trkpt>
      <trkpt lat="46.16678" lon="2.48884">
        <ele>439</ele>
        <time>2015-04-18T14:51:12Z</time>
      </trkpt>
      <trkpt lat="46.16674" lon="2.48884">
        <ele>439</ele>
        <time>2015-04-18T14:51:14Z</time>
      </trkpt>
      <trkpt lat="46.16671" lon="2.48884">
        <ele>439</ele>
        <time>2015-04-18T14:51:16Z</time>
      </trkpt>
      <trkpt lat="46.16669" lon="2.48885">
        <ele>439</ele>
        <time>2015-04-18T14:51:18Z</time>
      </trkpt>
      <trkpt lat="46.16666" lon="2.48885">
        <ele>439</ele>
        <time>2015-04-18T14:51:20Z</time>
      </trkpt>
      <trkpt lat="46.16663" lon="2.48886">
        <ele>439</ele>
        <time>2015-04-18T14:51:22Z</time>
      </trkpt>
      <trkpt lat="46.1666" lon="2.48887">
        <ele>439</ele>
        <time>2015-04-18T14:51:24Z</time>
      </trkpt>
      <trkpt lat="46.16657" lon="2.48887">
        <ele>439</ele>
        <time>2015-04-18T14:51:26Z</time>
      </trkpt>
      <trkpt lat="46.16654" lon="2.48888">
        <ele>439</ele>
        <time>2015-04-18T14:51:28Z</time>
      </trkpt>
      <trkpt lat="46.16651" lon="2.48888">
        <ele>439</ele>
        <time>2015-04-18T14:51:30Z</time>
      </trkpt>
      <trkpt lat="46.16647" lon="2.48889">
        <ele>439</ele>
        <time>2015-04-18T14:51:32Z</time>
      </trkpt>
      <trkpt lat="46.16645" lon="2.4889">
        <ele>439</ele>
        <time>2015-04-18T14:51:34Z</time>
      </trkpt>
      <trkpt lat="46.16642" lon="2.4889">
        <ele>439</ele>
        <time>2015-04-18T14:51:36Z</time>
      </trkpt>
      <trkpt lat="46.16639" lon="2.48891">
        <ele>439</ele>
        <time>2015-04-18T14:51:38Z</time>
      </trkpt>
      <trkpt lat="46.16636" lon="2.48892">
        <ele>439</ele>
        <time>2015-04-18T14:51:40Z</time>
      </trkpt>
      <trkpt lat="46.16632" lon="2.48893">
        <ele>439</ele>
        <time>2015-04-18T14:51:42Z</time>
      </trkpt>
      <trkpt lat="46.16629" lon="2.48894">
        <ele>439</ele>
        <time>2015-04-18T14:51:44Z</time>
      </trkpt>
      <trkpt lat="46.16626" lon="2.48895">
        <ele>440</ele>
        <time>2015-04-18T14:51:46Z</time>
      </trkpt>
      <trkpt lat="46.16624" lon="2.48895">
        <ele>440</ele>
        <time>2015-04-18T14:51:48Z</time>
      </trkpt>
      <trkpt lat="46.1662" lon="2.48896">
        <ele>440</ele>
        <time>2015-04-18T14:51:50Z</time>
      </trkpt>
      <trkpt lat="46.16617" lon="2.48897">
        <ele>440</ele>
        <time>2015-04-18T14:51:52Z</time>
      </trkpt>
      <trkpt lat="46.16614" lon="2.48898">
        <ele>441</ele>
        <time>2015-04-18T14:51:54Z</time>
      </trkpt>
      <trkpt lat="46.16611" lon="2.48899">
        <ele>441</ele>
        <time>2015-04-18T14:51:56Z</time>
      </trkpt>
      <trkpt lat="46.16608" lon="2.489">
        <ele>441</ele>
        <time>2015-04-18T14:51:58Z</time>
      </trkpt>
      <trkpt lat="46.16605" lon="2.489">
        <ele>441</ele>
        <time>2015-04-18T14:52:00Z</time>
      </trkpt>
      <trkpt lat="46.16602" lon="2.48901">
        <ele>442</ele>
        <time>2015-04-18T14:52:02Z</time>
      </trkpt>
      <trkpt lat="46.16599" lon="2.48901">
        <ele>442</ele>
        <time>2015-04-18T14:52:04Z</time>
      </trkpt>
      <trkpt lat="46.16597" lon="2.48902">
        <ele>442</ele>
        <time>2015-04-18T14:52:06Z</time>
      </trkpt>
      <trkpt lat="46.16594" lon="2.48903">
        <ele>442</ele>
        <time>2015-04-18T14:52:08Z</time>
      </trkpt>
      <trkpt lat="46.16591" lon="2.48903">
        <ele>443</ele>
        <time>2015-04-18T14:52:10Z</time>
      </trkpt>
      <trkpt lat="46.16587" lon="2.48904">
        <ele>443</ele>
        <time>2015-04-18T14:52:12Z</time>
      </trkpt>
      <trkpt lat="46.16585" lon="2.48904">
        <ele>443</ele>
        <time>2015-04-18T14:52:14Z</time>
      </trkpt>
      <trkpt lat="46.16582" lon="2.48904">
        <ele>444</ele>
        <time>2015-04-18T14:52:16Z</time>
      </trkpt>
      <trkpt lat="46.16579" lon="2.48905">
        <ele>444</ele>
        <time>2015-04-18T14:52:18Z</time>
      </trkpt>
      <trkpt lat="46.16576" lon="2.48907">
        <ele>444</ele>
        <time>2015-04-18T14:52:20Z</time>
      </trkpt>
      <trkpt lat="46.16573" lon="2.48908">
        <ele>445</ele>
        <time>2015-04-18T14:52:22Z</time>
      </trkpt>
      <trkpt lat="46.1657" lon="2.48909">
        <ele>445</ele>
        <time>2015-04-18T14:52:24Z</time>
      </trkpt>
      <trkpt lat="46.16567" lon="2.4891">
        <ele>445</ele>
        <time>2015-04-18T14:52:26Z</time>
      </trkpt>
      <trkpt lat="46.16564" lon="2.48911">
        <ele>445</ele>
        <time>2015-04-18T14:52:28Z</time>
      </trkpt>
      <trkpt lat="46.16561" lon="2.48911">
        <ele>446</ele>
        <time>2015-04-18T14:52:30Z</time>
      </trkpt>
      <trkpt lat="46.16558" lon="2.48912">
        <ele>446</ele>
        <time>2015-04-18T14:52:32Z</time>
      </trkpt>
      <trkpt lat="46.16555" lon="2.48913">
        <ele>446</ele>
        <time>2015-04-18T14:52:34Z</time>
      </trkpt>
      <trkpt lat="46.16552" lon="2.48914">
        <ele>446</ele>
        <time>2015-04-18T14:52:36Z</time>
      </trkpt>
      <trkpt lat="46.16549" lon="2.48915">
        <ele>446</ele>
        <time>2015-04-18T14:52:38Z</time>
      </trkpt>
      <trkpt lat="46.16546" lon="2.48916">
        <ele>447</ele>
        <time>2015-04-18T14:52:40Z</time>
      </trkpt>
      <trkpt lat="46.16543" lon="2.48917">
        <ele>447</ele>
        <time>2015-04-18T14:52:42Z</time>
      </trkpt>
      <trkpt lat="46.1654" lon="2.48917">
        <ele>447</ele>
        <time>2015-04-18T14:52:44Z</time>
      </trkpt>
      <trkpt lat="46.16537" lon="2.48918">
        <ele>448</ele>
        <time>2015-04-18T14:52:46Z</time>
      </trkpt>
      <trkpt lat="46.16534" lon="2.48919">
        <ele>448</ele>
        <time>2015-04-18T14:52:48Z</time>
      </trkpt>
      <trkpt lat="46.16531" lon="2.4892">
        <ele>448</ele>
        <time>2015-04-18T14:52:50Z</time>
      </trkpt>
      <trkpt lat="46.16528" lon="2.4892">
        <ele>449</ele>
        <time>2015-04-18T14:52:52Z</time>
      </trkpt>
      <trkpt lat="46.16525" lon="2.48921">
        <ele>449</ele>
        <time>2015-04-18T14:52:54Z</time>
      </trkpt>
      <trkpt lat="46.16522" lon="2.48922">
        <ele>449</ele>
        <time>2015-04-18T14:52:56Z</time>
      </trkpt>
      <trkpt lat="46.16519" lon="2.48923">
        <ele>449</ele>
        <time>2015-04-18T14:52:58Z</time>
      </trkpt>
      <trkpt lat="46.16516" lon="2.48923">
        <ele>449</ele>
        <time>2015-04-18T14:53:00Z</time>
      </trkpt>
      <trkpt lat="46.16513" lon="2.48924">
        <ele>450</ele>
        <time>2015-04-18T14:53:02Z</time>
      </trkpt>
      <trkpt lat="46.1651" lon="2.48924">
        <ele>450</ele>
        <time>2015-04-18T14:53:04Z</time>
      </trkpt>
      <trkpt lat="46.16507" lon="2.48924">
        <ele>450</ele>
        <time>2015-04-18T14:53:06Z</time>
      </trkpt>
      <trkpt lat="46.16504" lon="2.48925">
        <ele>450</ele>
        <time>2015-04-18T14:53:08Z</time>
      </trkpt>
      <trkpt lat="46.16501" lon="2.48925">
        <ele>451</ele>
        <time>2015-04-18T14:53:10Z</time>
      </trkpt>
      <trkpt lat="46.16498" lon="2.48925">
        <ele>451</ele>
        <time>2015-04-18T14:53:12Z</time>
      </trkpt>
      <trkpt lat="46.16495" lon="2.48926">
        <ele>451</ele>
        <time>2015-04-18T14:53:14Z</time>
      </trkpt>
      <trkpt lat="46.16492" lon="2.48926">
        <ele>451</ele>
        <time>2015-04-18T14:53:16Z</time>
      </trkpt>
      <trkpt lat="46.16489" lon="2.48925">
        <ele>451</ele>
        <time>2015-04-18T14:53:18Z</time>
      </trkpt>
      <trkpt lat="46.16486" lon="2.48925">
        <ele>452</ele>
        <time>2015-04-18T14:53:20Z</time>
      </trkpt>
      <trkpt lat="46.16483" lon="2.48925">
        <ele>452</ele>
        <time>2015-04-18T14:53:22Z</time>
      </trkpt>
      <trkpt lat="46.1648" lon="2.48925">
        <ele>452</ele>
        <time>2015-04-18T14:53:24Z</time>
      </trkpt>
      <trkpt lat="46.16477" lon="2.48924">
        <ele>452</ele>
        <time>2015-04-18T14:53:26Z</time>
      </trkpt>
      <trkpt lat="46.16474" lon="2.48924">
        <ele>453</ele>
        <time>2015-04-18T14:53:28Z</time>
      </trkpt>
      <trkpt lat="46.16471" lon="2.48923">
        <ele>453</ele>
        <time>2015-04-18T14:53:30Z</time>
      </trkpt>
      <trkpt lat="46.16468" lon="2.48923">
        <ele>453</ele>
        <time>2015-04-18T14:53:32Z</time>
      </trkpt>
      <trkpt lat="46.16465" lon="2.48922">
        <ele>453</ele>
        <time>2015-04-18T14:53:34Z</time>
      </trkpt>
      <trkpt lat="46.16462" lon="2.48922">
        <ele>453</ele>
        <time>2015-04-18T14:53:36Z</time>
      </trkpt>
      <trkpt lat="46.16459" lon="2.48921">
        <ele>454</ele>
        <time>2015-04-18T14:53:38Z</time>
      </trkpt>
      <trkpt lat="46.16456" lon="2.4892">
        <ele>454</ele>
        <time>2015-04-18T14:53:40Z</time>
      </trkpt>
      <trkpt lat="46.16453" lon="2.48919">
        <ele>454</ele>
        <time>2015-04-18T14:53:42Z</time>
      </trkpt>
      <trkpt lat="46.1645" lon="2.48919">
        <ele>454</ele>
        <time>2015-04-18T14:53:44Z</time>
      </trkpt>
      <trkpt lat="46.16447" lon="2.48918">
        <ele>454</ele>
        <time>2015-04-18T14:53:46Z</time>
      </trkpt>
      <trkpt lat="46.16444" lon="2.48919">
        <ele>454</ele>
        <time>2015-04-18T14:53:48Z</time>
      </trkpt>
      <trkpt lat="46.16441" lon="2.48921">
        <ele>454</ele>
        <time>2015-04-18T14:53:50Z</time>
      </trkpt>
      <trkpt lat="46.16439" lon="2.4892">
        <ele>454</ele>
        <time>2015-04-18T14:53:52Z</time>
      </trkpt>
      <trkpt lat="46.16435" lon="2.4892">
        <ele>454</ele>
        <time>2015-04-18T14:53:54Z</time>
      </trkpt>
      <trkpt lat="46.16432" lon="2.48919">
        <ele>454</ele>
        <time>2015-04-18T14:53:56Z</time>
      </trkpt>
      <trkpt lat="46.16429" lon="2.48918">
        <ele>454</ele>
        <time>2015-04-18T14:53:58Z</time>
      </trkpt>
      <trkpt lat="46.16426" lon="2.48917">
        <ele>454</ele>
        <time>2015-04-18T14:54:00Z</time>
      </trkpt>
      <trkpt lat="46.16423" lon="2.48917">
        <ele>454</ele>
        <time>2015-04-18T14:54:02Z</time>
      </trkpt>
      <trkpt lat="46.16421" lon="2.48916">
        <ele>454</ele>
        <time>2015-04-18T14:54:04Z</time>
      </trkpt>
      <trkpt lat="46.16417" lon="2.48916">
        <ele>454</ele>
        <time>2015-04-18T14:54:06Z</time>
      </trkpt>
      <trkpt lat="46.16414" lon="2.48915">
        <ele>454</ele>
        <time>2015-04-18T14:54:08Z</time>
      </trkpt>
      <trkpt lat="46.16411" lon="2.48914">
        <ele>454</ele>
        <time>2015-04-18T14:54:10Z</time>
      </trkpt>
      <trkpt lat="46.16408" lon="2.48913">
        <ele>454</ele>
        <time>2015-04-18T14:54:12Z</time>
      </trkpt>
      <trkpt lat="46.16405" lon="2.48912">
        <ele>454</ele>
        <time>2015-04-18T14:54:14Z</time>
      </trkpt>
      <trkpt lat="46.16402" lon="2.48911">
        <ele>454</ele>
        <time>2015-04-18T14:54:16Z</time>
      </trkpt>
      <trkpt lat="46.16399" lon="2.4891">
        <ele>454</ele>
        <time>2015-04-18T14:54:18Z</time>
      </trkpt>
      <trkpt lat="46.16396" lon="2.48909">
        <ele>454</ele>
        <time>2015-04-18T14:54:20Z</time>
      </trkpt>
      <trkpt lat="46.16393" lon="2.48909">
        <ele>454</ele>
        <time>2015-04-18T14:54:22Z</time>
      </trkpt>
      <trkpt lat="46.1639" lon="2.48908">
        <ele>454</ele>
        <time>2015-04-18T14:54:24Z</time>
      </trkpt>
      <trkpt lat="46.16387" lon="2.48907">
        <ele>454</ele>
        <time>2015-04-18T14:54:26Z</time>
      </trkpt>
      <trkpt lat="46.16384" lon="2.48907">
        <ele>454</ele>
        <time>2015-04-18T14:54:28Z</time>
      </trkpt>
      <trkpt lat="46.16381" lon="2.48906">
        <ele>454</ele>
        <time>2015-04-18T14:54:30Z</time>
      </trkpt>
      <trkpt lat="46.16378" lon="2.48905">
        <ele>454</ele>
        <time>2015-04-18T14:54:32Z</time>
      </trkpt>
      <trkpt lat="46.16375" lon="2.48905">
        <ele>454</ele>
        <time>2015-04-18T14:54:34Z</time>
      </trkpt>
      <trkpt lat="46.16372" lon="2.48904">
        <ele>454</ele>
        <time>2015-04-18T14:54:36Z</time>
      </trkpt>
      <trkpt lat="46.16369" lon="2.48903">
        <ele>454</ele>
        <time>2015-04-18T14:54:38Z</time>
      </trkpt>
      <trkpt lat="46.16366" lon="2.48903">
        <ele>454</ele>
        <time>2015-04-18T14:54:40Z</time>
      </trkpt>
      <trkpt lat="46.16363" lon="2.48902">
        <ele>454</ele>
        <time>2015-04-18T14:54:42Z</time>
      </trkpt>
      <trkpt lat="46.1636" lon="2.48901">
        <ele>454</ele>
        <time>2015-04-18T14:54:44Z</time>
      </trkpt>
      <trkpt lat="46.16357" lon="2.489">
        <ele>454</ele>
        <time>2015-04-18T14:54:46Z</time>
      </trkpt>
      <trkpt lat="46.16354" lon="2.489">
        <ele>454</ele>
        <time>2015-04-18T14:54:48Z</time>
      </trkpt>
      <trkpt lat="46.16351" lon="2.48899">
        <ele>454</ele>
        <time>2015-04-18T14:54:50Z</time>
      </trkpt>
      <trkpt lat="46.16348" lon="2.48898">
        <ele>454</ele>
        <time>2015-04-18T14:54:52Z</time>
      </trkpt>
      <trkpt lat="46.16345" lon="2.48898">
        <ele>454</ele>
        <time>2015-04-18T14:54:54Z</time>
      </trkpt>
      <trkpt lat="46.16342" lon="2.48897">
        <ele>454</ele>
        <time>2015-04-18T14:54:56Z</time>
      </trkpt>
      <trkpt lat="46.16339" lon="2.48896">
        <ele>454</ele>
        <time>2015-04-18T14:54:58Z</time>
      </trkpt>
      <trkpt lat="46.16336" lon="2.48895">
        <ele>454</ele>
        <time>2015-04-18T14:55:00Z</time>
      </trkpt>
      <trkpt lat="46.16333" lon="2.48895">
        <ele>454</ele>
        <time>2015-04-18T14:55:02Z</time>
      </trkpt>
      <trkpt lat="46.1633" lon="2.48894">
        <ele>454</ele>
        <time>2015-04-18T14:55:04Z</time>
      </trkpt>
      <trkpt lat="46.16327" lon="2.48893">
        <ele>454</ele>
        <time>2015-04-18T14:55:06Z</time>
      </trkpt>
      <trkpt lat="46.16324" lon="2.48892">
        <ele>454</ele>
        <time>2015-04-18T14:55:08Z</time>
      </trkpt>
      <trkpt lat="46.16321" lon="2.48892">
        <ele>454</ele>
        <time>2015-04-18T14:55:10Z</time>
      </trkpt>
      <trkpt lat="46.16318" lon="2.48891">
        <ele>454</ele>
        <time>2015-04-18T14:55:12Z</time>
      </trkpt>
      <trkpt lat="46.16315" lon="2.4889">
        <ele>454</ele>
        <time>2015-04-18T14:55:14Z</time>
      </trkpt>
      <trkpt lat="46.16312" lon="2.48889">
        <ele>454</ele>
        <time>2015-04-18T14:55:16Z</time>
      </trkpt>
      <trkpt lat="46.16309" lon="2.48889">
        <ele>454</ele>
        <time>2015-04-18T14:55:18Z</time>
      </trkpt>
      <trkpt lat="46.16306" lon="2.48888">
        <ele>454</ele>
        <time>2015-04-18T14:55:20Z</time>
      </trkpt>
      <trkpt lat="46.16302" lon="2.48887">
        <ele>454</ele>
        <time>2015-04-18T14:55:22Z</time>
      </trkpt>
      <trkpt lat="46.16299" lon="2.48886">
        <ele>454</ele>
        <time>2015-04-18T14:55:24Z</time>
      </trkpt>
      <trkpt lat="46.16296" lon="2.48885">
        <ele>454</ele>
        <time>2015-04-18T14:55:26Z</time>
      </trkpt>
      <trkpt lat="46.16293" lon="2.48885">
        <ele>454</ele>
        <time>2015-04-18T14:55:28Z</time>
      </trkpt>
      <trkpt lat="46.16291" lon="2.48884">
        <ele>454</ele>
        <time>2015-04-18T14:55:30Z</time>
      </trkpt>
      <trkpt lat="46.16288" lon="2.48883">
        <ele>454</ele>
        <time>2015-04-18T14:55:32Z</time>
      </trkpt>
      <trkpt lat="46.16284" lon="2.48883">
        <ele>454</ele>
        <time>2015-04-18T14:55:34Z</time>
      </trkpt>
      <trkpt lat="46.16281" lon="2.48882">
        <ele>454</ele>
        <time>2015-04-18T14:55:36Z</time>
      </trkpt>
      <trkpt lat="46.16278" lon="2.48881">
        <ele>455</ele>
        <time>2015-04-18T14:55:38Z</time>
      </trkpt>
      <trkpt lat="46.16275" lon="2.4888">
        <ele>455</ele>
        <time>2015-04-18T14:55:40Z</time>
      </trkpt>
      <trkpt lat="46.16272" lon="2.48879">
        <ele>455</ele>
        <time>2015-04-18T14:55:42Z</time>
      </trkpt>
      <trkpt lat="46.16269" lon="2.48878">
        <ele>456</ele>
        <time>2015-04-18T14:55:44Z</time>
      </trkpt>
      <trkpt lat="46.16266" lon="2.48877">
        <ele>456</ele>
        <time>2015-04-18T14:55:46Z</time>
      </trkpt>
      <trkpt lat="46.16263" lon="2.48876">
        <ele>456</ele>
        <time>2015-04-18T14:55:48Z</time>
      </trkpt>
      <trkpt lat="46.1626" lon="2.48875">
        <ele>456</ele>
        <time>2015-04-18T14:55:50Z</time>
      </trkpt>
      <trkpt lat="46.16257" lon="2.48874">
        <ele>456</ele>
        <time>2015-04-18T14:55:52Z</time>
      </trkpt>
      <trkpt lat="46.16254" lon="2.48872">
        <ele>456</ele>
        <time>2015-04-18T14:55:54Z</time>
      </trkpt>
      <trkpt lat="46.16251" lon="2.48871">
        <ele>456</ele>
        <time>2015-04-18T14:55:56Z</time>
      </trkpt>
      <trkpt lat="46.16248" lon="2.48869">
        <ele>457</ele>
        <time>2015-04-18T14:55:58Z</time>
      </trkpt>
      <trkpt lat="46.16246" lon="2.48868">
        <ele>457</ele>
        <time>2015-04-18T14:56:00Z</time>
      </trkpt>
      <trkpt lat="46.16243" lon="2.48866">
        <ele>457</ele>
        <time>2015-04-18T14:56:02Z</time>
      </trkpt>
      <trkpt lat="46.1624" lon="2.48865">
        <ele>457</ele>
        <time>2015-04-18T14:56:04Z</time>
      </trkpt>
      <trkpt lat="46.16237" lon="2.48863">
        <ele>457</ele>
        <time>2015-04-18T14:56:06Z</time>
      </trkpt>
      <trkpt lat="46.16234" lon="2.48861">
        <ele>457</ele>
        <time>2015-04-18T14:56:08Z</time>
      </trkpt>
      <trkpt lat="46.16231" lon="2.48859">
        <ele>457</ele>
        <time>2015-04-18T14:56:10Z</time>
      </trkpt>
      <trkpt lat="46.16228" lon="2.48857">
        <ele>457</ele>
        <time>2015-04-18T14:56:12Z</time>
      </trkpt>
      <trkpt lat="46.16225" lon="2.48856">
        <ele>457</ele>
        <time>2015-04-18T14:56:14Z</time>
      </trkpt>
      <trkpt lat="46.16222" lon="2.48855">
        <ele>457</ele>
        <time>2015-04-18T14:56:16Z</time>
      </trkpt>
      <trkpt lat="46.16219" lon="2.48855">
        <ele>457</ele>
        <time>2015-04-18T14:56:18Z</time>
      </trkpt>
      <trkpt lat="46.16216" lon="2.48856">
        <ele>457</ele>
        <time>2015-04-18T14:56:20Z</time>
      </trkpt>
      <trkpt lat="46.16213" lon="2.48857">
        <ele>457</ele>
        <time>2015-04-18T14:56:22Z</time>
      </trkpt>
      <trkpt lat="46.16211" lon="2.4886">
        <ele>457</ele>
        <time>2015-04-18T14:56:24Z</time>
      </trkpt>
      <trkpt lat="46.16209" lon="2.48863">
        <ele>457</ele>
        <time>2015-04-18T14:56:26Z</time>
      </trkpt>
      <trkpt lat="46.16207" lon="2.48867">
        <ele>457</ele>
        <time>2015-04-18T14:56:28Z</time>
      </trkpt>
      <trkpt lat="46.16206" lon="2.48871">
        <ele>457</ele>
        <time>2015-04-18T14:56:30Z</time>
      </trkpt>
      <trkpt lat="46.16204" lon="2.48875">
        <ele>457</ele>
        <time>2015-04-18T14:56:32Z</time>
      </trkpt>
      <trkpt lat="46.16204" lon="2.4888">
        <ele>457</ele>
        <time>2015-04-18T14:56:34Z</time>
      </trkpt>
      <trkpt lat="46.16203" lon="2.48884">
        <ele>457</ele>
        <time>2015-04-18T14:56:36Z</time>
      </trkpt>
      <trkpt lat="46.16202" lon="2.48888">
        <ele>457</ele>
        <time>2015-04-18T14:56:38Z</time>
      </trkpt>
      <trkpt lat="46.162" lon="2.48892">
        <ele>457</ele>
        <time>2015-04-18T14:56:40Z</time>
      </trkpt>
      <trkpt lat="46.16198" lon="2.48897">
        <ele>457</ele>
        <time>2015-04-18T14:56:42Z</time>
      </trkpt>
      <trkpt lat="46.16197" lon="2.48901">
        <ele>457</ele>
        <time>2015-04-18T14:56:44Z</time>
      </trkpt>
      <trkpt lat="46.16196" lon="2.48905">
        <ele>457</ele>
        <time>2015-04-18T14:56:46Z</time>
      </trkpt>
      <trkpt lat="46.16195" lon="2.48909">
        <ele>457</ele>
        <time>2015-04-18T14:56:48Z</time>
      </trkpt>
      <trkpt lat="46.16194" lon="2.48914">
        <ele>457</ele>
        <time>2015-04-18T14:56:50Z</time>
      </trkpt>
      <trkpt lat="46.16194" lon="2.48919">
        <ele>457</ele>
        <time>2015-04-18T14:56:52Z</time>
      </trkpt>
      <trkpt lat="46.16194" lon="2.48923">
        <ele>457</ele>
        <time>2015-04-18T14:56:54Z</time>
      </trkpt>
      <trkpt lat="46.16193" lon="2.48928">
        <ele>457</ele>
        <time>2015-04-18T14:56:56Z</time>
      </trkpt>
      <trkpt lat="46.16192" lon="2.48932">
        <ele>457</ele>
        <time>2015-04-18T14:56:58Z</time>
      </trkpt>
      <trkpt lat="46.16192" lon="2.48937">
        <ele>457</ele>
        <time>2015-04-18T14:57:00Z</time>
      </trkpt>
      <trkpt lat="46.16191" lon="2.48941">
        <ele>457</ele>
        <time>2015-04-18T14:57:02Z</time>
      </trkpt>
      <trkpt lat="46.16191" lon="2.48945">
        <ele>457</ele>
        <time>2015-04-18T14:57:04Z</time>
      </trkpt>
      <trkpt lat="46.1619" lon="2.48949">
        <ele>457</ele>
        <time>2015-04-18T14:57:06Z</time>
      </trkpt>
      <trkpt lat="46.1619" lon="2.48953">
        <ele>457</ele>
        <time>2015-04-18T14:57:08Z</time>
      </trkpt>
      <trkpt lat="46.16189" lon="2.48957">
        <ele>457</ele>
        <time>2015-04-18T14:57:10Z</time>
      </trkpt>
      <trkpt lat="46.16188" lon="2.4896">
        <ele>457</ele>
        <time>2015-04-18T14:57:12Z</time>
      </trkpt>
      <trkpt lat="46.16188" lon="2.48962">
        <ele>457</ele>
        <time>2015-04-18T14:57:14Z</time>
      </trkpt>
      <trkpt lat="46.1619" lon="2.48963">
        <ele>457</ele>
        <time>2015-04-18T14:57:20Z</time>
      </trkpt>
      <trkpt lat="46.16192" lon="2.48963">
        <ele>457</ele>
        <time>2015-04-18T14:57:22Z</time>
      </trkpt>
      <trkpt lat="46.16192" lon="2.48965">
        <ele>457</ele>
        <time>2015-04-18T14:57:29Z</time>
      </trkpt>
      <trkpt lat="46.16191" lon="2.48969">
        <ele>457</ele>
        <time>2015-04-18T14:57:31Z</time>
      </trkpt>
      <trkpt lat="46.16191" lon="2.48973">
        <ele>457</ele>
        <time>2015-04-18T14:57:33Z</time>
      </trkpt>
      <trkpt lat="46.1619" lon="2.48977">
        <ele>457</ele>
        <time>2015-04-18T14:57:35Z</time>
      </trkpt>
      <trkpt lat="46.1619" lon="2.48982">
        <ele>457</ele>
        <time>2015-04-18T14:57:37Z</time>
      </trkpt>
      <trkpt lat="46.1619" lon="2.48986">
        <ele>457</ele>
        <time>2015-04-18T14:57:39Z</time>
      </trkpt>
      <trkpt lat="46.1619" lon="2.4899">
        <ele>457</ele>
        <time>2015-04-18T14:57:41Z</time>
      </trkpt>
      <trkpt lat="46.1619" lon="2.48994">
        <ele>457</ele>
        <time>2015-04-18T14:57:43Z</time>
      </trkpt>
      <trkpt lat="46.16191" lon="2.48999">
        <ele>457</ele>
        <time>2015-04-18T14:57:45Z</time>
      </trkpt>
      <trkpt lat="46.16191" lon="2.49003">
        <ele>457</ele>
        <time>2015-04-18T14:57:47Z</time>
      </trkpt>
      <trkpt lat="46.16191" lon="2.49008">
        <ele>457</ele>
        <time>2015-04-18T14:57:49Z</time>
      </trkpt>
      <trkpt lat="46.16192" lon="2.49012">
        <ele>457</ele>
        <time>2015-04-18T14:57:51Z</time>
      </trkpt>
      <trkpt lat="46.16192" lon="2.49017">
        <ele>457</ele>
        <time>2015-04-18T14:57:53Z</time>
      </trkpt>
      <trkpt lat="46.16193" lon="2.49022">
        <ele>457</ele>
        <time>2015-04-18T14:57:55Z</time>
      </trkpt>
      <trkpt lat="46.16193" lon="2.49026">
        <ele>457</ele>
        <time>2015-04-18T14:57:57Z</time>
      </trkpt>
      <trkpt lat="46.16193" lon="2.4903">
        <ele>457</ele>
        <time>2015-04-18T14:57:59Z</time>
      </trkpt>
      <trkpt lat="46.16194" lon="2.49035">
        <ele>457</ele>
        <time>2015-04-18T14:58:01Z</time>
      </trkpt>
      <trkpt lat="46.16194" lon="2.49039">
        <ele>457</ele>
        <time>2015-04-18T14:58:03Z</time>
      </trkpt>
      <trkpt lat="46.16195" lon="2.49044">
        <ele>457</ele>
        <time>2015-04-18T14:58:05Z</time>
      </trkpt>
      <trkpt lat="46.16195" lon="2.49048">
        <ele>457</ele>
        <time>2015-04-18T14:58:07Z</time>
      </trkpt>
      <trkpt lat="46.16195" lon="2.49054">
        <ele>457</ele>
        <time>2015-04-18T14:58:09Z</time>
      </trkpt>
      <trkpt lat="46.16195" lon="2.49058">
        <ele>457</ele>
        <time>2015-04-18T14:58:11Z</time>
      </trkpt>
      <trkpt lat="46.16196" lon="2.49062">
        <ele>457</ele>
        <time>2015-04-18T14:58:13Z</time>
      </trkpt>
      <trkpt lat="46.16196" lon="2.49067">
        <ele>457</ele>
        <time>2015-04-18T14:58:15Z</time>
      </trkpt>
      <trkpt lat="46.16196" lon="2.49072">
        <ele>457</ele>
        <time>2015-04-18T14:58:17Z</time>
      </trkpt>
      <trkpt lat="46.16197" lon="2.49077">
        <ele>456</ele>
        <time>2015-04-18T14:58:19Z</time>
      </trkpt>
      <trkpt lat="46.16197" lon="2.49081">
        <ele>456</ele>
        <time>2015-04-18T14:58:21Z</time>
      </trkpt>
      <trkpt lat="46.16198" lon="2.49086">
        <ele>456</ele>
        <time>2015-04-18T14:58:23Z</time>
      </trkpt>
      <trkpt lat="46.16198" lon="2.4909">
        <ele>456</ele>
        <time>2015-04-18T14:58:25Z</time>
      </trkpt>
      <trkpt lat="46.16198" lon="2.49095">
        <ele>456</ele>
        <time>2015-04-18T14:58:27Z</time>
      </trkpt>
      <trkpt lat="46.16198" lon="2.491">
        <ele>455</ele>
        <time>2015-04-18T14:58:29Z</time>
      </trkpt>
      <trkpt lat="46.16198" lon="2.49104">
        <ele>455</ele>
        <time>2015-04-18T14:58:31Z</time>
      </trkpt>
      <trkpt lat="46.16198" lon="2.49108">
        <ele>455</ele>
        <time>2015-04-18T14:58:33Z</time>
      </trkpt>
      <trkpt lat="46.16198" lon="2.49113">
        <ele>454</ele>
        <time>2015-04-18T14:58:35Z</time>
      </trkpt>
      <trkpt lat="46.16199" lon="2.49117">
        <ele>454</ele>
        <time>2015-04-18T14:58:37Z</time>
      </trkpt>
      <trkpt lat="46.16199" lon="2.49122">
        <ele>454</ele>
        <time>2015-04-18T14:58:39Z</time>
      </trkpt>
      <trkpt lat="46.16199" lon="2.49127">
        <ele>454</ele>
        <time>2015-04-18T14:58:41Z</time>
      </trkpt>
      <trkpt lat="46.162" lon="2.49131">
        <ele>453</ele>
        <time>2015-04-18T14:58:43Z</time>
      </trkpt>
      <trkpt lat="46.162" lon="2.49136">
        <ele>453</ele>
        <time>2015-04-18T14:58:45Z</time>
      </trkpt>
      <trkpt lat="46.162" lon="2.4914">
        <ele>453</ele>
        <time>2015-04-18T14:58:47Z</time>
      </trkpt>
      <trkpt lat="46.16201" lon="2.49145">
        <ele>453</ele>
        <time>2015-04-18T14:58:49Z</time>
      </trkpt>
      <trkpt lat="46.16201" lon="2.49149">
        <ele>452</ele>
        <time>2015-04-18T14:58:51Z</time>
      </trkpt>
      <trkpt lat="46.16202" lon="2.49153">
        <ele>452</ele>
        <time>2015-04-18T14:58:53Z</time>
      </trkpt>
      <trkpt lat="46.16203" lon="2.49158">
        <ele>451</ele>
        <time>2015-04-18T14:58:55Z</time>
      </trkpt>
      <trkpt lat="46.16204" lon="2.49162">
        <ele>451</ele>
        <time>2015-04-18T14:58:57Z</time>
      </trkpt>
      <trkpt lat="46.16204" lon="2.49167">
        <ele>450</ele>
        <time>2015-04-18T14:58:59Z</time>
      </trkpt>
      <trkpt lat="46.16206" lon="2.49171">
        <ele>450</ele>
        <time>2015-04-18T14:59:01Z</time>
      </trkpt>
      <trkpt lat="46.16207" lon="2.49175">
        <ele>450</ele>
        <time>2015-04-18T14:59:03Z</time>
      </trkpt>
      <trkpt lat="46.16208" lon="2.4918">
        <ele>449</ele>
        <time>2015-04-18T14:59:05Z</time>
      </trkpt>
      <trkpt lat="46.16209" lon="2.49184">
        <ele>449</ele>
        <time>2015-04-18T14:59:07Z</time>
      </trkpt>
      <trkpt lat="46.1621" lon="2.49188">
        <ele>449</ele>
        <time>2015-04-18T14:59:09Z</time>
      </trkpt>
      <trkpt lat="46.16211" lon="2.49192">
        <ele>448</ele>
        <time>2015-04-18T14:59:11Z</time>
      </trkpt>
      <trkpt lat="46.16213" lon="2.49196">
        <ele>448</ele>
        <time>2015-04-18T14:59:13Z</time>
      </trkpt>
      <trkpt lat="46.16214" lon="2.492">
        <ele>447</ele>
        <time>2015-04-18T14:59:15Z</time>
      </trkpt>
      <trkpt lat="46.16215" lon="2.49204">
        <ele>447</ele>
        <time>2015-04-18T14:59:17Z</time>
      </trkpt>
      <trkpt lat="46.16216" lon="2.49208">
        <ele>447</ele>
        <time>2015-04-18T14:59:19Z</time>
      </trkpt>
      <trkpt lat="46.16217" lon="2.49212">
        <ele>446</ele>
        <time>2015-04-18T14:59:21Z</time>
      </trkpt>
      <trkpt lat="46.16218" lon="2.49216">
        <ele>446</ele>
        <time>2015-04-18T14:59:23Z</time>
      </trkpt>
      <trkpt lat="46.1622" lon="2.49221">
        <ele>446</ele>
        <time>2015-04-18T14:59:25Z</time>
      </trkpt>
      <trkpt lat="46.1622" lon="2.49225">
        <ele>446</ele>
        <time>2015-04-18T14:59:27Z</time>
      </trkpt>
      <trkpt lat="46.16222" lon="2.4923">
        <ele>445</ele>
        <time>2015-04-18T14:59:29Z</time>
      </trkpt>
      <trkpt lat="46.16223" lon="2.49234">
        <ele>445</ele>
        <time>2015-04-18T14:59:31Z</time>
      </trkpt>
      <trkpt lat="46.16224" lon="2.49238">
        <ele>444</ele>
        <time>2015-04-18T14:59:33Z</time>
      </trkpt>
      <trkpt lat="46.16225" lon="2.49242">
        <ele>444</ele>
        <time>2015-04-18T14:59:35Z</time>
      </trkpt>
      <trkpt lat="46.16227" lon="2.49247">
        <ele>444</ele>
        <time>2015-04-18T14:59:37Z</time>
      </trkpt>
      <trkpt lat="46.16228" lon="2.49251">
        <ele>444</ele>
        <time>2015-04-18T14:59:39Z</time>
      </trkpt>
      <trkpt lat="46.16229" lon="2.49256">
        <ele>443</ele>
        <time>2015-04-18T14:59:41Z</time>
      </trkpt>
      <trkpt lat="46.1623" lon="2.4926">
        <ele>443</ele>
        <time>2015-04-18T14:59:43Z</time>
      </trkpt>
      <trkpt lat="46.16231" lon="2.49265">
        <ele>443</ele>
        <time>2015-04-18T14:59:45Z</time>
      </trkpt>
      <trkpt lat="46.16232" lon="2.49269">
        <ele>443</ele>
        <time>2015-04-18T14:59:47Z</time>
      </trkpt>
      <trkpt lat="46.16233" lon="2.49274">
        <ele>443</ele>
        <time>2015-04-18T14:59:49Z</time>
      </trkpt>
      <trkpt lat="46.16234" lon="2.49278">
        <ele>442</ele>
        <time>2015-04-18T14:59:51Z</time>
      </trkpt>
      <trkpt lat="46.16235" lon="2.49283">
        <ele>442</ele>
        <time>2015-04-18T14:59:53Z</time>
      </trkpt>
      <trkpt lat="46.16236" lon="2.49287">
        <ele>442</ele>
        <time>2015-04-18T14:59:55Z</time>
      </trkpt>
      <trkpt lat="46.16237" lon="2.49291">
        <ele>442</ele>
        <time>2015-04-18T14:59:57Z</time>
      </trkpt>
      <trkpt lat="46.16238" lon="2.49296">
        <ele>442</ele>
        <time>2015-04-18T14:59:59Z</time>
      </trkpt>
      <trkpt lat="46.16239" lon="2.49301">
        <ele>442</ele>
        <time>2015-04-18T15:00:01Z</time>
      </trkpt>
      <trkpt lat="46.1624" lon="2.49305">
        <ele>442</ele>
        <time>2015-04-18T15:00:03Z</time>
      </trkpt>
      <trkpt lat="46.16241" lon="2.49309">
        <ele>441</ele>
        <time>2015-04-18T15:00:05Z</time>
      </trkpt>
      <trkpt lat="46.16242" lon="2.49314">
        <ele>441</ele>
        <time>2015-04-18T15:00:07Z</time>
      </trkpt>
      <trkpt lat="46.16243" lon="2.49318">
        <ele>441</ele>
        <time>2015-04-18T15:00:09Z</time>
      </trkpt>
      <trkpt lat="46.16244" lon="2.49323">
        <ele>441</ele>
        <time>2015-04-18T15:00:11Z</time>
      </trkpt>
      <trkpt lat="46.16245" lon="2.49327">
        <ele>441</ele>
        <time>2015-04-18T15:00:13Z</time>
      </trkpt>
      <trkpt lat="46.16246" lon="2.49331">
        <ele>440</ele>
        <time>2015-04-18T15:00:15Z</time>
      </trkpt>
      <trkpt lat="46.16247" lon="2.49336">
        <ele>440</ele>
        <time>2015-04-18T15:00:17Z</time>
      </trkpt>
      <trkpt lat="46.16248" lon="2.4934">
        <ele>440</ele>
        <time>2015-04-18T15:00:19Z</time>
      </trkpt>
      <trkpt lat="46.16249" lon="2.49344">
        <ele>439</ele>
        <time>2015-04-18T15:00:21Z</time>
      </trkpt>
      <trkpt lat="46.1625" lon="2.49348">
        <ele>439</ele>
        <time>2015-04-18T15:00:23Z</time>
      </trkpt>
      <trkpt lat="46.1625" lon="2.49353">
        <ele>439</ele>
        <time>2015-04-18T15:00:25Z</time>
      </trkpt>
      <trkpt lat="46.16251" lon="2.49358">
        <ele>439</ele>
        <time>2015-04-18T15:00:27Z</time>
      </trkpt>
      <trkpt lat="46.16252" lon="2.49362">
        <ele>439</ele>
        <time>2015-04-18T15:00:29Z</time>
      </trkpt>
      <trkpt lat="46.16253" lon="2.49367">
        <ele>439</ele>
        <time>2015-04-18T15:00:31Z</time>
      </trkpt>
      <trkpt lat="46.16253" lon="2.49371">
        <ele>438</ele>
        <time>2015-04-18T15:00:33Z</time>
      </trkpt>
      <trkpt lat="46.16253" lon="2.49376">
        <ele>438</ele>
        <time>2015-04-18T15:00:35Z</time>
      </trkpt>
      <trkpt lat="46.16253" lon="2.49381">
        <ele>438</ele>
        <time>2015-04-18T15:00:37Z</time>
      </trkpt>
      <trkpt lat="46.16253" lon="2.49386">
        <ele>438</ele>
        <time>2015-04-18T15:00:39Z</time>
      </trkpt>
      <trkpt lat="46.16252" lon="2.4939">
        <ele>438</ele>
        <time>2015-04-18T15:00:41Z</time>
      </trkpt>
      <trkpt lat="46.16252" lon="2.49394">
        <ele>438</ele>
        <time>2015-04-18T15:00:43Z</time>
      </trkpt>
      <trkpt lat="46.16251" lon="2.49399">
        <ele>438</ele>
        <time>2015-04-18T15:00:45Z</time>
      </trkpt>
      <trkpt lat="46.16251" lon="2.49404">
        <ele>438</ele>
        <time>2015-04-18T15:00:47Z</time>
      </trkpt>
      <trkpt lat="46.1625" lon="2.49409">
        <ele>438</ele>
        <time>2015-04-18T15:00:49Z</time>
      </trkpt>
      <trkpt lat="46.16249" lon="2.49413">
        <ele>438</ele>
        <time>2015-04-18T15:00:51Z</time>
      </trkpt>
      <trkpt lat="46.16248" lon="2.49417">
        <ele>438</ele>
        <time>2015-04-18T15:00:53Z</time>
      </trkpt>
      <trkpt lat="46.16247" lon="2.49422">
        <ele>438</ele>
        <time>2015-04-18T15:00:55Z</time>
      </trkpt>
      <trkpt lat="46.16246" lon="2.49426">
        <ele>438</ele>
        <time>2015-04-18T15:00:57Z</time>
      </trkpt>
      <trkpt lat="46.16245" lon="2.4943">
        <ele>438</ele>
        <time>2015-04-18T15:00:59Z</time>
      </trkpt>
      <trkpt lat="46.16243" lon="2.49434">
        <ele>438</ele>
        <time>2015-04-18T15:01:01Z</time>
      </trkpt>
      <trkpt lat="46.16242" lon="2.49438">
        <ele>438</ele>
        <time>2015-04-18T15:01:03Z</time>
      </trkpt>
      <trkpt lat="46.1624" lon="2.49442">
        <ele>438</ele>
        <time>2015-04-18T15:01:05Z</time>
      </trkpt>
      <trkpt lat="46.16239" lon="2.49446">
        <ele>438</ele>
        <time>2015-04-18T15:01:07Z</time>
      </trkpt>
      <trkpt lat="46.16237" lon="2.4945">
        <ele>438</ele>
        <time>2015-04-18T15:01:09Z</time>
      </trkpt>
      <trkpt lat="46.16236" lon="2.49454">
        <ele>438</ele>
        <time>2015-04-18T15:01:11Z</time>
      </trkpt>
      <trkpt lat="46.16234" lon="2.49458">
        <ele>438</ele>
        <time>2015-04-18T15:01:13Z</time>
      </trkpt>
      <trkpt lat="46.16233" lon="2.49462">
        <ele>438</ele>
        <time>2015-04-18T15:01:15Z</time>
      </trkpt>
      <trkpt lat="46.16231" lon="2.49466">
        <ele>438</ele>
        <time>2015-04-18T15:01:17Z</time>
      </trkpt>
      <trkpt lat="46.1623" lon="2.4947">
        <ele>438</ele>
        <time>2015-04-18T15:01:19Z</time>
      </trkpt>
      <trkpt lat="46.16228" lon="2.49475">
        <ele>438</ele>
        <time>2015-04-18T15:01:21Z</time>
      </trkpt>
      <trkpt lat="46.16227" lon="2.49478">
        <ele>438</ele>
        <time>2015-04-18T15:01:23Z</time>
      </trkpt>
      <trkpt lat="46.16226" lon="2.49482">
        <ele>438</ele>
        <time>2015-04-18T15:01:25Z</time>
      </trkpt>
      <trkpt lat="46.16224" lon="2.49486">
        <ele>438</ele>
        <time>2015-04-18T15:01:27Z</time>
      </trkpt>
      <trkpt lat="46.16223" lon="2.4949">
        <ele>438</ele>
        <time>2015-04-18T15:01:29Z</time>
      </trkpt>
      <trkpt lat="46.16222" lon="2.49494">
        <ele>438</ele>
        <time>2015-04-18T15:01:31Z</time>
      </trkpt>
      <trkpt lat="46.1622" lon="2.49498">
        <ele>438</ele>
        <time>2015-04-18T15:01:33Z</time>
      </trkpt>
      <trkpt lat="46.16219" lon="2.49502">
        <ele>438</ele>
        <time>2015-04-18T15:01:35Z</time>
      </trkpt>
      <trkpt lat="46.16217" lon="2.49506">
        <ele>438</ele>
        <time>2015-04-18T15:01:37Z</time>
      </trkpt>
      <trkpt lat="46.16216" lon="2.4951">
        <ele>438</ele>
        <time>2015-04-18T15:01:39Z</time>
      </trkpt>
      <trkpt lat="46.16215" lon="2.49513">
        <ele>438</ele>
        <time>2015-04-18T15:01:41Z</time>
      </trkpt>
      <trkpt lat="46.16214" lon="2.49517">
        <ele>438</ele>
        <time>2015-04-18T15:01:43Z</time>
      </trkpt>
      <trkpt lat="46.16212" lon="2.49521">
        <ele>438</ele>
        <time>2015-04-18T15:01:45Z</time>
      </trkpt>
      <trkpt lat="46.16211" lon="2.49525">
        <ele>438</ele>
        <time>2015-04-18T15:01:47Z</time>
      </trkpt>
      <trkpt lat="46.1621" lon="2.4953">
        <ele>438</ele>
        <time>2015-04-18T15:01:49Z</time>
      </trkpt>
      <trkpt lat="46.16208" lon="2.49534">
        <ele>438</ele>
        <time>2015-04-18T15:01:51Z</time>
      </trkpt>
      <trkpt lat="46.16207" lon="2.49537">
        <ele>438</ele>
        <time>2015-04-18T15:01:53Z</time>
      </trkpt>
      <trkpt lat="46.16206" lon="2.49541">
        <ele>438</ele>
        <time>2015-04-18T15:01:55Z</time>
      </trkpt>
      <trkpt lat="46.16204" lon="2.49545">
        <ele>438</ele>
        <time>2015-04-18T15:01:57Z</time>
      </trkpt>
      <trkpt lat="46.16203" lon="2.49549">
        <ele>438</ele>
        <time>2015-04-18T15:01:59Z</time>
      </trkpt>
      <trkpt lat="46.16201" lon="2.49553">
        <ele>438</ele>
        <time>2015-04-18T15:02:01Z</time>
      </trkpt>
      <trkpt lat="46.16199" lon="2.49557">
        <ele>438</ele>
        <time>2015-04-18T15:02:03Z</time>
      </trkpt>
      <trkpt lat="46.16198" lon="2.49561">
        <ele>438</ele>
        <time>2015-04-18T15:02:05Z</time>
      </trkpt>
      <trkpt lat="46.16196" lon="2.49565">
        <ele>438</ele>
        <time>2015-04-18T15:02:07Z</time>
      </trkpt>
      <trkpt lat="46.16194" lon="2.49567">
        <ele>438</ele>
        <time>2015-04-18T15:02:09Z</time>
      </trkpt>
      <trkpt lat="46.16191" lon="2.49569">
        <ele>438</ele>
        <time>2015-04-18T15:02:11Z</time>
      </trkpt>
      <trkpt lat="46.16188" lon="2.4957">
        <ele>438</ele>
        <time>2015-04-18T15:02:13Z</time>
      </trkpt>
      <trkpt lat="46.16185" lon="2.49569">
        <ele>438</ele>
        <time>2015-04-18T15:02:15Z</time>
      </trkpt>
      <trkpt lat="46.16181" lon="2.49569">
        <ele>438</ele>
        <time>2015-04-18T15:02:17Z</time>
      </trkpt>
      <trkpt lat="46.16179" lon="2.49568">
        <ele>438</ele>
        <time>2015-04-18T15:02:19Z</time>
      </trkpt>
      <trkpt lat="46.16175" lon="2.49567">
        <ele>438</ele>
        <time>2015-04-18T15:02:21Z</time>
      </trkpt>
      <trkpt lat="46.16172" lon="2.49566">
        <ele>438</ele>
        <time>2015-04-18T15:02:23Z</time>
      </trkpt>
      <trkpt lat="46.16169" lon="2.49566">
        <ele>438</ele>
        <time>2015-04-18T15:02:25Z</time>
      </trkpt>
      <trkpt lat="46.16166" lon="2.49565">
        <ele>438</ele>
        <time>2015-04-18T15:02:27Z</time>
      </trkpt>
      <trkpt lat="46.16163" lon="2.49564">
        <ele>438</ele>
        <time>2015-04-18T15:02:29Z</time>
      </trkpt>
      <trkpt lat="46.16159" lon="2.49563">
        <ele>438</ele>
        <time>2015-04-18T15:02:31Z</time>
      </trkpt>
      <trkpt lat="46.16156" lon="2.49562">
        <ele>438</ele>
        <time>2015-04-18T15:02:33Z</time>
      </trkpt>
      <trkpt lat="46.16153" lon="2.49561">
        <ele>438</ele>
        <time>2015-04-18T15:02:35Z</time>
      </trkpt>
      <trkpt lat="46.1615" lon="2.4956">
        <ele>438</ele>
        <time>2015-04-18T15:02:37Z</time>
      </trkpt>
      <trkpt lat="46.16146" lon="2.49559">
        <ele>438</ele>
        <time>2015-04-18T15:02:39Z</time>
      </trkpt>
      <trkpt lat="46.16143" lon="2.49558">
        <ele>438</ele>
        <time>2015-04-18T15:02:41Z</time>
      </trkpt>
      <trkpt lat="46.1614" lon="2.49557">
        <ele>438</ele>
        <time>2015-04-18T15:02:43Z</time>
      </trkpt>
      <trkpt lat="46.16137" lon="2.49557">
        <ele>438</ele>
        <time>2015-04-18T15:02:45Z</time>
      </trkpt>
      <trkpt lat="46.16134" lon="2.49556">
        <ele>438</ele>
        <time>2015-04-18T15:02:47Z</time>
      </trkpt>
      <trkpt lat="46.1613" lon="2.49556">
        <ele>438</ele>
        <time>2015-04-18T15:02:49Z</time>
      </trkpt>
      <trkpt lat="46.16127" lon="2.49555">
        <ele>438</ele>
        <time>2015-04-18T15:02:51Z</time>
      </trkpt>
      <trkpt lat="46.16124" lon="2.49555">
        <ele>438</ele>
        <time>2015-04-18T15:02:53Z</time>
      </trkpt>
      <trkpt lat="46.16121" lon="2.49555">
        <ele>438</ele>
        <time>2015-04-18T15:02:55Z</time>
      </trkpt>
      <trkpt lat="46.16117" lon="2.49554">
        <ele>438</ele>
        <time>2015-04-18T15:02:57Z</time>
      </trkpt>
      <trkpt lat="46.16115" lon="2.49554">
        <ele>438</ele>
        <time>2015-04-18T15:02:59Z</time>
      </trkpt>
      <trkpt lat="46.16112" lon="2.49554">
        <ele>438</ele>
        <time>2015-04-18T15:03:01Z</time>
      </trkpt>
      <trkpt lat="46.1611" lon="2.49554">
        <ele>438</ele>
        <time>2015-04-18T15:03:03Z</time>
      </trkpt>
      <trkpt lat="46.16107" lon="2.49554">
        <ele>438</ele>
        <time>2015-04-18T15:03:05Z</time>
      </trkpt>
      <trkpt lat="46.16104" lon="2.49554">
        <ele>438</ele>
        <time>2015-04-18T15:03:07Z</time>
      </trkpt>
      <trkpt lat="46.161" lon="2.49554">
        <ele>438</ele>
        <time>2015-04-18T15:03:09Z</time>
      </trkpt>
      <trkpt lat="46.16097" lon="2.49554">
        <ele>438</ele>
        <time>2015-04-18T15:03:11Z</time>
      </trkpt>
      <trkpt lat="46.16094" lon="2.49554">
        <ele>438</ele>
        <time>2015-04-18T15:03:13Z</time>
      </trkpt>
      <trkpt lat="46.16091" lon="2.49554">
        <ele>438</ele>
        <time>2015-04-18T15:03:15Z</time>
      </trkpt>
      <trkpt lat="46.16088" lon="2.49554">
        <ele>438</ele>
        <time>2015-04-18T15:03:17Z</time>
      </trkpt>
      <trkpt lat="46.16085" lon="2.49553">
        <ele>438</ele>
        <time>2015-04-18T15:03:19Z</time>
      </trkpt>
      <trkpt lat="46.16082" lon="2.49553">
        <ele>438</ele>
        <time>2015-04-18T15:03:21Z</time>
      </trkpt>
      <trkpt lat="46.16079" lon="2.49552">
        <ele>438</ele>
        <time>2015-04-18T15:03:23Z</time>
      </trkpt>
      <trkpt lat="46.16076" lon="2.4955">
        <ele>438</ele>
        <time>2015-04-18T15:03:25Z</time>
      </trkpt>
      <trkpt lat="46.16074" lon="2.49547">
        <ele>438</ele>
        <time>2015-04-18T15:03:27Z</time>
      </trkpt>
      <trkpt lat="46.16072" lon="2.49544">
        <ele>438</ele>
        <time>2015-04-18T15:03:29Z</time>
      </trkpt>
      <trkpt lat="46.1607" lon="2.4954">
        <ele>438</ele>
        <time>2015-04-18T15:03:31Z</time>
      </trkpt>
      <trkpt lat="46.16068" lon="2.49536">
        <ele>438</ele>
        <time>2015-04-18T15:03:33Z</time>
      </trkpt>
      <trkpt lat="46.16067" lon="2.49532">
        <ele>438</ele>
        <time>2015-04-18T15:03:35Z</time>
      </trkpt>
      <trkpt lat="46.16067" lon="2.49527">
        <ele>438</ele>
        <time>2015-04-18T15:03:37Z</time>
      </trkpt>
      <trkpt lat="46.16067" lon="2.49523">
        <ele>438</ele>
        <time>2015-04-18T15:03:39Z</time>
      </trkpt>
      <trkpt lat="46.16069" lon="2.49519">
        <ele>438</ele>
        <time>2015-04-18T15:03:41Z</time>
      </trkpt>
      <trkpt lat="46.1607" lon="2.49515">
        <ele>438</ele>
        <time>2015-04-18T15:03:43Z</time>
      </trkpt>
      <trkpt lat="46.16071" lon="2.49511">
        <ele>438</ele>
        <time>2015-04-18T15:03:45Z</time>
      </trkpt>
      <trkpt lat="46.16072" lon="2.49507">
        <ele>438</ele>
        <time>2015-04-18T15:03:47Z</time>
      </trkpt>
      <trkpt lat="46.16074" lon="2.49504">
        <ele>438</ele>
        <time>2015-04-18T15:03:49Z</time>
      </trkpt>
      <trkpt lat="46.16075" lon="2.495">
        <ele>438</ele>
        <time>2015-04-18T15:03:51Z</time>
      </trkpt>
      <trkpt lat="46.16075" lon="2.49496">
        <ele>438</ele>
        <time>2015-04-18T15:03:53Z</time>
      </trkpt>
      <trkpt lat="46.16074" lon="2.49493">
        <ele>438</ele>
        <time>2015-04-18T15:03:55Z</time>
      </trkpt>
      <trkpt lat="46.16072" lon="2.4949">
        <ele>438</ele>
        <time>2015-04-18T15:03:57Z</time>
      </trkpt>
      <trkpt lat="46.16069" lon="2.49485">
        <ele>438</ele>
        <time>2015-04-18T15:04:00Z</time>
      </trkpt>
      <trkpt lat="46.16067" lon="2.49482">
        <ele>438</ele>
        <time>2015-04-18T15:04:02Z</time>
      </trkpt>
      <trkpt lat="46.16065" lon="2.49479">
        <ele>438</ele>
        <time>2015-04-18T15:04:04Z</time>
      </trkpt>
      <trkpt lat="46.16063" lon="2.49476">
        <ele>438</ele>
        <time>2015-04-18T15:04:06Z</time>
      </trkpt>
      <trkpt lat="46.16061" lon="2.49473">
        <ele>438</ele>
        <time>2015-04-18T15:04:08Z</time>
      </trkpt>
      <trkpt lat="46.16058" lon="2.49469">
        <ele>438</ele>
        <time>2015-04-18T15:04:11Z</time>
      </trkpt>
      <trkpt lat="46.16056" lon="2.49466">
        <ele>438</ele>
        <time>2015-04-18T15:04:13Z</time>
      </trkpt>
      <trkpt lat="46.16054" lon="2.49464">
        <ele>438</ele>
        <time>2015-04-18T15:04:15Z</time>
      </trkpt>
      <trkpt lat="46.16051" lon="2.49461">
        <ele>438</ele>
        <time>2015-04-18T15:04:17Z</time>
      </trkpt>
      <trkpt lat="46.16048" lon="2.49457">
        <ele>438</ele>
        <time>2015-04-18T15:04:20Z</time>
      </trkpt>
      <trkpt lat="46.16046" lon="2.49454">
        <ele>438</ele>
        <time>2015-04-18T15:04:22Z</time>
      </trkpt>
      <trkpt lat="46.16045" lon="2.49451">
        <ele>438</ele>
        <time>2015-04-18T15:04:24Z</time>
      </trkpt>
      <trkpt lat="46.16043" lon="2.49447">
        <ele>438</ele>
        <time>2015-04-18T15:04:26Z</time>
      </trkpt>
      <trkpt lat="46.16041" lon="2.49442">
        <ele>438</ele>
        <time>2015-04-18T15:04:28Z</time>
      </trkpt>
      <trkpt lat="46.16039" lon="2.49438">
        <ele>438</ele>
        <time>2015-04-18T15:04:30Z</time>
      </trkpt>
      <trkpt lat="46.16037" lon="2.49435">
        <ele>438</ele>
        <time>2015-04-18T15:04:32Z</time>
      </trkpt>
      <trkpt lat="46.16034" lon="2.49432">
        <ele>438</ele>
        <time>2015-04-18T15:04:34Z</time>
      </trkpt>
      <trkpt lat="46.16032" lon="2.49429">
        <ele>438</ele>
        <time>2015-04-18T15:04:36Z</time>
      </trkpt>
      <trkpt lat="46.16029" lon="2.49428">
        <ele>438</ele>
        <time>2015-04-18T15:04:38Z</time>
      </trkpt>
      <trkpt lat="46.16026" lon="2.49426">
        <ele>438</ele>
        <time>2015-04-18T15:04:40Z</time>
      </trkpt>
      <trkpt lat="46.16023" lon="2.49424">
        <ele>438</ele>
        <time>2015-04-18T15:04:43Z</time>
      </trkpt>
      <trkpt lat="46.16024" lon="2.49425">
        <ele>438</ele>
        <time>2015-04-18T15:04:46Z</time>
      </trkpt>
      <trkpt lat="46.16026" lon="2.49427">
        <ele>438</ele>
        <time>2015-04-18T15:04:48Z</time>
      </trkpt>
      <trkpt lat="46.16029" lon="2.49429">
        <ele>438</ele>
        <time>2015-04-18T15:04:50Z</time>
      </trkpt>
      <trkpt lat="46.16031" lon="2.49431">
        <ele>438</ele>
        <time>2015-04-18T15:04:52Z</time>
      </trkpt>
      <trkpt lat="46.16033" lon="2.49433">
        <ele>438</ele>
        <time>2015-04-18T15:04:54Z</time>
      </trkpt>
      <trkpt lat="46.16035" lon="2.49436">
        <ele>438</ele>
        <time>2015-04-18T15:04:56Z</time>
      </trkpt>
      <trkpt lat="46.16037" lon="2.4944">
        <ele>438</ele>
        <time>2015-04-18T15:04:58Z</time>
      </trkpt>
      <trkpt lat="46.16039" lon="2.49443">
        <ele>438</ele>
        <time>2015-04-18T15:05:00Z</time>
      </trkpt>
      <trkpt lat="46.1604" lon="2.49447">
        <ele>438</ele>
        <time>2015-04-18T15:05:02Z</time>
      </trkpt>
      <trkpt lat="46.16042" lon="2.4945">
        <ele>438</ele>
        <time>2015-04-18T15:05:04Z</time>
      </trkpt>
      <trkpt lat="46.16043" lon="2.49453">
        <ele>438</ele>
        <time>2015-04-18T15:05:06Z</time>
      </trkpt>
      <trkpt lat="46.16047" lon="2.49457">
        <ele>438</ele>
        <time>2015-04-18T15:05:09Z</time>
      </trkpt>
      <trkpt lat="46.16049" lon="2.49459">
        <ele>438</ele>
        <time>2015-04-18T15:05:11Z</time>
      </trkpt>
      <trkpt lat="46.16051" lon="2.49462">
        <ele>438</ele>
        <time>2015-04-18T15:05:13Z</time>
      </trkpt>
      <trkpt lat="46.16054" lon="2.49464">
        <ele>438</ele>
        <time>2015-04-18T15:05:15Z</time>
      </trkpt>
      <trkpt lat="46.16056" lon="2.49467">
        <ele>438</ele>
        <time>2015-04-18T15:05:17Z</time>
      </trkpt>
      <trkpt lat="46.16059" lon="2.49469">
        <ele>438</ele>
        <time>2015-04-18T15:05:19Z</time>
      </trkpt>
      <trkpt lat="46.16062" lon="2.49473">
        <ele>438</ele>
        <time>2015-04-18T15:05:22Z</time>
      </trkpt>
      <trkpt lat="46.16065" lon="2.49476">
        <ele>438</ele>
        <time>2015-04-18T15:05:24Z</time>
      </trkpt>
      <trkpt lat="46.16067" lon="2.49479">
        <ele>438</ele>
        <time>2015-04-18T15:05:26Z</time>
      </trkpt>
      <trkpt lat="46.16069" lon="2.49482">
        <ele>438</ele>
        <time>2015-04-18T15:05:28Z</time>
      </trkpt>
      <trkpt lat="46.16071" lon="2.49484">
        <ele>438</ele>
        <time>2015-04-18T15:05:30Z</time>
      </trkpt>
      <trkpt lat="46.16073" lon="2.49486">
        <ele>438</ele>
        <time>2015-04-18T15:05:32Z</time>
      </trkpt>
      <trkpt lat="46.16075" lon="2.49489">
        <ele>438</ele>
        <time>2015-04-18T15:05:34Z</time>
      </trkpt>
      <trkpt lat="46.16075" lon="2.49493">
        <ele>438</ele>
        <time>2015-04-18T15:05:36Z</time>
      </trkpt>
      <trkpt lat="46.16074" lon="2.49497">
        <ele>438</ele>
        <time>2015-04-18T15:05:38Z</time>
      </trkpt>
      <trkpt lat="46.16072" lon="2.49503">
        <ele>438</ele>
        <time>2015-04-18T15:05:40Z</time>
      </trkpt>
      <trkpt lat="46.1607" lon="2.49506">
        <ele>438</ele>
        <time>2015-04-18T15:05:42Z</time>
      </trkpt>
      <trkpt lat="46.16069" lon="2.4951">
        <ele>438</ele>
        <time>2015-04-18T15:05:44Z</time>
      </trkpt>
      <trkpt lat="46.16067" lon="2.49515">
        <ele>438</ele>
        <time>2015-04-18T15:05:46Z</time>
      </trkpt>
      <trkpt lat="46.16066" lon="2.49519">
        <ele>438</ele>
        <time>2015-04-18T15:05:48Z</time>
      </trkpt>
      <trkpt lat="46.16065" lon="2.49524">
        <ele>438</ele>
        <time>2015-04-18T15:05:50Z</time>
      </trkpt>
      <trkpt lat="46.16065" lon="2.49529">
        <ele>438</ele>
        <time>2015-04-18T15:05:52Z</time>
      </trkpt>
      <trkpt lat="46.16065" lon="2.49533">
        <ele>438</ele>
        <time>2015-04-18T15:05:54Z</time>
      </trkpt>
      <trkpt lat="46.16067" lon="2.49537">
        <ele>438</ele>
        <time>2015-04-18T15:05:56Z</time>
      </trkpt>
      <trkpt lat="46.16068" lon="2.49541">
        <ele>438</ele>
        <time>2015-04-18T15:05:58Z</time>
      </trkpt>
      <trkpt lat="46.1607" lon="2.49544">
        <ele>438</ele>
        <time>2015-04-18T15:06:00Z</time>
      </trkpt>
      <trkpt lat="46.16072" lon="2.49547">
        <ele>438</ele>
        <time>2015-04-18T15:06:02Z</time>
      </trkpt>
      <trkpt lat="46.16075" lon="2.4955">
        <ele>438</ele>
        <time>2015-04-18T15:06:04Z</time>
      </trkpt>
      <trkpt lat="46.16077" lon="2.49551">
        <ele>438</ele>
        <time>2015-04-18T15:06:06Z</time>
      </trkpt>
      <trkpt lat="46.1608" lon="2.49553">
        <ele>438</ele>
        <time>2015-04-18T15:06:08Z</time>
      </trkpt>
      <trkpt lat="46.16083" lon="2.49554">
        <ele>438</ele>
        <time>2015-04-18T15:06:10Z</time>
      </trkpt>
      <trkpt lat="46.16086" lon="2.49554">
        <ele>438</ele>
        <time>2015-04-18T15:06:12Z</time>
      </trkpt>
      <trkpt lat="46.16089" lon="2.49555">
        <ele>438</ele>
        <time>2015-04-18T15:06:14Z</time>
      </trkpt>
      <trkpt lat="46.16092" lon="2.49555">
        <ele>438</ele>
        <time>2015-04-18T15:06:16Z</time>
      </trkpt>
      <trkpt lat="46.16095" lon="2.49555">
        <ele>438</ele>
        <time>2015-04-18T15:06:18Z</time>
      </trkpt>
      <trkpt lat="46.16098" lon="2.49555">
        <ele>438</ele>
        <time>2015-04-18T15:06:20Z</time>
      </trkpt>
      <trkpt lat="46.16101" lon="2.49555">
        <ele>438</ele>
        <time>2015-04-18T15:06:22Z</time>
      </trkpt>
      <trkpt lat="46.16104" lon="2.49556">
        <ele>438</ele>
        <time>2015-04-18T15:06:24Z</time>
      </trkpt>
      <trkpt lat="46.16107" lon="2.49556">
        <ele>438</ele>
        <time>2015-04-18T15:06:26Z</time>
      </trkpt>
      <trkpt lat="46.1611" lon="2.49555">
        <ele>438</ele>
        <time>2015-04-18T15:06:28Z</time>
      </trkpt>
      <trkpt lat="46.16113" lon="2.49556">
        <ele>438</ele>
        <time>2015-04-18T15:06:30Z</time>
      </trkpt>
      <trkpt lat="46.16116" lon="2.49555">
        <ele>438</ele>
        <time>2015-04-18T15:06:32Z</time>
      </trkpt>
      <trkpt lat="46.16119" lon="2.49555">
        <ele>438</ele>
        <time>2015-04-18T15:06:34Z</time>
      </trkpt>
      <trkpt lat="46.16122" lon="2.49555">
        <ele>438</ele>
        <time>2015-04-18T15:06:36Z</time>
      </trkpt>
      <trkpt lat="46.16125" lon="2.49555">
        <ele>438</ele>
        <time>2015-04-18T15:06:38Z</time>
      </trkpt>
      <trkpt lat="46.16128" lon="2.49555">
        <ele>438</ele>
        <time>2015-04-18T15:06:40Z</time>
      </trkpt>
      <trkpt lat="46.16131" lon="2.49556">
        <ele>438</ele>
        <time>2015-04-18T15:06:42Z</time>
      </trkpt>
      <trkpt lat="46.16134" lon="2.49557">
        <ele>438</ele>
        <time>2015-04-18T15:06:44Z</time>
      </trkpt>
      <trkpt lat="46.16137" lon="2.49558">
        <ele>438</ele>
        <time>2015-04-18T15:06:46Z</time>
      </trkpt>
      <trkpt lat="46.1614" lon="2.49558">
        <ele>438</ele>
        <time>2015-04-18T15:06:48Z</time>
      </trkpt>
      <trkpt lat="46.16143" lon="2.49559">
        <ele>438</ele>
        <time>2015-04-18T15:06:50Z</time>
      </trkpt>
      <trkpt lat="46.16146" lon="2.4956">
        <ele>438</ele>
        <time>2015-04-18T15:06:52Z</time>
      </trkpt>
      <trkpt lat="46.1615" lon="2.49561">
        <ele>438</ele>
        <time>2015-04-18T15:06:54Z</time>
      </trkpt>
      <trkpt lat="46.16153" lon="2.49562">
        <ele>438</ele>
        <time>2015-04-18T15:06:56Z</time>
      </trkpt>
      <trkpt lat="46.16156" lon="2.49564">
        <ele>438</ele>
        <time>2015-04-18T15:06:58Z</time>
      </trkpt>
      <trkpt lat="46.16158" lon="2.49564">
        <ele>438</ele>
        <time>2015-04-18T15:07:00Z</time>
      </trkpt>
      <trkpt lat="46.16161" lon="2.49565">
        <ele>438</ele>
        <time>2015-04-18T15:07:02Z</time>
      </trkpt>
      <trkpt lat="46.16164" lon="2.49566">
        <ele>438</ele>
        <time>2015-04-18T15:07:04Z</time>
      </trkpt>
      <trkpt lat="46.16167" lon="2.49566">
        <ele>438</ele>
        <time>2015-04-18T15:07:06Z</time>
      </trkpt>
      <trkpt lat="46.1617" lon="2.49567">
        <ele>438</ele>
        <time>2015-04-18T15:07:08Z</time>
      </trkpt>
      <trkpt lat="46.16173" lon="2.49568">
        <ele>438</ele>
        <time>2015-04-18T15:07:10Z</time>
      </trkpt>
      <trkpt lat="46.16177" lon="2.49568">
        <ele>438</ele>
        <time>2015-04-18T15:07:12Z</time>
      </trkpt>
      <trkpt lat="46.1618" lon="2.49569">
        <ele>438</ele>
        <time>2015-04-18T15:07:14Z</time>
      </trkpt>
      <trkpt lat="46.16182" lon="2.49571">
        <ele>438</ele>
        <time>2015-04-18T15:07:16Z</time>
      </trkpt>
      <trkpt lat="46.16184" lon="2.49575">
        <ele>438</ele>
        <time>2015-04-18T15:07:18Z</time>
      </trkpt>
      <trkpt lat="46.16183" lon="2.49578">
        <ele>438</ele>
        <time>2015-04-18T15:07:20Z</time>
      </trkpt>
      <trkpt lat="46.1618" lon="2.49582">
        <ele>438</ele>
        <time>2015-04-18T15:07:23Z</time>
      </trkpt>
      <trkpt lat="46.16178" lon="2.49585">
        <ele>438</ele>
        <time>2015-04-18T15:07:25Z</time>
      </trkpt>
      <trkpt lat="46.16175" lon="2.49587">
        <ele>438</ele>
        <time>2015-04-18T15:07:27Z</time>
      </trkpt>
      <trkpt lat="46.16172" lon="2.49589">
        <ele>438</ele>
        <time>2015-04-18T15:07:29Z</time>
      </trkpt>
      <trkpt lat="46.1617" lon="2.49591">
        <ele>438</ele>
        <time>2015-04-18T15:07:31Z</time>
      </trkpt>
      <trkpt lat="46.16167" lon="2.49593">
        <ele>438</ele>
        <time>2015-04-18T15:07:33Z</time>
      </trkpt>
      <trkpt lat="46.16165" lon="2.49594">
        <ele>438</ele>
        <time>2015-04-18T15:07:35Z</time>
      </trkpt>
      <trkpt lat="46.16162" lon="2.49596">
        <ele>438</ele>
        <time>2015-04-18T15:07:37Z</time>
      </trkpt>
      <trkpt lat="46.16159" lon="2.49598">
        <ele>438</ele>
        <time>2015-04-18T15:07:39Z</time>
      </trkpt>
      <trkpt lat="46.16157" lon="2.49601">
        <ele>438</ele>
        <time>2015-04-18T15:07:41Z</time>
      </trkpt>
      <trkpt lat="46.16154" lon="2.49603">
        <ele>438</ele>
        <time>2015-04-18T15:07:43Z</time>
      </trkpt>
      <trkpt lat="46.16151" lon="2.49605">
        <ele>438</ele>
        <time>2015-04-18T15:07:45Z</time>
      </trkpt>
      <trkpt lat="46.16149" lon="2.49608">
        <ele>438</ele>
        <time>2015-04-18T15:07:47Z</time>
      </trkpt>
      <trkpt lat="46.16146" lon="2.4961">
        <ele>438</ele>
        <time>2015-04-18T15:07:49Z</time>
      </trkpt>
      <trkpt lat="46.16144" lon="2.49613">
        <ele>438</ele>
        <time>2015-04-18T15:07:51Z</time>
      </trkpt>
      <trkpt lat="46.16141" lon="2.49616">
        <ele>439</ele>
        <time>2015-04-18T15:07:53Z</time>
      </trkpt>
      <trkpt lat="46.16139" lon="2.49618">
        <ele>439</ele>
        <time>2015-04-18T15:07:55Z</time>
      </trkpt>
      <trkpt lat="46.16136" lon="2.4962">
        <ele>440</ele>
        <time>2015-04-18T15:07:57Z</time>
      </trkpt>
      <trkpt lat="46.16134" lon="2.49623">
        <ele>440</ele>
        <time>2015-04-18T15:07:59Z</time>
      </trkpt>
      <trkpt lat="46.16132" lon="2.49625">
        <ele>440</ele>
        <time>2015-04-18T15:08:01Z</time>
      </trkpt>
      <trkpt lat="46.1613" lon="2.49627">
        <ele>440</ele>
        <time>2015-04-18T15:08:03Z</time>
      </trkpt>
      <trkpt lat="46.16127" lon="2.4963">
        <ele>440</ele>
        <time>2015-04-18T15:08:05Z</time>
      </trkpt>
      <trkpt lat="46.16124" lon="2.49633">
        <ele>441</ele>
        <time>2015-04-18T15:08:07Z</time>
      </trkpt>
      <trkpt lat="46.16122" lon="2.49635">
        <ele>441</ele>
        <time>2015-04-18T15:08:09Z</time>
      </trkpt>
      <trkpt lat="46.1612" lon="2.49638">
        <ele>441</ele>
        <time>2015-04-18T15:08:11Z</time>
      </trkpt>
      <trkpt lat="46.16117" lon="2.4964">
        <ele>442</ele>
        <time>2015-04-18T15:08:13Z</time>
      </trkpt>
      <trkpt lat="46.16115" lon="2.49642">
        <ele>442</ele>
        <time>2015-04-18T15:08:15Z</time>
      </trkpt>
      <trkpt lat="46.16112" lon="2.49644">
        <ele>442</ele>
        <time>2015-04-18T15:08:17Z</time>
      </trkpt>
      <trkpt lat="46.1611" lon="2.49647">
        <ele>442</ele>
        <time>2015-04-18T15:08:19Z</time>
      </trkpt>
      <trkpt lat="46.16107" lon="2.4965">
        <ele>443</ele>
        <time>2015-04-18T15:08:21Z</time>
      </trkpt>
      <trkpt lat="46.16105" lon="2.49652">
        <ele>443</ele>
        <time>2015-04-18T15:08:23Z</time>
      </trkpt>
      <trkpt lat="46.16102" lon="2.49655">
        <ele>443</ele>
        <time>2015-04-18T15:08:25Z</time>
      </trkpt>
      <trkpt lat="46.161" lon="2.49657">
        <ele>443</ele>
        <time>2015-04-18T15:08:27Z</time>
      </trkpt>
      <trkpt lat="46.16097" lon="2.4966">
        <ele>443</ele>
        <time>2015-04-18T15:08:29Z</time>
      </trkpt>
      <trkpt lat="46.16095" lon="2.49662">
        <ele>443</ele>
        <time>2015-04-18T15:08:31Z</time>
      </trkpt>
      <trkpt lat="46.16092" lon="2.49665">
        <ele>443</ele>
        <time>2015-04-18T15:08:33Z</time>
      </trkpt>
      <trkpt lat="46.1609" lon="2.49668">
        <ele>443</ele>
        <time>2015-04-18T15:08:35Z</time>
      </trkpt>
      <trkpt lat="46.16087" lon="2.4967">
        <ele>443</ele>
        <time>2015-04-18T15:08:37Z</time>
      </trkpt>
      <trkpt lat="46.16085" lon="2.49673">
        <ele>443</ele>
        <time>2015-04-18T15:08:39Z</time>
      </trkpt>
      <trkpt lat="46.16082" lon="2.49675">
        <ele>443</ele>
        <time>2015-04-18T15:08:41Z</time>
      </trkpt>
      <trkpt lat="46.16079" lon="2.49679">
        <ele>443</ele>
        <time>2015-04-18T15:08:44Z</time>
      </trkpt>
      <trkpt lat="46.16076" lon="2.49682">
        <ele>443</ele>
        <time>2015-04-18T15:08:46Z</time>
      </trkpt>
      <trkpt lat="46.16074" lon="2.49684">
        <ele>443</ele>
        <time>2015-04-18T15:08:48Z</time>
      </trkpt>
      <trkpt lat="46.16071" lon="2.49687">
        <ele>443</ele>
        <time>2015-04-18T15:08:50Z</time>
      </trkpt>
      <trkpt lat="46.16068" lon="2.49689">
        <ele>443</ele>
        <time>2015-04-18T15:08:52Z</time>
      </trkpt>
      <trkpt lat="46.16066" lon="2.49692">
        <ele>443</ele>
        <time>2015-04-18T15:08:54Z</time>
      </trkpt>
      <trkpt lat="46.16063" lon="2.49694">
        <ele>444</ele>
        <time>2015-04-18T15:08:56Z</time>
      </trkpt>
      <trkpt lat="46.16061" lon="2.49696">
        <ele>444</ele>
        <time>2015-04-18T15:08:58Z</time>
      </trkpt>
      <trkpt lat="46.16058" lon="2.49699">
        <ele>444</ele>
        <time>2015-04-18T15:09:00Z</time>
      </trkpt>
      <trkpt lat="46.16056" lon="2.49701">
        <ele>444</ele>
        <time>2015-04-18T15:09:02Z</time>
      </trkpt>
      <trkpt lat="46.16053" lon="2.49704">
        <ele>444</ele>
        <time>2015-04-18T15:09:04Z</time>
      </trkpt>
      <trkpt lat="46.16051" lon="2.49707">
        <ele>444</ele>
        <time>2015-04-18T15:09:06Z</time>
      </trkpt>
      <trkpt lat="46.16048" lon="2.49709">
        <ele>444</ele>
        <time>2015-04-18T15:09:08Z</time>
      </trkpt>
      <trkpt lat="46.16046" lon="2.49711">
        <ele>444</ele>
        <time>2015-04-18T15:09:10Z</time>
      </trkpt>
      <trkpt lat="46.16042" lon="2.49715">
        <ele>444</ele>
        <time>2015-04-18T15:09:13Z</time>
      </trkpt>
      <trkpt lat="46.1604" lon="2.49717">
        <ele>444</ele>
        <time>2015-04-18T15:09:15Z</time>
      </trkpt>
      <trkpt lat="46.16038" lon="2.4972">
        <ele>444</ele>
        <time>2015-04-18T15:09:17Z</time>
      </trkpt>
      <trkpt lat="46.16035" lon="2.49723">
        <ele>444</ele>
        <time>2015-04-18T15:09:19Z</time>
      </trkpt>
      <trkpt lat="46.16033" lon="2.49725">
        <ele>444</ele>
        <time>2015-04-18T15:09:21Z</time>
      </trkpt>
      <trkpt lat="46.16031" lon="2.49728">
        <ele>444</ele>
        <time>2015-04-18T15:09:23Z</time>
      </trkpt>
      <trkpt lat="46.16028" lon="2.4973">
        <ele>444</ele>
        <time>2015-04-18T15:09:25Z</time>
      </trkpt>
      <trkpt lat="46.16026" lon="2.49732">
        <ele>444</ele>
        <time>2015-04-18T15:09:27Z</time>
      </trkpt>
      <trkpt lat="46.16023" lon="2.49735">
        <ele>445</ele>
        <time>2015-04-18T15:09:29Z</time>
      </trkpt>
      <trkpt lat="46.16021" lon="2.49737">
        <ele>445</ele>
        <time>2015-04-18T15:09:31Z</time>
      </trkpt>
      <trkpt lat="46.16018" lon="2.4974">
        <ele>445</ele>
        <time>2015-04-18T15:09:33Z</time>
      </trkpt>
      <trkpt lat="46.16016" lon="2.49742">
        <ele>445</ele>
        <time>2015-04-18T15:09:35Z</time>
      </trkpt>
      <trkpt lat="46.16013" lon="2.49744">
        <ele>446</ele>
        <time>2015-04-18T15:09:37Z</time>
      </trkpt>
      <trkpt lat="46.16011" lon="2.49746">
        <ele>446</ele>
        <time>2015-04-18T15:09:39Z</time>
      </trkpt>
      <trkpt lat="46.16009" lon="2.49749">
        <ele>446</ele>
        <time>2015-04-18T15:09:41Z</time>
      </trkpt>
      <trkpt lat="46.16006" lon="2.49751">
        <ele>446</ele>
        <time>2015-04-18T15:09:43Z</time>
      </trkpt>
      <trkpt lat="46.16004" lon="2.49754">
        <ele>446</ele>
        <time>2015-04-18T15:09:45Z</time>
      </trkpt>
      <trkpt lat="46.16001" lon="2.49756">
        <ele>446</ele>
        <time>2015-04-18T15:09:47Z</time>
      </trkpt>
      <trkpt lat="46.15999" lon="2.49758">
        <ele>447</ele>
        <time>2015-04-18T15:09:49Z</time>
      </trkpt>
      <trkpt lat="46.15997" lon="2.49761">
        <ele>447</ele>
        <time>2015-04-18T15:09:51Z</time>
      </trkpt>
      <trkpt lat="46.15994" lon="2.49763">
        <ele>447</ele>
        <time>2015-04-18T15:09:53Z</time>
      </trkpt>
      <trkpt lat="46.15992" lon="2.49766">
        <ele>447</ele>
        <time>2015-04-18T15:09:55Z</time>
      </trkpt>
      <trkpt lat="46.1599" lon="2.49768">
        <ele>447</ele>
        <time>2015-04-18T15:09:57Z</time>
      </trkpt>
      <trkpt lat="46.15987" lon="2.49771">
        <ele>447</ele>
        <time>2015-04-18T15:09:59Z</time>
      </trkpt>
      <trkpt lat="46.15984" lon="2.49774">
        <ele>448</ele>
        <time>2015-04-18T15:10:02Z</time>
      </trkpt>
      <trkpt lat="46.15982" lon="2.49777">
        <ele>448</ele>
        <time>2015-04-18T15:10:04Z</time>
      </trkpt>
      <trkpt lat="46.15979" lon="2.49779">
        <ele>448</ele>
        <time>2015-04-18T15:10:06Z</time>
      </trkpt>
      <trkpt lat="46.15976" lon="2.49782">
        <ele>448</ele>
        <time>2015-04-18T15:10:09Z</time>
      </trkpt>
      <trkpt lat="46.15974" lon="2.49785">
        <ele>448</ele>
        <time>2015-04-18T15:10:11Z</time>
      </trkpt>
      <trkpt lat="46.15971" lon="2.49787">
        <ele>448</ele>
        <time>2015-04-18T15:10:13Z</time>
      </trkpt>
      <trkpt lat="46.15969" lon="2.4979">
        <ele>448</ele>
        <time>2015-04-18T15:10:15Z</time>
      </trkpt>
      <trkpt lat="46.15965" lon="2.49793">
        <ele>449</ele>
        <time>2015-04-18T15:10:18Z</time>
      </trkpt>
      <trkpt lat="46.15963" lon="2.49795">
        <ele>449</ele>
        <time>2015-04-18T15:10:20Z</time>
      </trkpt>
      <trkpt lat="46.15961" lon="2.49797">
        <ele>449</ele>
        <time>2015-04-18T15:10:22Z</time>
      </trkpt>
      <trkpt lat="46.15958" lon="2.498">
        <ele>449</ele>
        <time>2015-04-18T15:10:24Z</time>
      </trkpt>
      <trkpt lat="46.15956" lon="2.49802">
        <ele>450</ele>
        <time>2015-04-18T15:10:26Z</time>
      </trkpt>
      <trkpt lat="46.15954" lon="2.49804">
        <ele>450</ele>
        <time>2015-04-18T15:10:28Z</time>
      </trkpt>
      <trkpt lat="46.15952" lon="2.49806">
        <ele>450</ele>
        <time>2015-04-18T15:10:30Z</time>
      </trkpt>
      <trkpt lat="46.15949" lon="2.49808">
        <ele>450</ele>
        <time>2015-04-18T15:10:32Z</time>
      </trkpt>
      <trkpt lat="46.15947" lon="2.49811">
        <ele>450</ele>
        <time>2015-04-18T15:10:34Z</time>
      </trkpt>
      <trkpt lat="46.15945" lon="2.49813">
        <ele>451</ele>
        <time>2015-04-18T15:10:36Z</time>
      </trkpt>
      <trkpt lat="46.15941" lon="2.49816">
        <ele>451</ele>
        <time>2015-04-18T15:10:39Z</time>
      </trkpt>
      <trkpt lat="46.15939" lon="2.49819">
        <ele>451</ele>
        <time>2015-04-18T15:10:41Z</time>
      </trkpt>
      <trkpt lat="46.15937" lon="2.49821">
        <ele>451</ele>
        <time>2015-04-18T15:10:43Z</time>
      </trkpt>
      <trkpt lat="46.15934" lon="2.49823">
        <ele>452</ele>
        <time>2015-04-18T15:10:45Z</time>
      </trkpt>
      <trkpt lat="46.15932" lon="2.49825">
        <ele>452</ele>
        <time>2015-04-18T15:10:47Z</time>
      </trkpt>
      <trkpt lat="46.1593" lon="2.49828">
        <ele>452</ele>
        <time>2015-04-18T15:10:49Z</time>
      </trkpt>
      <trkpt lat="46.15928" lon="2.4983">
        <ele>452</ele>
        <time>2015-04-18T15:10:51Z</time>
      </trkpt>
      <trkpt lat="46.15925" lon="2.49832">
        <ele>453</ele>
        <time>2015-04-18T15:10:53Z</time>
      </trkpt>
      <trkpt lat="46.15922" lon="2.49835">
        <ele>453</ele>
        <time>2015-04-18T15:10:56Z</time>
      </trkpt>
      <trkpt lat="46.15919" lon="2.49839">
        <ele>453</ele>
        <time>2015-04-18T15:10:59Z</time>
      </trkpt>
      <trkpt lat="46.15916" lon="2.49841">
        <ele>454</ele>
        <time>2015-04-18T15:11:01Z</time>
      </trkpt>
      <trkpt lat="46.15915" lon="2.49844">
        <ele>454</ele>
        <time>2015-04-18T15:11:03Z</time>
      </trkpt>
      <trkpt lat="46.15912" lon="2.49846">
        <ele>454</ele>
        <time>2015-04-18T15:11:05Z</time>
      </trkpt>
      <trkpt lat="46.1591" lon="2.49848">
        <ele>455</ele>
        <time>2015-04-18T15:11:07Z</time>
      </trkpt>
      <trkpt lat="46.15908" lon="2.49851">
        <ele>455</ele>
        <time>2015-04-18T15:11:09Z</time>
      </trkpt>
      <trkpt lat="46.15905" lon="2.49853">
        <ele>455</ele>
        <time>2015-04-18T15:11:11Z</time>
      </trkpt>
      <trkpt lat="46.15903" lon="2.49855">
        <ele>455</ele>
        <time>2015-04-18T15:11:13Z</time>
      </trkpt>
      <trkpt lat="46.159" lon="2.49859">
        <ele>455</ele>
        <time>2015-04-18T15:11:16Z</time>
      </trkpt>
      <trkpt lat="46.15898" lon="2.49861">
        <ele>456</ele>
        <time>2015-04-18T15:11:18Z</time>
      </trkpt>
      <trkpt lat="46.15895" lon="2.49863">
        <ele>456</ele>
        <time>2015-04-18T15:11:20Z</time>
      </trkpt>
      <trkpt lat="46.15893" lon="2.49866">
        <ele>456</ele>
        <time>2015-04-18T15:11:22Z</time>
      </trkpt>
      <trkpt lat="46.15891" lon="2.49868">
        <ele>456</ele>
        <time>2015-04-18T15:11:24Z</time>
      </trkpt>
      <trkpt lat="46.15889" lon="2.4987">
        <ele>457</ele>
        <time>2015-04-18T15:11:26Z</time>
      </trkpt>
      <trkpt lat="46.15886" lon="2.49872">
        <ele>457</ele>
        <time>2015-04-18T15:11:28Z</time>
      </trkpt>
      <trkpt lat="46.15884" lon="2.49873">
        <ele>457</ele>
        <time>2015-04-18T15:11:30Z</time>
      </trkpt>
      <trkpt lat="46.15883" lon="2.49874">
        <ele>457</ele>
        <time>2015-04-18T15:11:32Z</time>
      </trkpt>
      <trkpt lat="46.15881" lon="2.49877">
        <ele>458</ele>
        <time>2015-04-18T15:11:34Z</time>
      </trkpt>
      <trkpt lat="46.15879" lon="2.49879">
        <ele>458</ele>
        <time>2015-04-18T15:11:36Z</time>
      </trkpt>
      <trkpt lat="46.15877" lon="2.49882">
        <ele>458</ele>
        <time>2015-04-18T15:11:38Z</time>
      </trkpt>
      <trkpt lat="46.15873" lon="2.49886">
        <ele>458</ele>
        <time>2015-04-18T15:11:41Z</time>
      </trkpt>
      <trkpt lat="46.15871" lon="2.49887">
        <ele>458</ele>
        <time>2015-04-18T15:11:43Z</time>
      </trkpt>
      <trkpt lat="46.15868" lon="2.4989">
        <ele>458</ele>
        <time>2015-04-18T15:11:45Z</time>
      </trkpt>
      <trkpt lat="46.15866" lon="2.49892">
        <ele>458</ele>
        <time>2015-04-18T15:11:47Z</time>
      </trkpt>
      <trkpt lat="46.15863" lon="2.49895">
        <ele>458</ele>
        <time>2015-04-18T15:11:49Z</time>
      </trkpt>
      <trkpt lat="46.15861" lon="2.49897">
        <ele>458</ele>
        <time>2015-04-18T15:11:51Z</time>
      </trkpt>
      <trkpt lat="46.15858" lon="2.499">
        <ele>458</ele>
        <time>2015-04-18T15:11:53Z</time>
      </trkpt>
      <trkpt lat="46.15856" lon="2.49903">
        <ele>459</ele>
        <time>2015-04-18T15:11:55Z</time>
      </trkpt>
      <trkpt lat="46.15854" lon="2.49905">
        <ele>459</ele>
        <time>2015-04-18T15:11:57Z</time>
      </trkpt>
      <trkpt lat="46.15852" lon="2.49908">
        <ele>459</ele>
        <time>2015-04-18T15:11:59Z</time>
      </trkpt>
      <trkpt lat="46.15849" lon="2.49911">
        <ele>459</ele>
        <time>2015-04-18T15:12:01Z</time>
      </trkpt>
      <trkpt lat="46.15847" lon="2.49914">
        <ele>459</ele>
        <time>2015-04-18T15:12:03Z</time>
      </trkpt>
      <trkpt lat="46.15844" lon="2.49917">
        <ele>459</ele>
        <time>2015-04-18T15:12:05Z</time>
      </trkpt>
      <trkpt lat="46.15842" lon="2.49919">
        <ele>459</ele>
        <time>2015-04-18T15:12:07Z</time>
      </trkpt>
      <trkpt lat="46.15839" lon="2.49922">
        <ele>459</ele>
        <time>2015-04-18T15:12:09Z</time>
      </trkpt>
      <trkpt lat="46.15837" lon="2.49924">
        <ele>459</ele>
        <time>2015-04-18T15:12:11Z</time>
      </trkpt>
      <trkpt lat="46.15834" lon="2.49927">
        <ele>459</ele>
        <time>2015-04-18T15:12:13Z</time>
      </trkpt>
      <trkpt lat="46.15832" lon="2.49929">
        <ele>459</ele>
        <time>2015-04-18T15:12:15Z</time>
      </trkpt>
      <trkpt lat="46.15829" lon="2.49932">
        <ele>459</ele>
        <time>2015-04-18T15:12:17Z</time>
      </trkpt>
      <trkpt lat="46.15827" lon="2.49935">
        <ele>459</ele>
        <time>2015-04-18T15:12:19Z</time>
      </trkpt>
      <trkpt lat="46.15824" lon="2.49937">
        <ele>459</ele>
        <time>2015-04-18T15:12:21Z</time>
      </trkpt>
      <trkpt lat="46.15822" lon="2.4994">
        <ele>459</ele>
        <time>2015-04-18T15:12:23Z</time>
      </trkpt>
      <trkpt lat="46.15819" lon="2.49942">
        <ele>459</ele>
        <time>2015-04-18T15:12:25Z</time>
      </trkpt>
      <trkpt lat="46.15817" lon="2.49945">
        <ele>459</ele>
        <time>2015-04-18T15:12:27Z</time>
      </trkpt>
      <trkpt lat="46.15814" lon="2.49947">
        <ele>459</ele>
        <time>2015-04-18T15:12:29Z</time>
      </trkpt>
      <trkpt lat="46.15812" lon="2.4995">
        <ele>459</ele>
        <time>2015-04-18T15:12:31Z</time>
      </trkpt>
      <trkpt lat="46.15809" lon="2.49952">
        <ele>459</ele>
        <time>2015-04-18T15:12:33Z</time>
      </trkpt>
      <trkpt lat="46.15806" lon="2.49955">
        <ele>459</ele>
        <time>2015-04-18T15:12:35Z</time>
      </trkpt>
      <trkpt lat="46.15804" lon="2.49957">
        <ele>459</ele>
        <time>2015-04-18T15:12:37Z</time>
      </trkpt>
      <trkpt lat="46.15801" lon="2.4996">
        <ele>459</ele>
        <time>2015-04-18T15:12:39Z</time>
      </trkpt>
      <trkpt lat="46.15799" lon="2.49962">
        <ele>459</ele>
        <time>2015-04-18T15:12:41Z</time>
      </trkpt>
      <trkpt lat="46.15796" lon="2.49965">
        <ele>459</ele>
        <time>2015-04-18T15:12:43Z</time>
      </trkpt>
      <trkpt lat="46.15794" lon="2.49968">
        <ele>459</ele>
        <time>2015-04-18T15:12:45Z</time>
      </trkpt>
      <trkpt lat="46.15791" lon="2.4997">
        <ele>459</ele>
        <time>2015-04-18T15:12:47Z</time>
      </trkpt>
      <trkpt lat="46.15788" lon="2.49973">
        <ele>459</ele>
        <time>2015-04-18T15:12:49Z</time>
      </trkpt>
      <trkpt lat="46.15786" lon="2.49975">
        <ele>459</ele>
        <time>2015-04-18T15:12:51Z</time>
      </trkpt>
      <trkpt lat="46.15783" lon="2.49978">
        <ele>459</ele>
        <time>2015-04-18T15:12:53Z</time>
      </trkpt>
      <trkpt lat="46.15781" lon="2.4998">
        <ele>459</ele>
        <time>2015-04-18T15:12:55Z</time>
      </trkpt>
      <trkpt lat="46.15778" lon="2.49983">
        <ele>459</ele>
        <time>2015-04-18T15:12:57Z</time>
      </trkpt>
      <trkpt lat="46.15776" lon="2.49985">
        <ele>459</ele>
        <time>2015-04-18T15:12:59Z</time>
      </trkpt>
      <trkpt lat="46.15773" lon="2.49988">
        <ele>459</ele>
        <time>2015-04-18T15:13:01Z</time>
      </trkpt>
      <trkpt lat="46.15771" lon="2.4999">
        <ele>459</ele>
        <time>2015-04-18T15:13:03Z</time>
      </trkpt>
      <trkpt lat="46.15768" lon="2.49992">
        <ele>459</ele>
        <time>2015-04-18T15:13:05Z</time>
      </trkpt>
      <trkpt lat="46.15766" lon="2.49995">
        <ele>459</ele>
        <time>2015-04-18T15:13:07Z</time>
      </trkpt>
      <trkpt lat="46.15763" lon="2.49997">
        <ele>459</ele>
        <time>2015-04-18T15:13:09Z</time>
      </trkpt>
      <trkpt lat="46.15761" lon="2.5">
        <ele>459</ele>
        <time>2015-04-18T15:13:11Z</time>
      </trkpt>
      <trkpt lat="46.15758" lon="2.50002">
        <ele>459</ele>
        <time>2015-04-18T15:13:13Z</time>
      </trkpt>
      <trkpt lat="46.15756" lon="2.50005">
        <ele>459</ele>
        <time>2015-04-18T15:13:15Z</time>
      </trkpt>
      <trkpt lat="46.15753" lon="2.50007">
        <ele>459</ele>
        <time>2015-04-18T15:13:17Z</time>
      </trkpt>
      <trkpt lat="46.15751" lon="2.50009">
        <ele>459</ele>
        <time>2015-04-18T15:13:19Z</time>
      </trkpt>
      <trkpt lat="46.15748" lon="2.50012">
        <ele>459</ele>
        <time>2015-04-18T15:13:21Z</time>
      </trkpt>
      <trkpt lat="46.15746" lon="2.50015">
        <ele>459</ele>
        <time>2015-04-18T15:13:23Z</time>
      </trkpt>
      <trkpt lat="46.15743" lon="2.50017">
        <ele>459</ele>
        <time>2015-04-18T15:13:25Z</time>
      </trkpt>
      <trkpt lat="46.15741" lon="2.5002">
        <ele>459</ele>
        <time>2015-04-18T15:13:27Z</time>
      </trkpt>
      <trkpt lat="46.15738" lon="2.50022">
        <ele>459</ele>
        <time>2015-04-18T15:13:29Z</time>
      </trkpt>
      <trkpt lat="46.15735" lon="2.50025">
        <ele>459</ele>
        <time>2015-04-18T15:13:31Z</time>
      </trkpt>
      <trkpt lat="46.15733" lon="2.50027">
        <ele>459</ele>
        <time>2015-04-18T15:13:33Z</time>
      </trkpt>
      <trkpt lat="46.1573" lon="2.5003">
        <ele>459</ele>
        <time>2015-04-18T15:13:35Z</time>
      </trkpt>
      <trkpt lat="46.15728" lon="2.50032">
        <ele>459</ele>
        <time>2015-04-18T15:13:37Z</time>
      </trkpt>
      <trkpt lat="46.15725" lon="2.50035">
        <ele>459</ele>
        <time>2015-04-18T15:13:39Z</time>
      </trkpt>
      <trkpt lat="46.15723" lon="2.50037">
        <ele>459</ele>
        <time>2015-04-18T15:13:41Z</time>
      </trkpt>
      <trkpt lat="46.1572" lon="2.5004">
        <ele>459</ele>
        <time>2015-04-18T15:13:43Z</time>
      </trkpt>
      <trkpt lat="46.15717" lon="2.50042">
        <ele>459</ele>
        <time>2015-04-18T15:13:45Z</time>
      </trkpt>
      <trkpt lat="46.15715" lon="2.50045">
        <ele>459</ele>
        <time>2015-04-18T15:13:47Z</time>
      </trkpt>
      <trkpt lat="46.15712" lon="2.50047">
        <ele>459</ele>
        <time>2015-04-18T15:13:49Z</time>
      </trkpt>
      <trkpt lat="46.1571" lon="2.5005">
        <ele>459</ele>
        <time>2015-04-18T15:13:51Z</time>
      </trkpt>
      <trkpt lat="46.15707" lon="2.50052">
        <ele>459</ele>
        <time>2015-04-18T15:13:53Z</time>
      </trkpt>
      <trkpt lat="46.15704" lon="2.50055">
        <ele>459</ele>
        <time>2015-04-18T15:13:55Z</time>
      </trkpt>
      <trkpt lat="46.15702" lon="2.50057">
        <ele>459</ele>
        <time>2015-04-18T15:13:57Z</time>
      </trkpt>
      <trkpt lat="46.157" lon="2.5006">
        <ele>459</ele>
        <time>2015-04-18T15:13:59Z</time>
      </trkpt>
      <trkpt lat="46.15697" lon="2.50062">
        <ele>459</ele>
        <time>2015-04-18T15:14:01Z</time>
      </trkpt>
      <trkpt lat="46.15695" lon="2.50064">
        <ele>459</ele>
        <time>2015-04-18T15:14:03Z</time>
      </trkpt>
      <trkpt lat="46.15692" lon="2.50067">
        <ele>459</ele>
        <time>2015-04-18T15:14:05Z</time>
      </trkpt>
      <trkpt lat="46.1569" lon="2.50069">
        <ele>459</ele>
        <time>2015-04-18T15:14:07Z</time>
      </trkpt>
      <trkpt lat="46.15687" lon="2.50072">
        <ele>459</ele>
        <time>2015-04-18T15:14:09Z</time>
      </trkpt>
      <trkpt lat="46.15685" lon="2.50074">
        <ele>459</ele>
        <time>2015-04-18T15:14:11Z</time>
      </trkpt>
      <trkpt lat="46.15683" lon="2.50077">
        <ele>459</ele>
        <time>2015-04-18T15:14:13Z</time>
      </trkpt>
      <trkpt lat="46.15681" lon="2.5008">
        <ele>459</ele>
        <time>2015-04-18T15:14:15Z</time>
      </trkpt>
      <trkpt lat="46.1568" lon="2.50085">
        <ele>459</ele>
        <time>2015-04-18T15:14:17Z</time>
      </trkpt>
      <trkpt lat="46.1568" lon="2.50089">
        <ele>459</ele>
        <time>2015-04-18T15:14:19Z</time>
      </trkpt>
      <trkpt lat="46.1568" lon="2.50094">
        <ele>459</ele>
        <time>2015-04-18T15:14:21Z</time>
      </trkpt>
      <trkpt lat="46.15681" lon="2.50098">
        <ele>459</ele>
        <time>2015-04-18T15:14:23Z</time>
      </trkpt>
      <trkpt lat="46.15682" lon="2.50101">
        <ele>459</ele>
        <time>2015-04-18T15:14:25Z</time>
      </trkpt>
      <trkpt lat="46.15684" lon="2.50105">
        <ele>459</ele>
        <time>2015-04-18T15:14:27Z</time>
      </trkpt>
      <trkpt lat="46.15686" lon="2.50109">
        <ele>459</ele>
        <time>2015-04-18T15:14:29Z</time>
      </trkpt>
      <trkpt lat="46.15688" lon="2.50112">
        <ele>459</ele>
        <time>2015-04-18T15:14:31Z</time>
      </trkpt>
      <trkpt lat="46.15689" lon="2.50116">
        <ele>459</ele>
        <time>2015-04-18T15:14:33Z</time>
      </trkpt>
      <trkpt lat="46.15691" lon="2.50119">
        <ele>459</ele>
        <time>2015-04-18T15:14:35Z</time>
      </trkpt>
      <trkpt lat="46.15693" lon="2.50123">
        <ele>459</ele>
        <time>2015-04-18T15:14:37Z</time>
      </trkpt>
      <trkpt lat="46.15694" lon="2.50126">
        <ele>459</ele>
        <time>2015-04-18T15:14:39Z</time>
      </trkpt>
      <trkpt lat="46.15696" lon="2.50129">
        <ele>458</ele>
        <time>2015-04-18T15:14:41Z</time>
      </trkpt>
      <trkpt lat="46.15697" lon="2.50133">
        <ele>458</ele>
        <time>2015-04-18T15:14:43Z</time>
      </trkpt>
      <trkpt lat="46.15699" lon="2.50136">
        <ele>457</ele>
        <time>2015-04-18T15:14:45Z</time>
      </trkpt>
      <trkpt lat="46.157" lon="2.5014">
        <ele>457</ele>
        <time>2015-04-18T15:14:47Z</time>
      </trkpt>
      <trkpt lat="46.15702" lon="2.50144">
        <ele>457</ele>
        <time>2015-04-18T15:14:49Z</time>
      </trkpt>
      <trkpt lat="46.15704" lon="2.50148">
        <ele>456</ele>
        <time>2015-04-18T15:14:51Z</time>
      </trkpt>
      <trkpt lat="46.15705" lon="2.50151">
        <ele>456</ele>
        <time>2015-04-18T15:14:53Z</time>
      </trkpt>
      <trkpt lat="46.15707" lon="2.50155">
        <ele>456</ele>
        <time>2015-04-18T15:14:55Z</time>
      </trkpt>
      <trkpt lat="46.15708" lon="2.50159">
        <ele>456</ele>
        <time>2015-04-18T15:14:57Z</time>
      </trkpt>
      <trkpt lat="46.1571" lon="2.50163">
        <ele>455</ele>
        <time>2015-04-18T15:14:59Z</time>
      </trkpt>
      <trkpt lat="46.15712" lon="2.50166">
        <ele>455</ele>
        <time>2015-04-18T15:15:01Z</time>
      </trkpt>
      <trkpt lat="46.15713" lon="2.5017">
        <ele>454</ele>
        <time>2015-04-18T15:15:03Z</time>
      </trkpt>
      <trkpt lat="46.15715" lon="2.50173">
        <ele>454</ele>
        <time>2015-04-18T15:15:05Z</time>
      </trkpt>
      <trkpt lat="46.15716" lon="2.50177">
        <ele>454</ele>
        <time>2015-04-18T15:15:07Z</time>
      </trkpt>
      <trkpt lat="46.15718" lon="2.50181">
        <ele>454</ele>
        <time>2015-04-18T15:15:09Z</time>
      </trkpt>
      <trkpt lat="46.1572" lon="2.50185">
        <ele>453</ele>
        <time>2015-04-18T15:15:11Z</time>
      </trkpt>
      <trkpt lat="46.15721" lon="2.50189">
        <ele>453</ele>
        <time>2015-04-18T15:15:13Z</time>
      </trkpt>
      <trkpt lat="46.15723" lon="2.50192">
        <ele>453</ele>
        <time>2015-04-18T15:15:15Z</time>
      </trkpt>
      <trkpt lat="46.15724" lon="2.50196">
        <ele>453</ele>
        <time>2015-04-18T15:15:17Z</time>
      </trkpt>
      <trkpt lat="46.15726" lon="2.502">
        <ele>452</ele>
        <time>2015-04-18T15:15:19Z</time>
      </trkpt>
      <trkpt lat="46.15728" lon="2.50203">
        <ele>452</ele>
        <time>2015-04-18T15:15:21Z</time>
      </trkpt>
      <trkpt lat="46.15729" lon="2.50207">
        <ele>452</ele>
        <time>2015-04-18T15:15:23Z</time>
      </trkpt>
      <trkpt lat="46.15731" lon="2.50211">
        <ele>452</ele>
        <time>2015-04-18T15:15:25Z</time>
      </trkpt>
      <trkpt lat="46.15733" lon="2.50215">
        <ele>451</ele>
        <time>2015-04-18T15:15:27Z</time>
      </trkpt>
      <trkpt lat="46.15736" lon="2.50219">
        <ele>451</ele>
        <time>2015-04-18T15:15:29Z</time>
      </trkpt>
      <trkpt lat="46.15738" lon="2.50222">
        <ele>451</ele>
        <time>2015-04-18T15:15:31Z</time>
      </trkpt>
      <trkpt lat="46.1574" lon="2.50226">
        <ele>451</ele>
        <time>2015-04-18T15:15:33Z</time>
      </trkpt>
      <trkpt lat="46.15742" lon="2.5023">
        <ele>450</ele>
        <time>2015-04-18T15:15:35Z</time>
      </trkpt>
      <trkpt lat="46.15744" lon="2.50233">
        <ele>450</ele>
        <time>2015-04-18T15:15:37Z</time>
      </trkpt>
      <trkpt lat="46.15746" lon="2.50237">
        <ele>450</ele>
        <time>2015-04-18T15:15:39Z</time>
      </trkpt>
      <trkpt lat="46.15748" lon="2.5024">
        <ele>450</ele>
        <time>2015-04-18T15:15:41Z</time>
      </trkpt>
      <trkpt lat="46.15749" lon="2.50244">
        <ele>450</ele>
        <time>2015-04-18T15:15:43Z</time>
      </trkpt>
      <trkpt lat="46.15751" lon="2.50247">
        <ele>450</ele>
        <time>2015-04-18T15:15:45Z</time>
      </trkpt>
      <trkpt lat="46.15753" lon="2.5025">
        <ele>450</ele>
        <time>2015-04-18T15:15:47Z</time>
      </trkpt>
      <trkpt lat="46.15755" lon="2.50254">
        <ele>450</ele>
        <time>2015-04-18T15:15:49Z</time>
      </trkpt>
      <trkpt lat="46.15757" lon="2.50257">
        <ele>450</ele>
        <time>2015-04-18T15:15:51Z</time>
      </trkpt>
      <trkpt lat="46.15759" lon="2.5026">
        <ele>450</ele>
        <time>2015-04-18T15:15:53Z</time>
      </trkpt>
      <trkpt lat="46.15761" lon="2.50264">
        <ele>450</ele>
        <time>2015-04-18T15:15:55Z</time>
      </trkpt>
      <trkpt lat="46.15763" lon="2.50267">
        <ele>450</ele>
        <time>2015-04-18T15:15:57Z</time>
      </trkpt>
      <trkpt lat="46.15765" lon="2.5027">
        <ele>450</ele>
        <time>2015-04-18T15:15:59Z</time>
      </trkpt>
      <trkpt lat="46.15767" lon="2.50273">
        <ele>450</ele>
        <time>2015-04-18T15:16:01Z</time>
      </trkpt>
      <trkpt lat="46.15768" lon="2.50277">
        <ele>450</ele>
        <time>2015-04-18T15:16:03Z</time>
      </trkpt>
      <trkpt lat="46.1577" lon="2.5028">
        <ele>450</ele>
        <time>2015-04-18T15:16:05Z</time>
      </trkpt>
      <trkpt lat="46.15772" lon="2.50283">
        <ele>450</ele>
        <time>2015-04-18T15:16:07Z</time>
      </trkpt>
      <trkpt lat="46.15774" lon="2.50287">
        <ele>450</ele>
        <time>2015-04-18T15:16:09Z</time>
      </trkpt>
      <trkpt lat="46.15776" lon="2.5029">
        <ele>450</ele>
        <time>2015-04-18T15:16:11Z</time>
      </trkpt>
      <trkpt lat="46.15778" lon="2.50293">
        <ele>450</ele>
        <time>2015-04-18T15:16:13Z</time>
      </trkpt>
      <trkpt lat="46.15779" lon="2.50296">
        <ele>450</ele>
        <time>2015-04-18T15:16:15Z</time>
      </trkpt>
      <trkpt lat="46.15781" lon="2.503">
        <ele>450</ele>
        <time>2015-04-18T15:16:17Z</time>
      </trkpt>
      <trkpt lat="46.15783" lon="2.50303">
        <ele>450</ele>
        <time>2015-04-18T15:16:19Z</time>
      </trkpt>
      <trkpt lat="46.15785" lon="2.50306">
        <ele>450</ele>
        <time>2015-04-18T15:16:21Z</time>
      </trkpt>
      <trkpt lat="46.15786" lon="2.50309">
        <ele>450</ele>
        <time>2015-04-18T15:16:23Z</time>
      </trkpt>
      <trkpt lat="46.15788" lon="2.50312">
        <ele>450</ele>
        <time>2015-04-18T15:16:25Z</time>
      </trkpt>
      <trkpt lat="46.1579" lon="2.50315">
        <ele>450</ele>
        <time>2015-04-18T15:16:27Z</time>
      </trkpt>
      <trkpt lat="46.15792" lon="2.50319">
        <ele>450</ele>
        <time>2015-04-18T15:16:29Z</time>
      </trkpt>
      <trkpt lat="46.15794" lon="2.50322">
        <ele>450</ele>
        <time>2015-04-18T15:16:31Z</time>
      </trkpt>
      <trkpt lat="46.15796" lon="2.50325">
        <ele>450</ele>
        <time>2015-04-18T15:16:33Z</time>
      </trkpt>
      <trkpt lat="46.15798" lon="2.50329">
        <ele>450</ele>
        <time>2015-04-18T15:16:36Z</time>
      </trkpt>
      <trkpt lat="46.158" lon="2.50333">
        <ele>450</ele>
        <time>2015-04-18T15:16:38Z</time>
      </trkpt>
      <trkpt lat="46.15802" lon="2.50336">
        <ele>450</ele>
        <time>2015-04-18T15:16:40Z</time>
      </trkpt>
      <trkpt lat="46.15804" lon="2.50339">
        <ele>451</ele>
        <time>2015-04-18T15:16:42Z</time>
      </trkpt>
      <trkpt lat="46.15806" lon="2.50342">
        <ele>451</ele>
        <time>2015-04-18T15:16:44Z</time>
      </trkpt>
      <trkpt lat="46.15808" lon="2.50346">
        <ele>451</ele>
        <time>2015-04-18T15:16:46Z</time>
      </trkpt>
      <trkpt lat="46.1581" lon="2.5035">
        <ele>451</ele>
        <time>2015-04-18T15:16:49Z</time>
      </trkpt>
      <trkpt lat="46.15813" lon="2.50353">
        <ele>451</ele>
        <time>2015-04-18T15:16:51Z</time>
      </trkpt>
      <trkpt lat="46.15815" lon="2.50357">
        <ele>451</ele>
        <time>2015-04-18T15:16:53Z</time>
      </trkpt>
      <trkpt lat="46.15816" lon="2.5036">
        <ele>451</ele>
        <time>2015-04-18T15:16:55Z</time>
      </trkpt>
      <trkpt lat="46.15818" lon="2.50363">
        <ele>452</ele>
        <time>2015-04-18T15:16:57Z</time>
      </trkpt>
      <trkpt lat="46.1582" lon="2.50366">
        <ele>452</ele>
        <time>2015-04-18T15:16:59Z</time>
      </trkpt>
      <trkpt lat="46.15821" lon="2.5037">
        <ele>452</ele>
        <time>2015-04-18T15:17:01Z</time>
      </trkpt>
      <trkpt lat="46.15823" lon="2.50373">
        <ele>452</ele>
        <time>2015-04-18T15:17:03Z</time>
      </trkpt>
      <trkpt lat="46.15825" lon="2.50376">
        <ele>452</ele>
        <time>2015-04-18T15:17:05Z</time>
      </trkpt>
      <trkpt lat="46.15826" lon="2.5038">
        <ele>453</ele>
        <time>2015-04-18T15:17:07Z</time>
      </trkpt>
      <trkpt lat="46.15828" lon="2.50383">
        <ele>453</ele>
        <time>2015-04-18T15:17:09Z</time>
      </trkpt>
      <trkpt lat="46.1583" lon="2.50388">
        <ele>453</ele>
        <time>2015-04-18T15:17:12Z</time>
      </trkpt>
      <trkpt lat="46.15832" lon="2.50392">
        <ele>453</ele>
        <time>2015-04-18T15:17:14Z</time>
      </trkpt>
      <trkpt lat="46.15834" lon="2.50395">
        <ele>453</ele>
        <time>2015-04-18T15:17:16Z</time>
      </trkpt>
      <trkpt lat="46.15836" lon="2.50398">
        <ele>454</ele>
        <time>2015-04-18T15:17:18Z</time>
      </trkpt>
      <trkpt lat="46.15838" lon="2.50401">
        <ele>454</ele>
        <time>2015-04-18T15:17:20Z</time>
      </trkpt>
      <trkpt lat="46.15839" lon="2.50405">
        <ele>454</ele>
        <time>2015-04-18T15:17:22Z</time>
      </trkpt>
      <trkpt lat="46.15841" lon="2.50408">
        <ele>454</ele>
        <time>2015-04-18T15:17:24Z</time>
      </trkpt>
      <trkpt lat="46.15843" lon="2.50411">
        <ele>454</ele>
        <time>2015-04-18T15:17:26Z</time>
      </trkpt>
      <trkpt lat="46.15845" lon="2.50414">
        <ele>454</ele>
        <time>2015-04-18T15:17:28Z</time>
      </trkpt>
      <trkpt lat="46.15847" lon="2.50417">
        <ele>455</ele>
        <time>2015-04-18T15:17:30Z</time>
      </trkpt>
      <trkpt lat="46.15849" lon="2.50421">
        <ele>455</ele>
        <time>2015-04-18T15:17:32Z</time>
      </trkpt>
      <trkpt lat="46.1585" lon="2.50424">
        <ele>455</ele>
        <time>2015-04-18T15:17:34Z</time>
      </trkpt>
      <trkpt lat="46.15852" lon="2.50428">
        <ele>455</ele>
        <time>2015-04-18T15:17:36Z</time>
      </trkpt>
      <trkpt lat="46.15854" lon="2.50431">
        <ele>455</ele>
        <time>2015-04-18T15:17:38Z</time>
      </trkpt>
      <trkpt lat="46.15856" lon="2.50434">
        <ele>455</ele>
        <time>2015-04-18T15:17:40Z</time>
      </trkpt>
      <trkpt lat="46.15858" lon="2.50438">
        <ele>455</ele>
        <time>2015-04-18T15:17:42Z</time>
      </trkpt>
      <trkpt lat="46.1586" lon="2.50441">
        <ele>455</ele>
        <time>2015-04-18T15:17:44Z</time>
      </trkpt>
      <trkpt lat="46.15862" lon="2.50444">
        <ele>455</ele>
        <time>2015-04-18T15:17:46Z</time>
      </trkpt>
      <trkpt lat="46.15863" lon="2.50447">
        <ele>455</ele>
        <time>2015-04-18T15:17:48Z</time>
      </trkpt>
      <trkpt lat="46.15865" lon="2.50451">
        <ele>455</ele>
        <time>2015-04-18T15:17:50Z</time>
      </trkpt>
      <trkpt lat="46.15868" lon="2.50454">
        <ele>455</ele>
        <time>2015-04-18T15:17:52Z</time>
      </trkpt>
      <trkpt lat="46.1587" lon="2.50458">
        <ele>455</ele>
        <time>2015-04-18T15:17:54Z</time>
      </trkpt>
      <trkpt lat="46.15871" lon="2.50461">
        <ele>455</ele>
        <time>2015-04-18T15:17:56Z</time>
      </trkpt>
      <trkpt lat="46.15873" lon="2.50464">
        <ele>455</ele>
        <time>2015-04-18T15:17:58Z</time>
      </trkpt>
      <trkpt lat="46.15875" lon="2.50467">
        <ele>455</ele>
        <time>2015-04-18T15:18:00Z</time>
      </trkpt>
      <trkpt lat="46.15877" lon="2.50471">
        <ele>455</ele>
        <time>2015-04-18T15:18:02Z</time>
      </trkpt>
      <trkpt lat="46.15879" lon="2.50474">
        <ele>455</ele>
        <time>2015-04-18T15:18:04Z</time>
      </trkpt>
      <trkpt lat="46.15881" lon="2.50478">
        <ele>455</ele>
        <time>2015-04-18T15:18:06Z</time>
      </trkpt>
      <trkpt lat="46.15883" lon="2.50482">
        <ele>455</ele>
        <time>2015-04-18T15:18:08Z</time>
      </trkpt>
      <trkpt lat="46.15885" lon="2.50485">
        <ele>455</ele>
        <time>2015-04-18T15:18:10Z</time>
      </trkpt>
      <trkpt lat="46.15887" lon="2.50488">
        <ele>455</ele>
        <time>2015-04-18T15:18:12Z</time>
      </trkpt>
      <trkpt lat="46.15889" lon="2.50492">
        <ele>456</ele>
        <time>2015-04-18T15:18:14Z</time>
      </trkpt>
      <trkpt lat="46.15891" lon="2.50495">
        <ele>456</ele>
        <time>2015-04-18T15:18:16Z</time>
      </trkpt>
      <trkpt lat="46.15893" lon="2.50499">
        <ele>456</ele>
        <time>2015-04-18T15:18:18Z</time>
      </trkpt>
      <trkpt lat="46.15895" lon="2.50502">
        <ele>456</ele>
        <time>2015-04-18T15:18:20Z</time>
      </trkpt>
      <trkpt lat="46.15897" lon="2.50506">
        <ele>456</ele>
        <time>2015-04-18T15:18:22Z</time>
      </trkpt>
      <trkpt lat="46.15899" lon="2.50509">
        <ele>456</ele>
        <time>2015-04-18T15:18:24Z</time>
      </trkpt>
      <trkpt lat="46.15901" lon="2.50512">
        <ele>456</ele>
        <time>2015-04-18T15:18:26Z</time>
      </trkpt>
      <trkpt lat="46.15903" lon="2.50516">
        <ele>456</ele>
        <time>2015-04-18T15:18:28Z</time>
      </trkpt>
      <trkpt lat="46.15905" lon="2.50519">
        <ele>456</ele>
        <time>2015-04-18T15:18:30Z</time>
      </trkpt>
      <trkpt lat="46.15907" lon="2.50523">
        <ele>456</ele>
        <time>2015-04-18T15:18:32Z</time>
      </trkpt>
      <trkpt lat="46.15909" lon="2.50526">
        <ele>456</ele>
        <time>2015-04-18T15:18:34Z</time>
      </trkpt>
      <trkpt lat="46.15911" lon="2.5053">
        <ele>456</ele>
        <time>2015-04-18T15:18:36Z</time>
      </trkpt>
      <trkpt lat="46.15913" lon="2.50533">
        <ele>456</ele>
        <time>2015-04-18T15:18:38Z</time>
      </trkpt>
      <trkpt lat="46.15916" lon="2.50537">
        <ele>456</ele>
        <time>2015-04-18T15:18:40Z</time>
      </trkpt>
      <trkpt lat="46.15918" lon="2.5054">
        <ele>456</ele>
        <time>2015-04-18T15:18:42Z</time>
      </trkpt>
      <trkpt lat="46.15919" lon="2.50544">
        <ele>456</ele>
        <time>2015-04-18T15:18:44Z</time>
      </trkpt>
      <trkpt lat="46.15921" lon="2.50547">
        <ele>456</ele>
        <time>2015-04-18T15:18:46Z</time>
      </trkpt>
      <trkpt lat="46.15924" lon="2.50551">
        <ele>456</ele>
        <time>2015-04-18T15:18:48Z</time>
      </trkpt>
      <trkpt lat="46.15926" lon="2.50554">
        <ele>456</ele>
        <time>2015-04-18T15:18:50Z</time>
      </trkpt>
      <trkpt lat="46.15928" lon="2.50557">
        <ele>456</ele>
        <time>2015-04-18T15:18:52Z</time>
      </trkpt>
      <trkpt lat="46.15931" lon="2.50562">
        <ele>456</ele>
        <time>2015-04-18T15:18:55Z</time>
      </trkpt>
      <trkpt lat="46.15933" lon="2.50565">
        <ele>456</ele>
        <time>2015-04-18T15:18:57Z</time>
      </trkpt>
      <trkpt lat="46.15936" lon="2.50567">
        <ele>456</ele>
        <time>2015-04-18T15:18:59Z</time>
      </trkpt>
      <trkpt lat="46.15939" lon="2.50565">
        <ele>456</ele>
        <time>2015-04-18T15:19:01Z</time>
      </trkpt>
      <trkpt lat="46.15941" lon="2.50563">
        <ele>457</ele>
        <time>2015-04-18T15:19:03Z</time>
      </trkpt>
      <trkpt lat="46.15944" lon="2.50559">
        <ele>457</ele>
        <time>2015-04-18T15:19:06Z</time>
      </trkpt>
      <trkpt lat="46.15947" lon="2.50556">
        <ele>457</ele>
        <time>2015-04-18T15:19:08Z</time>
      </trkpt>
      <trkpt lat="46.15949" lon="2.50553">
        <ele>457</ele>
        <time>2015-04-18T15:19:10Z</time>
      </trkpt>
      <trkpt lat="46.15951" lon="2.5055">
        <ele>457</ele>
        <time>2015-04-18T15:19:12Z</time>
      </trkpt>
      <trkpt lat="46.15953" lon="2.50547">
        <ele>457</ele>
        <time>2015-04-18T15:19:14Z</time>
      </trkpt>
      <trkpt lat="46.15955" lon="2.50544">
        <ele>457</ele>
        <time>2015-04-18T15:19:16Z</time>
      </trkpt>
      <trkpt lat="46.15957" lon="2.50541">
        <ele>457</ele>
        <time>2015-04-18T15:19:18Z</time>
      </trkpt>
      <trkpt lat="46.15959" lon="2.50538">
        <ele>457</ele>
        <time>2015-04-18T15:19:20Z</time>
      </trkpt>
      <trkpt lat="46.15961" lon="2.50535">
        <ele>457</ele>
        <time>2015-04-18T15:19:22Z</time>
      </trkpt>
      <trkpt lat="46.15963" lon="2.50532">
        <ele>457</ele>
        <time>2015-04-18T15:19:24Z</time>
      </trkpt>
      <trkpt lat="46.15964" lon="2.50528">
        <ele>457</ele>
        <time>2015-04-18T15:19:26Z</time>
      </trkpt>
      <trkpt lat="46.15966" lon="2.50525">
        <ele>457</ele>
        <time>2015-04-18T15:19:28Z</time>
      </trkpt>
      <trkpt lat="46.15968" lon="2.50521">
        <ele>457</ele>
        <time>2015-04-18T15:19:30Z</time>
      </trkpt>
      <trkpt lat="46.15971" lon="2.50518">
        <ele>457</ele>
        <time>2015-04-18T15:19:32Z</time>
      </trkpt>
      <trkpt lat="46.15973" lon="2.50516">
        <ele>457</ele>
        <time>2015-04-18T15:19:34Z</time>
      </trkpt>
      <trkpt lat="46.15976" lon="2.50511">
        <ele>457</ele>
        <time>2015-04-18T15:19:37Z</time>
      </trkpt>
      <trkpt lat="46.15979" lon="2.50508">
        <ele>457</ele>
        <time>2015-04-18T15:19:39Z</time>
      </trkpt>
      <trkpt lat="46.15981" lon="2.50505">
        <ele>457</ele>
        <time>2015-04-18T15:19:41Z</time>
      </trkpt>
      <trkpt lat="46.15984" lon="2.50501">
        <ele>457</ele>
        <time>2015-04-18T15:19:43Z</time>
      </trkpt>
      <trkpt lat="46.15985" lon="2.50497">
        <ele>457</ele>
        <time>2015-04-18T15:19:45Z</time>
      </trkpt>
      <trkpt lat="46.15988" lon="2.50494">
        <ele>457</ele>
        <time>2015-04-18T15:19:47Z</time>
      </trkpt>
      <trkpt lat="46.1599" lon="2.50492">
        <ele>457</ele>
        <time>2015-04-18T15:19:49Z</time>
      </trkpt>
      <trkpt lat="46.15992" lon="2.50488">
        <ele>457</ele>
        <time>2015-04-18T15:19:51Z</time>
      </trkpt>
      <trkpt lat="46.15993" lon="2.50486">
        <ele>457</ele>
        <time>2015-04-18T15:19:53Z</time>
      </trkpt>
      <trkpt lat="46.15995" lon="2.50483">
        <ele>457</ele>
        <time>2015-04-18T15:19:55Z</time>
      </trkpt>
      <trkpt lat="46.15998" lon="2.5048">
        <ele>457</ele>
        <time>2015-04-18T15:19:57Z</time>
      </trkpt>
      <trkpt lat="46.16" lon="2.50477">
        <ele>457</ele>
        <time>2015-04-18T15:19:59Z</time>
      </trkpt>
      <trkpt lat="46.16003" lon="2.50474">
        <ele>457</ele>
        <time>2015-04-18T15:20:01Z</time>
      </trkpt>
      <trkpt lat="46.16006" lon="2.50471">
        <ele>457</ele>
        <time>2015-04-18T15:20:03Z</time>
      </trkpt>
      <trkpt lat="46.16008" lon="2.50468">
        <ele>457</ele>
        <time>2015-04-18T15:20:05Z</time>
      </trkpt>
      <trkpt lat="46.16009" lon="2.50465">
        <ele>457</ele>
        <time>2015-04-18T15:20:07Z</time>
      </trkpt>
      <trkpt lat="46.16011" lon="2.50462">
        <ele>457</ele>
        <time>2015-04-18T15:20:09Z</time>
      </trkpt>
      <trkpt lat="46.16013" lon="2.50459">
        <ele>457</ele>
        <time>2015-04-18T15:20:11Z</time>
      </trkpt>
      <trkpt lat="46.16016" lon="2.50457">
        <ele>457</ele>
        <time>2015-04-18T15:20:13Z</time>
      </trkpt>
      <trkpt lat="46.1602" lon="2.50452">
        <ele>457</ele>
        <time>2015-04-18T15:20:16Z</time>
      </trkpt>
      <trkpt lat="46.16023" lon="2.50448">
        <ele>456</ele>
        <time>2015-04-18T15:20:19Z</time>
      </trkpt>
      <trkpt lat="46.16025" lon="2.50446">
        <ele>456</ele>
        <time>2015-04-18T15:20:21Z</time>
      </trkpt>
      <trkpt lat="46.16028" lon="2.50445">
        <ele>456</ele>
        <time>2015-04-18T15:20:23Z</time>
      </trkpt>
      <trkpt lat="46.16031" lon="2.50442">
        <ele>456</ele>
        <time>2015-04-18T15:20:25Z</time>
      </trkpt>
      <trkpt lat="46.16034" lon="2.5044">
        <ele>456</ele>
        <time>2015-04-18T15:20:27Z</time>
      </trkpt>
      <trkpt lat="46.16036" lon="2.50437">
        <ele>456</ele>
        <time>2015-04-18T15:20:29Z</time>
      </trkpt>
      <trkpt lat="46.16038" lon="2.50435">
        <ele>456</ele>
        <time>2015-04-18T15:20:31Z</time>
      </trkpt>
      <trkpt lat="46.16041" lon="2.50432">
        <ele>456</ele>
        <time>2015-04-18T15:20:33Z</time>
      </trkpt>
      <trkpt lat="46.16043" lon="2.5043">
        <ele>456</ele>
        <time>2015-04-18T15:20:35Z</time>
      </trkpt>
      <trkpt lat="46.16046" lon="2.50428">
        <ele>456</ele>
        <time>2015-04-18T15:20:37Z</time>
      </trkpt>
      <trkpt lat="46.16049" lon="2.50427">
        <ele>456</ele>
        <time>2015-04-18T15:20:39Z</time>
      </trkpt>
      <trkpt lat="46.16053" lon="2.50429">
        <ele>456</ele>
        <time>2015-04-18T15:20:41Z</time>
      </trkpt>
      <trkpt lat="46.16055" lon="2.50432">
        <ele>456</ele>
        <time>2015-04-18T15:20:43Z</time>
      </trkpt>
      <trkpt lat="46.16057" lon="2.50436">
        <ele>456</ele>
        <time>2015-04-18T15:20:45Z</time>
      </trkpt>
      <trkpt lat="46.16059" lon="2.5044">
        <ele>456</ele>
        <time>2015-04-18T15:20:47Z</time>
      </trkpt>
      <trkpt lat="46.1606" lon="2.50444">
        <ele>456</ele>
        <time>2015-04-18T15:20:49Z</time>
      </trkpt>
      <trkpt lat="46.16061" lon="2.50448">
        <ele>456</ele>
        <time>2015-04-18T15:20:51Z</time>
      </trkpt>
      <trkpt lat="46.16063" lon="2.50451">
        <ele>456</ele>
        <time>2015-04-18T15:20:53Z</time>
      </trkpt>
      <trkpt lat="46.16064" lon="2.50456">
        <ele>456</ele>
        <time>2015-04-18T15:20:55Z</time>
      </trkpt>
      <trkpt lat="46.16065" lon="2.5046">
        <ele>456</ele>
        <time>2015-04-18T15:20:57Z</time>
      </trkpt>
      <trkpt lat="46.16067" lon="2.50464">
        <ele>456</ele>
        <time>2015-04-18T15:20:59Z</time>
      </trkpt>
      <trkpt lat="46.16068" lon="2.50468">
        <ele>456</ele>
        <time>2015-04-18T15:21:01Z</time>
      </trkpt>
      <trkpt lat="46.16069" lon="2.50472">
        <ele>456</ele>
        <time>2015-04-18T15:21:03Z</time>
      </trkpt>
      <trkpt lat="46.16071" lon="2.50476">
        <ele>456</ele>
        <time>2015-04-18T15:21:05Z</time>
      </trkpt>
      <trkpt lat="46.16072" lon="2.50481">
        <ele>456</ele>
        <time>2015-04-18T15:21:07Z</time>
      </trkpt>
      <trkpt lat="46.16074" lon="2.50485">
        <ele>456</ele>
        <time>2015-04-18T15:21:09Z</time>
      </trkpt>
      <trkpt lat="46.16075" lon="2.50489">
        <ele>456</ele>
        <time>2015-04-18T15:21:11Z</time>
      </trkpt>
      <trkpt lat="46.16077" lon="2.50493">
        <ele>456</ele>
        <time>2015-04-18T15:21:13Z</time>
      </trkpt>
      <trkpt lat="46.16078" lon="2.50497">
        <ele>456</ele>
        <time>2015-04-18T15:21:15Z</time>
      </trkpt>
      <trkpt lat="46.16079" lon="2.50501">
        <ele>456</ele>
        <time>2015-04-18T15:21:17Z</time>
      </trkpt>
      <trkpt lat="46.16081" lon="2.50505">
        <ele>456</ele>
        <time>2015-04-18T15:21:19Z</time>
      </trkpt>
      <trkpt lat="46.16082" lon="2.50509">
        <ele>456</ele>
        <time>2015-04-18T15:21:21Z</time>
      </trkpt>
      <trkpt lat="46.16084" lon="2.50514">
        <ele>456</ele>
        <time>2015-04-18T15:21:23Z</time>
      </trkpt>
      <trkpt lat="46.16085" lon="2.50518">
        <ele>456</ele>
        <time>2015-04-18T15:21:25Z</time>
      </trkpt>
      <trkpt lat="46.16087" lon="2.50522">
        <ele>456</ele>
        <time>2015-04-18T15:21:27Z</time>
      </trkpt>
      <trkpt lat="46.16088" lon="2.50526">
        <ele>456</ele>
        <time>2015-04-18T15:21:29Z</time>
      </trkpt>
      <trkpt lat="46.16089" lon="2.5053">
        <ele>456</ele>
        <time>2015-04-18T15:21:31Z</time>
      </trkpt>
      <trkpt lat="46.1609" lon="2.50534">
        <ele>456</ele>
        <time>2015-04-18T15:21:33Z</time>
      </trkpt>
      <trkpt lat="46.16092" lon="2.50538">
        <ele>456</ele>
        <time>2015-04-18T15:21:35Z</time>
      </trkpt>
      <trkpt lat="46.16093" lon="2.50542">
        <ele>456</ele>
        <time>2015-04-18T15:21:37Z</time>
      </trkpt>
      <trkpt lat="46.16095" lon="2.50546">
        <ele>456</ele>
        <time>2015-04-18T15:21:39Z</time>
      </trkpt>
      <trkpt lat="46.16096" lon="2.5055">
        <ele>456</ele>
        <time>2015-04-18T15:21:41Z</time>
      </trkpt>
      <trkpt lat="46.16098" lon="2.50553">
        <ele>456</ele>
        <time>2015-04-18T15:21:43Z</time>
      </trkpt>
      <trkpt lat="46.161" lon="2.50557">
        <ele>456</ele>
        <time>2015-04-18T15:21:45Z</time>
      </trkpt>
      <trkpt lat="46.16101" lon="2.50561">
        <ele>456</ele>
        <time>2015-04-18T15:21:47Z</time>
      </trkpt>
      <trkpt lat="46.16103" lon="2.50566">
        <ele>456</ele>
        <time>2015-04-18T15:21:49Z</time>
      </trkpt>
      <trkpt lat="46.16104" lon="2.5057">
        <ele>456</ele>
        <time>2015-04-18T15:21:51Z</time>
      </trkpt>
      <trkpt lat="46.16105" lon="2.50573">
        <ele>456</ele>
        <time>2015-04-18T15:21:53Z</time>
      </trkpt>
      <trkpt lat="46.16107" lon="2.50577">
        <ele>456</ele>
        <time>2015-04-18T15:21:55Z</time>
      </trkpt>
      <trkpt lat="46.16108" lon="2.50582">
        <ele>456</ele>
        <time>2015-04-18T15:21:57Z</time>
      </trkpt>
      <trkpt lat="46.16109" lon="2.50586">
        <ele>456</ele>
        <time>2015-04-18T15:21:59Z</time>
      </trkpt>
      <trkpt lat="46.16111" lon="2.5059">
        <ele>456</ele>
        <time>2015-04-18T15:22:01Z</time>
      </trkpt>
      <trkpt lat="46.16112" lon="2.50594">
        <ele>456</ele>
        <time>2015-04-18T15:22:03Z</time>
      </trkpt>
      <trkpt lat="46.16113" lon="2.50598">
        <ele>456</ele>
        <time>2015-04-18T15:22:05Z</time>
      </trkpt>
      <trkpt lat="46.16115" lon="2.50602">
        <ele>456</ele>
        <time>2015-04-18T15:22:07Z</time>
      </trkpt>
      <trkpt lat="46.16116" lon="2.50606">
        <ele>456</ele>
        <time>2015-04-18T15:22:09Z</time>
      </trkpt>
      <trkpt lat="46.16117" lon="2.50611">
        <ele>456</ele>
        <time>2015-04-18T15:22:11Z</time>
      </trkpt>
      <trkpt lat="46.16119" lon="2.50615">
        <ele>456</ele>
        <time>2015-04-18T15:22:13Z</time>
      </trkpt>
      <trkpt lat="46.1612" lon="2.50619">
        <ele>456</ele>
        <time>2015-04-18T15:22:15Z</time>
      </trkpt>
      <trkpt lat="46.16121" lon="2.50623">
        <ele>456</ele>
        <time>2015-04-18T15:22:17Z</time>
      </trkpt>
      <trkpt lat="46.16122" lon="2.50627">
        <ele>456</ele>
        <time>2015-04-18T15:22:19Z</time>
      </trkpt>
      <trkpt lat="46.16123" lon="2.50631">
        <ele>456</ele>
        <time>2015-04-18T15:22:21Z</time>
      </trkpt>
      <trkpt lat="46.16125" lon="2.50635">
        <ele>456</ele>
        <time>2015-04-18T15:22:23Z</time>
      </trkpt>
      <trkpt lat="46.16126" lon="2.50639">
        <ele>456</ele>
        <time>2015-04-18T15:22:25Z</time>
      </trkpt>
      <trkpt lat="46.16127" lon="2.50643">
        <ele>456</ele>
        <time>2015-04-18T15:22:27Z</time>
      </trkpt>
      <trkpt lat="46.16129" lon="2.50647">
        <ele>456</ele>
        <time>2015-04-18T15:22:29Z</time>
      </trkpt>
      <trkpt lat="46.1613" lon="2.50651">
        <ele>456</ele>
        <time>2015-04-18T15:22:31Z</time>
      </trkpt>
      <trkpt lat="46.16131" lon="2.50655">
        <ele>456</ele>
        <time>2015-04-18T15:22:33Z</time>
      </trkpt>
      <trkpt lat="46.16132" lon="2.50659">
        <ele>456</ele>
        <time>2015-04-18T15:22:35Z</time>
      </trkpt>
      <trkpt lat="46.16133" lon="2.50663">
        <ele>456</ele>
        <time>2015-04-18T15:22:37Z</time>
      </trkpt>
      <trkpt lat="46.16135" lon="2.50667">
        <ele>456</ele>
        <time>2015-04-18T15:22:39Z</time>
      </trkpt>
      <trkpt lat="46.16136" lon="2.50671">
        <ele>456</ele>
        <time>2015-04-18T15:22:41Z</time>
      </trkpt>
      <trkpt lat="46.16137" lon="2.50675">
        <ele>456</ele>
        <time>2015-04-18T15:22:43Z</time>
      </trkpt>
      <trkpt lat="46.16138" lon="2.50679">
        <ele>456</ele>
        <time>2015-04-18T15:22:45Z</time>
      </trkpt>
      <trkpt lat="46.1614" lon="2.50683">
        <ele>456</ele>
        <time>2015-04-18T15:22:47Z</time>
      </trkpt>
      <trkpt lat="46.16141" lon="2.50687">
        <ele>456</ele>
        <time>2015-04-18T15:22:49Z</time>
      </trkpt>
      <trkpt lat="46.16142" lon="2.50691">
        <ele>456</ele>
        <time>2015-04-18T15:22:51Z</time>
      </trkpt>
      <trkpt lat="46.16143" lon="2.50694">
        <ele>456</ele>
        <time>2015-04-18T15:22:53Z</time>
      </trkpt>
      <trkpt lat="46.16144" lon="2.50698">
        <ele>456</ele>
        <time>2015-04-18T15:22:55Z</time>
      </trkpt>
      <trkpt lat="46.16145" lon="2.50703">
        <ele>456</ele>
        <time>2015-04-18T15:22:57Z</time>
      </trkpt>
      <trkpt lat="46.16147" lon="2.50706">
        <ele>456</ele>
        <time>2015-04-18T15:22:59Z</time>
      </trkpt>
      <trkpt lat="46.16148" lon="2.50711">
        <ele>456</ele>
        <time>2015-04-18T15:23:01Z</time>
      </trkpt>
      <trkpt lat="46.16149" lon="2.50715">
        <ele>456</ele>
        <time>2015-04-18T15:23:03Z</time>
      </trkpt>
      <trkpt lat="46.16151" lon="2.50719">
        <ele>456</ele>
        <time>2015-04-18T15:23:05Z</time>
      </trkpt>
      <trkpt lat="46.16152" lon="2.50723">
        <ele>456</ele>
        <time>2015-04-18T15:23:07Z</time>
      </trkpt>
      <trkpt lat="46.16153" lon="2.50727">
        <ele>456</ele>
        <time>2015-04-18T15:23:09Z</time>
      </trkpt>
      <trkpt lat="46.16154" lon="2.50731">
        <ele>456</ele>
        <time>2015-04-18T15:23:11Z</time>
      </trkpt>
      <trkpt lat="46.16155" lon="2.50735">
        <ele>456</ele>
        <time>2015-04-18T15:23:13Z</time>
      </trkpt>
      <trkpt lat="46.16156" lon="2.50739">
        <ele>456</ele>
        <time>2015-04-18T15:23:15Z</time>
      </trkpt>
      <trkpt lat="46.16158" lon="2.50743">
        <ele>456</ele>
        <time>2015-04-18T15:23:17Z</time>
      </trkpt>
      <trkpt lat="46.16159" lon="2.50747">
        <ele>456</ele>
        <time>2015-04-18T15:23:19Z</time>
      </trkpt>
      <trkpt lat="46.16161" lon="2.5075">
        <ele>456</ele>
        <time>2015-04-18T15:23:21Z</time>
      </trkpt>
      <trkpt lat="46.16162" lon="2.50754">
        <ele>456</ele>
        <time>2015-04-18T15:23:23Z</time>
      </trkpt>
      <trkpt lat="46.16165" lon="2.50757">
        <ele>456</ele>
        <time>2015-04-18T15:23:25Z</time>
      </trkpt>
      <trkpt lat="46.16167" lon="2.50757">
        <ele>456</ele>
        <time>2015-04-18T15:23:27Z</time>
      </trkpt>
      <trkpt lat="46.1617" lon="2.50755">
        <ele>456</ele>
        <time>2015-04-18T15:23:29Z</time>
      </trkpt>
      <trkpt lat="46.16172" lon="2.50753">
        <ele>456</ele>
        <time>2015-04-18T15:23:31Z</time>
      </trkpt>
      <trkpt lat="46.16175" lon="2.50751">
        <ele>456</ele>
        <time>2015-04-18T15:23:33Z</time>
      </trkpt>
      <trkpt lat="46.16177" lon="2.50748">
        <ele>456</ele>
        <time>2015-04-18T15:23:35Z</time>
      </trkpt>
      <trkpt lat="46.1618" lon="2.50746">
        <ele>456</ele>
        <time>2015-04-18T15:23:37Z</time>
      </trkpt>
      <trkpt lat="46.16182" lon="2.50743">
        <ele>456</ele>
        <time>2015-04-18T15:23:39Z</time>
      </trkpt>
      <trkpt lat="46.16185" lon="2.50741">
        <ele>456</ele>
        <time>2015-04-18T15:23:41Z</time>
      </trkpt>
      <trkpt lat="46.16187" lon="2.50738">
        <ele>456</ele>
        <time>2015-04-18T15:23:43Z</time>
      </trkpt>
      <trkpt lat="46.1619" lon="2.50735">
        <ele>456</ele>
        <time>2015-04-18T15:23:45Z</time>
      </trkpt>
      <trkpt lat="46.16193" lon="2.50733">
        <ele>456</ele>
        <time>2015-04-18T15:23:47Z</time>
      </trkpt>
      <trkpt lat="46.16195" lon="2.5073">
        <ele>455</ele>
        <time>2015-04-18T15:23:49Z</time>
      </trkpt>
      <trkpt lat="46.16198" lon="2.50728">
        <ele>455</ele>
        <time>2015-04-18T15:23:51Z</time>
      </trkpt>
      <trkpt lat="46.16201" lon="2.50726">
        <ele>455</ele>
        <time>2015-04-18T15:23:53Z</time>
      </trkpt>
      <trkpt lat="46.16203" lon="2.50723">
        <ele>455</ele>
        <time>2015-04-18T15:23:55Z</time>
      </trkpt>
      <trkpt lat="46.16206" lon="2.50719">
        <ele>455</ele>
        <time>2015-04-18T15:23:58Z</time>
      </trkpt>
      <trkpt lat="46.16209" lon="2.50716">
        <ele>455</ele>
        <time>2015-04-18T15:24:00Z</time>
      </trkpt>
      <trkpt lat="46.16212" lon="2.50713">
        <ele>455</ele>
        <time>2015-04-18T15:24:02Z</time>
      </trkpt>
      <trkpt lat="46.16214" lon="2.50711">
        <ele>455</ele>
        <time>2015-04-18T15:24:04Z</time>
      </trkpt>
      <trkpt lat="46.16217" lon="2.50708">
        <ele>455</ele>
        <time>2015-04-18T15:24:06Z</time>
      </trkpt>
      <trkpt lat="46.16219" lon="2.50705">
        <ele>455</ele>
        <time>2015-04-18T15:24:08Z</time>
      </trkpt>
      <trkpt lat="46.16221" lon="2.50703">
        <ele>455</ele>
        <time>2015-04-18T15:24:10Z</time>
      </trkpt>
      <trkpt lat="46.16224" lon="2.507">
        <ele>455</ele>
        <time>2015-04-18T15:24:12Z</time>
      </trkpt>
      <trkpt lat="46.16226" lon="2.50698">
        <ele>455</ele>
        <time>2015-04-18T15:24:14Z</time>
      </trkpt>
      <trkpt lat="46.16229" lon="2.50695">
        <ele>455</ele>
        <time>2015-04-18T15:24:16Z</time>
      </trkpt>
      <trkpt lat="46.16231" lon="2.50693">
        <ele>455</ele>
        <time>2015-04-18T15:24:18Z</time>
      </trkpt>
      <trkpt lat="46.16234" lon="2.5069">
        <ele>455</ele>
        <time>2015-04-18T15:24:20Z</time>
      </trkpt>
      <trkpt lat="46.16236" lon="2.50688">
        <ele>455</ele>
        <time>2015-04-18T15:24:22Z</time>
      </trkpt>
      <trkpt lat="46.16239" lon="2.50686">
        <ele>455</ele>
        <time>2015-04-18T15:24:24Z</time>
      </trkpt>
      <trkpt lat="46.16242" lon="2.50683">
        <ele>455</ele>
        <time>2015-04-18T15:24:26Z</time>
      </trkpt>
      <trkpt lat="46.16244" lon="2.5068">
        <ele>455</ele>
        <time>2015-04-18T15:24:28Z</time>
      </trkpt>
      <trkpt lat="46.16247" lon="2.50678">
        <ele>455</ele>
        <time>2015-04-18T15:24:30Z</time>
      </trkpt>
      <trkpt lat="46.16249" lon="2.50675">
        <ele>455</ele>
        <time>2015-04-18T15:24:32Z</time>
      </trkpt>
      <trkpt lat="46.16251" lon="2.50672">
        <ele>455</ele>
        <time>2015-04-18T15:24:34Z</time>
      </trkpt>
      <trkpt lat="46.16254" lon="2.5067">
        <ele>455</ele>
        <time>2015-04-18T15:24:36Z</time>
      </trkpt>
      <trkpt lat="46.16256" lon="2.50668">
        <ele>455</ele>
        <time>2015-04-18T15:24:38Z</time>
      </trkpt>
      <trkpt lat="46.16258" lon="2.50665">
        <ele>455</ele>
        <time>2015-04-18T15:24:40Z</time>
      </trkpt>
      <trkpt lat="46.16262" lon="2.50661">
        <ele>455</ele>
        <time>2015-04-18T15:24:43Z</time>
      </trkpt>
      <trkpt lat="46.16265" lon="2.50658">
        <ele>455</ele>
        <time>2015-04-18T15:24:45Z</time>
      </trkpt>
      <trkpt lat="46.16268" lon="2.50656">
        <ele>455</ele>
        <time>2015-04-18T15:24:47Z</time>
      </trkpt>
      <trkpt lat="46.1627" lon="2.50653">
        <ele>455</ele>
        <time>2015-04-18T15:24:49Z</time>
      </trkpt>
      <trkpt lat="46.16273" lon="2.50651">
        <ele>455</ele>
        <time>2015-04-18T15:24:51Z</time>
      </trkpt>
      <trkpt lat="46.16275" lon="2.50648">
        <ele>455</ele>
        <time>2015-04-18T15:24:53Z</time>
      </trkpt>
      <trkpt lat="46.16278" lon="2.50645">
        <ele>455</ele>
        <time>2015-04-18T15:24:55Z</time>
      </trkpt>
      <trkpt lat="46.1628" lon="2.50643">
        <ele>455</ele>
        <time>2015-04-18T15:24:57Z</time>
      </trkpt>
      <trkpt lat="46.16283" lon="2.5064">
        <ele>455</ele>
        <time>2015-04-18T15:24:59Z</time>
      </trkpt>
      <trkpt lat="46.16285" lon="2.50637">
        <ele>455</ele>
        <time>2015-04-18T15:25:01Z</time>
      </trkpt>
      <trkpt lat="46.16288" lon="2.50635">
        <ele>455</ele>
        <time>2015-04-18T15:25:03Z</time>
      </trkpt>
      <trkpt lat="46.16291" lon="2.50631">
        <ele>455</ele>
        <time>2015-04-18T15:25:06Z</time>
      </trkpt>
      <trkpt lat="46.16293" lon="2.50628">
        <ele>455</ele>
        <time>2015-04-18T15:25:08Z</time>
      </trkpt>
      <trkpt lat="46.16298" lon="2.50625">
        <ele>455</ele>
        <time>2015-04-18T15:25:11Z</time>
      </trkpt>
      <trkpt lat="46.163" lon="2.50623">
        <ele>455</ele>
        <time>2015-04-18T15:25:13Z</time>
      </trkpt>
      <trkpt lat="46.16304" lon="2.50619">
        <ele>455</ele>
        <time>2015-04-18T15:25:16Z</time>
      </trkpt>
      <trkpt lat="46.16307" lon="2.50615">
        <ele>455</ele>
        <time>2015-04-18T15:25:19Z</time>
      </trkpt>
      <trkpt lat="46.1631" lon="2.50612">
        <ele>455</ele>
        <time>2015-04-18T15:25:21Z</time>
      </trkpt>
      <trkpt lat="46.16313" lon="2.5061">
        <ele>455</ele>
        <time>2015-04-18T15:25:23Z</time>
      </trkpt>
      <trkpt lat="46.16315" lon="2.50608">
        <ele>455</ele>
        <time>2015-04-18T15:25:25Z</time>
      </trkpt>
      <trkpt lat="46.16318" lon="2.50606">
        <ele>455</ele>
        <time>2015-04-18T15:25:27Z</time>
      </trkpt>
      <trkpt lat="46.1632" lon="2.50604">
        <ele>455</ele>
        <time>2015-04-18T15:25:29Z</time>
      </trkpt>
      <trkpt lat="46.16324" lon="2.506">
        <ele>455</ele>
        <time>2015-04-18T15:25:32Z</time>
      </trkpt>
      <trkpt lat="46.16328" lon="2.50596">
        <ele>455</ele>
        <time>2015-04-18T15:25:35Z</time>
      </trkpt>
      <trkpt lat="46.16331" lon="2.50593">
        <ele>455</ele>
        <time>2015-04-18T15:25:37Z</time>
      </trkpt>
      <trkpt lat="46.16333" lon="2.50591">
        <ele>455</ele>
        <time>2015-04-18T15:25:39Z</time>
      </trkpt>
      <trkpt lat="46.16336" lon="2.50588">
        <ele>455</ele>
        <time>2015-04-18T15:25:41Z</time>
      </trkpt>
      <trkpt lat="46.16341" lon="2.50583">
        <ele>455</ele>
        <time>2015-04-18T15:25:45Z</time>
      </trkpt>
      <trkpt lat="46.16345" lon="2.5058">
        <ele>455</ele>
        <time>2015-04-18T15:25:48Z</time>
      </trkpt>
      <trkpt lat="46.16347" lon="2.50577">
        <ele>455</ele>
        <time>2015-04-18T15:25:50Z</time>
      </trkpt>
      <trkpt lat="46.1635" lon="2.50574">
        <ele>455</ele>
        <time>2015-04-18T15:25:52Z</time>
      </trkpt>
      <trkpt lat="46.16353" lon="2.5057">
        <ele>455</ele>
        <time>2015-04-18T15:25:55Z</time>
      </trkpt>
      <trkpt lat="46.16356" lon="2.50566">
        <ele>455</ele>
        <time>2015-04-18T15:25:58Z</time>
      </trkpt>
      <trkpt lat="46.16359" lon="2.50564">
        <ele>455</ele>
        <time>2015-04-18T15:26:00Z</time>
      </trkpt>
      <trkpt lat="46.16361" lon="2.50562">
        <ele>455</ele>
        <time>2015-04-18T15:26:02Z</time>
      </trkpt>
      <trkpt lat="46.16364" lon="2.50559">
        <ele>455</ele>
        <time>2015-04-18T15:26:04Z</time>
      </trkpt>
      <trkpt lat="46.16366" lon="2.50556">
        <ele>455</ele>
        <time>2015-04-18T15:26:06Z</time>
      </trkpt>
      <trkpt lat="46.1637" lon="2.50552">
        <ele>455</ele>
        <time>2015-04-18T15:26:09Z</time>
      </trkpt>
      <trkpt lat="46.16373" lon="2.50549">
        <ele>455</ele>
        <time>2015-04-18T15:26:12Z</time>
      </trkpt>
      <trkpt lat="46.16376" lon="2.50545">
        <ele>455</ele>
        <time>2015-04-18T15:26:15Z</time>
      </trkpt>
      <trkpt lat="46.16379" lon="2.50543">
        <ele>455</ele>
        <time>2015-04-18T15:26:17Z</time>
      </trkpt>
      <trkpt lat="46.16382" lon="2.50539">
        <ele>455</ele>
        <time>2015-04-18T15:26:20Z</time>
      </trkpt>
      <trkpt lat="46.16385" lon="2.50536">
        <ele>455</ele>
        <time>2015-04-18T15:26:22Z</time>
      </trkpt>
      <trkpt lat="46.1639" lon="2.50531">
        <ele>455</ele>
        <time>2015-04-18T15:26:26Z</time>
      </trkpt>
      <trkpt lat="46.16392" lon="2.50529">
        <ele>455</ele>
        <time>2015-04-18T15:26:28Z</time>
      </trkpt>
      <trkpt lat="46.16395" lon="2.50527">
        <ele>455</ele>
        <time>2015-04-18T15:26:30Z</time>
      </trkpt>
      <trkpt lat="46.16397" lon="2.50524">
        <ele>455</ele>
        <time>2015-04-18T15:26:32Z</time>
      </trkpt>
      <trkpt lat="46.16401" lon="2.5052">
        <ele>455</ele>
        <time>2015-04-18T15:26:35Z</time>
      </trkpt>
      <trkpt lat="46.16404" lon="2.50518">
        <ele>455</ele>
        <time>2015-04-18T15:26:37Z</time>
      </trkpt>
      <trkpt lat="46.16408" lon="2.50512">
        <ele>455</ele>
        <time>2015-04-18T15:26:41Z</time>
      </trkpt>
      <trkpt lat="46.16411" lon="2.5051">
        <ele>455</ele>
        <time>2015-04-18T15:26:43Z</time>
      </trkpt>
      <trkpt lat="46.16413" lon="2.50507">
        <ele>455</ele>
        <time>2015-04-18T15:26:45Z</time>
      </trkpt>
      <trkpt lat="46.16416" lon="2.50504">
        <ele>455</ele>
        <time>2015-04-18T15:26:47Z</time>
      </trkpt>
      <trkpt lat="46.1642" lon="2.50501">
        <ele>455</ele>
        <time>2015-04-18T15:26:50Z</time>
      </trkpt>
      <trkpt lat="46.16422" lon="2.50498">
        <ele>455</ele>
        <time>2015-04-18T15:26:52Z</time>
      </trkpt>
      <trkpt lat="46.16427" lon="2.50495">
        <ele>455</ele>
        <time>2015-04-18T15:26:55Z</time>
      </trkpt>
      <trkpt lat="46.1643" lon="2.50493">
        <ele>455</ele>
        <time>2015-04-18T15:26:57Z</time>
      </trkpt>
      <trkpt lat="46.16434" lon="2.50493">
        <ele>455</ele>
        <time>2015-04-18T15:27:00Z</time>
      </trkpt>
      <trkpt lat="46.16436" lon="2.50494">
        <ele>455</ele>
        <time>2015-04-18T15:27:02Z</time>
      </trkpt>
      <trkpt lat="46.16439" lon="2.50499">
        <ele>454</ele>
        <time>2015-04-18T15:27:05Z</time>
      </trkpt>
      <trkpt lat="46.16441" lon="2.50503">
        <ele>454</ele>
        <time>2015-04-18T15:27:07Z</time>
      </trkpt>
      <trkpt lat="46.16445" lon="2.50508">
        <ele>454</ele>
        <time>2015-04-18T15:27:10Z</time>
      </trkpt>
      <trkpt lat="46.16447" lon="2.50512">
        <ele>454</ele>
        <time>2015-04-18T15:27:12Z</time>
      </trkpt>
      <trkpt lat="46.16449" lon="2.50517">
        <ele>454</ele>
        <time>2015-04-18T15:27:15Z</time>
      </trkpt>
      <trkpt lat="46.16451" lon="2.50521">
        <ele>454</ele>
        <time>2015-04-18T15:27:17Z</time>
      </trkpt>
      <trkpt lat="46.16454" lon="2.50526">
        <ele>453</ele>
        <time>2015-04-18T15:27:20Z</time>
      </trkpt>
      <trkpt lat="46.16457" lon="2.5053">
        <ele>453</ele>
        <time>2015-04-18T15:27:22Z</time>
      </trkpt>
      <trkpt lat="46.16459" lon="2.50536">
        <ele>453</ele>
        <time>2015-04-18T15:27:25Z</time>
      </trkpt>
      <trkpt lat="46.16461" lon="2.5054">
        <ele>453</ele>
        <time>2015-04-18T15:27:27Z</time>
      </trkpt>
      <trkpt lat="46.16464" lon="2.50546">
        <ele>453</ele>
        <time>2015-04-18T15:27:30Z</time>
      </trkpt>
      <trkpt lat="46.16465" lon="2.50549">
        <ele>453</ele>
        <time>2015-04-18T15:27:32Z</time>
      </trkpt>
      <trkpt lat="46.16467" lon="2.50554">
        <ele>453</ele>
        <time>2015-04-18T15:27:35Z</time>
      </trkpt>
      <trkpt lat="46.16468" lon="2.50558">
        <ele>453</ele>
        <time>2015-04-18T15:27:37Z</time>
      </trkpt>
      <trkpt lat="46.1647" lon="2.50564">
        <ele>452</ele>
        <time>2015-04-18T15:27:40Z</time>
      </trkpt>
      <trkpt lat="46.16471" lon="2.50567">
        <ele>452</ele>
        <time>2015-04-18T15:27:42Z</time>
      </trkpt>
      <trkpt lat="46.16473" lon="2.50573">
        <ele>452</ele>
        <time>2015-04-18T15:27:45Z</time>
      </trkpt>
      <trkpt lat="46.16474" lon="2.50578">
        <ele>452</ele>
        <time>2015-04-18T15:27:47Z</time>
      </trkpt>
      <trkpt lat="46.16476" lon="2.50584">
        <ele>452</ele>
        <time>2015-04-18T15:27:50Z</time>
      </trkpt>
      <trkpt lat="46.16477" lon="2.50588">
        <ele>452</ele>
        <time>2015-04-18T15:27:52Z</time>
      </trkpt>
      <trkpt lat="46.16479" lon="2.50593">
        <ele>452</ele>
        <time>2015-04-18T15:27:55Z</time>
      </trkpt>
      <trkpt lat="46.1648" lon="2.50598">
        <ele>452</ele>
        <time>2015-04-18T15:27:57Z</time>
      </trkpt>
      <trkpt lat="46.16482" lon="2.50604">
        <ele>452</ele>
        <time>2015-04-18T15:28:00Z</time>
      </trkpt>
      <trkpt lat="46.16483" lon="2.50608">
        <ele>452</ele>
        <time>2015-04-18T15:28:02Z</time>
      </trkpt>
      <trkpt lat="46.16485" lon="2.50614">
        <ele>452</ele>
        <time>2015-04-18T15:28:05Z</time>
      </trkpt>
      <trkpt lat="46.16486" lon="2.50618">
        <ele>452</ele>
        <time>2015-04-18T15:28:07Z</time>
      </trkpt>
      <trkpt lat="46.16488" lon="2.50625">
        <ele>452</ele>
        <time>2015-04-18T15:28:10Z</time>
      </trkpt>
      <trkpt lat="46.16489" lon="2.50629">
        <ele>452</ele>
        <time>2015-04-18T15:28:12Z</time>
      </trkpt>
      <trkpt lat="46.16491" lon="2.50634">
        <ele>452</ele>
        <time>2015-04-18T15:28:15Z</time>
      </trkpt>
      <trkpt lat="46.16493" lon="2.50639">
        <ele>452</ele>
        <time>2015-04-18T15:28:17Z</time>
      </trkpt>
      <trkpt lat="46.16495" lon="2.50645">
        <ele>452</ele>
        <time>2015-04-18T15:28:20Z</time>
      </trkpt>
      <trkpt lat="46.16496" lon="2.50648">
        <ele>452</ele>
        <time>2015-04-18T15:28:22Z</time>
      </trkpt>
      <trkpt lat="46.16498" lon="2.50654">
        <ele>452</ele>
        <time>2015-04-18T15:28:25Z</time>
      </trkpt>
      <trkpt lat="46.16499" lon="2.50659">
        <ele>452</ele>
        <time>2015-04-18T15:28:27Z</time>
      </trkpt>
      <trkpt lat="46.16501" lon="2.50664">
        <ele>452</ele>
        <time>2015-04-18T15:28:30Z</time>
      </trkpt>
      <trkpt lat="46.16503" lon="2.50668">
        <ele>452</ele>
        <time>2015-04-18T15:28:32Z</time>
      </trkpt>
      <trkpt lat="46.16505" lon="2.50675">
        <ele>452</ele>
        <time>2015-04-18T15:28:35Z</time>
      </trkpt>
      <trkpt lat="46.16507" lon="2.50679">
        <ele>452</ele>
        <time>2015-04-18T15:28:37Z</time>
      </trkpt>
      <trkpt lat="46.16509" lon="2.50684">
        <ele>452</ele>
        <time>2015-04-18T15:28:40Z</time>
      </trkpt>
      <trkpt lat="46.1651" lon="2.50689">
        <ele>452</ele>
        <time>2015-04-18T15:28:42Z</time>
      </trkpt>
      <trkpt lat="46.16512" lon="2.50695">
        <ele>452</ele>
        <time>2015-04-18T15:28:45Z</time>
      </trkpt>
      <trkpt lat="46.16514" lon="2.50701">
        <ele>452</ele>
        <time>2015-04-18T15:28:48Z</time>
      </trkpt>
      <trkpt lat="46.16516" lon="2.50708">
        <ele>452</ele>
        <time>2015-04-18T15:28:51Z</time>
      </trkpt>
      <trkpt lat="46.16518" lon="2.50711">
        <ele>452</ele>
        <time>2015-04-18T15:28:53Z</time>
      </trkpt>
      <trkpt lat="46.1652" lon="2.50717">
        <ele>452</ele>
        <time>2015-04-18T15:28:56Z</time>
      </trkpt>
      <trkpt lat="46.16521" lon="2.50722">
        <ele>452</ele>
        <time>2015-04-18T15:28:58Z</time>
      </trkpt>
      <trkpt lat="46.16522" lon="2.50726">
        <ele>452</ele>
        <time>2015-04-18T15:29:00Z</time>
      </trkpt>
      <trkpt lat="46.16524" lon="2.5073">
        <ele>452</ele>
        <time>2015-04-18T15:29:02Z</time>
      </trkpt>
      <trkpt lat="46.16525" lon="2.50734">
        <ele>452</ele>
        <time>2015-04-18T15:29:04Z</time>
      </trkpt>
      <trkpt lat="46.16527" lon="2.50741">
        <ele>452</ele>
        <time>2015-04-18T15:29:07Z</time>
      </trkpt>
      <trkpt lat="46.16529" lon="2.50745">
        <ele>452</ele>
        <time>2015-04-18T15:29:09Z</time>
      </trkpt>
      <trkpt lat="46.16531" lon="2.50751">
        <ele>452</ele>
        <time>2015-04-18T15:29:12Z</time>
      </trkpt>
      <trkpt lat="46.16532" lon="2.50754">
        <ele>452</ele>
        <time>2015-04-18T15:29:14Z</time>
      </trkpt>
      <trkpt lat="46.16534" lon="2.50761">
        <ele>452</ele>
        <time>2015-04-18T15:29:17Z</time>
      </trkpt>
      <trkpt lat="46.16535" lon="2.50766">
        <ele>452</ele>
        <time>2015-04-18T15:29:19Z</time>
      </trkpt>
      <trkpt lat="46.16536" lon="2.50773">
        <ele>452</ele>
        <time>2015-04-18T15:29:22Z</time>
      </trkpt>
      <trkpt lat="46.16536" lon="2.50778">
        <ele>452</ele>
        <time>2015-04-18T15:29:24Z</time>
      </trkpt>
      <trkpt lat="46.16536" lon="2.50784">
        <ele>452</ele>
        <time>2015-04-18T15:29:27Z</time>
      </trkpt>
      <trkpt lat="46.16536" lon="2.50789">
        <ele>452</ele>
        <time>2015-04-18T15:29:29Z</time>
      </trkpt>
      <trkpt lat="46.16534" lon="2.50796">
        <ele>452</ele>
        <time>2015-04-18T15:29:32Z</time>
      </trkpt>
      <trkpt lat="46.16532" lon="2.50802">
        <ele>452</ele>
        <time>2015-04-18T15:29:35Z</time>
      </trkpt>
      <trkpt lat="46.16529" lon="2.50809">
        <ele>452</ele>
        <time>2015-04-18T15:29:38Z</time>
      </trkpt>
      <trkpt lat="46.16527" lon="2.50813">
        <ele>452</ele>
        <time>2015-04-18T15:29:40Z</time>
      </trkpt>
      <trkpt lat="46.16524" lon="2.50819">
        <ele>452</ele>
        <time>2015-04-18T15:29:43Z</time>
      </trkpt>
      <trkpt lat="46.16522" lon="2.50823">
        <ele>452</ele>
        <time>2015-04-18T15:29:45Z</time>
      </trkpt>
      <trkpt lat="46.16519" lon="2.50829">
        <ele>452</ele>
        <time>2015-04-18T15:29:48Z</time>
      </trkpt>
      <trkpt lat="46.16517" lon="2.50833">
        <ele>452</ele>
        <time>2015-04-18T15:29:50Z</time>
      </trkpt>
      <trkpt lat="46.16514" lon="2.50838">
        <ele>452</ele>
        <time>2015-04-18T15:29:53Z</time>
      </trkpt>
      <trkpt lat="46.16512" lon="2.50842">
        <ele>452</ele>
        <time>2015-04-18T15:29:55Z</time>
      </trkpt>
      <trkpt lat="46.16509" lon="2.50848">
        <ele>452</ele>
        <time>2015-04-18T15:29:58Z</time>
      </trkpt>
      <trkpt lat="46.16508" lon="2.50851">
        <ele>452</ele>
        <time>2015-04-18T15:30:00Z</time>
      </trkpt>
      <trkpt lat="46.16505" lon="2.50857">
        <ele>452</ele>
        <time>2015-04-18T15:30:03Z</time>
      </trkpt>
      <trkpt lat="46.16503" lon="2.50861">
        <ele>452</ele>
        <time>2015-04-18T15:30:05Z</time>
      </trkpt>
      <trkpt lat="46.165" lon="2.50867">
        <ele>452</ele>
        <time>2015-04-18T15:30:08Z</time>
      </trkpt>
      <trkpt lat="46.16498" lon="2.50871">
        <ele>452</ele>
        <time>2015-04-18T15:30:10Z</time>
      </trkpt>
      <trkpt lat="46.16495" lon="2.50877">
        <ele>452</ele>
        <time>2015-04-18T15:30:13Z</time>
      </trkpt>
      <trkpt lat="46.16493" lon="2.50881">
        <ele>452</ele>
        <time>2015-04-18T15:30:15Z</time>
      </trkpt>
      <trkpt lat="46.16491" lon="2.50885">
        <ele>452</ele>
        <time>2015-04-18T15:30:17Z</time>
      </trkpt>
      <trkpt lat="46.1649" lon="2.50888">
        <ele>452</ele>
        <time>2015-04-18T15:30:19Z</time>
      </trkpt>
      <trkpt lat="46.16488" lon="2.50892">
        <ele>452</ele>
        <time>2015-04-18T15:30:21Z</time>
      </trkpt>
      <trkpt lat="46.16486" lon="2.50896">
        <ele>452</ele>
        <time>2015-04-18T15:30:23Z</time>
      </trkpt>
      <trkpt lat="46.16484" lon="2.50899">
        <ele>452</ele>
        <time>2015-04-18T15:30:25Z</time>
      </trkpt>
      <trkpt lat="46.16481" lon="2.50905">
        <ele>452</ele>
        <time>2015-04-18T15:30:28Z</time>
      </trkpt>
      <trkpt lat="46.16479" lon="2.50908">
        <ele>452</ele>
        <time>2015-04-18T15:30:30Z</time>
      </trkpt>
      <trkpt lat="46.16476" lon="2.50914">
        <ele>452</ele>
        <time>2015-04-18T15:30:33Z</time>
      </trkpt>
      <trkpt lat="46.16475" lon="2.50918">
        <ele>452</ele>
        <time>2015-04-18T15:30:35Z</time>
      </trkpt>
      <trkpt lat="46.16472" lon="2.50923">
        <ele>452</ele>
        <time>2015-04-18T15:30:38Z</time>
      </trkpt>
      <trkpt lat="46.1647" lon="2.50927">
        <ele>452</ele>
        <time>2015-04-18T15:30:40Z</time>
      </trkpt>
      <trkpt lat="46.16468" lon="2.5093">
        <ele>452</ele>
        <time>2015-04-18T15:30:42Z</time>
      </trkpt>
      <trkpt lat="46.16467" lon="2.50934">
        <ele>452</ele>
        <time>2015-04-18T15:30:44Z</time>
      </trkpt>
      <trkpt lat="46.16465" lon="2.50938">
        <ele>451</ele>
        <time>2015-04-18T15:30:46Z</time>
      </trkpt>
      <trkpt lat="46.16463" lon="2.50942">
        <ele>451</ele>
        <time>2015-04-18T15:30:48Z</time>
      </trkpt>
      <trkpt lat="46.16462" lon="2.50945">
        <ele>451</ele>
        <time>2015-04-18T15:30:50Z</time>
      </trkpt>
      <trkpt lat="46.16459" lon="2.50952">
        <ele>451</ele>
        <time>2015-04-18T15:30:53Z</time>
      </trkpt>
      <trkpt lat="46.16457" lon="2.50956">
        <ele>451</ele>
        <time>2015-04-18T15:30:55Z</time>
      </trkpt>
      <trkpt lat="46.16456" lon="2.5096">
        <ele>451</ele>
        <time>2015-04-18T15:30:57Z</time>
      </trkpt>
      <trkpt lat="46.16455" lon="2.50964">
        <ele>451</ele>
        <time>2015-04-18T15:30:59Z</time>
      </trkpt>
      <trkpt lat="46.16455" lon="2.50969">
        <ele>451</ele>
        <time>2015-04-18T15:31:01Z</time>
      </trkpt>
      <trkpt lat="46.16455" lon="2.50973">
        <ele>451</ele>
        <time>2015-04-18T15:31:03Z</time>
      </trkpt>
      <trkpt lat="46.16457" lon="2.50976">
        <ele>451</ele>
        <time>2015-04-18T15:31:05Z</time>
      </trkpt>
      <trkpt lat="46.1646" lon="2.50978">
        <ele>451</ele>
        <time>2015-04-18T15:31:07Z</time>
      </trkpt>
      <trkpt lat="46.16463" lon="2.5098">
        <ele>451</ele>
        <time>2015-04-18T15:31:09Z</time>
      </trkpt>
      <trkpt lat="46.16467" lon="2.50981">
        <ele>451</ele>
        <time>2015-04-18T15:31:11Z</time>
      </trkpt>
      <trkpt lat="46.1647" lon="2.50981">
        <ele>451</ele>
        <time>2015-04-18T15:31:13Z</time>
      </trkpt>
      <trkpt lat="46.16473" lon="2.50981">
        <ele>451</ele>
        <time>2015-04-18T15:31:15Z</time>
      </trkpt>
      <trkpt lat="46.16476" lon="2.50984">
        <ele>451</ele>
        <time>2015-04-18T15:31:18Z</time>
      </trkpt>
      <trkpt lat="46.16479" lon="2.50984">
        <ele>451</ele>
        <time>2015-04-18T15:31:20Z</time>
      </trkpt>
      <trkpt lat="46.16481" lon="2.50985">
        <ele>451</ele>
        <time>2015-04-18T15:31:22Z</time>
      </trkpt>
      <trkpt lat="46.16485" lon="2.50986">
        <ele>451</ele>
        <time>2015-04-18T15:31:25Z</time>
      </trkpt>
      <trkpt lat="46.16488" lon="2.50988">
        <ele>451</ele>
        <time>2015-04-18T15:31:27Z</time>
      </trkpt>
      <trkpt lat="46.16491" lon="2.50991">
        <ele>451</ele>
        <time>2015-04-18T15:31:29Z</time>
      </trkpt>
      <trkpt lat="46.16494" lon="2.50993">
        <ele>451</ele>
        <time>2015-04-18T15:31:31Z</time>
      </trkpt>
      <trkpt lat="46.16497" lon="2.50995">
        <ele>451</ele>
        <time>2015-04-18T15:31:33Z</time>
      </trkpt>
      <trkpt lat="46.16499" lon="2.50998">
        <ele>451</ele>
        <time>2015-04-18T15:31:35Z</time>
      </trkpt>
      <trkpt lat="46.16501" lon="2.51001">
        <ele>451</ele>
        <time>2015-04-18T15:31:37Z</time>
      </trkpt>
      <trkpt lat="46.16503" lon="2.51004">
        <ele>451</ele>
        <time>2015-04-18T15:31:39Z</time>
      </trkpt>
      <trkpt lat="46.16506" lon="2.51006">
        <ele>451</ele>
        <time>2015-04-18T15:31:41Z</time>
      </trkpt>
      <trkpt lat="46.16508" lon="2.51009">
        <ele>451</ele>
        <time>2015-04-18T15:31:43Z</time>
      </trkpt>
      <trkpt lat="46.1651" lon="2.51012">
        <ele>451</ele>
        <time>2015-04-18T15:31:45Z</time>
      </trkpt>
      <trkpt lat="46.16512" lon="2.51016">
        <ele>451</ele>
        <time>2015-04-18T15:31:47Z</time>
      </trkpt>
      <trkpt lat="46.16515" lon="2.51018">
        <ele>451</ele>
        <time>2015-04-18T15:31:49Z</time>
      </trkpt>
      <trkpt lat="46.16516" lon="2.51021">
        <ele>451</ele>
        <time>2015-04-18T15:31:51Z</time>
      </trkpt>
      <trkpt lat="46.1652" lon="2.51026">
        <ele>451</ele>
        <time>2015-04-18T15:31:54Z</time>
      </trkpt>
      <trkpt lat="46.16522" lon="2.51029">
        <ele>451</ele>
        <time>2015-04-18T15:31:56Z</time>
      </trkpt>
      <trkpt lat="46.16525" lon="2.51031">
        <ele>451</ele>
        <time>2015-04-18T15:31:58Z</time>
      </trkpt>
      <trkpt lat="46.16528" lon="2.51034">
        <ele>451</ele>
        <time>2015-04-18T15:32:00Z</time>
      </trkpt>
      <trkpt lat="46.16531" lon="2.51035">
        <ele>451</ele>
        <time>2015-04-18T15:32:02Z</time>
      </trkpt>
      <trkpt lat="46.16534" lon="2.51037">
        <ele>450</ele>
        <time>2015-04-18T15:32:04Z</time>
      </trkpt>
      <trkpt lat="46.16536" lon="2.51038">
        <ele>450</ele>
        <time>2015-04-18T15:32:06Z</time>
      </trkpt>
      <trkpt lat="46.1654" lon="2.51039">
        <ele>449</ele>
        <time>2015-04-18T15:32:08Z</time>
      </trkpt>
      <trkpt lat="46.16543" lon="2.51042">
        <ele>449</ele>
        <time>2015-04-18T15:32:10Z</time>
      </trkpt>
      <trkpt lat="46.16547" lon="2.51046">
        <ele>449</ele>
        <time>2015-04-18T15:32:13Z</time>
      </trkpt>
      <trkpt lat="46.16549" lon="2.51049">
        <ele>449</ele>
        <time>2015-04-18T15:32:15Z</time>
      </trkpt>
      <trkpt lat="46.16551" lon="2.51053">
        <ele>449</ele>
        <time>2015-04-18T15:32:17Z</time>
      </trkpt>
      <trkpt lat="46.16553" lon="2.51056">
        <ele>448</ele>
        <time>2015-04-18T15:32:19Z</time>
      </trkpt>
      <trkpt lat="46.16554" lon="2.5106">
        <ele>448</ele>
        <time>2015-04-18T15:32:21Z</time>
      </trkpt>
      <trkpt lat="46.16555" lon="2.51063">
        <ele>448</ele>
        <time>2015-04-18T15:32:23Z</time>
      </trkpt>
      <trkpt lat="46.16557" lon="2.51067">
        <ele>447</ele>
        <time>2015-04-18T15:32:25Z</time>
      </trkpt>
      <trkpt lat="46.16558" lon="2.51074">
        <ele>447</ele>
        <time>2015-04-18T15:32:28Z</time>
      </trkpt>
      <trkpt lat="46.16558" lon="2.51078">
        <ele>447</ele>
        <time>2015-04-18T15:32:30Z</time>
      </trkpt>
      <trkpt lat="46.16558" lon="2.51082">
        <ele>446</ele>
        <time>2015-04-18T15:32:32Z</time>
      </trkpt>
      <trkpt lat="46.16559" lon="2.51087">
        <ele>446</ele>
        <time>2015-04-18T15:32:34Z</time>
      </trkpt>
      <trkpt lat="46.16559" lon="2.51092">
        <ele>445</ele>
        <time>2015-04-18T15:32:36Z</time>
      </trkpt>
      <trkpt lat="46.1656" lon="2.51096">
        <ele>445</ele>
        <time>2015-04-18T15:32:38Z</time>
      </trkpt>
      <trkpt lat="46.16562" lon="2.51099">
        <ele>444</ele>
        <time>2015-04-18T15:32:40Z</time>
      </trkpt>
      <trkpt lat="46.16565" lon="2.51105">
        <ele>444</ele>
        <time>2015-04-18T15:32:43Z</time>
      </trkpt>
      <trkpt lat="46.16566" lon="2.51109">
        <ele>444</ele>
        <time>2015-04-18T15:32:45Z</time>
      </trkpt>
      <trkpt lat="46.16568" lon="2.51113">
        <ele>444</ele>
        <time>2015-04-18T15:32:47Z</time>
      </trkpt>
      <trkpt lat="46.1657" lon="2.51116">
        <ele>444</ele>
        <time>2015-04-18T15:32:49Z</time>
      </trkpt>
      <trkpt lat="46.16572" lon="2.5112">
        <ele>444</ele>
        <time>2015-04-18T15:32:51Z</time>
      </trkpt>
      <trkpt lat="46.16574" lon="2.51124">
        <ele>444</ele>
        <time>2015-04-18T15:32:53Z</time>
      </trkpt>
      <trkpt lat="46.16576" lon="2.51127">
        <ele>444</ele>
        <time>2015-04-18T15:32:55Z</time>
      </trkpt>
      <trkpt lat="46.16578" lon="2.51131">
        <ele>444</ele>
        <time>2015-04-18T15:32:57Z</time>
      </trkpt>
      <trkpt lat="46.1658" lon="2.51134">
        <ele>444</ele>
        <time>2015-04-18T15:32:59Z</time>
      </trkpt>
      <trkpt lat="46.16582" lon="2.51138">
        <ele>444</ele>
        <time>2015-04-18T15:33:01Z</time>
      </trkpt>
      <trkpt lat="46.16584" lon="2.51142">
        <ele>444</ele>
        <time>2015-04-18T15:33:03Z</time>
      </trkpt>
      <trkpt lat="46.16586" lon="2.51145">
        <ele>443</ele>
        <time>2015-04-18T15:33:05Z</time>
      </trkpt>
      <trkpt lat="46.16588" lon="2.51148">
        <ele>443</ele>
        <time>2015-04-18T15:33:07Z</time>
      </trkpt>
      <trkpt lat="46.1659" lon="2.51151">
        <ele>443</ele>
        <time>2015-04-18T15:33:09Z</time>
      </trkpt>
      <trkpt lat="46.16592" lon="2.51154">
        <ele>443</ele>
        <time>2015-04-18T15:33:11Z</time>
      </trkpt>
      <trkpt lat="46.16595" lon="2.51158">
        <ele>443</ele>
        <time>2015-04-18T15:33:13Z</time>
      </trkpt>
      <trkpt lat="46.16597" lon="2.51161">
        <ele>443</ele>
        <time>2015-04-18T15:33:15Z</time>
      </trkpt>
      <trkpt lat="46.16599" lon="2.51165">
        <ele>443</ele>
        <time>2015-04-18T15:33:17Z</time>
      </trkpt>
      <trkpt lat="46.16601" lon="2.51168">
        <ele>442</ele>
        <time>2015-04-18T15:33:19Z</time>
      </trkpt>
      <trkpt lat="46.16602" lon="2.51172">
        <ele>442</ele>
        <time>2015-04-18T15:33:21Z</time>
      </trkpt>
      <trkpt lat="46.16604" lon="2.51175">
        <ele>442</ele>
        <time>2015-04-18T15:33:23Z</time>
      </trkpt>
      <trkpt lat="46.16607" lon="2.51178">
        <ele>442</ele>
        <time>2015-04-18T15:33:25Z</time>
      </trkpt>
      <trkpt lat="46.16608" lon="2.51182">
        <ele>441</ele>
        <time>2015-04-18T15:33:27Z</time>
      </trkpt>
      <trkpt lat="46.1661" lon="2.51185">
        <ele>441</ele>
        <time>2015-04-18T15:33:29Z</time>
      </trkpt>
      <trkpt lat="46.16613" lon="2.51188">
        <ele>441</ele>
        <time>2015-04-18T15:33:31Z</time>
      </trkpt>
      <trkpt lat="46.16615" lon="2.51192">
        <ele>441</ele>
        <time>2015-04-18T15:33:33Z</time>
      </trkpt>
      <trkpt lat="46.16617" lon="2.51196">
        <ele>441</ele>
        <time>2015-04-18T15:33:35Z</time>
      </trkpt>
      <trkpt lat="46.16619" lon="2.51199">
        <ele>441</ele>
        <time>2015-04-18T15:33:37Z</time>
      </trkpt>
      <trkpt lat="46.16621" lon="2.51202">
        <ele>441</ele>
        <time>2015-04-18T15:33:39Z</time>
      </trkpt>
      <trkpt lat="46.16623" lon="2.51206">
        <ele>441</ele>
        <time>2015-04-18T15:33:41Z</time>
      </trkpt>
      <trkpt lat="46.16625" lon="2.51209">
        <ele>440</ele>
        <time>2015-04-18T15:33:43Z</time>
      </trkpt>
      <trkpt lat="46.16626" lon="2.51213">
        <ele>440</ele>
        <time>2015-04-18T15:33:45Z</time>
      </trkpt>
      <trkpt lat="46.16629" lon="2.51216">
        <ele>440</ele>
        <time>2015-04-18T15:33:47Z</time>
      </trkpt>
      <trkpt lat="46.16631" lon="2.51219">
        <ele>440</ele>
        <time>2015-04-18T15:33:49Z</time>
      </trkpt>
      <trkpt lat="46.16633" lon="2.51223">
        <ele>440</ele>
        <time>2015-04-18T15:33:51Z</time>
      </trkpt>
      <trkpt lat="46.16635" lon="2.51226">
        <ele>440</ele>
        <time>2015-04-18T15:33:53Z</time>
      </trkpt>
      <trkpt lat="46.16637" lon="2.5123">
        <ele>440</ele>
        <time>2015-04-18T15:33:55Z</time>
      </trkpt>
      <trkpt lat="46.16639" lon="2.51234">
        <ele>440</ele>
        <time>2015-04-18T15:33:57Z</time>
      </trkpt>
      <trkpt lat="46.1664" lon="2.51237">
        <ele>440</ele>
        <time>2015-04-18T15:33:59Z</time>
      </trkpt>
      <trkpt lat="46.16642" lon="2.5124">
        <ele>439</ele>
        <time>2015-04-18T15:34:01Z</time>
      </trkpt>
      <trkpt lat="46.16644" lon="2.51243">
        <ele>439</ele>
        <time>2015-04-18T15:34:03Z</time>
      </trkpt>
      <trkpt lat="46.16647" lon="2.51246">
        <ele>439</ele>
        <time>2015-04-18T15:34:05Z</time>
      </trkpt>
      <trkpt lat="46.1665" lon="2.51248">
        <ele>439</ele>
        <time>2015-04-18T15:34:07Z</time>
      </trkpt>
      <trkpt lat="46.16653" lon="2.5125">
        <ele>439</ele>
        <time>2015-04-18T15:34:09Z</time>
      </trkpt>
      <trkpt lat="46.16656" lon="2.51249">
        <ele>439</ele>
        <time>2015-04-18T15:34:11Z</time>
      </trkpt>
      <trkpt lat="46.16659" lon="2.51248">
        <ele>439</ele>
        <time>2015-04-18T15:34:13Z</time>
      </trkpt>
      <trkpt lat="46.16663" lon="2.51244">
        <ele>439</ele>
        <time>2015-04-18T15:34:16Z</time>
      </trkpt>
      <trkpt lat="46.16665" lon="2.5124">
        <ele>439</ele>
        <time>2015-04-18T15:34:18Z</time>
      </trkpt>
      <trkpt lat="46.16667" lon="2.51237">
        <ele>439</ele>
        <time>2015-04-18T15:34:20Z</time>
      </trkpt>
      <trkpt lat="46.16669" lon="2.51235">
        <ele>439</ele>
        <time>2015-04-18T15:34:22Z</time>
      </trkpt>
      <trkpt lat="46.16671" lon="2.51232">
        <ele>439</ele>
        <time>2015-04-18T15:34:24Z</time>
      </trkpt>
      <trkpt lat="46.16673" lon="2.51228">
        <ele>439</ele>
        <time>2015-04-18T15:34:26Z</time>
      </trkpt>
      <trkpt lat="46.16676" lon="2.51225">
        <ele>439</ele>
        <time>2015-04-18T15:34:28Z</time>
      </trkpt>
      <trkpt lat="46.16678" lon="2.51222">
        <ele>438</ele>
        <time>2015-04-18T15:34:30Z</time>
      </trkpt>
      <trkpt lat="46.1668" lon="2.51219">
        <ele>438</ele>
        <time>2015-04-18T15:34:32Z</time>
      </trkpt>
      <trkpt lat="46.16682" lon="2.51217">
        <ele>438</ele>
        <time>2015-04-18T15:34:34Z</time>
      </trkpt>
      <trkpt lat="46.16685" lon="2.51214">
        <ele>437</ele>
        <time>2015-04-18T15:34:36Z</time>
      </trkpt>
      <trkpt lat="46.16688" lon="2.5121">
        <ele>437</ele>
        <time>2015-04-18T15:34:39Z</time>
      </trkpt>
      <trkpt lat="46.16691" lon="2.51207">
        <ele>437</ele>
        <time>2015-04-18T15:34:41Z</time>
      </trkpt>
      <trkpt lat="46.16693" lon="2.51203">
        <ele>437</ele>
        <time>2015-04-18T15:34:43Z</time>
      </trkpt>
      <trkpt lat="46.16695" lon="2.51201">
        <ele>437</ele>
        <time>2015-04-18T15:34:45Z</time>
      </trkpt>
      <trkpt lat="46.16698" lon="2.51198">
        <ele>437</ele>
        <time>2015-04-18T15:34:47Z</time>
      </trkpt>
      <trkpt lat="46.16701" lon="2.51195">
        <ele>437</ele>
        <time>2015-04-18T15:34:49Z</time>
      </trkpt>
      <trkpt lat="46.16703" lon="2.51192">
        <ele>437</ele>
        <time>2015-04-18T15:34:51Z</time>
      </trkpt>
      <trkpt lat="46.16705" lon="2.51189">
        <ele>437</ele>
        <time>2015-04-18T15:34:53Z</time>
      </trkpt>
      <trkpt lat="46.16707" lon="2.51186">
        <ele>437</ele>
        <time>2015-04-18T15:34:55Z</time>
      </trkpt>
      <trkpt lat="46.16709" lon="2.51183">
        <ele>437</ele>
        <time>2015-04-18T15:34:57Z</time>
      </trkpt>
      <trkpt lat="46.16712" lon="2.51179">
        <ele>437</ele>
        <time>2015-04-18T15:35:00Z</time>
      </trkpt>
      <trkpt lat="46.16715" lon="2.51175">
        <ele>437</ele>
        <time>2015-04-18T15:35:03Z</time>
      </trkpt>
      <trkpt lat="46.16717" lon="2.51172">
        <ele>437</ele>
        <time>2015-04-18T15:35:05Z</time>
      </trkpt>
      <trkpt lat="46.16719" lon="2.51169">
        <ele>437</ele>
        <time>2015-04-18T15:35:07Z</time>
      </trkpt>
      <trkpt lat="46.16722" lon="2.51166">
        <ele>437</ele>
        <time>2015-04-18T15:35:09Z</time>
      </trkpt>
      <trkpt lat="46.16724" lon="2.51163">
        <ele>437</ele>
        <time>2015-04-18T15:35:11Z</time>
      </trkpt>
      <trkpt lat="46.16727" lon="2.5116">
        <ele>437</ele>
        <time>2015-04-18T15:35:13Z</time>
      </trkpt>
      <trkpt lat="46.16729" lon="2.51157">
        <ele>437</ele>
        <time>2015-04-18T15:35:15Z</time>
      </trkpt>
      <trkpt lat="46.16731" lon="2.51154">
        <ele>437</ele>
        <time>2015-04-18T15:35:17Z</time>
      </trkpt>
      <trkpt lat="46.16733" lon="2.51151">
        <ele>437</ele>
        <time>2015-04-18T15:35:19Z</time>
      </trkpt>
      <trkpt lat="46.16736" lon="2.51147">
        <ele>437</ele>
        <time>2015-04-18T15:35:22Z</time>
      </trkpt>
      <trkpt lat="46.16738" lon="2.51144">
        <ele>437</ele>
        <time>2015-04-18T15:35:24Z</time>
      </trkpt>
      <trkpt lat="46.1674" lon="2.51141">
        <ele>437</ele>
        <time>2015-04-18T15:35:26Z</time>
      </trkpt>
      <trkpt lat="46.16742" lon="2.51138">
        <ele>437</ele>
        <time>2015-04-18T15:35:28Z</time>
      </trkpt>
      <trkpt lat="46.16744" lon="2.51135">
        <ele>437</ele>
        <time>2015-04-18T15:35:30Z</time>
      </trkpt>
      <trkpt lat="46.16746" lon="2.51133">
        <ele>437</ele>
        <time>2015-04-18T15:35:32Z</time>
      </trkpt>
      <trkpt lat="46.16748" lon="2.5113">
        <ele>437</ele>
        <time>2015-04-18T15:35:34Z</time>
      </trkpt>
      <trkpt lat="46.1675" lon="2.51127">
        <ele>437</ele>
        <time>2015-04-18T15:35:36Z</time>
      </trkpt>
      <trkpt lat="46.16753" lon="2.51125">
        <ele>437</ele>
        <time>2015-04-18T15:35:38Z</time>
      </trkpt>
      <trkpt lat="46.16755" lon="2.51122">
        <ele>437</ele>
        <time>2015-04-18T15:35:40Z</time>
      </trkpt>
      <trkpt lat="46.16757" lon="2.51119">
        <ele>437</ele>
        <time>2015-04-18T15:35:42Z</time>
      </trkpt>
      <trkpt lat="46.16759" lon="2.51116">
        <ele>437</ele>
        <time>2015-04-18T15:35:44Z</time>
      </trkpt>
      <trkpt lat="46.16762" lon="2.51113">
        <ele>437</ele>
        <time>2015-04-18T15:35:46Z</time>
      </trkpt>
      <trkpt lat="46.16764" lon="2.5111">
        <ele>437</ele>
        <time>2015-04-18T15:35:48Z</time>
      </trkpt>
      <trkpt lat="46.16767" lon="2.51107">
        <ele>437</ele>
        <time>2015-04-18T15:35:50Z</time>
      </trkpt>
      <trkpt lat="46.16769" lon="2.51103">
        <ele>437</ele>
        <time>2015-04-18T15:35:52Z</time>
      </trkpt>
      <trkpt lat="46.16771" lon="2.511">
        <ele>437</ele>
        <time>2015-04-18T15:35:54Z</time>
      </trkpt>
      <trkpt lat="46.16774" lon="2.51096">
        <ele>437</ele>
        <time>2015-04-18T15:35:57Z</time>
      </trkpt>
      <trkpt lat="46.16776" lon="2.51093">
        <ele>437</ele>
        <time>2015-04-18T15:35:59Z</time>
      </trkpt>
      <trkpt lat="46.16778" lon="2.5109">
        <ele>437</ele>
        <time>2015-04-18T15:36:01Z</time>
      </trkpt>
      <trkpt lat="46.1678" lon="2.51086">
        <ele>437</ele>
        <time>2015-04-18T15:36:03Z</time>
      </trkpt>
      <trkpt lat="46.16782" lon="2.51084">
        <ele>437</ele>
        <time>2015-04-18T15:36:05Z</time>
      </trkpt>
      <trkpt lat="46.16784" lon="2.51081">
        <ele>437</ele>
        <time>2015-04-18T15:36:07Z</time>
      </trkpt>
      <trkpt lat="46.16786" lon="2.51079">
        <ele>437</ele>
        <time>2015-04-18T15:36:09Z</time>
      </trkpt>
      <trkpt lat="46.16788" lon="2.51076">
        <ele>437</ele>
        <time>2015-04-18T15:36:11Z</time>
      </trkpt>
      <trkpt lat="46.1679" lon="2.51074">
        <ele>437</ele>
        <time>2015-04-18T15:36:13Z</time>
      </trkpt>
      <trkpt lat="46.16793" lon="2.51071">
        <ele>437</ele>
        <time>2015-04-18T15:36:15Z</time>
      </trkpt>
      <trkpt lat="46.16795" lon="2.51067">
        <ele>437</ele>
        <time>2015-04-18T15:36:17Z</time>
      </trkpt>
      <trkpt lat="46.16798" lon="2.51064">
        <ele>437</ele>
        <time>2015-04-18T15:36:19Z</time>
      </trkpt>
      <trkpt lat="46.168" lon="2.51061">
        <ele>437</ele>
        <time>2015-04-18T15:36:21Z</time>
      </trkpt>
      <trkpt lat="46.16803" lon="2.51058">
        <ele>437</ele>
        <time>2015-04-18T15:36:23Z</time>
      </trkpt>
      <trkpt lat="46.16803" lon="2.51055">
        <ele>437</ele>
        <time>2015-04-18T15:36:25Z</time>
      </trkpt>
      <trkpt lat="46.16806" lon="2.51052">
        <ele>437</ele>
        <time>2015-04-18T15:36:27Z</time>
      </trkpt>
      <trkpt lat="46.16808" lon="2.51048">
        <ele>437</ele>
        <time>2015-04-18T15:36:29Z</time>
      </trkpt>
      <trkpt lat="46.16809" lon="2.51045">
        <ele>437</ele>
        <time>2015-04-18T15:36:31Z</time>
      </trkpt>
      <trkpt lat="46.16811" lon="2.51041">
        <ele>437</ele>
        <time>2015-04-18T15:36:33Z</time>
      </trkpt>
      <trkpt lat="46.16813" lon="2.51038">
        <ele>437</ele>
        <time>2015-04-18T15:36:35Z</time>
      </trkpt>
      <trkpt lat="46.16814" lon="2.51034">
        <ele>437</ele>
        <time>2015-04-18T15:36:37Z</time>
      </trkpt>
      <trkpt lat="46.16816" lon="2.51031">
        <ele>437</ele>
        <time>2015-04-18T15:36:39Z</time>
      </trkpt>
      <trkpt lat="46.16818" lon="2.51027">
        <ele>437</ele>
        <time>2015-04-18T15:36:41Z</time>
      </trkpt>
      <trkpt lat="46.16819" lon="2.51024">
        <ele>437</ele>
        <time>2015-04-18T15:36:43Z</time>
      </trkpt>
      <trkpt lat="46.16821" lon="2.5102">
        <ele>437</ele>
        <time>2015-04-18T15:36:45Z</time>
      </trkpt>
      <trkpt lat="46.16822" lon="2.51016">
        <ele>437</ele>
        <time>2015-04-18T15:36:47Z</time>
      </trkpt>
      <trkpt lat="46.16824" lon="2.51012">
        <ele>437</ele>
        <time>2015-04-18T15:36:49Z</time>
      </trkpt>
      <trkpt lat="46.16825" lon="2.51008">
        <ele>437</ele>
        <time>2015-04-18T15:36:51Z</time>
      </trkpt>
      <trkpt lat="46.16827" lon="2.51005">
        <ele>437</ele>
        <time>2015-04-18T15:36:53Z</time>
      </trkpt>
      <trkpt lat="46.16827" lon="2.51002">
        <ele>437</ele>
        <time>2015-04-18T15:36:55Z</time>
      </trkpt>
      <trkpt lat="46.16829" lon="2.50997">
        <ele>437</ele>
        <time>2015-04-18T15:36:57Z</time>
      </trkpt>
      <trkpt lat="46.1683" lon="2.50993">
        <ele>437</ele>
        <time>2015-04-18T15:36:59Z</time>
      </trkpt>
      <trkpt lat="46.16831" lon="2.50989">
        <ele>437</ele>
        <time>2015-04-18T15:37:01Z</time>
      </trkpt>
      <trkpt lat="46.16832" lon="2.50986">
        <ele>437</ele>
        <time>2015-04-18T15:37:03Z</time>
      </trkpt>
      <trkpt lat="46.16833" lon="2.50982">
        <ele>437</ele>
        <time>2015-04-18T15:37:05Z</time>
      </trkpt>
      <trkpt lat="46.16834" lon="2.50978">
        <ele>437</ele>
        <time>2015-04-18T15:37:07Z</time>
      </trkpt>
      <trkpt lat="46.16835" lon="2.50974">
        <ele>437</ele>
        <time>2015-04-18T15:37:09Z</time>
      </trkpt>
      <trkpt lat="46.16836" lon="2.5097">
        <ele>437</ele>
        <time>2015-04-18T15:37:11Z</time>
      </trkpt>
      <trkpt lat="46.16837" lon="2.50966">
        <ele>437</ele>
        <time>2015-04-18T15:37:13Z</time>
      </trkpt>
      <trkpt lat="46.16839" lon="2.50962">
        <ele>437</ele>
        <time>2015-04-18T15:37:15Z</time>
      </trkpt>
      <trkpt lat="46.16842" lon="2.50958">
        <ele>437</ele>
        <time>2015-04-18T15:37:17Z</time>
      </trkpt>
      <trkpt lat="46.16844" lon="2.50954">
        <ele>437</ele>
        <time>2015-04-18T15:37:19Z</time>
      </trkpt>
      <trkpt lat="46.16845" lon="2.50951">
        <ele>437</ele>
        <time>2015-04-18T15:37:21Z</time>
      </trkpt>
      <trkpt lat="46.16846" lon="2.50947">
        <ele>437</ele>
        <time>2015-04-18T15:37:23Z</time>
      </trkpt>
      <trkpt lat="46.16847" lon="2.50943">
        <ele>437</ele>
        <time>2015-04-18T15:37:25Z</time>
      </trkpt>
      <trkpt lat="46.16849" lon="2.50939">
        <ele>437</ele>
        <time>2015-04-18T15:37:27Z</time>
      </trkpt>
      <trkpt lat="46.1685" lon="2.50935">
        <ele>437</ele>
        <time>2015-04-18T15:37:29Z</time>
      </trkpt>
      <trkpt lat="46.16852" lon="2.50931">
        <ele>438</ele>
        <time>2015-04-18T15:37:31Z</time>
      </trkpt>
      <trkpt lat="46.16853" lon="2.50927">
        <ele>439</ele>
        <time>2015-04-18T15:37:33Z</time>
      </trkpt>
      <trkpt lat="46.16854" lon="2.50924">
        <ele>439</ele>
        <time>2015-04-18T15:37:35Z</time>
      </trkpt>
      <trkpt lat="46.16855" lon="2.5092">
        <ele>439</ele>
        <time>2015-04-18T15:37:37Z</time>
      </trkpt>
      <trkpt lat="46.16857" lon="2.50916">
        <ele>439</ele>
        <time>2015-04-18T15:37:39Z</time>
      </trkpt>
      <trkpt lat="46.16858" lon="2.50912">
        <ele>439</ele>
        <time>2015-04-18T15:37:41Z</time>
      </trkpt>
      <trkpt lat="46.16859" lon="2.50908">
        <ele>440</ele>
        <time>2015-04-18T15:37:43Z</time>
      </trkpt>
      <trkpt lat="46.1686" lon="2.50904">
        <ele>440</ele>
        <time>2015-04-18T15:37:45Z</time>
      </trkpt>
      <trkpt lat="46.16862" lon="2.50901">
        <ele>440</ele>
        <time>2015-04-18T15:37:47Z</time>
      </trkpt>
      <trkpt lat="46.16863" lon="2.50897">
        <ele>440</ele>
        <time>2015-04-18T15:37:49Z</time>
      </trkpt>
      <trkpt lat="46.16864" lon="2.50893">
        <ele>440</ele>
        <time>2015-04-18T15:37:51Z</time>
      </trkpt>
      <trkpt lat="46.16866" lon="2.50889">
        <ele>440</ele>
        <time>2015-04-18T15:37:53Z</time>
      </trkpt>
      <trkpt lat="46.16868" lon="2.50885">
        <ele>440</ele>
        <time>2015-04-18T15:37:55Z</time>
      </trkpt>
      <trkpt lat="46.16869" lon="2.50882">
        <ele>440</ele>
        <time>2015-04-18T15:37:57Z</time>
      </trkpt>
      <trkpt lat="46.16871" lon="2.50878">
        <ele>440</ele>
        <time>2015-04-18T15:37:59Z</time>
      </trkpt>
      <trkpt lat="46.16872" lon="2.50874">
        <ele>440</ele>
        <time>2015-04-18T15:38:01Z</time>
      </trkpt>
      <trkpt lat="46.16874" lon="2.5087">
        <ele>440</ele>
        <time>2015-04-18T15:38:03Z</time>
      </trkpt>
      <trkpt lat="46.16875" lon="2.50867">
        <ele>440</ele>
        <time>2015-04-18T15:38:05Z</time>
      </trkpt>
      <trkpt lat="46.16877" lon="2.50863">
        <ele>440</ele>
        <time>2015-04-18T15:38:07Z</time>
      </trkpt>
      <trkpt lat="46.16878" lon="2.50859">
        <ele>440</ele>
        <time>2015-04-18T15:38:09Z</time>
      </trkpt>
      <trkpt lat="46.1688" lon="2.50855">
        <ele>440</ele>
        <time>2015-04-18T15:38:11Z</time>
      </trkpt>
      <trkpt lat="46.16881" lon="2.50851">
        <ele>441</ele>
        <time>2015-04-18T15:38:13Z</time>
      </trkpt>
      <trkpt lat="46.16883" lon="2.50848">
        <ele>441</ele>
        <time>2015-04-18T15:38:15Z</time>
      </trkpt>
      <trkpt lat="46.16884" lon="2.50844">
        <ele>442</ele>
        <time>2015-04-18T15:38:17Z</time>
      </trkpt>
      <trkpt lat="46.16886" lon="2.5084">
        <ele>442</ele>
        <time>2015-04-18T15:38:19Z</time>
      </trkpt>
      <trkpt lat="46.16889" lon="2.50837">
        <ele>442</ele>
        <time>2015-04-18T15:38:21Z</time>
      </trkpt>
      <trkpt lat="46.1689" lon="2.50833">
        <ele>442</ele>
        <time>2015-04-18T15:38:23Z</time>
      </trkpt>
      <trkpt lat="46.16891" lon="2.50829">
        <ele>442</ele>
        <time>2015-04-18T15:38:25Z</time>
      </trkpt>
      <trkpt lat="46.16893" lon="2.50825">
        <ele>442</ele>
        <time>2015-04-18T15:38:27Z</time>
      </trkpt>
      <trkpt lat="46.16894" lon="2.50822">
        <ele>443</ele>
        <time>2015-04-18T15:38:29Z</time>
      </trkpt>
      <trkpt lat="46.16895" lon="2.50818">
        <ele>443</ele>
        <time>2015-04-18T15:38:31Z</time>
      </trkpt>
      <trkpt lat="46.16896" lon="2.50814">
        <ele>443</ele>
        <time>2015-04-18T15:38:33Z</time>
      </trkpt>
      <trkpt lat="46.16898" lon="2.50811">
        <ele>443</ele>
        <time>2015-04-18T15:38:35Z</time>
      </trkpt>
      <trkpt lat="46.16899" lon="2.50807">
        <ele>443</ele>
        <time>2015-04-18T15:38:37Z</time>
      </trkpt>
      <trkpt lat="46.16901" lon="2.50803">
        <ele>443</ele>
        <time>2015-04-18T15:38:39Z</time>
      </trkpt>
      <trkpt lat="46.16903" lon="2.50799">
        <ele>443</ele>
        <time>2015-04-18T15:38:41Z</time>
      </trkpt>
      <trkpt lat="46.16904" lon="2.50796">
        <ele>443</ele>
        <time>2015-04-18T15:38:43Z</time>
      </trkpt>
      <trkpt lat="46.16906" lon="2.50792">
        <ele>443</ele>
        <time>2015-04-18T15:38:45Z</time>
      </trkpt>
      <trkpt lat="46.16907" lon="2.50788">
        <ele>443</ele>
        <time>2015-04-18T15:38:47Z</time>
      </trkpt>
      <trkpt lat="46.16909" lon="2.50784">
        <ele>443</ele>
        <time>2015-04-18T15:38:49Z</time>
      </trkpt>
      <trkpt lat="46.1691" lon="2.50781">
        <ele>443</ele>
        <time>2015-04-18T15:38:51Z</time>
      </trkpt>
      <trkpt lat="46.16911" lon="2.50777">
        <ele>443</ele>
        <time>2015-04-18T15:38:53Z</time>
      </trkpt>
      <trkpt lat="46.16912" lon="2.50773">
        <ele>443</ele>
        <time>2015-04-18T15:38:55Z</time>
      </trkpt>
      <trkpt lat="46.16914" lon="2.50769">
        <ele>443</ele>
        <time>2015-04-18T15:38:57Z</time>
      </trkpt>
      <trkpt lat="46.16916" lon="2.50766">
        <ele>443</ele>
        <time>2015-04-18T15:38:59Z</time>
      </trkpt>
      <trkpt lat="46.16918" lon="2.50762">
        <ele>443</ele>
        <time>2015-04-18T15:39:01Z</time>
      </trkpt>
      <trkpt lat="46.16919" lon="2.50758">
        <ele>443</ele>
        <time>2015-04-18T15:39:03Z</time>
      </trkpt>
      <trkpt lat="46.16921" lon="2.50754">
        <ele>443</ele>
        <time>2015-04-18T15:39:05Z</time>
      </trkpt>
      <trkpt lat="46.16923" lon="2.5075">
        <ele>443</ele>
        <time>2015-04-18T15:39:07Z</time>
      </trkpt>
      <trkpt lat="46.16925" lon="2.50746">
        <ele>443</ele>
        <time>2015-04-18T15:39:09Z</time>
      </trkpt>
      <trkpt lat="46.16927" lon="2.50742">
        <ele>443</ele>
        <time>2015-04-18T15:39:11Z</time>
      </trkpt>
      <trkpt lat="46.16928" lon="2.50739">
        <ele>443</ele>
        <time>2015-04-18T15:39:13Z</time>
      </trkpt>
      <trkpt lat="46.1693" lon="2.50735">
        <ele>443</ele>
        <time>2015-04-18T15:39:15Z</time>
      </trkpt>
      <trkpt lat="46.16932" lon="2.50731">
        <ele>443</ele>
        <time>2015-04-18T15:39:17Z</time>
      </trkpt>
      <trkpt lat="46.16933" lon="2.50727">
        <ele>443</ele>
        <time>2015-04-18T15:39:19Z</time>
      </trkpt>
      <trkpt lat="46.16934" lon="2.50723">
        <ele>443</ele>
        <time>2015-04-18T15:39:21Z</time>
      </trkpt>
      <trkpt lat="46.16936" lon="2.50719">
        <ele>443</ele>
        <time>2015-04-18T15:39:23Z</time>
      </trkpt>
      <trkpt lat="46.16937" lon="2.50715">
        <ele>443</ele>
        <time>2015-04-18T15:39:25Z</time>
      </trkpt>
      <trkpt lat="46.16939" lon="2.50711">
        <ele>443</ele>
        <time>2015-04-18T15:39:27Z</time>
      </trkpt>
      <trkpt lat="46.1694" lon="2.50707">
        <ele>443</ele>
        <time>2015-04-18T15:39:29Z</time>
      </trkpt>
      <trkpt lat="46.16941" lon="2.50703">
        <ele>443</ele>
        <time>2015-04-18T15:39:31Z</time>
      </trkpt>
      <trkpt lat="46.16943" lon="2.50699">
        <ele>443</ele>
        <time>2015-04-18T15:39:33Z</time>
      </trkpt>
      <trkpt lat="46.16944" lon="2.50695">
        <ele>443</ele>
        <time>2015-04-18T15:39:35Z</time>
      </trkpt>
      <trkpt lat="46.16945" lon="2.50692">
        <ele>443</ele>
        <time>2015-04-18T15:39:37Z</time>
      </trkpt>
      <trkpt lat="46.16946" lon="2.50688">
        <ele>443</ele>
        <time>2015-04-18T15:39:39Z</time>
      </trkpt>
      <trkpt lat="46.16947" lon="2.50683">
        <ele>444</ele>
        <time>2015-04-18T15:39:41Z</time>
      </trkpt>
      <trkpt lat="46.16948" lon="2.50679">
        <ele>444</ele>
        <time>2015-04-18T15:39:43Z</time>
      </trkpt>
      <trkpt lat="46.16949" lon="2.50675">
        <ele>444</ele>
        <time>2015-04-18T15:39:45Z</time>
      </trkpt>
      <trkpt lat="46.16949" lon="2.50671">
        <ele>444</ele>
        <time>2015-04-18T15:39:47Z</time>
      </trkpt>
      <trkpt lat="46.1695" lon="2.50667">
        <ele>444</ele>
        <time>2015-04-18T15:39:49Z</time>
      </trkpt>
      <trkpt lat="46.16951" lon="2.50663">
        <ele>444</ele>
        <time>2015-04-18T15:39:51Z</time>
      </trkpt>
      <trkpt lat="46.16952" lon="2.50659">
        <ele>444</ele>
        <time>2015-04-18T15:39:53Z</time>
      </trkpt>
      <trkpt lat="46.16953" lon="2.50655">
        <ele>444</ele>
        <time>2015-04-18T15:39:55Z</time>
      </trkpt>
      <trkpt lat="46.16953" lon="2.5065">
        <ele>444</ele>
        <time>2015-04-18T15:39:57Z</time>
      </trkpt>
      <trkpt lat="46.16954" lon="2.50646">
        <ele>444</ele>
        <time>2015-04-18T15:39:59Z</time>
      </trkpt>
      <trkpt lat="46.16955" lon="2.50641">
        <ele>444</ele>
        <time>2015-04-18T15:40:01Z</time>
      </trkpt>
      <trkpt lat="46.16957" lon="2.50637">
        <ele>444</ele>
        <time>2015-04-18T15:40:03Z</time>
      </trkpt>
      <trkpt lat="46.16958" lon="2.50633">
        <ele>444</ele>
        <time>2015-04-18T15:40:05Z</time>
      </trkpt>
      <trkpt lat="46.16959" lon="2.50629">
        <ele>444</ele>
        <time>2015-04-18T15:40:07Z</time>
      </trkpt>
      <trkpt lat="46.16959" lon="2.50624">
        <ele>444</ele>
        <time>2015-04-18T15:40:09Z</time>
      </trkpt>
      <trkpt lat="46.1696" lon="2.5062">
        <ele>444</ele>
        <time>2015-04-18T15:40:11Z</time>
      </trkpt>
      <trkpt lat="46.16961" lon="2.50616">
        <ele>444</ele>
        <time>2015-04-18T15:40:13Z</time>
      </trkpt>
      <trkpt lat="46.16962" lon="2.50611">
        <ele>444</ele>
        <time>2015-04-18T15:40:15Z</time>
      </trkpt>
      <trkpt lat="46.16962" lon="2.50607">
        <ele>444</ele>
        <time>2015-04-18T15:40:17Z</time>
      </trkpt>
      <trkpt lat="46.16963" lon="2.50603">
        <ele>444</ele>
        <time>2015-04-18T15:40:19Z</time>
      </trkpt>
      <trkpt lat="46.16964" lon="2.50599">
        <ele>444</ele>
        <time>2015-04-18T15:40:21Z</time>
      </trkpt>
      <trkpt lat="46.16965" lon="2.50595">
        <ele>444</ele>
        <time>2015-04-18T15:40:23Z</time>
      </trkpt>
      <trkpt lat="46.16966" lon="2.50591">
        <ele>444</ele>
        <time>2015-04-18T15:40:25Z</time>
      </trkpt>
      <trkpt lat="46.16967" lon="2.50587">
        <ele>444</ele>
        <time>2015-04-18T15:40:27Z</time>
      </trkpt>
      <trkpt lat="46.16967" lon="2.50582">
        <ele>444</ele>
        <time>2015-04-18T15:40:29Z</time>
      </trkpt>
      <trkpt lat="46.16968" lon="2.50578">
        <ele>444</ele>
        <time>2015-04-18T15:40:31Z</time>
      </trkpt>
      <trkpt lat="46.16969" lon="2.50574">
        <ele>444</ele>
        <time>2015-04-18T15:40:33Z</time>
      </trkpt>
      <trkpt lat="46.1697" lon="2.5057">
        <ele>444</ele>
        <time>2015-04-18T15:40:35Z</time>
      </trkpt>
      <trkpt lat="46.1697" lon="2.50566">
        <ele>444</ele>
        <time>2015-04-18T15:40:37Z</time>
      </trkpt>
      <trkpt lat="46.16971" lon="2.50562">
        <ele>444</ele>
        <time>2015-04-18T15:40:39Z</time>
      </trkpt>
      <trkpt lat="46.16972" lon="2.50557">
        <ele>444</ele>
        <time>2015-04-18T15:40:41Z</time>
      </trkpt>
      <trkpt lat="46.16973" lon="2.50553">
        <ele>444</ele>
        <time>2015-04-18T15:40:43Z</time>
      </trkpt>
      <trkpt lat="46.16973" lon="2.50549">
        <ele>444</ele>
        <time>2015-04-18T15:40:45Z</time>
      </trkpt>
      <trkpt lat="46.16974" lon="2.50545">
        <ele>444</ele>
        <time>2015-04-18T15:40:47Z</time>
      </trkpt>
      <trkpt lat="46.16975" lon="2.50541">
        <ele>444</ele>
        <time>2015-04-18T15:40:49Z</time>
      </trkpt>
      <trkpt lat="46.16978" lon="2.50529">
        <ele>446</ele>
        <time>2015-04-18T15:40:53Z</time>
      </trkpt>
      <trkpt lat="46.1698" lon="2.50525">
        <ele>446</ele>
        <time>2015-04-18T15:40:55Z</time>
      </trkpt>
      <trkpt lat="46.1698" lon="2.50521">
        <ele>446</ele>
        <time>2015-04-18T15:40:57Z</time>
      </trkpt>
      <trkpt lat="46.16982" lon="2.50517">
        <ele>446</ele>
        <time>2015-04-18T15:40:59Z</time>
      </trkpt>
      <trkpt lat="46.16983" lon="2.50513">
        <ele>446</ele>
        <time>2015-04-18T15:41:01Z</time>
      </trkpt>
      <trkpt lat="46.16984" lon="2.50509">
        <ele>446</ele>
        <time>2015-04-18T15:41:03Z</time>
      </trkpt>
      <trkpt lat="46.16986" lon="2.50505">
        <ele>446</ele>
        <time>2015-04-18T15:41:05Z</time>
      </trkpt>
      <trkpt lat="46.16988" lon="2.50501">
        <ele>446</ele>
        <time>2015-04-18T15:41:07Z</time>
      </trkpt>
      <trkpt lat="46.16989" lon="2.50496">
        <ele>446</ele>
        <time>2015-04-18T15:41:09Z</time>
      </trkpt>
      <trkpt lat="46.16991" lon="2.50492">
        <ele>446</ele>
        <time>2015-04-18T15:41:11Z</time>
      </trkpt>
      <trkpt lat="46.16993" lon="2.50488">
        <ele>446</ele>
        <time>2015-04-18T15:41:13Z</time>
      </trkpt>
      <trkpt lat="46.16994" lon="2.50483">
        <ele>446</ele>
        <time>2015-04-18T15:41:15Z</time>
      </trkpt>
      <trkpt lat="46.16996" lon="2.50479">
        <ele>446</ele>
        <time>2015-04-18T15:41:17Z</time>
      </trkpt>
      <trkpt lat="46.16998" lon="2.50475">
        <ele>446</ele>
        <time>2015-04-18T15:41:19Z</time>
      </trkpt>
      <trkpt lat="46.16999" lon="2.50471">
        <ele>446</ele>
        <time>2015-04-18T15:41:21Z</time>
      </trkpt>
      <trkpt lat="46.17" lon="2.50466">
        <ele>446</ele>
        <time>2015-04-18T15:41:23Z</time>
      </trkpt>
      <trkpt lat="46.17001" lon="2.50462">
        <ele>446</ele>
        <time>2015-04-18T15:41:25Z</time>
      </trkpt>
      <trkpt lat="46.17004" lon="2.50458">
        <ele>446</ele>
        <time>2015-04-18T15:41:27Z</time>
      </trkpt>
      <trkpt lat="46.17005" lon="2.50454">
        <ele>446</ele>
        <time>2015-04-18T15:41:29Z</time>
      </trkpt>
      <trkpt lat="46.17007" lon="2.5045">
        <ele>446</ele>
        <time>2015-04-18T15:41:31Z</time>
      </trkpt>
      <trkpt lat="46.17009" lon="2.50446">
        <ele>446</ele>
        <time>2015-04-18T15:41:33Z</time>
      </trkpt>
      <trkpt lat="46.1701" lon="2.50442">
        <ele>446</ele>
        <time>2015-04-18T15:41:35Z</time>
      </trkpt>
      <trkpt lat="46.17012" lon="2.50438">
        <ele>446</ele>
        <time>2015-04-18T15:41:37Z</time>
      </trkpt>
      <trkpt lat="46.17014" lon="2.50434">
        <ele>446</ele>
        <time>2015-04-18T15:41:39Z</time>
      </trkpt>
      <trkpt lat="46.17015" lon="2.5043">
        <ele>446</ele>
        <time>2015-04-18T15:41:41Z</time>
      </trkpt>
      <trkpt lat="46.17017" lon="2.50426">
        <ele>446</ele>
        <time>2015-04-18T15:41:43Z</time>
      </trkpt>
      <trkpt lat="46.17019" lon="2.50422">
        <ele>446</ele>
        <time>2015-04-18T15:41:45Z</time>
      </trkpt>
      <trkpt lat="46.1702" lon="2.50417">
        <ele>446</ele>
        <time>2015-04-18T15:41:47Z</time>
      </trkpt>
      <trkpt lat="46.17022" lon="2.50413">
        <ele>446</ele>
        <time>2015-04-18T15:41:49Z</time>
      </trkpt>
      <trkpt lat="46.17024" lon="2.50409">
        <ele>446</ele>
        <time>2015-04-18T15:41:51Z</time>
      </trkpt>
      <trkpt lat="46.17026" lon="2.50405">
        <ele>446</ele>
        <time>2015-04-18T15:41:53Z</time>
      </trkpt>
      <trkpt lat="46.17027" lon="2.50401">
        <ele>446</ele>
        <time>2015-04-18T15:41:55Z</time>
      </trkpt>
      <trkpt lat="46.17029" lon="2.50397">
        <ele>446</ele>
        <time>2015-04-18T15:41:57Z</time>
      </trkpt>
      <trkpt lat="46.1703" lon="2.50393">
        <ele>446</ele>
        <time>2015-04-18T15:41:59Z</time>
      </trkpt>
      <trkpt lat="46.17032" lon="2.50389">
        <ele>446</ele>
        <time>2015-04-18T15:42:01Z</time>
      </trkpt>
      <trkpt lat="46.17034" lon="2.50385">
        <ele>446</ele>
        <time>2015-04-18T15:42:03Z</time>
      </trkpt>
      <trkpt lat="46.17035" lon="2.50381">
        <ele>446</ele>
        <time>2015-04-18T15:42:05Z</time>
      </trkpt>
      <trkpt lat="46.17037" lon="2.50377">
        <ele>446</ele>
        <time>2015-04-18T15:42:07Z</time>
      </trkpt>
      <trkpt lat="46.17039" lon="2.50373">
        <ele>446</ele>
        <time>2015-04-18T15:42:09Z</time>
      </trkpt>
      <trkpt lat="46.17041" lon="2.50369">
        <ele>446</ele>
        <time>2015-04-18T15:42:11Z</time>
      </trkpt>
      <trkpt lat="46.17042" lon="2.50365">
        <ele>446</ele>
        <time>2015-04-18T15:42:13Z</time>
      </trkpt>
      <trkpt lat="46.17044" lon="2.50361">
        <ele>446</ele>
        <time>2015-04-18T15:42:15Z</time>
      </trkpt>
      <trkpt lat="46.17046" lon="2.50357">
        <ele>446</ele>
        <time>2015-04-18T15:42:17Z</time>
      </trkpt>
      <trkpt lat="46.17048" lon="2.50353">
        <ele>446</ele>
        <time>2015-04-18T15:42:19Z</time>
      </trkpt>
      <trkpt lat="46.17049" lon="2.50349">
        <ele>446</ele>
        <time>2015-04-18T15:42:21Z</time>
      </trkpt>
      <trkpt lat="46.17051" lon="2.50344">
        <ele>446</ele>
        <time>2015-04-18T15:42:23Z</time>
      </trkpt>
      <trkpt lat="46.17052" lon="2.50341">
        <ele>446</ele>
        <time>2015-04-18T15:42:25Z</time>
      </trkpt>
      <trkpt lat="46.17054" lon="2.50337">
        <ele>446</ele>
        <time>2015-04-18T15:42:27Z</time>
      </trkpt>
      <trkpt lat="46.17056" lon="2.50333">
        <ele>446</ele>
        <time>2015-04-18T15:42:29Z</time>
      </trkpt>
      <trkpt lat="46.17057" lon="2.50329">
        <ele>446</ele>
        <time>2015-04-18T15:42:31Z</time>
      </trkpt>
      <trkpt lat="46.17059" lon="2.50325">
        <ele>446</ele>
        <time>2015-04-18T15:42:33Z</time>
      </trkpt>
      <trkpt lat="46.1706" lon="2.50321">
        <ele>446</ele>
        <time>2015-04-18T15:42:35Z</time>
      </trkpt>
      <trkpt lat="46.17062" lon="2.50317">
        <ele>446</ele>
        <time>2015-04-18T15:42:37Z</time>
      </trkpt>
      <trkpt lat="46.17063" lon="2.50313">
        <ele>446</ele>
        <time>2015-04-18T15:42:39Z</time>
      </trkpt>
      <trkpt lat="46.17065" lon="2.50309">
        <ele>446</ele>
        <time>2015-04-18T15:42:41Z</time>
      </trkpt>
      <trkpt lat="46.17066" lon="2.50306">
        <ele>446</ele>
        <time>2015-04-18T15:42:43Z</time>
      </trkpt>
      <trkpt lat="46.17068" lon="2.50301">
        <ele>446</ele>
        <time>2015-04-18T15:42:45Z</time>
      </trkpt>
      <trkpt lat="46.1707" lon="2.50297">
        <ele>446</ele>
        <time>2015-04-18T15:42:47Z</time>
      </trkpt>
      <trkpt lat="46.17071" lon="2.50293">
        <ele>446</ele>
        <time>2015-04-18T15:42:49Z</time>
      </trkpt>
      <trkpt lat="46.17073" lon="2.50289">
        <ele>446</ele>
        <time>2015-04-18T15:42:51Z</time>
      </trkpt>
      <trkpt lat="46.17075" lon="2.50285">
        <ele>446</ele>
        <time>2015-04-18T15:42:53Z</time>
      </trkpt>
      <trkpt lat="46.17076" lon="2.50281">
        <ele>446</ele>
        <time>2015-04-18T15:42:55Z</time>
      </trkpt>
      <trkpt lat="46.17078" lon="2.50277">
        <ele>446</ele>
        <time>2015-04-18T15:42:57Z</time>
      </trkpt>
      <trkpt lat="46.17079" lon="2.50273">
        <ele>446</ele>
        <time>2015-04-18T15:42:59Z</time>
      </trkpt>
      <trkpt lat="46.17081" lon="2.50269">
        <ele>446</ele>
        <time>2015-04-18T15:43:01Z</time>
      </trkpt>
      <trkpt lat="46.17082" lon="2.50265">
        <ele>446</ele>
        <time>2015-04-18T15:43:03Z</time>
      </trkpt>
      <trkpt lat="46.17084" lon="2.50261">
        <ele>446</ele>
        <time>2015-04-18T15:43:05Z</time>
      </trkpt>
      <trkpt lat="46.17085" lon="2.50257">
        <ele>446</ele>
        <time>2015-04-18T15:43:07Z</time>
      </trkpt>
      <trkpt lat="46.17087" lon="2.50253">
        <ele>446</ele>
        <time>2015-04-18T15:43:09Z</time>
      </trkpt>
      <trkpt lat="46.17089" lon="2.50249">
        <ele>446</ele>
        <time>2015-04-18T15:43:11Z</time>
      </trkpt>
      <trkpt lat="46.17091" lon="2.50244">
        <ele>446</ele>
        <time>2015-04-18T15:43:13Z</time>
      </trkpt>
      <trkpt lat="46.17093" lon="2.5024">
        <ele>446</ele>
        <time>2015-04-18T15:43:15Z</time>
      </trkpt>
      <trkpt lat="46.17094" lon="2.50236">
        <ele>446</ele>
        <time>2015-04-18T15:43:17Z</time>
      </trkpt>
      <trkpt lat="46.17096" lon="2.50232">
        <ele>446</ele>
        <time>2015-04-18T15:43:19Z</time>
      </trkpt>
      <trkpt lat="46.17097" lon="2.50228">
        <ele>446</ele>
        <time>2015-04-18T15:43:21Z</time>
      </trkpt>
      <trkpt lat="46.17098" lon="2.50224">
        <ele>446</ele>
        <time>2015-04-18T15:43:23Z</time>
      </trkpt>
      <trkpt lat="46.17099" lon="2.50221">
        <ele>445</ele>
        <time>2015-04-18T15:43:25Z</time>
      </trkpt>
      <trkpt lat="46.17101" lon="2.50217">
        <ele>445</ele>
        <time>2015-04-18T15:43:27Z</time>
      </trkpt>
      <trkpt lat="46.17103" lon="2.50214">
        <ele>445</ele>
        <time>2015-04-18T15:43:29Z</time>
      </trkpt>
      <trkpt lat="46.17106" lon="2.50211">
        <ele>445</ele>
        <time>2015-04-18T15:43:31Z</time>
      </trkpt>
      <trkpt lat="46.17108" lon="2.50207">
        <ele>445</ele>
        <time>2015-04-18T15:43:33Z</time>
      </trkpt>
      <trkpt lat="46.1711" lon="2.50203">
        <ele>445</ele>
        <time>2015-04-18T15:43:35Z</time>
      </trkpt>
      <trkpt lat="46.17111" lon="2.50199">
        <ele>445</ele>
        <time>2015-04-18T15:43:37Z</time>
      </trkpt>
      <trkpt lat="46.17112" lon="2.50195">
        <ele>445</ele>
        <time>2015-04-18T15:43:39Z</time>
      </trkpt>
      <trkpt lat="46.17114" lon="2.50191">
        <ele>445</ele>
        <time>2015-04-18T15:43:41Z</time>
      </trkpt>
      <trkpt lat="46.17116" lon="2.50186">
        <ele>445</ele>
        <time>2015-04-18T15:43:43Z</time>
      </trkpt>
      <trkpt lat="46.17117" lon="2.50183">
        <ele>445</ele>
        <time>2015-04-18T15:43:45Z</time>
      </trkpt>
      <trkpt lat="46.17119" lon="2.50179">
        <ele>445</ele>
        <time>2015-04-18T15:43:47Z</time>
      </trkpt>
      <trkpt lat="46.1712" lon="2.50174">
        <ele>445</ele>
        <time>2015-04-18T15:43:49Z</time>
      </trkpt>
      <trkpt lat="46.17122" lon="2.5017">
        <ele>445</ele>
        <time>2015-04-18T15:43:51Z</time>
      </trkpt>
      <trkpt lat="46.17123" lon="2.50167">
        <ele>445</ele>
        <time>2015-04-18T15:43:53Z</time>
      </trkpt>
      <trkpt lat="46.17124" lon="2.50162">
        <ele>445</ele>
        <time>2015-04-18T15:43:55Z</time>
      </trkpt>
      <trkpt lat="46.17125" lon="2.50158">
        <ele>445</ele>
        <time>2015-04-18T15:43:57Z</time>
      </trkpt>
      <trkpt lat="46.17127" lon="2.50154">
        <ele>445</ele>
        <time>2015-04-18T15:43:59Z</time>
      </trkpt>
      <trkpt lat="46.17128" lon="2.5015">
        <ele>445</ele>
        <time>2015-04-18T15:44:01Z</time>
      </trkpt>
      <trkpt lat="46.17129" lon="2.50146">
        <ele>445</ele>
        <time>2015-04-18T15:44:03Z</time>
      </trkpt>
      <trkpt lat="46.1713" lon="2.50141">
        <ele>445</ele>
        <time>2015-04-18T15:44:05Z</time>
      </trkpt>
      <trkpt lat="46.1713" lon="2.50136">
        <ele>445</ele>
        <time>2015-04-18T15:44:07Z</time>
      </trkpt>
      <trkpt lat="46.17131" lon="2.50132">
        <ele>444</ele>
        <time>2015-04-18T15:44:09Z</time>
      </trkpt>
      <trkpt lat="46.17131" lon="2.50128">
        <ele>444</ele>
        <time>2015-04-18T15:44:11Z</time>
      </trkpt>
      <trkpt lat="46.17131" lon="2.50123">
        <ele>444</ele>
        <time>2015-04-18T15:44:13Z</time>
      </trkpt>
      <trkpt lat="46.17131" lon="2.50118">
        <ele>443</ele>
        <time>2015-04-18T15:44:15Z</time>
      </trkpt>
      <trkpt lat="46.17131" lon="2.50114">
        <ele>443</ele>
        <time>2015-04-18T15:44:17Z</time>
      </trkpt>
      <trkpt lat="46.17131" lon="2.50109">
        <ele>443</ele>
        <time>2015-04-18T15:44:19Z</time>
      </trkpt>
      <trkpt lat="46.17131" lon="2.50105">
        <ele>443</ele>
        <time>2015-04-18T15:44:21Z</time>
      </trkpt>
      <trkpt lat="46.17131" lon="2.501">
        <ele>443</ele>
        <time>2015-04-18T15:44:23Z</time>
      </trkpt>
      <trkpt lat="46.17131" lon="2.50096">
        <ele>443</ele>
        <time>2015-04-18T15:44:25Z</time>
      </trkpt>
      <trkpt lat="46.17131" lon="2.50092">
        <ele>443</ele>
        <time>2015-04-18T15:44:27Z</time>
      </trkpt>
      <trkpt lat="46.17132" lon="2.50087">
        <ele>442</ele>
        <time>2015-04-18T15:44:29Z</time>
      </trkpt>
      <trkpt lat="46.17132" lon="2.50083">
        <ele>442</ele>
        <time>2015-04-18T15:44:31Z</time>
      </trkpt>
      <trkpt lat="46.17131" lon="2.50079">
        <ele>442</ele>
        <time>2015-04-18T15:44:33Z</time>
      </trkpt>
      <trkpt lat="46.17131" lon="2.50074">
        <ele>441</ele>
        <time>2015-04-18T15:44:35Z</time>
      </trkpt>
      <trkpt lat="46.17132" lon="2.5007">
        <ele>441</ele>
        <time>2015-04-18T15:44:37Z</time>
      </trkpt>
      <trkpt lat="46.17133" lon="2.50065">
        <ele>441</ele>
        <time>2015-04-18T15:44:39Z</time>
      </trkpt>
      <trkpt lat="46.17133" lon="2.5006">
        <ele>441</ele>
        <time>2015-04-18T15:44:41Z</time>
      </trkpt>
      <trkpt lat="46.17133" lon="2.50056">
        <ele>440</ele>
        <time>2015-04-18T15:44:43Z</time>
      </trkpt>
      <trkpt lat="46.17133" lon="2.50051">
        <ele>440</ele>
        <time>2015-04-18T15:44:45Z</time>
      </trkpt>
      <trkpt lat="46.17134" lon="2.50046">
        <ele>440</ele>
        <time>2015-04-18T15:44:47Z</time>
      </trkpt>
      <trkpt lat="46.17134" lon="2.50041">
        <ele>440</ele>
        <time>2015-04-18T15:44:49Z</time>
      </trkpt>
      <trkpt lat="46.17135" lon="2.50037">
        <ele>439</ele>
        <time>2015-04-18T15:44:51Z</time>
      </trkpt>
      <trkpt lat="46.17135" lon="2.50032">
        <ele>439</ele>
        <time>2015-04-18T15:44:53Z</time>
      </trkpt>
      <trkpt lat="46.17135" lon="2.50027">
        <ele>439</ele>
        <time>2015-04-18T15:44:55Z</time>
      </trkpt>
      <trkpt lat="46.17135" lon="2.50023">
        <ele>439</ele>
        <time>2015-04-18T15:44:57Z</time>
      </trkpt>
      <trkpt lat="46.17136" lon="2.50018">
        <ele>439</ele>
        <time>2015-04-18T15:44:59Z</time>
      </trkpt>
      <trkpt lat="46.17136" lon="2.50014">
        <ele>439</ele>
        <time>2015-04-18T15:45:01Z</time>
      </trkpt>
      <trkpt lat="46.17136" lon="2.50009">
        <ele>438</ele>
        <time>2015-04-18T15:45:03Z</time>
      </trkpt>
      <trkpt lat="46.17136" lon="2.50005">
        <ele>438</ele>
        <time>2015-04-18T15:45:05Z</time>
      </trkpt>
      <trkpt lat="46.17136" lon="2.5">
        <ele>438</ele>
        <time>2015-04-18T15:45:07Z</time>
      </trkpt>
      <trkpt lat="46.17136" lon="2.49995">
        <ele>438</ele>
        <time>2015-04-18T15:45:09Z</time>
      </trkpt>
      <trkpt lat="46.17136" lon="2.49991">
        <ele>438</ele>
        <time>2015-04-18T15:45:11Z</time>
      </trkpt>
      <trkpt lat="46.17137" lon="2.49986">
        <ele>438</ele>
        <time>2015-04-18T15:45:13Z</time>
      </trkpt>
      <trkpt lat="46.17137" lon="2.49981">
        <ele>438</ele>
        <time>2015-04-18T15:45:15Z</time>
      </trkpt>
      <trkpt lat="46.17138" lon="2.49977">
        <ele>438</ele>
        <time>2015-04-18T15:45:17Z</time>
      </trkpt>
      <trkpt lat="46.17138" lon="2.49972">
        <ele>438</ele>
        <time>2015-04-18T15:45:19Z</time>
      </trkpt>
      <trkpt lat="46.17138" lon="2.49968">
        <ele>437</ele>
        <time>2015-04-18T15:45:21Z</time>
      </trkpt>
      <trkpt lat="46.17139" lon="2.49963">
        <ele>437</ele>
        <time>2015-04-18T15:45:23Z</time>
      </trkpt>
      <trkpt lat="46.1714" lon="2.49958">
        <ele>437</ele>
        <time>2015-04-18T15:45:25Z</time>
      </trkpt>
      <trkpt lat="46.1714" lon="2.49954">
        <ele>436</ele>
        <time>2015-04-18T15:45:27Z</time>
      </trkpt>
      <trkpt lat="46.17141" lon="2.4995">
        <ele>436</ele>
        <time>2015-04-18T15:45:29Z</time>
      </trkpt>
      <trkpt lat="46.17142" lon="2.49946">
        <ele>436</ele>
        <time>2015-04-18T15:45:31Z</time>
      </trkpt>
      <trkpt lat="46.17144" lon="2.49941">
        <ele>436</ele>
        <time>2015-04-18T15:45:33Z</time>
      </trkpt>
      <trkpt lat="46.17145" lon="2.49937">
        <ele>436</ele>
        <time>2015-04-18T15:45:35Z</time>
      </trkpt>
      <trkpt lat="46.17146" lon="2.49933">
        <ele>435</ele>
        <time>2015-04-18T15:45:37Z</time>
      </trkpt>
      <trkpt lat="46.17148" lon="2.49929">
        <ele>435</ele>
        <time>2015-04-18T15:45:39Z</time>
      </trkpt>
      <trkpt lat="46.1715" lon="2.49926">
        <ele>435</ele>
        <time>2015-04-18T15:45:41Z</time>
      </trkpt>
      <trkpt lat="46.17153" lon="2.49922">
        <ele>435</ele>
        <time>2015-04-18T15:45:43Z</time>
      </trkpt>
      <trkpt lat="46.17155" lon="2.49919">
        <ele>435</ele>
        <time>2015-04-18T15:45:45Z</time>
      </trkpt>
      <trkpt lat="46.17157" lon="2.49916">
        <ele>435</ele>
        <time>2015-04-18T15:45:47Z</time>
      </trkpt>
      <trkpt lat="46.17159" lon="2.49914">
        <ele>435</ele>
        <time>2015-04-18T15:45:49Z</time>
      </trkpt>
      <trkpt lat="46.17162" lon="2.49911">
        <ele>434</ele>
        <time>2015-04-18T15:45:51Z</time>
      </trkpt>
      <trkpt lat="46.17164" lon="2.49908">
        <ele>434</ele>
        <time>2015-04-18T15:45:53Z</time>
      </trkpt>
      <trkpt lat="46.17167" lon="2.49906">
        <ele>434</ele>
        <time>2015-04-18T15:45:55Z</time>
      </trkpt>
      <trkpt lat="46.17169" lon="2.49903">
        <ele>434</ele>
        <time>2015-04-18T15:45:57Z</time>
      </trkpt>
      <trkpt lat="46.17172" lon="2.49901">
        <ele>434</ele>
        <time>2015-04-18T15:45:59Z</time>
      </trkpt>
      <trkpt lat="46.17175" lon="2.49898">
        <ele>433</ele>
        <time>2015-04-18T15:46:01Z</time>
      </trkpt>
      <trkpt lat="46.17177" lon="2.49896">
        <ele>433</ele>
        <time>2015-04-18T15:46:03Z</time>
      </trkpt>
      <trkpt lat="46.17179" lon="2.49893">
        <ele>433</ele>
        <time>2015-04-18T15:46:05Z</time>
      </trkpt>
      <trkpt lat="46.17182" lon="2.4989">
        <ele>433</ele>
        <time>2015-04-18T15:46:07Z</time>
      </trkpt>
      <trkpt lat="46.17185" lon="2.49887">
        <ele>433</ele>
        <time>2015-04-18T15:46:09Z</time>
      </trkpt>
      <trkpt lat="46.17187" lon="2.49885">
        <ele>433</ele>
        <time>2015-04-18T15:46:11Z</time>
      </trkpt>
      <trkpt lat="46.1719" lon="2.49883">
        <ele>432</ele>
        <time>2015-04-18T15:46:13Z</time>
      </trkpt>
      <trkpt lat="46.17193" lon="2.49882">
        <ele>432</ele>
        <time>2015-04-18T15:46:15Z</time>
      </trkpt>
      <trkpt lat="46.17196" lon="2.4988">
        <ele>432</ele>
        <time>2015-04-18T15:46:17Z</time>
      </trkpt>
      <trkpt lat="46.17199" lon="2.49878">
        <ele>432</ele>
        <time>2015-04-18T15:46:19Z</time>
      </trkpt>
      <trkpt lat="46.17202" lon="2.49875">
        <ele>431</ele>
        <time>2015-04-18T15:46:21Z</time>
      </trkpt>
      <trkpt lat="46.17205" lon="2.49872">
        <ele>431</ele>
        <time>2015-04-18T15:46:23Z</time>
      </trkpt>
      <trkpt lat="46.17207" lon="2.49869">
        <ele>431</ele>
        <time>2015-04-18T15:46:25Z</time>
      </trkpt>
      <trkpt lat="46.17209" lon="2.49866">
        <ele>430</ele>
        <time>2015-04-18T15:46:27Z</time>
      </trkpt>
      <trkpt lat="46.17211" lon="2.49863">
        <ele>430</ele>
        <time>2015-04-18T15:46:29Z</time>
      </trkpt>
      <trkpt lat="46.17213" lon="2.4986">
        <ele>429</ele>
        <time>2015-04-18T15:46:31Z</time>
      </trkpt>
      <trkpt lat="46.17215" lon="2.49856">
        <ele>429</ele>
        <time>2015-04-18T15:46:33Z</time>
      </trkpt>
      <trkpt lat="46.17218" lon="2.49853">
        <ele>428</ele>
        <time>2015-04-18T15:46:35Z</time>
      </trkpt>
      <trkpt lat="46.1722" lon="2.49849">
        <ele>428</ele>
        <time>2015-04-18T15:46:37Z</time>
      </trkpt>
      <trkpt lat="46.17221" lon="2.49846">
        <ele>427</ele>
        <time>2015-04-18T15:46:39Z</time>
      </trkpt>
      <trkpt lat="46.17223" lon="2.49842">
        <ele>427</ele>
        <time>2015-04-18T15:46:41Z</time>
      </trkpt>
      <trkpt lat="46.17224" lon="2.49837">
        <ele>427</ele>
        <time>2015-04-18T15:46:43Z</time>
      </trkpt>
      <trkpt lat="46.17225" lon="2.49833">
        <ele>426</ele>
        <time>2015-04-18T15:46:45Z</time>
      </trkpt>
      <trkpt lat="46.17225" lon="2.49829">
        <ele>426</ele>
        <time>2015-04-18T15:46:47Z</time>
      </trkpt>
      <trkpt lat="46.17226" lon="2.49825">
        <ele>426</ele>
        <time>2015-04-18T15:46:49Z</time>
      </trkpt>
      <trkpt lat="46.17227" lon="2.4982">
        <ele>425</ele>
        <time>2015-04-18T15:46:51Z</time>
      </trkpt>
      <trkpt lat="46.17226" lon="2.49816">
        <ele>425</ele>
        <time>2015-04-18T15:46:53Z</time>
      </trkpt>
      <trkpt lat="46.17226" lon="2.49812">
        <ele>424</ele>
        <time>2015-04-18T15:46:55Z</time>
      </trkpt>
      <trkpt lat="46.17225" lon="2.49807">
        <ele>424</ele>
        <time>2015-04-18T15:46:57Z</time>
      </trkpt>
      <trkpt lat="46.17225" lon="2.49803">
        <ele>424</ele>
        <time>2015-04-18T15:46:59Z</time>
      </trkpt>
      <trkpt lat="46.17224" lon="2.49798">
        <ele>424</ele>
        <time>2015-04-18T15:47:01Z</time>
      </trkpt>
      <trkpt lat="46.17223" lon="2.49794">
        <ele>423</ele>
        <time>2015-04-18T15:47:03Z</time>
      </trkpt>
      <trkpt lat="46.17223" lon="2.4979">
        <ele>423</ele>
        <time>2015-04-18T15:47:05Z</time>
      </trkpt>
      <trkpt lat="46.17223" lon="2.49785">
        <ele>423</ele>
        <time>2015-04-18T15:47:07Z</time>
      </trkpt>
      <trkpt lat="46.17222" lon="2.4978">
        <ele>422</ele>
        <time>2015-04-18T15:47:09Z</time>
      </trkpt>
      <trkpt lat="46.17222" lon="2.49776">
        <ele>422</ele>
        <time>2015-04-18T15:47:11Z</time>
      </trkpt>
      <trkpt lat="46.17222" lon="2.49771">
        <ele>422</ele>
        <time>2015-04-18T15:47:13Z</time>
      </trkpt>
      <trkpt lat="46.17221" lon="2.49766">
        <ele>421</ele>
        <time>2015-04-18T15:47:15Z</time>
      </trkpt>
      <trkpt lat="46.17221" lon="2.49762">
        <ele>421</ele>
        <time>2015-04-18T15:47:17Z</time>
      </trkpt>
      <trkpt lat="46.17222" lon="2.49757">
        <ele>421</ele>
        <time>2015-04-18T15:47:19Z</time>
      </trkpt>
      <trkpt lat="46.17222" lon="2.49753">
        <ele>421</ele>
        <time>2015-04-18T15:47:21Z</time>
      </trkpt>
      <trkpt lat="46.17222" lon="2.49748">
        <ele>420</ele>
        <time>2015-04-18T15:47:23Z</time>
      </trkpt>
      <trkpt lat="46.17223" lon="2.49744">
        <ele>420</ele>
        <time>2015-04-18T15:47:25Z</time>
      </trkpt>
      <trkpt lat="46.17223" lon="2.49739">
        <ele>420</ele>
        <time>2015-04-18T15:47:27Z</time>
      </trkpt>
      <trkpt lat="46.17224" lon="2.49735">
        <ele>419</ele>
        <time>2015-04-18T15:47:29Z</time>
      </trkpt>
      <trkpt lat="46.17225" lon="2.49731">
        <ele>419</ele>
        <time>2015-04-18T15:47:31Z</time>
      </trkpt>
      <trkpt lat="46.17226" lon="2.49727">
        <ele>419</ele>
        <time>2015-04-18T15:47:33Z</time>
      </trkpt>
      <trkpt lat="46.17227" lon="2.49722">
        <ele>419</ele>
        <time>2015-04-18T15:47:35Z</time>
      </trkpt>
      <trkpt lat="46.17228" lon="2.49718">
        <ele>419</ele>
        <time>2015-04-18T15:47:37Z</time>
      </trkpt>
      <trkpt lat="46.1723" lon="2.49714">
        <ele>419</ele>
        <time>2015-04-18T15:47:39Z</time>
      </trkpt>
      <trkpt lat="46.17231" lon="2.4971">
        <ele>419</ele>
        <time>2015-04-18T15:47:41Z</time>
      </trkpt>
      <trkpt lat="46.17233" lon="2.49707">
        <ele>418</ele>
        <time>2015-04-18T15:47:43Z</time>
      </trkpt>
      <trkpt lat="46.17235" lon="2.49704">
        <ele>418</ele>
        <time>2015-04-18T15:47:45Z</time>
      </trkpt>
      <trkpt lat="46.17238" lon="2.49701">
        <ele>418</ele>
        <time>2015-04-18T15:47:47Z</time>
      </trkpt>
      <trkpt lat="46.1724" lon="2.49698">
        <ele>418</ele>
        <time>2015-04-18T15:47:49Z</time>
      </trkpt>
      <trkpt lat="46.17243" lon="2.49695">
        <ele>418</ele>
        <time>2015-04-18T15:47:51Z</time>
      </trkpt>
      <trkpt lat="46.17246" lon="2.49693">
        <ele>418</ele>
        <time>2015-04-18T15:47:53Z</time>
      </trkpt>
      <trkpt lat="46.17248" lon="2.4969">
        <ele>417</ele>
        <time>2015-04-18T15:47:55Z</time>
      </trkpt>
      <trkpt lat="46.17251" lon="2.49689">
        <ele>417</ele>
        <time>2015-04-18T15:47:57Z</time>
      </trkpt>
      <trkpt lat="46.17254" lon="2.49687">
        <ele>416</ele>
        <time>2015-04-18T15:47:59Z</time>
      </trkpt>
      <trkpt lat="46.17256" lon="2.49685">
        <ele>416</ele>
        <time>2015-04-18T15:48:01Z</time>
      </trkpt>
      <trkpt lat="46.17259" lon="2.49682">
        <ele>416</ele>
        <time>2015-04-18T15:48:03Z</time>
      </trkpt>
      <trkpt lat="46.17262" lon="2.4968">
        <ele>416</ele>
        <time>2015-04-18T15:48:05Z</time>
      </trkpt>
      <trkpt lat="46.17265" lon="2.49678">
        <ele>416</ele>
        <time>2015-04-18T15:48:07Z</time>
      </trkpt>
      <trkpt lat="46.17269" lon="2.49676">
        <ele>416</ele>
        <time>2015-04-18T15:48:09Z</time>
      </trkpt>
      <trkpt lat="46.17272" lon="2.49674">
        <ele>416</ele>
        <time>2015-04-18T15:48:11Z</time>
      </trkpt>
      <trkpt lat="46.17274" lon="2.49672">
        <ele>416</ele>
        <time>2015-04-18T15:48:13Z</time>
      </trkpt>
      <trkpt lat="46.17277" lon="2.4967">
        <ele>416</ele>
        <time>2015-04-18T15:48:15Z</time>
      </trkpt>
      <trkpt lat="46.1728" lon="2.49668">
        <ele>416</ele>
        <time>2015-04-18T15:48:17Z</time>
      </trkpt>
      <trkpt lat="46.17283" lon="2.49666">
        <ele>416</ele>
        <time>2015-04-18T15:48:19Z</time>
      </trkpt>
      <trkpt lat="46.17286" lon="2.49664">
        <ele>415</ele>
        <time>2015-04-18T15:48:21Z</time>
      </trkpt>
      <trkpt lat="46.17289" lon="2.49662">
        <ele>415</ele>
        <time>2015-04-18T15:48:23Z</time>
      </trkpt>
      <trkpt lat="46.17292" lon="2.4966">
        <ele>415</ele>
        <time>2015-04-18T15:48:25Z</time>
      </trkpt>
      <trkpt lat="46.17295" lon="2.49658">
        <ele>415</ele>
        <time>2015-04-18T15:48:27Z</time>
      </trkpt>
      <trkpt lat="46.17298" lon="2.49656">
        <ele>415</ele>
        <time>2015-04-18T15:48:29Z</time>
      </trkpt>
      <trkpt lat="46.17301" lon="2.49654">
        <ele>415</ele>
        <time>2015-04-18T15:48:31Z</time>
      </trkpt>
      <trkpt lat="46.17303" lon="2.49652">
        <ele>414</ele>
        <time>2015-04-18T15:48:33Z</time>
      </trkpt>
      <trkpt lat="46.17306" lon="2.4965">
        <ele>414</ele>
        <time>2015-04-18T15:48:35Z</time>
      </trkpt>
      <trkpt lat="46.17309" lon="2.49648">
        <ele>414</ele>
        <time>2015-04-18T15:48:37Z</time>
      </trkpt>
      <trkpt lat="46.17312" lon="2.49646">
        <ele>414</ele>
        <time>2015-04-18T15:48:39Z</time>
      </trkpt>
      <trkpt lat="46.17315" lon="2.49644">
        <ele>413</ele>
        <time>2015-04-18T15:48:41Z</time>
      </trkpt>
      <trkpt lat="46.17317" lon="2.49641">
        <ele>413</ele>
        <time>2015-04-18T15:48:43Z</time>
      </trkpt>
      <trkpt lat="46.1732" lon="2.4964">
        <ele>413</ele>
        <time>2015-04-18T15:48:45Z</time>
      </trkpt>
      <trkpt lat="46.17323" lon="2.49638">
        <ele>413</ele>
        <time>2015-04-18T15:48:47Z</time>
      </trkpt>
      <trkpt lat="46.17326" lon="2.49636">
        <ele>413</ele>
        <time>2015-04-18T15:48:49Z</time>
      </trkpt>
      <trkpt lat="46.17329" lon="2.49634">
        <ele>412</ele>
        <time>2015-04-18T15:48:51Z</time>
      </trkpt>
      <trkpt lat="46.17332" lon="2.49632">
        <ele>412</ele>
        <time>2015-04-18T15:48:53Z</time>
      </trkpt>
      <trkpt lat="46.17335" lon="2.4963">
        <ele>412</ele>
        <time>2015-04-18T15:48:55Z</time>
      </trkpt>
      <trkpt lat="46.17338" lon="2.49628">
        <ele>411</ele>
        <time>2015-04-18T15:48:57Z</time>
      </trkpt>
      <trkpt lat="46.17341" lon="2.49626">
        <ele>411</ele>
        <time>2015-04-18T15:48:59Z</time>
      </trkpt>
      <trkpt lat="46.17344" lon="2.49624">
        <ele>411</ele>
        <time>2015-04-18T15:49:01Z</time>
      </trkpt>
      <trkpt lat="46.17347" lon="2.49622">
        <ele>411</ele>
        <time>2015-04-18T15:49:03Z</time>
      </trkpt>
      <trkpt lat="46.17349" lon="2.49619">
        <ele>411</ele>
        <time>2015-04-18T15:49:05Z</time>
      </trkpt>
      <trkpt lat="46.17352" lon="2.49616">
        <ele>410</ele>
        <time>2015-04-18T15:49:07Z</time>
      </trkpt>
      <trkpt lat="46.17354" lon="2.49613">
        <ele>410</ele>
        <time>2015-04-18T15:49:09Z</time>
      </trkpt>
      <trkpt lat="46.17356" lon="2.49609">
        <ele>410</ele>
        <time>2015-04-18T15:49:11Z</time>
      </trkpt>
      <trkpt lat="46.17357" lon="2.49605">
        <ele>410</ele>
        <time>2015-04-18T15:49:13Z</time>
      </trkpt>
      <trkpt lat="46.17357" lon="2.49601">
        <ele>410</ele>
        <time>2015-04-18T15:49:15Z</time>
      </trkpt>
      <trkpt lat="46.17359" lon="2.49597">
        <ele>410</ele>
        <time>2015-04-18T15:49:17Z</time>
      </trkpt>
      <trkpt lat="46.1736" lon="2.49593">
        <ele>410</ele>
        <time>2015-04-18T15:49:19Z</time>
      </trkpt>
      <trkpt lat="46.1736" lon="2.49588">
        <ele>410</ele>
        <time>2015-04-18T15:49:21Z</time>
      </trkpt>
      <trkpt lat="46.1736" lon="2.49584">
        <ele>410</ele>
        <time>2015-04-18T15:49:23Z</time>
      </trkpt>
      <trkpt lat="46.1736" lon="2.49579">
        <ele>410</ele>
        <time>2015-04-18T15:49:25Z</time>
      </trkpt>
      <trkpt lat="46.1736" lon="2.49575">
        <ele>410</ele>
        <time>2015-04-18T15:49:27Z</time>
      </trkpt>
      <trkpt lat="46.1736" lon="2.4957">
        <ele>410</ele>
        <time>2015-04-18T15:49:29Z</time>
      </trkpt>
      <trkpt lat="46.17359" lon="2.49566">
        <ele>410</ele>
        <time>2015-04-18T15:49:31Z</time>
      </trkpt>
      <trkpt lat="46.17359" lon="2.49561">
        <ele>410</ele>
        <time>2015-04-18T15:49:33Z</time>
      </trkpt>
      <trkpt lat="46.17359" lon="2.49557">
        <ele>410</ele>
        <time>2015-04-18T15:49:35Z</time>
      </trkpt>
      <trkpt lat="46.17359" lon="2.49552">
        <ele>410</ele>
        <time>2015-04-18T15:49:37Z</time>
      </trkpt>
      <trkpt lat="46.17359" lon="2.49548">
        <ele>410</ele>
        <time>2015-04-18T15:49:39Z</time>
      </trkpt>
      <trkpt lat="46.17359" lon="2.49543">
        <ele>410</ele>
        <time>2015-04-18T15:49:41Z</time>
      </trkpt>
      <trkpt lat="46.17358" lon="2.49539">
        <ele>410</ele>
        <time>2015-04-18T15:49:43Z</time>
      </trkpt>
      <trkpt lat="46.17358" lon="2.49534">
        <ele>410</ele>
        <time>2015-04-18T15:49:45Z</time>
      </trkpt>
      <trkpt lat="46.17358" lon="2.49529">
        <ele>410</ele>
        <time>2015-04-18T15:49:47Z</time>
      </trkpt>
      <trkpt lat="46.17358" lon="2.49524">
        <ele>410</ele>
        <time>2015-04-18T15:49:49Z</time>
      </trkpt>
      <trkpt lat="46.17358" lon="2.4952">
        <ele>410</ele>
        <time>2015-04-18T15:49:51Z</time>
      </trkpt>
      <trkpt lat="46.17358" lon="2.49515">
        <ele>410</ele>
        <time>2015-04-18T15:49:53Z</time>
      </trkpt>
      <trkpt lat="46.17359" lon="2.4951">
        <ele>410</ele>
        <time>2015-04-18T15:49:55Z</time>
      </trkpt>
      <trkpt lat="46.17359" lon="2.49506">
        <ele>410</ele>
        <time>2015-04-18T15:49:57Z</time>
      </trkpt>
      <trkpt lat="46.1736" lon="2.49502">
        <ele>410</ele>
        <time>2015-04-18T15:49:59Z</time>
      </trkpt>
      <trkpt lat="46.1736" lon="2.49497">
        <ele>410</ele>
        <time>2015-04-18T15:50:01Z</time>
      </trkpt>
      <trkpt lat="46.1736" lon="2.49493">
        <ele>410</ele>
        <time>2015-04-18T15:50:03Z</time>
      </trkpt>
      <trkpt lat="46.17361" lon="2.49489">
        <ele>410</ele>
        <time>2015-04-18T15:50:05Z</time>
      </trkpt>
      <trkpt lat="46.17361" lon="2.49485">
        <ele>410</ele>
        <time>2015-04-18T15:50:07Z</time>
      </trkpt>
      <trkpt lat="46.17363" lon="2.49481">
        <ele>410</ele>
        <time>2015-04-18T15:50:09Z</time>
      </trkpt>
      <trkpt lat="46.17365" lon="2.49478">
        <ele>410</ele>
        <time>2015-04-18T15:50:11Z</time>
      </trkpt>
      <trkpt lat="46.17368" lon="2.49476">
        <ele>410</ele>
        <time>2015-04-18T15:50:13Z</time>
      </trkpt>
      <trkpt lat="46.17371" lon="2.49475">
        <ele>410</ele>
        <time>2015-04-18T15:50:15Z</time>
      </trkpt>
      <trkpt lat="46.17374" lon="2.49474">
        <ele>410</ele>
        <time>2015-04-18T15:50:17Z</time>
      </trkpt>
      <trkpt lat="46.17378" lon="2.49473">
        <ele>410</ele>
        <time>2015-04-18T15:50:19Z</time>
      </trkpt>
      <trkpt lat="46.17381" lon="2.49472">
        <ele>410</ele>
        <time>2015-04-18T15:50:21Z</time>
      </trkpt>
      <trkpt lat="46.17384" lon="2.4947">
        <ele>410</ele>
        <time>2015-04-18T15:50:23Z</time>
      </trkpt>
      <trkpt lat="46.17387" lon="2.49468">
        <ele>410</ele>
        <time>2015-04-18T15:50:25Z</time>
      </trkpt>
      <trkpt lat="46.1739" lon="2.49466">
        <ele>410</ele>
        <time>2015-04-18T15:50:27Z</time>
      </trkpt>
      <trkpt lat="46.17393" lon="2.49464">
        <ele>410</ele>
        <time>2015-04-18T15:50:29Z</time>
      </trkpt>
      <trkpt lat="46.17396" lon="2.49462">
        <ele>410</ele>
        <time>2015-04-18T15:50:31Z</time>
      </trkpt>
      <trkpt lat="46.17398" lon="2.49459">
        <ele>410</ele>
        <time>2015-04-18T15:50:33Z</time>
      </trkpt>
      <trkpt lat="46.17401" lon="2.49457">
        <ele>410</ele>
        <time>2015-04-18T15:50:35Z</time>
      </trkpt>
      <trkpt lat="46.17404" lon="2.49453">
        <ele>410</ele>
        <time>2015-04-18T15:50:38Z</time>
      </trkpt>
      <trkpt lat="46.17406" lon="2.4945">
        <ele>410</ele>
        <time>2015-04-18T15:50:40Z</time>
      </trkpt>
      <trkpt lat="46.17409" lon="2.49448">
        <ele>410</ele>
        <time>2015-04-18T15:50:42Z</time>
      </trkpt>
      <trkpt lat="46.17412" lon="2.49445">
        <ele>410</ele>
        <time>2015-04-18T15:50:44Z</time>
      </trkpt>
      <trkpt lat="46.17414" lon="2.49442">
        <ele>410</ele>
        <time>2015-04-18T15:50:46Z</time>
      </trkpt>
      <trkpt lat="46.17417" lon="2.49439">
        <ele>410</ele>
        <time>2015-04-18T15:50:48Z</time>
      </trkpt>
      <trkpt lat="46.17419" lon="2.49436">
        <ele>410</ele>
        <time>2015-04-18T15:50:50Z</time>
      </trkpt>
      <trkpt lat="46.17422" lon="2.49433">
        <ele>410</ele>
        <time>2015-04-18T15:50:52Z</time>
      </trkpt>
      <trkpt lat="46.17424" lon="2.49431">
        <ele>410</ele>
        <time>2015-04-18T15:50:54Z</time>
      </trkpt>
      <trkpt lat="46.17427" lon="2.49428">
        <ele>410</ele>
        <time>2015-04-18T15:50:56Z</time>
      </trkpt>
      <trkpt lat="46.17429" lon="2.49425">
        <ele>410</ele>
        <time>2015-04-18T15:50:58Z</time>
      </trkpt>
      <trkpt lat="46.17432" lon="2.49421">
        <ele>410</ele>
        <time>2015-04-18T15:51:01Z</time>
      </trkpt>
      <trkpt lat="46.17435" lon="2.49419">
        <ele>410</ele>
        <time>2015-04-18T15:51:03Z</time>
      </trkpt>
      <trkpt lat="46.17437" lon="2.49416">
        <ele>410</ele>
        <time>2015-04-18T15:51:05Z</time>
      </trkpt>
      <trkpt lat="46.1744" lon="2.49414">
        <ele>409</ele>
        <time>2015-04-18T15:51:07Z</time>
      </trkpt>
      <trkpt lat="46.17443" lon="2.49412">
        <ele>409</ele>
        <time>2015-04-18T15:51:09Z</time>
      </trkpt>
      <trkpt lat="46.17445" lon="2.4941">
        <ele>409</ele>
        <time>2015-04-18T15:51:11Z</time>
      </trkpt>
      <trkpt lat="46.17448" lon="2.49408">
        <ele>409</ele>
        <time>2015-04-18T15:51:13Z</time>
      </trkpt>
      <trkpt lat="46.1745" lon="2.49405">
        <ele>408</ele>
        <time>2015-04-18T15:51:15Z</time>
      </trkpt>
      <trkpt lat="46.17454" lon="2.49404">
        <ele>408</ele>
        <time>2015-04-18T15:51:17Z</time>
      </trkpt>
      <trkpt lat="46.17457" lon="2.49403">
        <ele>408</ele>
        <time>2015-04-18T15:51:19Z</time>
      </trkpt>
      <trkpt lat="46.1746" lon="2.49401">
        <ele>408</ele>
        <time>2015-04-18T15:51:21Z</time>
      </trkpt>
      <trkpt lat="46.17463" lon="2.494">
        <ele>408</ele>
        <time>2015-04-18T15:51:23Z</time>
      </trkpt>
      <trkpt lat="46.17466" lon="2.49399">
        <ele>408</ele>
        <time>2015-04-18T15:51:25Z</time>
      </trkpt>
      <trkpt lat="46.17469" lon="2.49398">
        <ele>408</ele>
        <time>2015-04-18T15:51:27Z</time>
      </trkpt>
      <trkpt lat="46.17472" lon="2.49397">
        <ele>408</ele>
        <time>2015-04-18T15:51:29Z</time>
      </trkpt>
      <trkpt lat="46.17476" lon="2.49397">
        <ele>408</ele>
        <time>2015-04-18T15:51:31Z</time>
      </trkpt>
      <trkpt lat="46.17479" lon="2.49396">
        <ele>408</ele>
        <time>2015-04-18T15:51:33Z</time>
      </trkpt>
      <trkpt lat="46.17482" lon="2.49396">
        <ele>408</ele>
        <time>2015-04-18T15:51:35Z</time>
      </trkpt>
      <trkpt lat="46.17485" lon="2.49395">
        <ele>408</ele>
        <time>2015-04-18T15:51:37Z</time>
      </trkpt>
      <trkpt lat="46.17488" lon="2.49394">
        <ele>408</ele>
        <time>2015-04-18T15:51:39Z</time>
      </trkpt>
      <trkpt lat="46.1749" lon="2.49394">
        <ele>408</ele>
        <time>2015-04-18T15:51:41Z</time>
      </trkpt>
      <trkpt lat="46.17493" lon="2.49393">
        <ele>408</ele>
        <time>2015-04-18T15:51:43Z</time>
      </trkpt>
      <trkpt lat="46.17497" lon="2.49393">
        <ele>408</ele>
        <time>2015-04-18T15:51:45Z</time>
      </trkpt>
      <trkpt lat="46.175" lon="2.49392">
        <ele>408</ele>
        <time>2015-04-18T15:51:47Z</time>
      </trkpt>
      <trkpt lat="46.17503" lon="2.49391">
        <ele>408</ele>
        <time>2015-04-18T15:51:49Z</time>
      </trkpt>
      <trkpt lat="46.17506" lon="2.4939">
        <ele>408</ele>
        <time>2015-04-18T15:51:51Z</time>
      </trkpt>
      <trkpt lat="46.17509" lon="2.49389">
        <ele>408</ele>
        <time>2015-04-18T15:51:53Z</time>
      </trkpt>
      <trkpt lat="46.17512" lon="2.49388">
        <ele>408</ele>
        <time>2015-04-18T15:51:55Z</time>
      </trkpt>
      <trkpt lat="46.17515" lon="2.49387">
        <ele>408</ele>
        <time>2015-04-18T15:51:57Z</time>
      </trkpt>
      <trkpt lat="46.17518" lon="2.49386">
        <ele>408</ele>
        <time>2015-04-18T15:51:59Z</time>
      </trkpt>
      <trkpt lat="46.17521" lon="2.49385">
        <ele>407</ele>
        <time>2015-04-18T15:52:01Z</time>
      </trkpt>
      <trkpt lat="46.17524" lon="2.49384">
        <ele>407</ele>
        <time>2015-04-18T15:52:03Z</time>
      </trkpt>
      <trkpt lat="46.17527" lon="2.49382">
        <ele>407</ele>
        <time>2015-04-18T15:52:05Z</time>
      </trkpt>
      <trkpt lat="46.1753" lon="2.49382">
        <ele>407</ele>
        <time>2015-04-18T15:52:07Z</time>
      </trkpt>
      <trkpt lat="46.17533" lon="2.49382">
        <ele>407</ele>
        <time>2015-04-18T15:52:09Z</time>
      </trkpt>
      <trkpt lat="46.17536" lon="2.49382">
        <ele>407</ele>
        <time>2015-04-18T15:52:11Z</time>
      </trkpt>
      <trkpt lat="46.17539" lon="2.49381">
        <ele>407</ele>
        <time>2015-04-18T15:52:13Z</time>
      </trkpt>
      <trkpt lat="46.17542" lon="2.49381">
        <ele>407</ele>
        <time>2015-04-18T15:52:15Z</time>
      </trkpt>
      <trkpt lat="46.17545" lon="2.49381">
        <ele>407</ele>
        <time>2015-04-18T15:52:17Z</time>
      </trkpt>
      <trkpt lat="46.17548" lon="2.49382">
        <ele>407</ele>
        <time>2015-04-18T15:52:19Z</time>
      </trkpt>
      <trkpt lat="46.17551" lon="2.49382">
        <ele>407</ele>
        <time>2015-04-18T15:52:21Z</time>
      </trkpt>
      <trkpt lat="46.17554" lon="2.49383">
        <ele>407</ele>
        <time>2015-04-18T15:52:23Z</time>
      </trkpt>
      <trkpt lat="46.17557" lon="2.49384">
        <ele>407</ele>
        <time>2015-04-18T15:52:25Z</time>
      </trkpt>
      <trkpt lat="46.17561" lon="2.49385">
        <ele>407</ele>
        <time>2015-04-18T15:52:27Z</time>
      </trkpt>
      <trkpt lat="46.17563" lon="2.49387">
        <ele>407</ele>
        <time>2015-04-18T15:52:29Z</time>
      </trkpt>
      <trkpt lat="46.17566" lon="2.49389">
        <ele>407</ele>
        <time>2015-04-18T15:52:31Z</time>
      </trkpt>
      <trkpt lat="46.17569" lon="2.4939">
        <ele>407</ele>
        <time>2015-04-18T15:52:33Z</time>
      </trkpt>
      <trkpt lat="46.17572" lon="2.49392">
        <ele>407</ele>
        <time>2015-04-18T15:52:35Z</time>
      </trkpt>
      <trkpt lat="46.17575" lon="2.49393">
        <ele>407</ele>
        <time>2015-04-18T15:52:37Z</time>
      </trkpt>
      <trkpt lat="46.17577" lon="2.49395">
        <ele>407</ele>
        <time>2015-04-18T15:52:39Z</time>
      </trkpt>
      <trkpt lat="46.1758" lon="2.49397">
        <ele>407</ele>
        <time>2015-04-18T15:52:41Z</time>
      </trkpt>
      <trkpt lat="46.17583" lon="2.49399">
        <ele>407</ele>
        <time>2015-04-18T15:52:43Z</time>
      </trkpt>
      <trkpt lat="46.17586" lon="2.49401">
        <ele>407</ele>
        <time>2015-04-18T15:52:45Z</time>
      </trkpt>
      <trkpt lat="46.17588" lon="2.49402">
        <ele>407</ele>
        <time>2015-04-18T15:52:47Z</time>
      </trkpt>
      <trkpt lat="46.17591" lon="2.49405">
        <ele>407</ele>
        <time>2015-04-18T15:52:49Z</time>
      </trkpt>
      <trkpt lat="46.17593" lon="2.49407">
        <ele>407</ele>
        <time>2015-04-18T15:52:51Z</time>
      </trkpt>
      <trkpt lat="46.17596" lon="2.49409">
        <ele>407</ele>
        <time>2015-04-18T15:52:53Z</time>
      </trkpt>
      <trkpt lat="46.17599" lon="2.49411">
        <ele>407</ele>
        <time>2015-04-18T15:52:55Z</time>
      </trkpt>
      <trkpt lat="46.17601" lon="2.49414">
        <ele>407</ele>
        <time>2015-04-18T15:52:57Z</time>
      </trkpt>
      <trkpt lat="46.17603" lon="2.49417">
        <ele>407</ele>
        <time>2015-04-18T15:52:59Z</time>
      </trkpt>
      <trkpt lat="46.17606" lon="2.49419">
        <ele>407</ele>
        <time>2015-04-18T15:53:01Z</time>
      </trkpt>
      <trkpt lat="46.17608" lon="2.49422">
        <ele>406</ele>
        <time>2015-04-18T15:53:03Z</time>
      </trkpt>
      <trkpt lat="46.17611" lon="2.49424">
        <ele>406</ele>
        <time>2015-04-18T15:53:05Z</time>
      </trkpt>
      <trkpt lat="46.17613" lon="2.49426">
        <ele>406</ele>
        <time>2015-04-18T15:53:07Z</time>
      </trkpt>
      <trkpt lat="46.17616" lon="2.49428">
        <ele>406</ele>
        <time>2015-04-18T15:53:09Z</time>
      </trkpt>
      <trkpt lat="46.17619" lon="2.4943">
        <ele>406</ele>
        <time>2015-04-18T15:53:11Z</time>
      </trkpt>
      <trkpt lat="46.17621" lon="2.49432">
        <ele>406</ele>
        <time>2015-04-18T15:53:13Z</time>
      </trkpt>
      <trkpt lat="46.17624" lon="2.49434">
        <ele>406</ele>
        <time>2015-04-18T15:53:15Z</time>
      </trkpt>
      <trkpt lat="46.17627" lon="2.49435">
        <ele>405</ele>
        <time>2015-04-18T15:53:18Z</time>
      </trkpt>
      <trkpt lat="46.1763" lon="2.49432">
        <ele>405</ele>
        <time>2015-04-18T15:53:20Z</time>
      </trkpt>
      <trkpt lat="46.17629" lon="2.49429">
        <ele>405</ele>
        <time>2015-04-18T15:53:22Z</time>
      </trkpt>
      <trkpt lat="46.17627" lon="2.49427">
        <ele>405</ele>
        <time>2015-04-18T15:53:24Z</time>
      </trkpt>
      <trkpt lat="46.17624" lon="2.49423">
        <ele>405</ele>
        <time>2015-04-18T15:53:27Z</time>
      </trkpt>
      <trkpt lat="46.17622" lon="2.4942">
        <ele>405</ele>
        <time>2015-04-18T15:53:29Z</time>
      </trkpt>
      <trkpt lat="46.1762" lon="2.49417">
        <ele>405</ele>
        <time>2015-04-18T15:53:31Z</time>
      </trkpt>
      <trkpt lat="46.17617" lon="2.49414">
        <ele>405</ele>
        <time>2015-04-18T15:53:34Z</time>
      </trkpt>
      <trkpt lat="46.17616" lon="2.49411">
        <ele>405</ele>
        <time>2015-04-18T15:53:36Z</time>
      </trkpt>
      <trkpt lat="46.17614" lon="2.49409">
        <ele>405</ele>
        <time>2015-04-18T15:53:38Z</time>
      </trkpt>
      <trkpt lat="46.17611" lon="2.49408">
        <ele>405</ele>
        <time>2015-04-18T15:53:40Z</time>
      </trkpt>
      <trkpt lat="46.1761" lon="2.49405">
        <ele>405</ele>
        <time>2015-04-18T15:53:42Z</time>
      </trkpt>
      <trkpt lat="46.17608" lon="2.49403">
        <ele>405</ele>
        <time>2015-04-18T15:53:44Z</time>
      </trkpt>
      <trkpt lat="46.17607" lon="2.494">
        <ele>405</ele>
        <time>2015-04-18T15:53:46Z</time>
      </trkpt>
      <trkpt lat="46.17605" lon="2.49397">
        <ele>405</ele>
        <time>2015-04-18T15:53:48Z</time>
      </trkpt>
      <trkpt lat="46.17603" lon="2.49396">
        <ele>406</ele>
        <time>2015-04-18T15:53:50Z</time>
      </trkpt>
      <trkpt lat="46.17602" lon="2.49392">
        <ele>407</ele>
        <time>2015-04-18T15:53:53Z</time>
      </trkpt>
      <trkpt lat="46.17601" lon="2.4939">
        <ele>407</ele>
        <time>2015-04-18T15:53:55Z</time>
      </trkpt>
      <trkpt lat="46.17599" lon="2.49387">
        <ele>407</ele>
        <time>2015-04-18T15:53:57Z</time>
      </trkpt>
      <trkpt lat="46.17597" lon="2.49384">
        <ele>407</ele>
        <time>2015-04-18T15:53:59Z</time>
      </trkpt>
      <trkpt lat="46.17594" lon="2.49381">
        <ele>407</ele>
        <time>2015-04-18T15:54:02Z</time>
      </trkpt>
      <trkpt lat="46.17592" lon="2.49379">
        <ele>407</ele>
        <time>2015-04-18T15:54:04Z</time>
      </trkpt>
      <trkpt lat="46.1759" lon="2.49377">
        <ele>407</ele>
        <time>2015-04-18T15:54:06Z</time>
      </trkpt>
      <trkpt lat="46.17587" lon="2.49374">
        <ele>408</ele>
        <time>2015-04-18T15:54:09Z</time>
      </trkpt>
      <trkpt lat="46.17585" lon="2.49371">
        <ele>408</ele>
        <time>2015-04-18T15:54:11Z</time>
      </trkpt>
      <trkpt lat="46.17584" lon="2.49367">
        <ele>409</ele>
        <time>2015-04-18T15:54:13Z</time>
      </trkpt>
      <trkpt lat="46.17583" lon="2.49363">
        <ele>409</ele>
        <time>2015-04-18T15:54:15Z</time>
      </trkpt>
      <trkpt lat="46.17583" lon="2.49357">
        <ele>410</ele>
        <time>2015-04-18T15:54:17Z</time>
      </trkpt>
      <trkpt lat="46.17583" lon="2.49353">
        <ele>411</ele>
        <time>2015-04-18T15:54:19Z</time>
      </trkpt>
      <trkpt lat="46.17582" lon="2.49349">
        <ele>411</ele>
        <time>2015-04-18T15:54:21Z</time>
      </trkpt>
      <trkpt lat="46.17582" lon="2.49346">
        <ele>411</ele>
        <time>2015-04-18T15:54:23Z</time>
      </trkpt>
      <trkpt lat="46.17582" lon="2.49342">
        <ele>413</ele>
        <time>2015-04-18T15:54:25Z</time>
      </trkpt>
      <trkpt lat="46.17581" lon="2.49338">
        <ele>414</ele>
        <time>2015-04-18T15:54:27Z</time>
      </trkpt>
      <trkpt lat="46.17582" lon="2.49332">
        <ele>414</ele>
        <time>2015-04-18T15:54:29Z</time>
      </trkpt>
      <trkpt lat="46.17582" lon="2.49327">
        <ele>414</ele>
        <time>2015-04-18T15:54:31Z</time>
      </trkpt>
      <trkpt lat="46.17582" lon="2.49324">
        <ele>414</ele>
        <time>2015-04-18T15:54:33Z</time>
      </trkpt>
      <trkpt lat="46.17582" lon="2.4932">
        <ele>414</ele>
        <time>2015-04-18T15:54:35Z</time>
      </trkpt>
      <trkpt lat="46.17582" lon="2.49317">
        <ele>414</ele>
        <time>2015-04-18T15:54:37Z</time>
      </trkpt>
      <trkpt lat="46.17582" lon="2.49312">
        <ele>414</ele>
        <time>2015-04-18T15:54:39Z</time>
      </trkpt>
      <trkpt lat="46.17581" lon="2.49308">
        <ele>415</ele>
        <time>2015-04-18T15:54:41Z</time>
      </trkpt>
      <trkpt lat="46.1758" lon="2.49304">
        <ele>417</ele>
        <time>2015-04-18T15:54:43Z</time>
      </trkpt>
      <trkpt lat="46.1758" lon="2.49299">
        <ele>418</ele>
        <time>2015-04-18T15:54:45Z</time>
      </trkpt>
      <trkpt lat="46.1758" lon="2.49295">
        <ele>419</ele>
        <time>2015-04-18T15:54:47Z</time>
      </trkpt>
      <trkpt lat="46.1758" lon="2.49291">
        <ele>419</ele>
        <time>2015-04-18T15:54:49Z</time>
      </trkpt>
      <trkpt lat="46.17579" lon="2.49289">
        <ele>419</ele>
        <time>2015-04-18T15:54:51Z</time>
      </trkpt>
      <trkpt lat="46.1758" lon="2.49285">
        <ele>419</ele>
        <time>2015-04-18T15:54:53Z</time>
      </trkpt>
      <trkpt lat="46.17581" lon="2.49281">
        <ele>419</ele>
        <time>2015-04-18T15:54:55Z</time>
      </trkpt>
      <trkpt lat="46.17581" lon="2.49277">
        <ele>419</ele>
        <time>2015-04-18T15:54:57Z</time>
      </trkpt>
      <trkpt lat="46.17581" lon="2.49272">
        <ele>419</ele>
        <time>2015-04-18T15:54:59Z</time>
      </trkpt>
      <trkpt lat="46.17581" lon="2.49269">
        <ele>419</ele>
        <time>2015-04-18T15:55:01Z</time>
      </trkpt>
      <trkpt lat="46.17581" lon="2.49265">
        <ele>419</ele>
        <time>2015-04-18T15:55:03Z</time>
      </trkpt>
      <trkpt lat="46.17581" lon="2.4926">
        <ele>419</ele>
        <time>2015-04-18T15:55:05Z</time>
      </trkpt>
      <trkpt lat="46.17581" lon="2.49257">
        <ele>419</ele>
        <time>2015-04-18T15:55:07Z</time>
      </trkpt>
      <trkpt lat="46.17582" lon="2.49254">
        <ele>419</ele>
        <time>2015-04-18T15:55:10Z</time>
      </trkpt>
      <trkpt lat="46.17584" lon="2.49253">
        <ele>419</ele>
        <time>2015-04-18T15:55:12Z</time>
      </trkpt>
      <trkpt lat="46.17585" lon="2.49251">
        <ele>419</ele>
        <time>2015-04-18T15:55:14Z</time>
      </trkpt>
      <trkpt lat="46.17587" lon="2.4925">
        <ele>419</ele>
        <time>2015-04-18T15:55:16Z</time>
      </trkpt>
      <trkpt lat="46.17591" lon="2.49248">
        <ele>419</ele>
        <time>2015-04-18T15:55:19Z</time>
      </trkpt>
      <trkpt lat="46.17593" lon="2.49248">
        <ele>419</ele>
        <time>2015-04-18T15:55:21Z</time>
      </trkpt>
      <trkpt lat="46.17596" lon="2.49247">
        <ele>419</ele>
        <time>2015-04-18T15:55:23Z</time>
      </trkpt>
      <trkpt lat="46.176" lon="2.49246">
        <ele>419</ele>
        <time>2015-04-18T15:55:25Z</time>
      </trkpt>
      <trkpt lat="46.17603" lon="2.49246">
        <ele>421</ele>
        <time>2015-04-18T15:55:27Z</time>
      </trkpt>
      <trkpt lat="46.17604" lon="2.49245">
        <ele>422</ele>
        <time>2015-04-18T15:55:29Z</time>
      </trkpt>
      <trkpt lat="46.17607" lon="2.49245">
        <ele>422</ele>
        <time>2015-04-18T15:55:31Z</time>
      </trkpt>
      <trkpt lat="46.17609" lon="2.49244">
        <ele>423</ele>
        <time>2015-04-18T15:55:33Z</time>
      </trkpt>
      <trkpt lat="46.17611" lon="2.49244">
        <ele>423</ele>
        <time>2015-04-18T15:55:35Z</time>
      </trkpt>
      <trkpt lat="46.17613" lon="2.49243">
        <ele>424</ele>
        <time>2015-04-18T15:55:37Z</time>
      </trkpt>
      <trkpt lat="46.17614" lon="2.49244">
        <ele>425</ele>
        <time>2015-04-18T15:55:39Z</time>
      </trkpt>
      <trkpt lat="46.17616" lon="2.49244">
        <ele>426</ele>
        <time>2015-04-18T15:55:41Z</time>
      </trkpt>
      <trkpt lat="46.17618" lon="2.49244">
        <ele>426</ele>
        <time>2015-04-18T15:55:43Z</time>
      </trkpt>
      <trkpt lat="46.17621" lon="2.49243">
        <ele>426</ele>
        <time>2015-04-18T15:55:45Z</time>
      </trkpt>
      <trkpt lat="46.17624" lon="2.49245">
        <ele>426</ele>
        <time>2015-04-18T15:55:47Z</time>
      </trkpt>
      <trkpt lat="46.17628" lon="2.49246">
        <ele>427</ele>
        <time>2015-04-18T15:55:49Z</time>
      </trkpt>
      <trkpt lat="46.17631" lon="2.49247">
        <ele>429</ele>
        <time>2015-04-18T15:55:51Z</time>
      </trkpt>
      <trkpt lat="46.17634" lon="2.49249">
        <ele>431</ele>
        <time>2015-04-18T15:55:53Z</time>
      </trkpt>
      <trkpt lat="46.17637" lon="2.49248">
        <ele>433</ele>
        <time>2015-04-18T15:55:55Z</time>
      </trkpt>
      <trkpt lat="46.17639" lon="2.49248">
        <ele>435</ele>
        <time>2015-04-18T15:55:57Z</time>
      </trkpt>
      <trkpt lat="46.17641" lon="2.49248">
        <ele>436</ele>
        <time>2015-04-18T15:55:59Z</time>
      </trkpt>
      <trkpt lat="46.17643" lon="2.49249">
        <ele>436</ele>
        <time>2015-04-18T15:56:01Z</time>
      </trkpt>
      <trkpt lat="46.17644" lon="2.49249">
        <ele>436</ele>
        <time>2015-04-18T15:56:03Z</time>
      </trkpt>
      <trkpt lat="46.17647" lon="2.49249">
        <ele>436</ele>
        <time>2015-04-18T15:56:05Z</time>
      </trkpt>
      <trkpt lat="46.1765" lon="2.49249">
        <ele>437</ele>
        <time>2015-04-18T15:56:07Z</time>
      </trkpt>
      <trkpt lat="46.17652" lon="2.49249">
        <ele>437</ele>
        <time>2015-04-18T15:56:09Z</time>
      </trkpt>
      <trkpt lat="46.17655" lon="2.49248">
        <ele>437</ele>
        <time>2015-04-18T15:56:11Z</time>
      </trkpt>
      <trkpt lat="46.17658" lon="2.49247">
        <ele>437</ele>
        <time>2015-04-18T15:56:14Z</time>
      </trkpt>
      <trkpt lat="46.17661" lon="2.49246">
        <ele>437</ele>
        <time>2015-04-18T15:56:16Z</time>
      </trkpt>
      <trkpt lat="46.17663" lon="2.49244">
        <ele>437</ele>
        <time>2015-04-18T15:56:18Z</time>
      </trkpt>
      <trkpt lat="46.17665" lon="2.49242">
        <ele>437</ele>
        <time>2015-04-18T15:56:20Z</time>
      </trkpt>
      <trkpt lat="46.17668" lon="2.49239">
        <ele>437</ele>
        <time>2015-04-18T15:56:22Z</time>
      </trkpt>
      <trkpt lat="46.1767" lon="2.49236">
        <ele>437</ele>
        <time>2015-04-18T15:56:24Z</time>
      </trkpt>
      <trkpt lat="46.17672" lon="2.49233">
        <ele>437</ele>
        <time>2015-04-18T15:56:26Z</time>
      </trkpt>
      <trkpt lat="46.17674" lon="2.49229">
        <ele>437</ele>
        <time>2015-04-18T15:56:28Z</time>
      </trkpt>
      <trkpt lat="46.17675" lon="2.49226">
        <ele>437</ele>
        <time>2015-04-18T15:56:30Z</time>
      </trkpt>
      <trkpt lat="46.17677" lon="2.49222">
        <ele>437</ele>
        <time>2015-04-18T15:56:32Z</time>
      </trkpt>
      <trkpt lat="46.17678" lon="2.49218">
        <ele>437</ele>
        <time>2015-04-18T15:56:34Z</time>
      </trkpt>
      <trkpt lat="46.17679" lon="2.49215">
        <ele>437</ele>
        <time>2015-04-18T15:56:36Z</time>
      </trkpt>
      <trkpt lat="46.17681" lon="2.49212">
        <ele>437</ele>
        <time>2015-04-18T15:56:38Z</time>
      </trkpt>
      <trkpt lat="46.17683" lon="2.49208">
        <ele>437</ele>
        <time>2015-04-18T15:56:40Z</time>
      </trkpt>
      <trkpt lat="46.17684" lon="2.49204">
        <ele>437</ele>
        <time>2015-04-18T15:56:42Z</time>
      </trkpt>
      <trkpt lat="46.17685" lon="2.49201">
        <ele>437</ele>
        <time>2015-04-18T15:56:44Z</time>
      </trkpt>
      <trkpt lat="46.17686" lon="2.49197">
        <ele>437</ele>
        <time>2015-04-18T15:56:46Z</time>
      </trkpt>
      <trkpt lat="46.17687" lon="2.49193">
        <ele>437</ele>
        <time>2015-04-18T15:56:48Z</time>
      </trkpt>
      <trkpt lat="46.17688" lon="2.49189">
        <ele>437</ele>
        <time>2015-04-18T15:56:50Z</time>
      </trkpt>
      <trkpt lat="46.1769" lon="2.49186">
        <ele>437</ele>
        <time>2015-04-18T15:56:52Z</time>
      </trkpt>
      <trkpt lat="46.17691" lon="2.49182">
        <ele>437</ele>
        <time>2015-04-18T15:56:54Z</time>
      </trkpt>
      <trkpt lat="46.17692" lon="2.49178">
        <ele>437</ele>
        <time>2015-04-18T15:56:56Z</time>
      </trkpt>
      <trkpt lat="46.17694" lon="2.49174">
        <ele>437</ele>
        <time>2015-04-18T15:56:58Z</time>
      </trkpt>
      <trkpt lat="46.17696" lon="2.49171">
        <ele>437</ele>
        <time>2015-04-18T15:57:00Z</time>
      </trkpt>
      <trkpt lat="46.17697" lon="2.49167">
        <ele>437</ele>
        <time>2015-04-18T15:57:02Z</time>
      </trkpt>
      <trkpt lat="46.17699" lon="2.49164">
        <ele>437</ele>
        <time>2015-04-18T15:57:04Z</time>
      </trkpt>
      <trkpt lat="46.17701" lon="2.49161">
        <ele>437</ele>
        <time>2015-04-18T15:57:06Z</time>
      </trkpt>
      <trkpt lat="46.17702" lon="2.49157">
        <ele>437</ele>
        <time>2015-04-18T15:57:08Z</time>
      </trkpt>
      <trkpt lat="46.17704" lon="2.49153">
        <ele>437</ele>
        <time>2015-04-18T15:57:10Z</time>
      </trkpt>
      <trkpt lat="46.17705" lon="2.4915">
        <ele>437</ele>
        <time>2015-04-18T15:57:12Z</time>
      </trkpt>
      <trkpt lat="46.17707" lon="2.49147">
        <ele>437</ele>
        <time>2015-04-18T15:57:14Z</time>
      </trkpt>
      <trkpt lat="46.17709" lon="2.49144">
        <ele>437</ele>
        <time>2015-04-18T15:57:16Z</time>
      </trkpt>
      <trkpt lat="46.1771" lon="2.4914">
        <ele>437</ele>
        <time>2015-04-18T15:57:18Z</time>
      </trkpt>
      <trkpt lat="46.17712" lon="2.49137">
        <ele>437</ele>
        <time>2015-04-18T15:57:20Z</time>
      </trkpt>
      <trkpt lat="46.17713" lon="2.49133">
        <ele>437</ele>
        <time>2015-04-18T15:57:22Z</time>
      </trkpt>
      <trkpt lat="46.17715" lon="2.4913">
        <ele>437</ele>
        <time>2015-04-18T15:57:24Z</time>
      </trkpt>
      <trkpt lat="46.17717" lon="2.49127">
        <ele>437</ele>
        <time>2015-04-18T15:57:26Z</time>
      </trkpt>
      <trkpt lat="46.17718" lon="2.49124">
        <ele>437</ele>
        <time>2015-04-18T15:57:28Z</time>
      </trkpt>
      <trkpt lat="46.1772" lon="2.4912">
        <ele>437</ele>
        <time>2015-04-18T15:57:30Z</time>
      </trkpt>
      <trkpt lat="46.17721" lon="2.49116">
        <ele>437</ele>
        <time>2015-04-18T15:57:32Z</time>
      </trkpt>
      <trkpt lat="46.17723" lon="2.49113">
        <ele>437</ele>
        <time>2015-04-18T15:57:34Z</time>
      </trkpt>
      <trkpt lat="46.17725" lon="2.4911">
        <ele>437</ele>
        <time>2015-04-18T15:57:36Z</time>
      </trkpt>
      <trkpt lat="46.17726" lon="2.49107">
        <ele>437</ele>
        <time>2015-04-18T15:57:38Z</time>
      </trkpt>
      <trkpt lat="46.17728" lon="2.49103">
        <ele>437</ele>
        <time>2015-04-18T15:57:40Z</time>
      </trkpt>
      <trkpt lat="46.1773" lon="2.491">
        <ele>437</ele>
        <time>2015-04-18T15:57:42Z</time>
      </trkpt>
      <trkpt lat="46.17732" lon="2.49096">
        <ele>437</ele>
        <time>2015-04-18T15:57:44Z</time>
      </trkpt>
      <trkpt lat="46.17734" lon="2.49093">
        <ele>437</ele>
        <time>2015-04-18T15:57:46Z</time>
      </trkpt>
      <trkpt lat="46.17736" lon="2.4909">
        <ele>437</ele>
        <time>2015-04-18T15:57:48Z</time>
      </trkpt>
      <trkpt lat="46.1774" lon="2.49087">
        <ele>437</ele>
        <time>2015-04-18T15:57:50Z</time>
      </trkpt>
      <trkpt lat="46.17743" lon="2.49085">
        <ele>437</ele>
        <time>2015-04-18T15:57:52Z</time>
      </trkpt>
      <trkpt lat="46.17744" lon="2.49082">
        <ele>438</ele>
        <time>2015-04-18T15:57:54Z</time>
      </trkpt>
      <trkpt lat="46.17746" lon="2.49078">
        <ele>438</ele>
        <time>2015-04-18T15:57:57Z</time>
      </trkpt>
      <trkpt lat="46.17747" lon="2.49074">
        <ele>438</ele>
        <time>2015-04-18T15:57:59Z</time>
      </trkpt>
      <trkpt lat="46.17749" lon="2.49071">
        <ele>438</ele>
        <time>2015-04-18T15:58:01Z</time>
      </trkpt>
      <trkpt lat="46.17751" lon="2.49068">
        <ele>438</ele>
        <time>2015-04-18T15:58:03Z</time>
      </trkpt>
      <trkpt lat="46.17754" lon="2.49064">
        <ele>438</ele>
        <time>2015-04-18T15:58:05Z</time>
      </trkpt>
      <trkpt lat="46.17757" lon="2.4906">
        <ele>439</ele>
        <time>2015-04-18T15:58:08Z</time>
      </trkpt>
      <trkpt lat="46.17759" lon="2.49058">
        <ele>439</ele>
        <time>2015-04-18T15:58:10Z</time>
      </trkpt>
      <trkpt lat="46.17761" lon="2.49054">
        <ele>439</ele>
        <time>2015-04-18T15:58:12Z</time>
      </trkpt>
      <trkpt lat="46.17763" lon="2.49052">
        <ele>439</ele>
        <time>2015-04-18T15:58:14Z</time>
      </trkpt>
      <trkpt lat="46.17764" lon="2.49049">
        <ele>439</ele>
        <time>2015-04-18T15:58:16Z</time>
      </trkpt>
      <trkpt lat="46.17765" lon="2.49044">
        <ele>440</ele>
        <time>2015-04-18T15:58:18Z</time>
      </trkpt>
      <trkpt lat="46.17766" lon="2.4904">
        <ele>440</ele>
        <time>2015-04-18T15:58:20Z</time>
      </trkpt>
      <trkpt lat="46.17768" lon="2.49036">
        <ele>440</ele>
        <time>2015-04-18T15:58:22Z</time>
      </trkpt>
      <trkpt lat="46.1777" lon="2.49033">
        <ele>440</ele>
        <time>2015-04-18T15:58:24Z</time>
      </trkpt>
      <trkpt lat="46.17771" lon="2.4903">
        <ele>440</ele>
        <time>2015-04-18T15:58:26Z</time>
      </trkpt>
      <trkpt lat="46.17773" lon="2.49025">
        <ele>440</ele>
        <time>2015-04-18T15:58:28Z</time>
      </trkpt>
      <trkpt lat="46.17774" lon="2.49021">
        <ele>440</ele>
        <time>2015-04-18T15:58:30Z</time>
      </trkpt>
      <trkpt lat="46.17776" lon="2.49018">
        <ele>440</ele>
        <time>2015-04-18T15:58:32Z</time>
      </trkpt>
      <trkpt lat="46.17778" lon="2.49014">
        <ele>440</ele>
        <time>2015-04-18T15:58:35Z</time>
      </trkpt>
      <trkpt lat="46.17779" lon="2.49011">
        <ele>440</ele>
        <time>2015-04-18T15:58:37Z</time>
      </trkpt>
      <trkpt lat="46.1778" lon="2.49007">
        <ele>440</ele>
        <time>2015-04-18T15:58:39Z</time>
      </trkpt>
      <trkpt lat="46.17781" lon="2.49004">
        <ele>440</ele>
        <time>2015-04-18T15:58:41Z</time>
      </trkpt>
      <trkpt lat="46.17782" lon="2.49001">
        <ele>440</ele>
        <time>2015-04-18T15:58:43Z</time>
      </trkpt>
      <trkpt lat="46.17783" lon="2.48997">
        <ele>440</ele>
        <time>2015-04-18T15:58:45Z</time>
      </trkpt>
      <trkpt lat="46.17786" lon="2.48994">
        <ele>440</ele>
        <time>2015-04-18T15:58:48Z</time>
      </trkpt>
      <trkpt lat="46.1779" lon="2.48992">
        <ele>440</ele>
        <time>2015-04-18T15:58:50Z</time>
      </trkpt>
      <trkpt lat="46.17793" lon="2.48993">
        <ele>440</ele>
        <time>2015-04-18T15:58:52Z</time>
      </trkpt>
      <trkpt lat="46.17796" lon="2.48995">
        <ele>440</ele>
        <time>2015-04-18T15:58:54Z</time>
      </trkpt>
      <trkpt lat="46.17799" lon="2.48998">
        <ele>440</ele>
        <time>2015-04-18T15:58:57Z</time>
      </trkpt>
      <trkpt lat="46.17802" lon="2.49001">
        <ele>440</ele>
        <time>2015-04-18T15:59:00Z</time>
      </trkpt>
      <trkpt lat="46.17805" lon="2.49003">
        <ele>440</ele>
        <time>2015-04-18T15:59:02Z</time>
      </trkpt>
      <trkpt lat="46.17809" lon="2.49005">
        <ele>440</ele>
        <time>2015-04-18T15:59:04Z</time>
      </trkpt>
      <trkpt lat="46.17812" lon="2.49006">
        <ele>440</ele>
        <time>2015-04-18T15:59:06Z</time>
      </trkpt>
      <trkpt lat="46.17816" lon="2.49009">
        <ele>440</ele>
        <time>2015-04-18T15:59:09Z</time>
      </trkpt>
      <trkpt lat="46.17818" lon="2.49011">
        <ele>440</ele>
        <time>2015-04-18T15:59:11Z</time>
      </trkpt>
      <trkpt lat="46.17821" lon="2.49012">
        <ele>440</ele>
        <time>2015-04-18T15:59:13Z</time>
      </trkpt>
      <trkpt lat="46.17824" lon="2.49012">
        <ele>441</ele>
        <time>2015-04-18T15:59:15Z</time>
      </trkpt>
      <trkpt lat="46.17828" lon="2.49013">
        <ele>441</ele>
        <time>2015-04-18T15:59:17Z</time>
      </trkpt>
      <trkpt lat="46.17832" lon="2.49013">
        <ele>441</ele>
        <time>2015-04-18T15:59:19Z</time>
      </trkpt>
      <trkpt lat="46.17834" lon="2.49012">
        <ele>441</ele>
        <time>2015-04-18T15:59:21Z</time>
      </trkpt>
      <trkpt lat="46.17837" lon="2.49011">
        <ele>442</ele>
        <time>2015-04-18T15:59:23Z</time>
      </trkpt>
      <trkpt lat="46.1784" lon="2.49009">
        <ele>442</ele>
        <time>2015-04-18T15:59:26Z</time>
      </trkpt>
      <trkpt lat="46.17843" lon="2.49007">
        <ele>442</ele>
        <time>2015-04-18T15:59:28Z</time>
      </trkpt>
      <trkpt lat="46.17845" lon="2.49005">
        <ele>442</ele>
        <time>2015-04-18T15:59:30Z</time>
      </trkpt>
      <trkpt lat="46.17849" lon="2.49001">
        <ele>442</ele>
        <time>2015-04-18T15:59:33Z</time>
      </trkpt>
      <trkpt lat="46.17851" lon="2.48998">
        <ele>442</ele>
        <time>2015-04-18T15:59:35Z</time>
      </trkpt>
      <trkpt lat="46.17853" lon="2.48995">
        <ele>442</ele>
        <time>2015-04-18T15:59:37Z</time>
      </trkpt>
      <trkpt lat="46.17855" lon="2.48992">
        <ele>442</ele>
        <time>2015-04-18T15:59:39Z</time>
      </trkpt>
      <trkpt lat="46.17857" lon="2.48989">
        <ele>442</ele>
        <time>2015-04-18T15:59:41Z</time>
      </trkpt>
      <trkpt lat="46.1786" lon="2.48985">
        <ele>442</ele>
        <time>2015-04-18T15:59:44Z</time>
      </trkpt>
      <trkpt lat="46.17862" lon="2.48982">
        <ele>443</ele>
        <time>2015-04-18T15:59:46Z</time>
      </trkpt>
      <trkpt lat="46.17863" lon="2.48979">
        <ele>443</ele>
        <time>2015-04-18T15:59:48Z</time>
      </trkpt>
      <trkpt lat="46.17865" lon="2.48976">
        <ele>443</ele>
        <time>2015-04-18T15:59:50Z</time>
      </trkpt>
      <trkpt lat="46.17867" lon="2.48973">
        <ele>443</ele>
        <time>2015-04-18T15:59:52Z</time>
      </trkpt>
      <trkpt lat="46.17868" lon="2.48969">
        <ele>443</ele>
        <time>2015-04-18T15:59:54Z</time>
      </trkpt>
      <trkpt lat="46.17868" lon="2.48964">
        <ele>444</ele>
        <time>2015-04-18T15:59:56Z</time>
      </trkpt>
      <trkpt lat="46.17868" lon="2.4896">
        <ele>444</ele>
        <time>2015-04-18T15:59:58Z</time>
      </trkpt>
      <trkpt lat="46.17868" lon="2.48956">
        <ele>444</ele>
        <time>2015-04-18T16:00:00Z</time>
      </trkpt>
      <trkpt lat="46.17867" lon="2.48952">
        <ele>444</ele>
        <time>2015-04-18T16:00:02Z</time>
      </trkpt>
      <trkpt lat="46.17867" lon="2.48948">
        <ele>444</ele>
        <time>2015-04-18T16:00:04Z</time>
      </trkpt>
      <trkpt lat="46.17866" lon="2.48944">
        <ele>444</ele>
        <time>2015-04-18T16:00:06Z</time>
      </trkpt>
      <trkpt lat="46.17865" lon="2.4894">
        <ele>444</ele>
        <time>2015-04-18T16:00:08Z</time>
      </trkpt>
      <trkpt lat="46.17864" lon="2.48936">
        <ele>444</ele>
        <time>2015-04-18T16:00:10Z</time>
      </trkpt>
      <trkpt lat="46.17863" lon="2.48931">
        <ele>444</ele>
        <time>2015-04-18T16:00:12Z</time>
      </trkpt>
      <trkpt lat="46.17862" lon="2.48927">
        <ele>444</ele>
        <time>2015-04-18T16:00:14Z</time>
      </trkpt>
      <trkpt lat="46.17861" lon="2.48923">
        <ele>444</ele>
        <time>2015-04-18T16:00:16Z</time>
      </trkpt>
      <trkpt lat="46.1786" lon="2.48921">
        <ele>444</ele>
        <time>2015-04-18T16:00:17Z</time>
      </trkpt>
    </trkseg>
  </trk>
</gpx>